<?xml version='1.0' encoding='UTF-8'?><gpx version="1.1" creator="JPX - https://github.com/jenetics/jpx" xmlns="http://www.topografix.com/GPX/1/1"><trk><trkseg><trkpt lat="41.9119656" lon="2.2570892"><ele>505.0</ele><time>2026-03-28T07:25:14.34Z</time></trkpt><trkpt lat="41.9123203" lon="2.257068"><ele>505.0</ele><time>2026-03-28T07:25:40.682Z</time></trkpt><trkpt lat="41.9119171" lon="2.2571209"><ele>505.0</ele><time>2026-03-28T07:26:04.061Z</time></trkpt><trkpt lat="41.9123026" lon="2.2570331"><ele>505.0</ele><time>2026-03-28T07:26:22.956Z</time></trkpt><trkpt lat="41.9122617" lon="2.2571014"><ele>505.0</ele><time>2026-03-28T07:26:46.634Z</time></trkpt><trkpt lat="41.9120212" lon="2.2571294"><ele>505.0</ele><time>2026-03-28T07:26:53.606Z</time></trkpt><trkpt lat="41.9119124" lon="2.2571365"><ele>505.0</ele><time>2026-03-28T07:27:00.486Z</time></trkpt><trkpt lat="41.9122746" lon="2.2570491"><ele>505.0</ele><time>2026-03-28T07:27:20.016Z</time></trkpt><trkpt lat="41.9118704" lon="2.2571389"><ele>505.0</ele><time>2026-03-28T07:27:37.708Z</time></trkpt><trkpt lat="41.912207" lon="2.2570687"><ele>505.0</ele><time>2026-03-28T07:28:01.704Z</time></trkpt><trkpt lat="41.9124098" lon="2.2570941"><ele>505.0</ele><time>2026-03-28T07:28:11.414Z</time></trkpt><trkpt lat="41.9123233" lon="2.256998"><ele>505.0</ele><time>2026-03-28T07:28:14.417Z</time></trkpt><trkpt lat="41.9122554" lon="2.2569546"><ele>505.0</ele><time>2026-03-28T07:28:17.421Z</time></trkpt><trkpt lat="41.9122851" lon="2.2568109"><ele>505.0</ele><time>2026-03-28T07:31:52.895Z</time></trkpt><trkpt lat="41.9122956" lon="2.2566554"><ele>505.0</ele><time>2026-03-28T07:31:54.909Z</time></trkpt><trkpt lat="41.9123177" lon="2.2565166"><ele>505.0</ele><time>2026-03-28T07:31:56.918Z</time></trkpt><trkpt lat="41.9123979" lon="2.2564831"><ele>505.0</ele><time>2026-03-28T07:31:58.916Z</time></trkpt><trkpt lat="41.9125151" lon="2.2565445"><ele>505.0</ele><time>2026-03-28T07:32:00.917Z</time></trkpt><trkpt lat="41.9125855" lon="2.2565747"><ele>504.6</ele><time>2026-03-28T07:32:01.92Z</time></trkpt><trkpt lat="41.9126667" lon="2.2566006"><ele>504.2</ele><time>2026-03-28T07:32:02.925Z</time></trkpt><trkpt lat="41.912759" lon="2.2566313"><ele>503.79999999999995</ele><time>2026-03-28T07:32:03.918Z</time></trkpt><trkpt lat="41.91286" lon="2.2566626"><ele>503.4</ele><time>2026-03-28T07:32:04.929Z</time></trkpt><trkpt lat="41.9129648" lon="2.2566904"><ele>503.0</ele><time>2026-03-28T07:32:05.92Z</time></trkpt><trkpt lat="41.9130686" lon="2.256714"><ele>503.0</ele><time>2026-03-28T07:32:06.924Z</time></trkpt><trkpt lat="41.9131747" lon="2.2567413"><ele>503.0</ele><time>2026-03-28T07:32:07.92Z</time></trkpt><trkpt lat="41.9132864" lon="2.2567673"><ele>503.0</ele><time>2026-03-28T07:32:08.928Z</time></trkpt><trkpt lat="41.913398" lon="2.2567987"><ele>503.0</ele><time>2026-03-28T07:32:09.921Z</time></trkpt><trkpt lat="41.9135147" lon="2.2568314"><ele>502.0</ele><time>2026-03-28T07:32:10.926Z</time></trkpt><trkpt lat="41.9136357" lon="2.2568606"><ele>501.0</ele><time>2026-03-28T07:32:11.925Z</time></trkpt><trkpt lat="41.9137591" lon="2.2568885"><ele>500.0</ele><time>2026-03-28T07:32:12.929Z</time></trkpt><trkpt lat="41.9138837" lon="2.2568996"><ele>499.0</ele><time>2026-03-28T07:32:13.922Z</time></trkpt><trkpt lat="41.9140058" lon="2.2569084"><ele>499.0</ele><time>2026-03-28T07:32:14.931Z</time></trkpt><trkpt lat="41.9141257" lon="2.2569099"><ele>499.0</ele><time>2026-03-28T07:32:15.929Z</time></trkpt><trkpt lat="41.9142483" lon="2.2569008"><ele>499.0</ele><time>2026-03-28T07:32:16.926Z</time></trkpt><trkpt lat="41.9143686" lon="2.2568779"><ele>499.0</ele><time>2026-03-28T07:32:17.93Z</time></trkpt><trkpt lat="41.9144898" lon="2.2568521"><ele>498.0</ele><time>2026-03-28T07:32:18.93Z</time></trkpt><trkpt lat="41.9146042" lon="2.2568259"><ele>497.0</ele><time>2026-03-28T07:32:19.926Z</time></trkpt><trkpt lat="41.9147034" lon="2.2568005"><ele>496.0</ele><time>2026-03-28T07:32:20.933Z</time></trkpt><trkpt lat="41.9147986" lon="2.256788"><ele>495.0</ele><time>2026-03-28T07:32:21.932Z</time></trkpt><trkpt lat="41.9149007" lon="2.2567769"><ele>494.0</ele><time>2026-03-28T07:32:22.932Z</time></trkpt><trkpt lat="41.9150152" lon="2.2567611"><ele>493.25</ele><time>2026-03-28T07:32:23.929Z</time></trkpt><trkpt lat="41.9151433" lon="2.2567454"><ele>492.5</ele><time>2026-03-28T07:32:24.93Z</time></trkpt><trkpt lat="41.9152789" lon="2.2567354"><ele>491.75</ele><time>2026-03-28T07:32:25.931Z</time></trkpt><trkpt lat="41.9154252" lon="2.2567293"><ele>491.0</ele><time>2026-03-28T07:32:26.939Z</time></trkpt><trkpt lat="41.9155748" lon="2.2567322"><ele>491.0</ele><time>2026-03-28T07:32:27.931Z</time></trkpt><trkpt lat="41.9157282" lon="2.2567434"><ele>491.0</ele><time>2026-03-28T07:32:28.932Z</time></trkpt><trkpt lat="41.9158821" lon="2.256747"><ele>491.0</ele><time>2026-03-28T07:32:29.935Z</time></trkpt><trkpt lat="41.9160375" lon="2.2567482"><ele>490.0</ele><time>2026-03-28T07:32:30.937Z</time></trkpt><trkpt lat="41.9161885" lon="2.2567399"><ele>489.0</ele><time>2026-03-28T07:32:31.933Z</time></trkpt><trkpt lat="41.916347" lon="2.2567135"><ele>488.0</ele><time>2026-03-28T07:32:32.925Z</time></trkpt><trkpt lat="41.916503" lon="2.2566588"><ele>488.0</ele><time>2026-03-28T07:32:33.928Z</time></trkpt><trkpt lat="41.9166447" lon="2.2565982"><ele>488.0</ele><time>2026-03-28T07:32:34.935Z</time></trkpt><trkpt lat="41.9167809" lon="2.2565258"><ele>488.0</ele><time>2026-03-28T07:32:35.928Z</time></trkpt><trkpt lat="41.9169057" lon="2.2564613"><ele>488.0</ele><time>2026-03-28T07:32:36.936Z</time></trkpt><trkpt lat="41.9170206" lon="2.2563984"><ele>488.4</ele><time>2026-03-28T07:32:37.933Z</time></trkpt><trkpt lat="41.917135" lon="2.2563411"><ele>488.79999999999995</ele><time>2026-03-28T07:32:38.934Z</time></trkpt><trkpt lat="41.917243" lon="2.2562874"><ele>489.2</ele><time>2026-03-28T07:32:39.934Z</time></trkpt><trkpt lat="41.9173242" lon="2.2562391"><ele>489.6</ele><time>2026-03-28T07:32:40.929Z</time></trkpt><trkpt lat="41.9174248" lon="2.25619"><ele>490.0</ele><time>2026-03-28T07:32:42.934Z</time></trkpt><trkpt lat="41.9175123" lon="2.2561468"><ele>489.50000000000006</ele><time>2026-03-28T07:32:44.933Z</time></trkpt><trkpt lat="41.9176245" lon="2.2560822"><ele>489.0</ele><time>2026-03-28T07:32:46.932Z</time></trkpt><trkpt lat="41.9176948" lon="2.2560422"><ele>488.5</ele><time>2026-03-28T07:32:47.928Z</time></trkpt><trkpt lat="41.9177677" lon="2.256008"><ele>488.0</ele><time>2026-03-28T07:32:48.932Z</time></trkpt><trkpt lat="41.9178452" lon="2.255967"><ele>487.50000000000006</ele><time>2026-03-28T07:32:49.931Z</time></trkpt><trkpt lat="41.9179231" lon="2.2559289"><ele>487.0</ele><time>2026-03-28T07:32:50.935Z</time></trkpt><trkpt lat="41.9179961" lon="2.2558892"><ele>487.00000000000006</ele><time>2026-03-28T07:32:51.929Z</time></trkpt><trkpt lat="41.9180696" lon="2.255852"><ele>487.0</ele><time>2026-03-28T07:32:52.93Z</time></trkpt><trkpt lat="41.9181342" lon="2.2558197"><ele>487.0</ele><time>2026-03-28T07:32:53.929Z</time></trkpt><trkpt lat="41.9181985" lon="2.2557873"><ele>487.0</ele><time>2026-03-28T07:32:54.924Z</time></trkpt><trkpt lat="41.91826" lon="2.2557511"><ele>487.00000000000006</ele><time>2026-03-28T07:32:55.928Z</time></trkpt><trkpt lat="41.9183192" lon="2.2557088"><ele>487.0</ele><time>2026-03-28T07:32:56.929Z</time></trkpt><trkpt lat="41.9184218" lon="2.2556202"><ele>487.25</ele><time>2026-03-28T07:32:58.925Z</time></trkpt><trkpt lat="41.9185063" lon="2.2554987"><ele>487.5</ele><time>2026-03-28T07:33:00.93Z</time></trkpt><trkpt lat="41.9185902" lon="2.2553741"><ele>487.75</ele><time>2026-03-28T07:33:02.929Z</time></trkpt><trkpt lat="41.9186846" lon="2.2552927"><ele>488.0</ele><time>2026-03-28T07:33:04.939Z</time></trkpt><trkpt lat="41.9187858" lon="2.2552092"><ele>488.0</ele><time>2026-03-28T07:33:06.927Z</time></trkpt><trkpt lat="41.9188453" lon="2.2550699"><ele>487.99999999999994</ele><time>2026-03-28T07:33:08.926Z</time></trkpt><trkpt lat="41.9188061" lon="2.2549095"><ele>487.99999999999994</ele><time>2026-03-28T07:33:10.923Z</time></trkpt><trkpt lat="41.9187475" lon="2.2548454"><ele>488.0</ele><time>2026-03-28T07:33:11.912Z</time></trkpt><trkpt lat="41.9186773" lon="2.2548036"><ele>488.0</ele><time>2026-03-28T07:33:12.921Z</time></trkpt><trkpt lat="41.918615" lon="2.2547583"><ele>487.99999999999994</ele><time>2026-03-28T07:33:13.918Z</time></trkpt><trkpt lat="41.9185612" lon="2.2546933"><ele>488.0</ele><time>2026-03-28T07:33:14.92Z</time></trkpt><trkpt lat="41.9185261" lon="2.2545916"><ele>488.0</ele><time>2026-03-28T07:33:15.914Z</time></trkpt><trkpt lat="41.9184991" lon="2.2544779"><ele>488.0</ele><time>2026-03-28T07:33:16.923Z</time></trkpt><trkpt lat="41.91847" lon="2.2543621"><ele>487.99999999999994</ele><time>2026-03-28T07:33:17.928Z</time></trkpt><trkpt lat="41.9184321" lon="2.2542459"><ele>488.0</ele><time>2026-03-28T07:33:18.924Z</time></trkpt><trkpt lat="41.9183984" lon="2.2541256"><ele>488.0</ele><time>2026-03-28T07:33:19.927Z</time></trkpt><trkpt lat="41.9183618" lon="2.2540107"><ele>487.99999999999994</ele><time>2026-03-28T07:33:20.929Z</time></trkpt><trkpt lat="41.9183271" lon="2.2538802"><ele>487.99999999999994</ele><time>2026-03-28T07:33:21.923Z</time></trkpt><trkpt lat="41.9182985" lon="2.2537473"><ele>488.0</ele><time>2026-03-28T07:33:22.925Z</time></trkpt><trkpt lat="41.9182745" lon="2.2536144"><ele>488.0</ele><time>2026-03-28T07:33:23.931Z</time></trkpt><trkpt lat="41.9182527" lon="2.2534822"><ele>488.2</ele><time>2026-03-28T07:33:24.928Z</time></trkpt><trkpt lat="41.9182349" lon="2.2533428"><ele>488.4</ele><time>2026-03-28T07:33:25.931Z</time></trkpt><trkpt lat="41.9182273" lon="2.2532014"><ele>488.59999999999997</ele><time>2026-03-28T07:33:26.927Z</time></trkpt><trkpt lat="41.9182178" lon="2.2530551"><ele>488.79999999999995</ele><time>2026-03-28T07:33:27.929Z</time></trkpt><trkpt lat="41.9182128" lon="2.252904"><ele>489.0</ele><time>2026-03-28T07:33:28.925Z</time></trkpt><trkpt lat="41.9182187" lon="2.2527622"><ele>489.0</ele><time>2026-03-28T07:33:29.929Z</time></trkpt><trkpt lat="41.9182209" lon="2.2526136"><ele>489.0</ele><time>2026-03-28T07:33:30.927Z</time></trkpt><trkpt lat="41.9182287" lon="2.2524747"><ele>489.0</ele><time>2026-03-28T07:33:31.935Z</time></trkpt><trkpt lat="41.9182408" lon="2.2523404"><ele>489.0</ele><time>2026-03-28T07:33:32.928Z</time></trkpt><trkpt lat="41.9182665" lon="2.2522312"><ele>489.0</ele><time>2026-03-28T07:33:33.925Z</time></trkpt><trkpt lat="41.9182998" lon="2.2521266"><ele>489.2</ele><time>2026-03-28T07:33:34.932Z</time></trkpt><trkpt lat="41.9183525" lon="2.2520532"><ele>489.4</ele><time>2026-03-28T07:33:35.929Z</time></trkpt><trkpt lat="41.9184045" lon="2.2519858"><ele>489.6</ele><time>2026-03-28T07:33:36.939Z</time></trkpt><trkpt lat="41.9184502" lon="2.2518418"><ele>489.8</ele><time>2026-03-28T07:33:38.918Z</time></trkpt><trkpt lat="41.918376" lon="2.2517177"><ele>490.0</ele><time>2026-03-28T07:33:40.915Z</time></trkpt><trkpt lat="41.9183116" lon="2.2516957"><ele>490.0</ele><time>2026-03-28T07:33:41.941Z</time></trkpt><trkpt lat="41.918229" lon="2.2517088"><ele>490.0</ele><time>2026-03-28T07:33:42.918Z</time></trkpt><trkpt lat="41.918138" lon="2.251742"><ele>490.0</ele><time>2026-03-28T07:33:43.923Z</time></trkpt><trkpt lat="41.918038" lon="2.2517726"><ele>490.0</ele><time>2026-03-28T07:33:44.929Z</time></trkpt><trkpt lat="41.9179319" lon="2.2517612"><ele>490.0</ele><time>2026-03-28T07:33:45.928Z</time></trkpt><trkpt lat="41.9178247" lon="2.2517345"><ele>490.0</ele><time>2026-03-28T07:33:46.929Z</time></trkpt><trkpt lat="41.9177064" lon="2.2517063"><ele>490.0</ele><time>2026-03-28T07:33:47.935Z</time></trkpt><trkpt lat="41.9175717" lon="2.2516652"><ele>490.0</ele><time>2026-03-28T07:33:48.934Z</time></trkpt><trkpt lat="41.9174321" lon="2.2516321"><ele>490.0</ele><time>2026-03-28T07:33:49.929Z</time></trkpt><trkpt lat="41.9172944" lon="2.2515961"><ele>490.33333333333337</ele><time>2026-03-28T07:33:50.93Z</time></trkpt><trkpt lat="41.9171432" lon="2.2515646"><ele>490.66666666666663</ele><time>2026-03-28T07:33:51.928Z</time></trkpt><trkpt lat="41.9169921" lon="2.2515135"><ele>491.0</ele><time>2026-03-28T07:33:52.932Z</time></trkpt><trkpt lat="41.9168379" lon="2.2514671"><ele>490.3333333333333</ele><time>2026-03-28T07:33:53.94Z</time></trkpt><trkpt lat="41.9166744" lon="2.2514296"><ele>489.66666666666663</ele><time>2026-03-28T07:33:54.929Z</time></trkpt><trkpt lat="41.9164991" lon="2.2513791"><ele>489.0</ele><time>2026-03-28T07:33:55.932Z</time></trkpt><trkpt lat="41.9163274" lon="2.2513255"><ele>489.0</ele><time>2026-03-28T07:33:56.934Z</time></trkpt><trkpt lat="41.9161503" lon="2.2512688"><ele>489.0</ele><time>2026-03-28T07:33:57.94Z</time></trkpt><trkpt lat="41.9159708" lon="2.251217"><ele>489.0</ele><time>2026-03-28T07:33:58.939Z</time></trkpt><trkpt lat="41.9157842" lon="2.2511702"><ele>489.0</ele><time>2026-03-28T07:33:59.926Z</time></trkpt><trkpt lat="41.9155985" lon="2.2511244"><ele>489.0</ele><time>2026-03-28T07:34:00.931Z</time></trkpt><trkpt lat="41.915407" lon="2.251074"><ele>489.0</ele><time>2026-03-28T07:34:01.94Z</time></trkpt><trkpt lat="41.9152075" lon="2.2510307"><ele>489.0</ele><time>2026-03-28T07:34:02.935Z</time></trkpt><trkpt lat="41.9150223" lon="2.250975"><ele>489.0</ele><time>2026-03-28T07:34:03.938Z</time></trkpt><trkpt lat="41.9148339" lon="2.2509201"><ele>489.0</ele><time>2026-03-28T07:34:04.935Z</time></trkpt><trkpt lat="41.9146409" lon="2.2508564"><ele>489.0</ele><time>2026-03-28T07:34:05.928Z</time></trkpt><trkpt lat="41.9144534" lon="2.2508091"><ele>489.0</ele><time>2026-03-28T07:34:06.929Z</time></trkpt><trkpt lat="41.9142941" lon="2.2507592"><ele>489.0</ele><time>2026-03-28T07:34:07.919Z</time></trkpt><trkpt lat="41.9141565" lon="2.2506978"><ele>489.25</ele><time>2026-03-28T07:34:08.924Z</time></trkpt><trkpt lat="41.9140363" lon="2.2506059"><ele>489.5</ele><time>2026-03-28T07:34:09.928Z</time></trkpt><trkpt lat="41.913945" lon="2.2504666"><ele>489.75</ele><time>2026-03-28T07:34:10.929Z</time></trkpt><trkpt lat="41.9138637" lon="2.2503048"><ele>490.0</ele><time>2026-03-28T07:34:11.922Z</time></trkpt><trkpt lat="41.9137939" lon="2.2501185"><ele>490.0</ele><time>2026-03-28T07:34:12.915Z</time></trkpt><trkpt lat="41.9137304" lon="2.2499025"><ele>490.0</ele><time>2026-03-28T07:34:13.922Z</time></trkpt><trkpt lat="41.9136732" lon="2.2496848"><ele>490.0</ele><time>2026-03-28T07:34:14.925Z</time></trkpt><trkpt lat="41.9136029" lon="2.2494571"><ele>490.6666666666667</ele><time>2026-03-28T07:34:15.934Z</time></trkpt><trkpt lat="41.913523" lon="2.2492488"><ele>491.33333333333337</ele><time>2026-03-28T07:34:16.919Z</time></trkpt><trkpt lat="41.9134292" lon="2.2490751"><ele>492.0</ele><time>2026-03-28T07:34:17.931Z</time></trkpt><trkpt lat="41.9133162" lon="2.2489415"><ele>492.33333333333337</ele><time>2026-03-28T07:34:18.915Z</time></trkpt><trkpt lat="41.9131747" lon="2.2488493"><ele>492.6666666666667</ele><time>2026-03-28T07:34:19.93Z</time></trkpt><trkpt lat="41.9130003" lon="2.248834"><ele>493.0</ele><time>2026-03-28T07:34:20.929Z</time></trkpt><trkpt lat="41.9128468" lon="2.2488299"><ele>493.0</ele><time>2026-03-28T07:34:21.926Z</time></trkpt><trkpt lat="41.912685" lon="2.2488738"><ele>493.0</ele><time>2026-03-28T07:34:22.913Z</time></trkpt><trkpt lat="41.9125487" lon="2.248963"><ele>493.0</ele><time>2026-03-28T07:34:23.922Z</time></trkpt><trkpt lat="41.9123897" lon="2.2491244"><ele>492.6666666666667</ele><time>2026-03-28T07:34:24.917Z</time></trkpt><trkpt lat="41.9122406" lon="2.2492972"><ele>492.33333333333337</ele><time>2026-03-28T07:34:25.912Z</time></trkpt><trkpt lat="41.912085" lon="2.2494868"><ele>492.0</ele><time>2026-03-28T07:34:26.914Z</time></trkpt><trkpt lat="41.9119393" lon="2.249649"><ele>492.0</ele><time>2026-03-28T07:34:27.915Z</time></trkpt><trkpt lat="41.9117597" lon="2.2497455"><ele>492.0</ele><time>2026-03-28T07:34:28.92Z</time></trkpt><trkpt lat="41.9115696" lon="2.2498123"><ele>492.0</ele><time>2026-03-28T07:34:29.922Z</time></trkpt><trkpt lat="41.9113855" lon="2.2498605"><ele>492.0</ele><time>2026-03-28T07:34:30.919Z</time></trkpt><trkpt lat="41.9112091" lon="2.2498802"><ele>492.0</ele><time>2026-03-28T07:34:31.917Z</time></trkpt><trkpt lat="41.9110383" lon="2.2498816"><ele>492.0</ele><time>2026-03-28T07:34:32.915Z</time></trkpt><trkpt lat="41.910887" lon="2.2498726"><ele>492.0</ele><time>2026-03-28T07:34:33.914Z</time></trkpt><trkpt lat="41.9107433" lon="2.2498426"><ele>492.0</ele><time>2026-03-28T07:34:34.92Z</time></trkpt><trkpt lat="41.9106273" lon="2.2498012"><ele>492.0</ele><time>2026-03-28T07:34:35.914Z</time></trkpt><trkpt lat="41.9105356" lon="2.2497473"><ele>492.0</ele><time>2026-03-28T07:34:36.914Z</time></trkpt><trkpt lat="41.9104641" lon="2.2496763"><ele>492.40000000000003</ele><time>2026-03-28T07:34:37.927Z</time></trkpt><trkpt lat="41.910414" lon="2.2495892"><ele>492.80000000000007</ele><time>2026-03-28T07:34:38.915Z</time></trkpt><trkpt lat="41.9103932" lon="2.2494715"><ele>493.2</ele><time>2026-03-28T07:34:39.912Z</time></trkpt><trkpt lat="41.9103898" lon="2.2493208"><ele>493.6</ele><time>2026-03-28T07:34:40.926Z</time></trkpt><trkpt lat="41.9103581" lon="2.2491517"><ele>494.0</ele><time>2026-03-28T07:34:41.921Z</time></trkpt><trkpt lat="41.9103097" lon="2.2489956"><ele>494.25</ele><time>2026-03-28T07:34:42.925Z</time></trkpt><trkpt lat="41.9102414" lon="2.2488608"><ele>494.5</ele><time>2026-03-28T07:34:43.913Z</time></trkpt><trkpt lat="41.9101536" lon="2.2487441"><ele>494.75</ele><time>2026-03-28T07:34:44.905Z</time></trkpt><trkpt lat="41.9100625" lon="2.248669"><ele>495.0</ele><time>2026-03-28T07:34:45.904Z</time></trkpt><trkpt lat="41.909939" lon="2.2486265"><ele>495.0</ele><time>2026-03-28T07:34:46.895Z</time></trkpt><trkpt lat="41.9098003" lon="2.2486505"><ele>495.0</ele><time>2026-03-28T07:34:47.896Z</time></trkpt><trkpt lat="41.9096484" lon="2.2487633"><ele>495.0</ele><time>2026-03-28T07:34:48.894Z</time></trkpt><trkpt lat="41.9094384" lon="2.2488892"><ele>495.0</ele><time>2026-03-28T07:34:49.901Z</time></trkpt><trkpt lat="41.9092779" lon="2.2489927"><ele>495.0</ele><time>2026-03-28T07:34:50.898Z</time></trkpt><trkpt lat="41.9091146" lon="2.2490155"><ele>495.0</ele><time>2026-03-28T07:34:51.904Z</time></trkpt><trkpt lat="41.9089138" lon="2.2490137"><ele>494.66666666666663</ele><time>2026-03-28T07:34:52.898Z</time></trkpt><trkpt lat="41.9087021" lon="2.2489953"><ele>494.3333333333333</ele><time>2026-03-28T07:34:53.898Z</time></trkpt><trkpt lat="41.9084928" lon="2.2489656"><ele>494.0</ele><time>2026-03-28T07:34:54.897Z</time></trkpt><trkpt lat="41.9082683" lon="2.2489262"><ele>494.0</ele><time>2026-03-28T07:34:55.901Z</time></trkpt><trkpt lat="41.9080372" lon="2.2488877"><ele>494.0</ele><time>2026-03-28T07:34:56.905Z</time></trkpt><trkpt lat="41.9078157" lon="2.248839"><ele>494.0</ele><time>2026-03-28T07:34:57.913Z</time></trkpt><trkpt lat="41.9075676" lon="2.2487975"><ele>494.0</ele><time>2026-03-28T07:34:58.913Z</time></trkpt><trkpt lat="41.9073267" lon="2.2487605"><ele>494.0</ele><time>2026-03-28T07:34:59.916Z</time></trkpt><trkpt lat="41.907069" lon="2.2487137"><ele>494.0</ele><time>2026-03-28T07:35:00.918Z</time></trkpt><trkpt lat="41.9068087" lon="2.2486512"><ele>495.0</ele><time>2026-03-28T07:35:01.916Z</time></trkpt><trkpt lat="41.9065457" lon="2.2485856"><ele>496.0</ele><time>2026-03-28T07:35:02.915Z</time></trkpt><trkpt lat="41.9062827" lon="2.2485279"><ele>496.0</ele><time>2026-03-28T07:35:03.914Z</time></trkpt><trkpt lat="41.9060146" lon="2.2484565"><ele>496.0</ele><time>2026-03-28T07:35:04.923Z</time></trkpt><trkpt lat="41.9057183" lon="2.2483979"><ele>496.5</ele><time>2026-03-28T07:35:05.919Z</time></trkpt><trkpt lat="41.905435" lon="2.2483237"><ele>497.0</ele><time>2026-03-28T07:35:06.919Z</time></trkpt><trkpt lat="41.9051573" lon="2.2482511"><ele>498.0</ele><time>2026-03-28T07:35:07.919Z</time></trkpt><trkpt lat="41.9048803" lon="2.2481767"><ele>499.0</ele><time>2026-03-28T07:35:08.925Z</time></trkpt><trkpt lat="41.9046024" lon="2.2480979"><ele>499.5</ele><time>2026-03-28T07:35:09.922Z</time></trkpt><trkpt lat="41.9043315" lon="2.2480217"><ele>500.0</ele><time>2026-03-28T07:35:10.92Z</time></trkpt><trkpt lat="41.9040597" lon="2.2479474"><ele>500.0</ele><time>2026-03-28T07:35:11.917Z</time></trkpt><trkpt lat="41.9037904" lon="2.2478746"><ele>500.0</ele><time>2026-03-28T07:35:12.916Z</time></trkpt><trkpt lat="41.9035273" lon="2.2478035"><ele>499.0</ele><time>2026-03-28T07:35:13.924Z</time></trkpt><trkpt lat="41.9032774" lon="2.2477326"><ele>498.0</ele><time>2026-03-28T07:35:14.916Z</time></trkpt><trkpt lat="41.9030274" lon="2.2476692"><ele>498.0</ele><time>2026-03-28T07:35:15.916Z</time></trkpt><trkpt lat="41.9027902" lon="2.2476022"><ele>498.0</ele><time>2026-03-28T07:35:16.918Z</time></trkpt><trkpt lat="41.9025428" lon="2.2475363"><ele>499.0</ele><time>2026-03-28T07:35:17.918Z</time></trkpt><trkpt lat="41.9022953" lon="2.2474606"><ele>500.0</ele><time>2026-03-28T07:35:18.918Z</time></trkpt><trkpt lat="41.9020353" lon="2.2473888"><ele>500.0</ele><time>2026-03-28T07:35:19.923Z</time></trkpt><trkpt lat="41.9017705" lon="2.2473215"><ele>500.0</ele><time>2026-03-28T07:35:20.922Z</time></trkpt><trkpt lat="41.9014893" lon="2.2472569"><ele>500.0</ele><time>2026-03-28T07:35:21.924Z</time></trkpt><trkpt lat="41.9012124" lon="2.2471876"><ele>500.0</ele><time>2026-03-28T07:35:22.922Z</time></trkpt><trkpt lat="41.9009472" lon="2.2470965"><ele>499.5</ele><time>2026-03-28T07:35:23.926Z</time></trkpt><trkpt lat="41.9006672" lon="2.2470154"><ele>499.0</ele><time>2026-03-28T07:35:24.922Z</time></trkpt><trkpt lat="41.9003922" lon="2.2469357"><ele>499.0</ele><time>2026-03-28T07:35:25.924Z</time></trkpt><trkpt lat="41.9001174" lon="2.2468616"><ele>499.0</ele><time>2026-03-28T07:35:26.922Z</time></trkpt><trkpt lat="41.8998296" lon="2.2467885"><ele>499.5</ele><time>2026-03-28T07:35:27.921Z</time></trkpt><trkpt lat="41.8995684" lon="2.2467081"><ele>500.0</ele><time>2026-03-28T07:35:28.922Z</time></trkpt><trkpt lat="41.8992941" lon="2.2466334"><ele>501.0</ele><time>2026-03-28T07:35:29.922Z</time></trkpt><trkpt lat="41.8990172" lon="2.246558"><ele>502.0</ele><time>2026-03-28T07:35:30.925Z</time></trkpt><trkpt lat="41.8987361" lon="2.2464761"><ele>502.5</ele><time>2026-03-28T07:35:31.929Z</time></trkpt><trkpt lat="41.8984452" lon="2.2464095"><ele>503.0</ele><time>2026-03-28T07:35:32.922Z</time></trkpt><trkpt lat="41.8981436" lon="2.2463359"><ele>504.0</ele><time>2026-03-28T07:35:33.922Z</time></trkpt><trkpt lat="41.8978415" lon="2.2462675"><ele>505.0</ele><time>2026-03-28T07:35:34.927Z</time></trkpt><trkpt lat="41.8975286" lon="2.2461908"><ele>505.5</ele><time>2026-03-28T07:35:35.921Z</time></trkpt><trkpt lat="41.8972316" lon="2.2461174"><ele>506.0</ele><time>2026-03-28T07:35:36.924Z</time></trkpt><trkpt lat="41.8969255" lon="2.2460382"><ele>506.5</ele><time>2026-03-28T07:35:37.922Z</time></trkpt><trkpt lat="41.8966342" lon="2.2459498"><ele>507.0</ele><time>2026-03-28T07:35:38.921Z</time></trkpt><trkpt lat="41.8963374" lon="2.2458686"><ele>507.0</ele><time>2026-03-28T07:35:39.926Z</time></trkpt><trkpt lat="41.8960511" lon="2.2457888"><ele>507.0</ele><time>2026-03-28T07:35:40.922Z</time></trkpt><trkpt lat="41.895764" lon="2.2457033"><ele>508.5</ele><time>2026-03-28T07:35:41.92Z</time></trkpt><trkpt lat="41.8954614" lon="2.2456171"><ele>510.0</ele><time>2026-03-28T07:35:42.921Z</time></trkpt><trkpt lat="41.8951684" lon="2.2455247"><ele>511.0</ele><time>2026-03-28T07:35:43.92Z</time></trkpt><trkpt lat="41.8948656" lon="2.245452"><ele>512.0</ele><time>2026-03-28T07:35:44.928Z</time></trkpt><trkpt lat="41.8945695" lon="2.2453745"><ele>512.0</ele><time>2026-03-28T07:35:45.917Z</time></trkpt><trkpt lat="41.8942731" lon="2.2453008"><ele>512.0</ele><time>2026-03-28T07:35:46.919Z</time></trkpt><trkpt lat="41.893981" lon="2.2452177"><ele>512.0</ele><time>2026-03-28T07:35:47.907Z</time></trkpt><trkpt lat="41.8936787" lon="2.2451245"><ele>512.0</ele><time>2026-03-28T07:35:48.923Z</time></trkpt><trkpt lat="41.8933804" lon="2.2450482"><ele>512.0</ele><time>2026-03-28T07:35:49.917Z</time></trkpt><trkpt lat="41.8930789" lon="2.2449653"><ele>512.0</ele><time>2026-03-28T07:35:50.917Z</time></trkpt><trkpt lat="41.8927691" lon="2.2448792"><ele>513.0</ele><time>2026-03-28T07:35:51.921Z</time></trkpt><trkpt lat="41.8924639" lon="2.2447933"><ele>514.0</ele><time>2026-03-28T07:35:52.922Z</time></trkpt><trkpt lat="41.8921537" lon="2.244711"><ele>514.0</ele><time>2026-03-28T07:35:53.922Z</time></trkpt><trkpt lat="41.8918583" lon="2.2446254"><ele>514.0</ele><time>2026-03-28T07:35:54.92Z</time></trkpt><trkpt lat="41.8915539" lon="2.2445355"><ele>515.0</ele><time>2026-03-28T07:35:55.918Z</time></trkpt><trkpt lat="41.8912483" lon="2.2444527"><ele>516.0</ele><time>2026-03-28T07:35:56.923Z</time></trkpt><trkpt lat="41.8909323" lon="2.2443684"><ele>515.5</ele><time>2026-03-28T07:35:57.918Z</time></trkpt><trkpt lat="41.8906377" lon="2.2442807"><ele>515.0</ele><time>2026-03-28T07:35:58.919Z</time></trkpt><trkpt lat="41.8903395" lon="2.2441908"><ele>515.0</ele><time>2026-03-28T07:35:59.922Z</time></trkpt><trkpt lat="41.890041" lon="2.2441059"><ele>515.0</ele><time>2026-03-28T07:36:00.918Z</time></trkpt><trkpt lat="41.8897294" lon="2.2440187"><ele>514.0</ele><time>2026-03-28T07:36:01.922Z</time></trkpt><trkpt lat="41.8894069" lon="2.2439181"><ele>513.0</ele><time>2026-03-28T07:36:02.917Z</time></trkpt><trkpt lat="41.8890946" lon="2.2438261"><ele>515.0</ele><time>2026-03-28T07:36:03.916Z</time></trkpt><trkpt lat="41.8887877" lon="2.2437439"><ele>517.0</ele><time>2026-03-28T07:36:04.922Z</time></trkpt><trkpt lat="41.8884795" lon="2.2436534"><ele>517.0</ele><time>2026-03-28T07:36:05.921Z</time></trkpt><trkpt lat="41.8881766" lon="2.2435637"><ele>517.0</ele><time>2026-03-28T07:36:06.92Z</time></trkpt><trkpt lat="41.8878852" lon="2.2434662"><ele>518.0</ele><time>2026-03-28T07:36:07.919Z</time></trkpt><trkpt lat="41.8875833" lon="2.2433799"><ele>519.0</ele><time>2026-03-28T07:36:08.921Z</time></trkpt><trkpt lat="41.8872729" lon="2.2432959"><ele>519.0</ele><time>2026-03-28T07:36:09.924Z</time></trkpt><trkpt lat="41.8869616" lon="2.2432184"><ele>519.0</ele><time>2026-03-28T07:36:10.921Z</time></trkpt><trkpt lat="41.8866572" lon="2.2431187"><ele>519.0</ele><time>2026-03-28T07:36:11.921Z</time></trkpt><trkpt lat="41.8863496" lon="2.2430312"><ele>519.0</ele><time>2026-03-28T07:36:12.919Z</time></trkpt><trkpt lat="41.8860338" lon="2.2429459"><ele>521.0</ele><time>2026-03-28T07:36:13.918Z</time></trkpt><trkpt lat="41.8857237" lon="2.2428571"><ele>523.0</ele><time>2026-03-28T07:36:14.916Z</time></trkpt><trkpt lat="41.8854124" lon="2.2427624"><ele>523.0</ele><time>2026-03-28T07:36:15.925Z</time></trkpt><trkpt lat="41.8851188" lon="2.2426537"><ele>523.0</ele><time>2026-03-28T07:36:16.909Z</time></trkpt><trkpt lat="41.8848189" lon="2.2425311"><ele>528.0</ele><time>2026-03-28T07:36:17.9Z</time></trkpt><trkpt lat="41.8845067" lon="2.2423953"><ele>533.0</ele><time>2026-03-28T07:36:18.907Z</time></trkpt><trkpt lat="41.8842351" lon="2.2423125"><ele>534.0</ele><time>2026-03-28T07:36:19.895Z</time></trkpt><trkpt lat="41.8839604" lon="2.242166"><ele>535.0</ele><time>2026-03-28T07:36:20.879Z</time></trkpt><trkpt lat="41.8837312" lon="2.241925"><ele>535.0</ele><time>2026-03-28T07:36:21.89Z</time></trkpt><trkpt lat="41.8835248" lon="2.2417376"><ele>535.0</ele><time>2026-03-28T07:36:22.891Z</time></trkpt><trkpt lat="41.8833223" lon="2.2415939"><ele>535.0</ele><time>2026-03-28T07:36:23.906Z</time></trkpt><trkpt lat="41.8830864" lon="2.2414738"><ele>535.0</ele><time>2026-03-28T07:36:24.904Z</time></trkpt><trkpt lat="41.8828906" lon="2.2413265"><ele>535.0</ele><time>2026-03-28T07:36:25.916Z</time></trkpt><trkpt lat="41.8827126" lon="2.2412118"><ele>535.0</ele><time>2026-03-28T07:36:26.916Z</time></trkpt><trkpt lat="41.8825499" lon="2.2411044"><ele>535.0</ele><time>2026-03-28T07:36:27.913Z</time></trkpt><trkpt lat="41.8824131" lon="2.2409976"><ele>535.0</ele><time>2026-03-28T07:36:28.916Z</time></trkpt><trkpt lat="41.8822945" lon="2.2408807"><ele>535.0</ele><time>2026-03-28T07:36:29.91Z</time></trkpt><trkpt lat="41.8821836" lon="2.2407452"><ele>535.0</ele><time>2026-03-28T07:36:30.912Z</time></trkpt><trkpt lat="41.8820818" lon="2.2406055"><ele>535.0</ele><time>2026-03-28T07:36:31.913Z</time></trkpt><trkpt lat="41.8819868" lon="2.2404458"><ele>535.75</ele><time>2026-03-28T07:36:32.908Z</time></trkpt><trkpt lat="41.8819031" lon="2.2402983"><ele>536.5</ele><time>2026-03-28T07:36:33.919Z</time></trkpt><trkpt lat="41.8818622" lon="2.2401542"><ele>537.25</ele><time>2026-03-28T07:36:34.921Z</time></trkpt><trkpt lat="41.8817842" lon="2.2400225"><ele>538.0</ele><time>2026-03-28T07:36:35.908Z</time></trkpt><trkpt lat="41.8817754" lon="2.2398921"><ele>538.0</ele><time>2026-03-28T07:36:36.907Z</time></trkpt><trkpt lat="41.8817635" lon="2.2398037"><ele>538.0</ele><time>2026-03-28T07:36:37.915Z</time></trkpt><trkpt lat="41.8817767" lon="2.2396738"><ele>538.0</ele><time>2026-03-28T07:36:39.892Z</time></trkpt><trkpt lat="41.881767" lon="2.2395756"><ele>538.0</ele><time>2026-03-28T07:36:40.896Z</time></trkpt><trkpt lat="41.8817593" lon="2.2394723"><ele>538.0</ele><time>2026-03-28T07:36:41.894Z</time></trkpt><trkpt lat="41.8817409" lon="2.2393647"><ele>538.0</ele><time>2026-03-28T07:36:42.902Z</time></trkpt><trkpt lat="41.8817106" lon="2.2392425"><ele>538.0</ele><time>2026-03-28T07:36:43.904Z</time></trkpt><trkpt lat="41.8816603" lon="2.2390882"><ele>538.0</ele><time>2026-03-28T07:36:44.901Z</time></trkpt><trkpt lat="41.8815861" lon="2.2388859"><ele>538.0</ele><time>2026-03-28T07:36:45.896Z</time></trkpt><trkpt lat="41.8814924" lon="2.2386106"><ele>539.5</ele><time>2026-03-28T07:36:46.909Z</time></trkpt><trkpt lat="41.8814137" lon="2.2383314"><ele>541.0</ele><time>2026-03-28T07:36:47.905Z</time></trkpt><trkpt lat="41.8813274" lon="2.2380168"><ele>541.5</ele><time>2026-03-28T07:36:48.901Z</time></trkpt><trkpt lat="41.8812308" lon="2.2376818"><ele>542.0</ele><time>2026-03-28T07:36:49.9Z</time></trkpt><trkpt lat="41.8811364" lon="2.2373336"><ele>542.0</ele><time>2026-03-28T07:36:50.914Z</time></trkpt><trkpt lat="41.8810414" lon="2.2369503"><ele>542.0</ele><time>2026-03-28T07:36:51.903Z</time></trkpt><trkpt lat="41.8809464" lon="2.2365563"><ele>542.5</ele><time>2026-03-28T07:36:52.911Z</time></trkpt><trkpt lat="41.8808436" lon="2.2361335"><ele>543.0</ele><time>2026-03-28T07:36:53.912Z</time></trkpt><trkpt lat="41.8807315" lon="2.2356937"><ele>543.0</ele><time>2026-03-28T07:36:54.91Z</time></trkpt><trkpt lat="41.8806096" lon="2.2352528"><ele>543.0</ele><time>2026-03-28T07:36:55.916Z</time></trkpt><trkpt lat="41.8804864" lon="2.2347988"><ele>544.0</ele><time>2026-03-28T07:36:56.909Z</time></trkpt><trkpt lat="41.8803512" lon="2.2343359"><ele>545.0</ele><time>2026-03-28T07:36:57.914Z</time></trkpt><trkpt lat="41.8802122" lon="2.2338609"><ele>546.0</ele><time>2026-03-28T07:36:58.913Z</time></trkpt><trkpt lat="41.8800975" lon="2.2333845"><ele>547.0</ele><time>2026-03-28T07:36:59.914Z</time></trkpt><trkpt lat="41.879962" lon="2.2329059"><ele>547.5</ele><time>2026-03-28T07:37:00.909Z</time></trkpt><trkpt lat="41.8798554" lon="2.2324498"><ele>548.0</ele><time>2026-03-28T07:37:01.91Z</time></trkpt><trkpt lat="41.8797591" lon="2.2320491"><ele>549.5</ele><time>2026-03-28T07:37:02.902Z</time></trkpt><trkpt lat="41.8796583" lon="2.2316828"><ele>551.0</ele><time>2026-03-28T07:37:03.905Z</time></trkpt><trkpt lat="41.8795497" lon="2.2313046"><ele>552.0</ele><time>2026-03-28T07:37:04.912Z</time></trkpt><trkpt lat="41.8794595" lon="2.230945"><ele>553.0</ele><time>2026-03-28T07:37:05.898Z</time></trkpt><trkpt lat="41.8793662" lon="2.2306168"><ele>553.6666666666667</ele><time>2026-03-28T07:37:06.904Z</time></trkpt><trkpt lat="41.8792733" lon="2.2303363"><ele>554.3333333333334</ele><time>2026-03-28T07:37:07.911Z</time></trkpt><trkpt lat="41.8791883" lon="2.2301074"><ele>555.0</ele><time>2026-03-28T07:37:08.902Z</time></trkpt><trkpt lat="41.8790623" lon="2.2298781"><ele>557.0</ele><time>2026-03-28T07:37:09.897Z</time></trkpt><trkpt lat="41.8789341" lon="2.2296444"><ele>559.0</ele><time>2026-03-28T07:37:10.918Z</time></trkpt><trkpt lat="41.8787378" lon="2.2293693"><ele>559.0</ele><time>2026-03-28T07:37:11.911Z</time></trkpt><trkpt lat="41.8785543" lon="2.2291222"><ele>559.0</ele><time>2026-03-28T07:37:12.908Z</time></trkpt><trkpt lat="41.8783382" lon="2.2288761"><ele>561.5</ele><time>2026-03-28T07:37:13.915Z</time></trkpt><trkpt lat="41.878128" lon="2.2285649"><ele>564.0</ele><time>2026-03-28T07:37:14.908Z</time></trkpt><trkpt lat="41.8779185" lon="2.2282428"><ele>563.5</ele><time>2026-03-28T07:37:15.906Z</time></trkpt><trkpt lat="41.8777098" lon="2.2279795"><ele>563.0</ele><time>2026-03-28T07:37:16.92Z</time></trkpt><trkpt lat="41.8774835" lon="2.2277453"><ele>563.5</ele><time>2026-03-28T07:37:17.922Z</time></trkpt><trkpt lat="41.8772101" lon="2.2275246"><ele>564.0</ele><time>2026-03-28T07:37:18.908Z</time></trkpt><trkpt lat="41.8769241" lon="2.2273048"><ele>566.0</ele><time>2026-03-28T07:37:19.915Z</time></trkpt><trkpt lat="41.876683" lon="2.2270912"><ele>568.0</ele><time>2026-03-28T07:37:20.916Z</time></trkpt><trkpt lat="41.8764669" lon="2.2268926"><ele>568.0</ele><time>2026-03-28T07:37:21.905Z</time></trkpt><trkpt lat="41.8762689" lon="2.2267061"><ele>568.0</ele><time>2026-03-28T07:37:22.897Z</time></trkpt><trkpt lat="41.8761147" lon="2.2265443"><ele>568.0</ele><time>2026-03-28T07:37:23.91Z</time></trkpt><trkpt lat="41.8759833" lon="2.2263584"><ele>572.0</ele><time>2026-03-28T07:37:24.914Z</time></trkpt><trkpt lat="41.8758797" lon="2.2261288"><ele>576.0</ele><time>2026-03-28T07:37:25.911Z</time></trkpt><trkpt lat="41.8758042" lon="2.225873"><ele>580.0</ele><time>2026-03-28T07:37:26.907Z</time></trkpt><trkpt lat="41.8757525" lon="2.2256183"><ele>580.0</ele><time>2026-03-28T07:37:27.896Z</time></trkpt><trkpt lat="41.8757262" lon="2.2253569"><ele>580.0</ele><time>2026-03-28T07:37:28.905Z</time></trkpt><trkpt lat="41.8757285" lon="2.2250975"><ele>580.0</ele><time>2026-03-28T07:37:29.9Z</time></trkpt><trkpt lat="41.8757665" lon="2.2248201"><ele>583.0</ele><time>2026-03-28T07:37:30.904Z</time></trkpt><trkpt lat="41.8758249" lon="2.2245257"><ele>586.0</ele><time>2026-03-28T07:37:31.894Z</time></trkpt><trkpt lat="41.8758897" lon="2.2242015"><ele>581.5</ele><time>2026-03-28T07:37:32.899Z</time></trkpt><trkpt lat="41.8759611" lon="2.2238705"><ele>577.0</ele><time>2026-03-28T07:37:33.904Z</time></trkpt><trkpt lat="41.8760231" lon="2.2235902"><ele>577.0</ele><time>2026-03-28T07:37:34.92Z</time></trkpt><trkpt lat="41.8760673" lon="2.2233739"><ele>577.0</ele><time>2026-03-28T07:37:35.916Z</time></trkpt><trkpt lat="41.8760558" lon="2.2232148"><ele>577.0</ele><time>2026-03-28T07:37:36.911Z</time></trkpt><trkpt lat="41.8760121" lon="2.2230618"><ele>577.0</ele><time>2026-03-28T07:37:37.923Z</time></trkpt><trkpt lat="41.8759184" lon="2.2229437"><ele>580.6666666666667</ele><time>2026-03-28T07:37:38.925Z</time></trkpt><trkpt lat="41.8757763" lon="2.2228311"><ele>584.3333333333334</ele><time>2026-03-28T07:37:39.925Z</time></trkpt><trkpt lat="41.8756096" lon="2.222672"><ele>588.0</ele><time>2026-03-28T07:37:40.927Z</time></trkpt><trkpt lat="41.8754853" lon="2.2224522"><ele>587.5</ele><time>2026-03-28T07:37:41.923Z</time></trkpt><trkpt lat="41.8753761" lon="2.222173"><ele>587.0</ele><time>2026-03-28T07:37:42.918Z</time></trkpt><trkpt lat="41.875274" lon="2.221869"><ele>587.0</ele><time>2026-03-28T07:37:43.905Z</time></trkpt><trkpt lat="41.8751382" lon="2.2215737"><ele>587.0</ele><time>2026-03-28T07:37:44.922Z</time></trkpt><trkpt lat="41.8749676" lon="2.2212954"><ele>591.0</ele><time>2026-03-28T07:37:45.917Z</time></trkpt><trkpt lat="41.8747859" lon="2.2210153"><ele>595.0</ele><time>2026-03-28T07:37:46.919Z</time></trkpt><trkpt lat="41.8746052" lon="2.2207214"><ele>591.5</ele><time>2026-03-28T07:37:47.909Z</time></trkpt><trkpt lat="41.8744582" lon="2.2203886"><ele>588.0</ele><time>2026-03-28T07:37:48.927Z</time></trkpt><trkpt lat="41.8743047" lon="2.2200499"><ele>594.0</ele><time>2026-03-28T07:37:49.917Z</time></trkpt><trkpt lat="41.8741732" lon="2.2197146"><ele>600.0</ele><time>2026-03-28T07:37:50.917Z</time></trkpt><trkpt lat="41.8740787" lon="2.2194214"><ele>600.0</ele><time>2026-03-28T07:37:51.918Z</time></trkpt><trkpt lat="41.8739774" lon="2.2191755"><ele>600.0</ele><time>2026-03-28T07:37:52.908Z</time></trkpt><trkpt lat="41.8738409" lon="2.2189305"><ele>600.0</ele><time>2026-03-28T07:37:53.917Z</time></trkpt><trkpt lat="41.8737137" lon="2.218715"><ele>602.0</ele><time>2026-03-28T07:37:54.921Z</time></trkpt><trkpt lat="41.8735776" lon="2.2185474"><ele>604.0</ele><time>2026-03-28T07:37:55.915Z</time></trkpt><trkpt lat="41.8733796" lon="2.218415"><ele>606.0</ele><time>2026-03-28T07:37:56.923Z</time></trkpt><trkpt lat="41.8731291" lon="2.2183127"><ele>606.0</ele><time>2026-03-28T07:37:57.914Z</time></trkpt><trkpt lat="41.8728682" lon="2.2182022"><ele>606.0</ele><time>2026-03-28T07:37:58.921Z</time></trkpt><trkpt lat="41.8725636" lon="2.2181102"><ele>608.5</ele><time>2026-03-28T07:37:59.928Z</time></trkpt><trkpt lat="41.8722525" lon="2.2179983"><ele>611.0</ele><time>2026-03-28T07:38:00.92Z</time></trkpt><trkpt lat="41.8719353" lon="2.217875"><ele>612.0</ele><time>2026-03-28T07:38:01.928Z</time></trkpt><trkpt lat="41.8715964" lon="2.217732"><ele>613.0</ele><time>2026-03-28T07:38:02.918Z</time></trkpt><trkpt lat="41.8712475" lon="2.2175935"><ele>615.5</ele><time>2026-03-28T07:38:03.925Z</time></trkpt><trkpt lat="41.8708862" lon="2.2174502"><ele>618.0</ele><time>2026-03-28T07:38:04.941Z</time></trkpt><trkpt lat="41.8705179" lon="2.2173004"><ele>619.5</ele><time>2026-03-28T07:38:05.932Z</time></trkpt><trkpt lat="41.8701558" lon="2.2171634"><ele>621.0</ele><time>2026-03-28T07:38:06.925Z</time></trkpt><trkpt lat="41.8698282" lon="2.2170382"><ele>622.0</ele><time>2026-03-28T07:38:07.925Z</time></trkpt><trkpt lat="41.8695322" lon="2.2168976"><ele>623.0</ele><time>2026-03-28T07:38:08.931Z</time></trkpt><trkpt lat="41.8692473" lon="2.2167359"><ele>623.5</ele><time>2026-03-28T07:38:09.94Z</time></trkpt><trkpt lat="41.8689875" lon="2.2165736"><ele>624.0</ele><time>2026-03-28T07:38:10.933Z</time></trkpt><trkpt lat="41.8687079" lon="2.216386"><ele>624.5</ele><time>2026-03-28T07:38:11.936Z</time></trkpt><trkpt lat="41.8684217" lon="2.2161815"><ele>625.0</ele><time>2026-03-28T07:38:12.936Z</time></trkpt><trkpt lat="41.8681325" lon="2.2159678"><ele>625.0</ele><time>2026-03-28T07:38:13.937Z</time></trkpt><trkpt lat="41.8678406" lon="2.2157474"><ele>625.0</ele><time>2026-03-28T07:38:14.937Z</time></trkpt><trkpt lat="41.8675435" lon="2.2155075"><ele>625.5</ele><time>2026-03-28T07:38:15.936Z</time></trkpt><trkpt lat="41.8672276" lon="2.2152692"><ele>626.0</ele><time>2026-03-28T07:38:16.935Z</time></trkpt><trkpt lat="41.8668994" lon="2.2150201"><ele>627.0</ele><time>2026-03-28T07:38:17.941Z</time></trkpt><trkpt lat="41.8665633" lon="2.214777"><ele>628.0</ele><time>2026-03-28T07:38:18.944Z</time></trkpt><trkpt lat="41.8662354" lon="2.2145252"><ele>628.0</ele><time>2026-03-28T07:38:19.958Z</time></trkpt><trkpt lat="41.8659517" lon="2.2142895"><ele>628.0</ele><time>2026-03-28T07:38:20.935Z</time></trkpt><trkpt lat="41.8656942" lon="2.2140475"><ele>630.5</ele><time>2026-03-28T07:38:21.931Z</time></trkpt><trkpt lat="41.8654723" lon="2.213793"><ele>633.0</ele><time>2026-03-28T07:38:22.936Z</time></trkpt><trkpt lat="41.8652695" lon="2.2135242"><ele>634.5</ele><time>2026-03-28T07:38:23.938Z</time></trkpt><trkpt lat="41.8650854" lon="2.213234"><ele>636.0</ele><time>2026-03-28T07:38:24.941Z</time></trkpt><trkpt lat="41.8649138" lon="2.2129261"><ele>636.0</ele><time>2026-03-28T07:38:25.935Z</time></trkpt><trkpt lat="41.8647447" lon="2.2125845"><ele>636.0</ele><time>2026-03-28T07:38:26.948Z</time></trkpt><trkpt lat="41.8645918" lon="2.2122073"><ele>638.0</ele><time>2026-03-28T07:38:27.928Z</time></trkpt><trkpt lat="41.8644403" lon="2.2117956"><ele>640.0</ele><time>2026-03-28T07:38:28.927Z</time></trkpt><trkpt lat="41.8642698" lon="2.211373"><ele>640.0</ele><time>2026-03-28T07:38:29.942Z</time></trkpt><trkpt lat="41.8640975" lon="2.2109295"><ele>640.0</ele><time>2026-03-28T07:38:30.94Z</time></trkpt><trkpt lat="41.8639112" lon="2.2104713"><ele>642.0</ele><time>2026-03-28T07:38:31.943Z</time></trkpt><trkpt lat="41.8637253" lon="2.2099934"><ele>644.0</ele><time>2026-03-28T07:38:32.937Z</time></trkpt><trkpt lat="41.8635399" lon="2.2095157"><ele>644.0</ele><time>2026-03-28T07:38:33.936Z</time></trkpt><trkpt lat="41.8633493" lon="2.2090262"><ele>644.0</ele><time>2026-03-28T07:38:34.941Z</time></trkpt><trkpt lat="41.8631569" lon="2.208538"><ele>645.0</ele><time>2026-03-28T07:38:35.943Z</time></trkpt><trkpt lat="41.8629688" lon="2.2080767"><ele>646.0</ele><time>2026-03-28T07:38:36.943Z</time></trkpt><trkpt lat="41.8628005" lon="2.2076536"><ele>648.5</ele><time>2026-03-28T07:38:37.926Z</time></trkpt><trkpt lat="41.8626462" lon="2.2072623"><ele>651.0</ele><time>2026-03-28T07:38:38.942Z</time></trkpt><trkpt lat="41.8624929" lon="2.2068962"><ele>646.5</ele><time>2026-03-28T07:38:39.929Z</time></trkpt><trkpt lat="41.8623299" lon="2.206553"><ele>642.0</ele><time>2026-03-28T07:38:40.927Z</time></trkpt><trkpt lat="41.8621321" lon="2.2062116"><ele>642.0</ele><time>2026-03-28T07:38:41.931Z</time></trkpt><trkpt lat="41.8618888" lon="2.2059068"><ele>642.0</ele><time>2026-03-28T07:38:42.921Z</time></trkpt><trkpt lat="41.8616352" lon="2.2055942"><ele>643.0</ele><time>2026-03-28T07:38:43.926Z</time></trkpt><trkpt lat="41.8613634" lon="2.2052719"><ele>644.0</ele><time>2026-03-28T07:38:44.931Z</time></trkpt><trkpt lat="41.861119" lon="2.2049753"><ele>647.0</ele><time>2026-03-28T07:38:45.931Z</time></trkpt><trkpt lat="41.8608951" lon="2.2046923"><ele>650.0</ele><time>2026-03-28T07:38:46.93Z</time></trkpt><trkpt lat="41.8606966" lon="2.2044271"><ele>650.0</ele><time>2026-03-28T07:38:47.946Z</time></trkpt><trkpt lat="41.8605185" lon="2.2041867"><ele>650.0</ele><time>2026-03-28T07:38:48.934Z</time></trkpt><trkpt lat="41.860351" lon="2.2039363"><ele>652.5</ele><time>2026-03-28T07:38:49.947Z</time></trkpt><trkpt lat="41.8601702" lon="2.2036504"><ele>655.0</ele><time>2026-03-28T07:38:50.935Z</time></trkpt><trkpt lat="41.8599841" lon="2.2033434"><ele>658.0</ele><time>2026-03-28T07:38:51.936Z</time></trkpt><trkpt lat="41.8598157" lon="2.20299"><ele>661.0</ele><time>2026-03-28T07:38:52.942Z</time></trkpt><trkpt lat="41.8596388" lon="2.2025907"><ele>664.0</ele><time>2026-03-28T07:38:53.936Z</time></trkpt><trkpt lat="41.8594601" lon="2.2021734"><ele>667.0</ele><time>2026-03-28T07:38:54.939Z</time></trkpt><trkpt lat="41.859293" lon="2.2018255"><ele>666.5</ele><time>2026-03-28T07:38:55.938Z</time></trkpt><trkpt lat="41.8591377" lon="2.2015484"><ele>666.0</ele><time>2026-03-28T07:38:56.935Z</time></trkpt><trkpt lat="41.8589824" lon="2.2013311"><ele>666.0</ele><time>2026-03-28T07:38:57.923Z</time></trkpt><trkpt lat="41.8587933" lon="2.2011838"><ele>666.0</ele><time>2026-03-28T07:38:58.926Z</time></trkpt><trkpt lat="41.8586084" lon="2.2010993"><ele>666.0</ele><time>2026-03-28T07:38:59.929Z</time></trkpt><trkpt lat="41.858386" lon="2.2010492"><ele>664.5</ele><time>2026-03-28T07:39:00.925Z</time></trkpt><trkpt lat="41.858134" lon="2.2010277"><ele>663.0</ele><time>2026-03-28T07:39:01.915Z</time></trkpt><trkpt lat="41.8578585" lon="2.2010261"><ele>663.0</ele><time>2026-03-28T07:39:02.915Z</time></trkpt><trkpt lat="41.8575471" lon="2.2010482"><ele>663.0</ele><time>2026-03-28T07:39:03.915Z</time></trkpt><trkpt lat="41.8572201" lon="2.2010945"><ele>663.0</ele><time>2026-03-28T07:39:04.936Z</time></trkpt><trkpt lat="41.8569369" lon="2.2011422"><ele>663.0</ele><time>2026-03-28T07:39:05.936Z</time></trkpt><trkpt lat="41.8567053" lon="2.2012204"><ele>664.5</ele><time>2026-03-28T07:39:06.941Z</time></trkpt><trkpt lat="41.8564863" lon="2.2013499"><ele>666.0</ele><time>2026-03-28T07:39:07.936Z</time></trkpt><trkpt lat="41.8562708" lon="2.2015205"><ele>669.0</ele><time>2026-03-28T07:39:08.926Z</time></trkpt><trkpt lat="41.8560681" lon="2.201705"><ele>672.0</ele><time>2026-03-28T07:39:09.912Z</time></trkpt><trkpt lat="41.8558921" lon="2.2018735"><ele>672.0</ele><time>2026-03-28T07:39:10.923Z</time></trkpt><trkpt lat="41.8557457" lon="2.201976"><ele>672.0</ele><time>2026-03-28T07:39:11.926Z</time></trkpt><trkpt lat="41.8555985" lon="2.2020097"><ele>672.0</ele><time>2026-03-28T07:39:12.925Z</time></trkpt><trkpt lat="41.8554616" lon="2.2019738"><ele>672.0</ele><time>2026-03-28T07:39:13.922Z</time></trkpt><trkpt lat="41.8553278" lon="2.2018648"><ele>672.0</ele><time>2026-03-28T07:39:14.924Z</time></trkpt><trkpt lat="41.8551965" lon="2.2016939"><ele>672.0</ele><time>2026-03-28T07:39:15.923Z</time></trkpt><trkpt lat="41.8550495" lon="2.2014737"><ele>674.3333333333334</ele><time>2026-03-28T07:39:16.915Z</time></trkpt><trkpt lat="41.8548969" lon="2.2012641"><ele>676.6666666666667</ele><time>2026-03-28T07:39:17.93Z</time></trkpt><trkpt lat="41.8548079" lon="2.2010845"><ele>679.0</ele><time>2026-03-28T07:39:18.93Z</time></trkpt><trkpt lat="41.8547729" lon="2.2009276"><ele>679.0</ele><time>2026-03-28T07:39:19.926Z</time></trkpt><trkpt lat="41.8548084" lon="2.2007776"><ele>679.0</ele><time>2026-03-28T07:39:20.931Z</time></trkpt><trkpt lat="41.8548758" lon="2.2006327"><ele>679.0</ele><time>2026-03-28T07:39:21.922Z</time></trkpt><trkpt lat="41.8549756" lon="2.2004914"><ele>679.0</ele><time>2026-03-28T07:39:22.912Z</time></trkpt><trkpt lat="41.8550841" lon="2.2003336"><ele>681.0</ele><time>2026-03-28T07:39:23.908Z</time></trkpt><trkpt lat="41.8551399" lon="2.2001551"><ele>683.0</ele><time>2026-03-28T07:39:24.917Z</time></trkpt><trkpt lat="41.8551372" lon="2.1999826"><ele>685.0</ele><time>2026-03-28T07:39:25.926Z</time></trkpt><trkpt lat="41.855079" lon="2.1998173"><ele>687.0</ele><time>2026-03-28T07:39:26.924Z</time></trkpt><trkpt lat="41.8549879" lon="2.1996844"><ele>687.0</ele><time>2026-03-28T07:39:27.922Z</time></trkpt><trkpt lat="41.8548579" lon="2.1996419"><ele>687.0</ele><time>2026-03-28T07:39:28.923Z</time></trkpt><trkpt lat="41.8547078" lon="2.1996623"><ele>687.0</ele><time>2026-03-28T07:39:29.927Z</time></trkpt><trkpt lat="41.8545235" lon="2.1997258"><ele>687.0</ele><time>2026-03-28T07:39:30.929Z</time></trkpt><trkpt lat="41.8543086" lon="2.1998202"><ele>687.0</ele><time>2026-03-28T07:39:31.909Z</time></trkpt><trkpt lat="41.8541094" lon="2.1999549"><ele>687.0</ele><time>2026-03-28T07:39:32.925Z</time></trkpt><trkpt lat="41.853954" lon="2.2001269"><ele>687.0</ele><time>2026-03-28T07:39:33.919Z</time></trkpt><trkpt lat="41.8538175" lon="2.2003949"><ele>687.0</ele><time>2026-03-28T07:39:34.92Z</time></trkpt><trkpt lat="41.8536429" lon="2.2007202"><ele>681.5</ele><time>2026-03-28T07:39:35.911Z</time></trkpt><trkpt lat="41.85348" lon="2.2010581"><ele>676.0</ele><time>2026-03-28T07:39:36.907Z</time></trkpt><trkpt lat="41.8533186" lon="2.2013558"><ele>684.0</ele><time>2026-03-28T07:39:37.916Z</time></trkpt><trkpt lat="41.8531538" lon="2.2015935"><ele>692.0</ele><time>2026-03-28T07:39:38.912Z</time></trkpt><trkpt lat="41.8529656" lon="2.2018109"><ele>692.0</ele><time>2026-03-28T07:39:39.919Z</time></trkpt><trkpt lat="41.8527428" lon="2.2019913"><ele>692.0</ele><time>2026-03-28T07:39:40.915Z</time></trkpt><trkpt lat="41.8525429" lon="2.202131"><ele>698.3333333333333</ele><time>2026-03-28T07:39:41.921Z</time></trkpt><trkpt lat="41.8523523" lon="2.2022093"><ele>704.6666666666666</ele><time>2026-03-28T07:39:42.92Z</time></trkpt><trkpt lat="41.8521313" lon="2.2021945"><ele>711.0</ele><time>2026-03-28T07:39:43.911Z</time></trkpt><trkpt lat="41.8518705" lon="2.2021751"><ele>713.0</ele><time>2026-03-28T07:39:44.903Z</time></trkpt><trkpt lat="41.851647" lon="2.202121"><ele>715.0</ele><time>2026-03-28T07:39:45.919Z</time></trkpt><trkpt lat="41.8514468" lon="2.2020011"><ele>717.0</ele><time>2026-03-28T07:39:46.913Z</time></trkpt><trkpt lat="41.8512477" lon="2.2018314"><ele>717.0</ele><time>2026-03-28T07:39:47.908Z</time></trkpt><trkpt lat="41.8510489" lon="2.2016991"><ele>717.0</ele><time>2026-03-28T07:39:48.915Z</time></trkpt><trkpt lat="41.8508263" lon="2.2016482"><ele>717.0</ele><time>2026-03-28T07:39:49.918Z</time></trkpt><trkpt lat="41.8505658" lon="2.2016371"><ele>713.0</ele><time>2026-03-28T07:39:50.92Z</time></trkpt><trkpt lat="41.8502949" lon="2.2016499"><ele>709.0</ele><time>2026-03-28T07:39:51.922Z</time></trkpt><trkpt lat="41.8500613" lon="2.2016276"><ele>709.0</ele><time>2026-03-28T07:39:52.919Z</time></trkpt><trkpt lat="41.8498448" lon="2.2015454"><ele>709.0</ele><time>2026-03-28T07:39:53.917Z</time></trkpt><trkpt lat="41.8496585" lon="2.2013965"><ele>709.0</ele><time>2026-03-28T07:39:54.918Z</time></trkpt><trkpt lat="41.8494963" lon="2.2012579"><ele>713.6666666666667</ele><time>2026-03-28T07:39:55.908Z</time></trkpt><trkpt lat="41.8493424" lon="2.2011432"><ele>718.3333333333334</ele><time>2026-03-28T07:39:56.911Z</time></trkpt><trkpt lat="41.8491775" lon="2.2010769"><ele>723.0</ele><time>2026-03-28T07:39:57.908Z</time></trkpt><trkpt lat="41.8490076" lon="2.201053"><ele>723.0</ele><time>2026-03-28T07:39:58.897Z</time></trkpt><trkpt lat="41.8488398" lon="2.2010606"><ele>723.0</ele><time>2026-03-28T07:39:59.904Z</time></trkpt><trkpt lat="41.8486787" lon="2.2010586"><ele>723.0</ele><time>2026-03-28T07:40:00.907Z</time></trkpt><trkpt lat="41.8485059" lon="2.2010659"><ele>723.0</ele><time>2026-03-28T07:40:01.916Z</time></trkpt><trkpt lat="41.8483239" lon="2.2010664"><ele>723.0</ele><time>2026-03-28T07:40:02.915Z</time></trkpt><trkpt lat="41.8481417" lon="2.2010669"><ele>723.0</ele><time>2026-03-28T07:40:03.913Z</time></trkpt><trkpt lat="41.8479345" lon="2.2010694"><ele>723.0</ele><time>2026-03-28T07:40:04.913Z</time></trkpt><trkpt lat="41.8477314" lon="2.2010857"><ele>723.0</ele><time>2026-03-28T07:40:05.914Z</time></trkpt><trkpt lat="41.8475222" lon="2.2011111"><ele>723.0</ele><time>2026-03-28T07:40:06.919Z</time></trkpt><trkpt lat="41.8473157" lon="2.2011411"><ele>725.6666666666666</ele><time>2026-03-28T07:40:07.912Z</time></trkpt><trkpt lat="41.8471393" lon="2.2011693"><ele>728.3333333333333</ele><time>2026-03-28T07:40:08.916Z</time></trkpt><trkpt lat="41.8469637" lon="2.2012124"><ele>731.0</ele><time>2026-03-28T07:40:09.909Z</time></trkpt><trkpt lat="41.8468001" lon="2.2012542"><ele>730.0</ele><time>2026-03-28T07:40:10.914Z</time></trkpt><trkpt lat="41.8466517" lon="2.201302"><ele>729.0</ele><time>2026-03-28T07:40:11.906Z</time></trkpt><trkpt lat="41.8465125" lon="2.2013845"><ele>728.0</ele><time>2026-03-28T07:40:12.906Z</time></trkpt><trkpt lat="41.8463807" lon="2.2015106"><ele>728.0</ele><time>2026-03-28T07:40:13.897Z</time></trkpt><trkpt lat="41.8462613" lon="2.2016378"><ele>728.0</ele><time>2026-03-28T07:40:14.909Z</time></trkpt><trkpt lat="41.8461521" lon="2.2017594"><ele>728.0</ele><time>2026-03-28T07:40:15.921Z</time></trkpt><trkpt lat="41.8460251" lon="2.2018618"><ele>728.0</ele><time>2026-03-28T07:40:16.912Z</time></trkpt><trkpt lat="41.8459069" lon="2.2019501"><ele>729.75</ele><time>2026-03-28T07:40:17.917Z</time></trkpt><trkpt lat="41.8457717" lon="2.2020237"><ele>731.5</ele><time>2026-03-28T07:40:18.919Z</time></trkpt><trkpt lat="41.8456271" lon="2.2020719"><ele>733.25</ele><time>2026-03-28T07:40:19.914Z</time></trkpt><trkpt lat="41.8454788" lon="2.2020843"><ele>735.0</ele><time>2026-03-28T07:40:20.909Z</time></trkpt><trkpt lat="41.8453355" lon="2.202075"><ele>735.0</ele><time>2026-03-28T07:40:21.922Z</time></trkpt><trkpt lat="41.84517" lon="2.2020091"><ele>735.0</ele><time>2026-03-28T07:40:22.924Z</time></trkpt><trkpt lat="41.8449601" lon="2.2019226"><ele>735.0</ele><time>2026-03-28T07:40:23.926Z</time></trkpt><trkpt lat="41.8447249" lon="2.2017969"><ele>734.5</ele><time>2026-03-28T07:40:24.924Z</time></trkpt><trkpt lat="41.8444637" lon="2.2016454"><ele>734.0</ele><time>2026-03-28T07:40:25.922Z</time></trkpt><trkpt lat="41.8441795" lon="2.201493"><ele>738.5</ele><time>2026-03-28T07:40:26.914Z</time></trkpt><trkpt lat="41.8438686" lon="2.2013366"><ele>743.0</ele><time>2026-03-28T07:40:27.907Z</time></trkpt><trkpt lat="41.843538" lon="2.2011797"><ele>743.0</ele><time>2026-03-28T07:40:28.916Z</time></trkpt><trkpt lat="41.8432372" lon="2.2010258"><ele>743.0</ele><time>2026-03-28T07:40:29.91Z</time></trkpt><trkpt lat="41.842961" lon="2.2008851"><ele>743.0</ele><time>2026-03-28T07:40:30.912Z</time></trkpt><trkpt lat="41.8427045" lon="2.200749"><ele>743.0</ele><time>2026-03-28T07:40:31.906Z</time></trkpt><trkpt lat="41.8424432" lon="2.2006258"><ele>746.0</ele><time>2026-03-28T07:40:32.916Z</time></trkpt><trkpt lat="41.8421965" lon="2.2004946"><ele>749.0</ele><time>2026-03-28T07:40:33.911Z</time></trkpt><trkpt lat="41.8419779" lon="2.2003786"><ele>746.3333333333333</ele><time>2026-03-28T07:40:34.923Z</time></trkpt><trkpt lat="41.8417959" lon="2.2002657"><ele>743.6666666666666</ele><time>2026-03-28T07:40:35.929Z</time></trkpt><trkpt lat="41.8416437" lon="2.2001555"><ele>741.0</ele><time>2026-03-28T07:40:36.915Z</time></trkpt><trkpt lat="41.8415238" lon="2.2000162"><ele>742.3333333333334</ele><time>2026-03-28T07:40:37.928Z</time></trkpt><trkpt lat="41.8414471" lon="2.1998316"><ele>743.6666666666667</ele><time>2026-03-28T07:40:38.925Z</time></trkpt><trkpt lat="41.8414063" lon="2.1995846"><ele>745.0</ele><time>2026-03-28T07:40:39.925Z</time></trkpt><trkpt lat="41.8413717" lon="2.1992919"><ele>744.5</ele><time>2026-03-28T07:40:40.923Z</time></trkpt><trkpt lat="41.8413523" lon="2.1989662"><ele>744.0</ele><time>2026-03-28T07:40:41.921Z</time></trkpt><trkpt lat="41.8413261" lon="2.1985945"><ele>744.0</ele><time>2026-03-28T07:40:42.92Z</time></trkpt><trkpt lat="41.8412962" lon="2.1981913"><ele>744.0</ele><time>2026-03-28T07:40:43.913Z</time></trkpt><trkpt lat="41.8412805" lon="2.1977626"><ele>745.0</ele><time>2026-03-28T07:40:44.908Z</time></trkpt><trkpt lat="41.8412642" lon="2.1973084"><ele>746.0</ele><time>2026-03-28T07:40:45.911Z</time></trkpt><trkpt lat="41.8412411" lon="2.1968435"><ele>748.5</ele><time>2026-03-28T07:40:46.904Z</time></trkpt><trkpt lat="41.8412262" lon="2.1964166"><ele>751.0</ele><time>2026-03-28T07:40:47.906Z</time></trkpt><trkpt lat="41.841214" lon="2.1960501"><ele>751.0</ele><time>2026-03-28T07:40:48.92Z</time></trkpt><trkpt lat="41.8412025" lon="2.1957383"><ele>751.0</ele><time>2026-03-28T07:40:49.917Z</time></trkpt><trkpt lat="41.8411802" lon="2.1954711"><ele>751.0</ele><time>2026-03-28T07:40:50.916Z</time></trkpt><trkpt lat="41.8411857" lon="2.1952569"><ele>752.0</ele><time>2026-03-28T07:40:51.912Z</time></trkpt><trkpt lat="41.841174" lon="2.1950846"><ele>753.0</ele><time>2026-03-28T07:40:52.908Z</time></trkpt><trkpt lat="41.8411149" lon="2.1949518"><ele>754.0</ele><time>2026-03-28T07:40:53.925Z</time></trkpt><trkpt lat="41.8410097" lon="2.1948501"><ele>755.0</ele><time>2026-03-28T07:40:54.903Z</time></trkpt><trkpt lat="41.8408737" lon="2.1948111"><ele>755.0</ele><time>2026-03-28T07:40:55.911Z</time></trkpt><trkpt lat="41.8407566" lon="2.1948209"><ele>755.0</ele><time>2026-03-28T07:40:56.909Z</time></trkpt><trkpt lat="41.8406623" lon="2.1949178"><ele>755.0</ele><time>2026-03-28T07:40:57.908Z</time></trkpt><trkpt lat="41.8405755" lon="2.19511"><ele>755.0</ele><time>2026-03-28T07:40:58.907Z</time></trkpt><trkpt lat="41.8404937" lon="2.1953208"><ele>753.0</ele><time>2026-03-28T07:40:59.888Z</time></trkpt><trkpt lat="41.8404013" lon="2.1955744"><ele>751.0</ele><time>2026-03-28T07:41:00.881Z</time></trkpt><trkpt lat="41.8403147" lon="2.1958129"><ele>749.0</ele><time>2026-03-28T07:41:01.888Z</time></trkpt><trkpt lat="41.8401814" lon="2.1959711"><ele>752.0</ele><time>2026-03-28T07:41:02.888Z</time></trkpt><trkpt lat="41.8400251" lon="2.1960854"><ele>755.0</ele><time>2026-03-28T07:41:03.902Z</time></trkpt><trkpt lat="41.8398194" lon="2.1961684"><ele>758.0</ele><time>2026-03-28T07:41:04.909Z</time></trkpt><trkpt lat="41.8395862" lon="2.1962172"><ele>758.0</ele><time>2026-03-28T07:41:05.908Z</time></trkpt><trkpt lat="41.8393203" lon="2.1962282"><ele>758.0</ele><time>2026-03-28T07:41:06.904Z</time></trkpt><trkpt lat="41.8390473" lon="2.196212"><ele>764.0</ele><time>2026-03-28T07:41:07.902Z</time></trkpt><trkpt lat="41.8387764" lon="2.1961501"><ele>770.0</ele><time>2026-03-28T07:41:08.904Z</time></trkpt><trkpt lat="41.8385063" lon="2.1960395"><ele>769.5</ele><time>2026-03-28T07:41:09.907Z</time></trkpt><trkpt lat="41.8382136" lon="2.1959097"><ele>769.0</ele><time>2026-03-28T07:41:10.9Z</time></trkpt><trkpt lat="41.8379283" lon="2.1957674"><ele>773.5</ele><time>2026-03-28T07:41:11.897Z</time></trkpt><trkpt lat="41.8376747" lon="2.1956506"><ele>778.0</ele><time>2026-03-28T07:41:12.91Z</time></trkpt><trkpt lat="41.8374751" lon="2.1955426"><ele>778.0</ele><time>2026-03-28T07:41:13.901Z</time></trkpt><trkpt lat="41.837325" lon="2.195417"><ele>778.0</ele><time>2026-03-28T07:41:14.913Z</time></trkpt><trkpt lat="41.8372001" lon="2.1952097"><ele>778.0</ele><time>2026-03-28T07:41:15.915Z</time></trkpt><trkpt lat="41.8370746" lon="2.1949483"><ele>777.0</ele><time>2026-03-28T07:41:16.917Z</time></trkpt><trkpt lat="41.8369371" lon="2.1946499"><ele>776.0</ele><time>2026-03-28T07:41:17.909Z</time></trkpt><trkpt lat="41.8367777" lon="2.1943248"><ele>776.0</ele><time>2026-03-28T07:41:18.905Z</time></trkpt><trkpt lat="41.8366279" lon="2.1940418"><ele>776.0</ele><time>2026-03-28T07:41:19.914Z</time></trkpt><trkpt lat="41.8364691" lon="2.1938255"><ele>780.25</ele><time>2026-03-28T07:41:20.918Z</time></trkpt><trkpt lat="41.8363234" lon="2.1936851"><ele>784.5</ele><time>2026-03-28T07:41:21.916Z</time></trkpt><trkpt lat="41.8362206" lon="2.1935786"><ele>788.75</ele><time>2026-03-28T07:41:22.911Z</time></trkpt><trkpt lat="41.8361649" lon="2.193496"><ele>793.0</ele><time>2026-03-28T07:41:23.908Z</time></trkpt><trkpt lat="41.8361334" lon="2.1934018"><ele>793.0</ele><time>2026-03-28T07:41:24.916Z</time></trkpt><trkpt lat="41.8361577" lon="2.1933189"><ele>793.0</ele><time>2026-03-28T07:41:25.91Z</time></trkpt><trkpt lat="41.8362409" lon="2.1932868"><ele>793.0</ele><time>2026-03-28T07:41:26.912Z</time></trkpt><trkpt lat="41.8363163" lon="2.1933336"><ele>793.0</ele><time>2026-03-28T07:41:27.912Z</time></trkpt><trkpt lat="41.8364107" lon="2.1934406"><ele>793.0</ele><time>2026-03-28T07:41:28.909Z</time></trkpt><trkpt lat="41.8365324" lon="2.1936029"><ele>793.0</ele><time>2026-03-28T07:41:29.918Z</time></trkpt><trkpt lat="41.8367058" lon="2.1938123"><ele>793.0</ele><time>2026-03-28T07:41:30.916Z</time></trkpt><trkpt lat="41.8369174" lon="2.1940431"><ele>794.5</ele><time>2026-03-28T07:41:31.91Z</time></trkpt><trkpt lat="41.8371476" lon="2.1942855"><ele>796.0</ele><time>2026-03-28T07:41:32.903Z</time></trkpt><trkpt lat="41.8373533" lon="2.1944829"><ele>796.0</ele><time>2026-03-28T07:41:33.918Z</time></trkpt><trkpt lat="41.8375651" lon="2.1946716"><ele>796.0</ele><time>2026-03-28T07:41:34.919Z</time></trkpt><trkpt lat="41.8377895" lon="2.1948121"><ele>793.5</ele><time>2026-03-28T07:41:35.92Z</time></trkpt><trkpt lat="41.8380348" lon="2.1949367"><ele>791.0</ele><time>2026-03-28T07:41:36.904Z</time></trkpt><trkpt lat="41.83825" lon="2.1950421"><ele>791.0</ele><time>2026-03-28T07:41:37.896Z</time></trkpt><trkpt lat="41.8384341" lon="2.1951162"><ele>791.0</ele><time>2026-03-28T07:41:38.909Z</time></trkpt><trkpt lat="41.8386031" lon="2.1951824"><ele>791.0</ele><time>2026-03-28T07:41:39.907Z</time></trkpt><trkpt lat="41.8388075" lon="2.1951977"><ele>792.3333333333334</ele><time>2026-03-28T07:41:40.908Z</time></trkpt><trkpt lat="41.8390073" lon="2.1951962"><ele>793.6666666666667</ele><time>2026-03-28T07:41:41.902Z</time></trkpt><trkpt lat="41.8391701" lon="2.1951806"><ele>795.0</ele><time>2026-03-28T07:41:42.912Z</time></trkpt><trkpt lat="41.8392932" lon="2.1951551"><ele>795.0</ele><time>2026-03-28T07:41:43.91Z</time></trkpt><trkpt lat="41.8393583" lon="2.1951009"><ele>795.0</ele><time>2026-03-28T07:41:44.907Z</time></trkpt><trkpt lat="41.8393668" lon="2.1949911"><ele>795.0</ele><time>2026-03-28T07:41:45.9Z</time></trkpt><trkpt lat="41.8393455" lon="2.1948824"><ele>795.0</ele><time>2026-03-28T07:41:46.903Z</time></trkpt><trkpt lat="41.8392665" lon="2.1948579"><ele>795.0</ele><time>2026-03-28T07:41:47.913Z</time></trkpt><trkpt lat="41.8391615" lon="2.1948772"><ele>795.0</ele><time>2026-03-28T07:41:48.908Z</time></trkpt><trkpt lat="41.8390337" lon="2.1949062"><ele>795.0</ele><time>2026-03-28T07:41:49.912Z</time></trkpt><trkpt lat="41.8388833" lon="2.1949238"><ele>795.0</ele><time>2026-03-28T07:41:50.909Z</time></trkpt><trkpt lat="41.8386836" lon="2.194914"><ele>795.0</ele><time>2026-03-28T07:41:51.917Z</time></trkpt><trkpt lat="41.8384723" lon="2.1948279"><ele>809.0</ele><time>2026-03-28T07:41:52.923Z</time></trkpt><trkpt lat="41.8382429" lon="2.1947186"><ele>823.0</ele><time>2026-03-28T07:41:53.909Z</time></trkpt><trkpt lat="41.8380498" lon="2.1945759"><ele>823.0</ele><time>2026-03-28T07:41:54.909Z</time></trkpt><trkpt lat="41.8378968" lon="2.1944231"><ele>823.0</ele><time>2026-03-28T07:41:55.922Z</time></trkpt><trkpt lat="41.8377627" lon="2.1941998"><ele>823.0</ele><time>2026-03-28T07:41:56.92Z</time></trkpt><trkpt lat="41.8376194" lon="2.1939168"><ele>821.5</ele><time>2026-03-28T07:41:57.918Z</time></trkpt><trkpt lat="41.8374477" lon="2.1936196"><ele>820.0</ele><time>2026-03-28T07:41:58.915Z</time></trkpt><trkpt lat="41.8372755" lon="2.1932735"><ele>831.0</ele><time>2026-03-28T07:41:59.922Z</time></trkpt><trkpt lat="41.8370888" lon="2.1929294"><ele>842.0</ele><time>2026-03-28T07:42:00.918Z</time></trkpt><trkpt lat="41.8369033" lon="2.1926384"><ele>837.5</ele><time>2026-03-28T07:42:01.922Z</time></trkpt><trkpt lat="41.8367085" lon="2.1924038"><ele>833.0</ele><time>2026-03-28T07:42:02.916Z</time></trkpt><trkpt lat="41.8365373" lon="2.1921876"><ele>833.0</ele><time>2026-03-28T07:42:03.919Z</time></trkpt><trkpt lat="41.8363949" lon="2.1920211"><ele>833.0</ele><time>2026-03-28T07:42:04.921Z</time></trkpt><trkpt lat="41.8363027" lon="2.191826"><ele>833.0</ele><time>2026-03-28T07:42:05.917Z</time></trkpt><trkpt lat="41.836216" lon="2.1915685"><ele>843.0</ele><time>2026-03-28T07:42:06.905Z</time></trkpt><trkpt lat="41.8361283" lon="2.1912659"><ele>853.0</ele><time>2026-03-28T07:42:07.917Z</time></trkpt><trkpt lat="41.8360902" lon="2.1909329"><ele>858.6666666666666</ele><time>2026-03-28T07:42:08.92Z</time></trkpt><trkpt lat="41.8360836" lon="2.1906616"><ele>864.3333333333333</ele><time>2026-03-28T07:42:09.918Z</time></trkpt><trkpt lat="41.8360714" lon="2.1904269"><ele>870.0</ele><time>2026-03-28T07:42:10.913Z</time></trkpt><trkpt lat="41.8360273" lon="2.1902575"><ele>862.0</ele><time>2026-03-28T07:42:11.913Z</time></trkpt><trkpt lat="41.8359556" lon="2.190133"><ele>854.0</ele><time>2026-03-28T07:42:12.912Z</time></trkpt><trkpt lat="41.8358495" lon="2.1900931"><ele>846.0</ele><time>2026-03-28T07:42:13.915Z</time></trkpt><trkpt lat="41.8357243" lon="2.1900956"><ele>838.0</ele><time>2026-03-28T07:42:14.918Z</time></trkpt><trkpt lat="41.8355963" lon="2.1901761"><ele>838.0</ele><time>2026-03-28T07:42:15.921Z</time></trkpt><trkpt lat="41.8354876" lon="2.1903164"><ele>838.0</ele><time>2026-03-28T07:42:16.916Z</time></trkpt><trkpt lat="41.8353671" lon="2.1904579"><ele>838.0</ele><time>2026-03-28T07:42:17.91Z</time></trkpt><trkpt lat="41.8352369" lon="2.1905798"><ele>843.3333333333333</ele><time>2026-03-28T07:42:18.913Z</time></trkpt><trkpt lat="41.8350865" lon="2.1906002"><ele>848.6666666666667</ele><time>2026-03-28T07:42:19.914Z</time></trkpt><trkpt lat="41.8349293" lon="2.1905568"><ele>854.0</ele><time>2026-03-28T07:42:20.907Z</time></trkpt><trkpt lat="41.8347891" lon="2.1904961"><ele>854.0</ele><time>2026-03-28T07:42:21.893Z</time></trkpt><trkpt lat="41.8346596" lon="2.1904678"><ele>854.0000000000001</ele><time>2026-03-28T07:42:22.905Z</time></trkpt><trkpt lat="41.8345582" lon="2.1904791"><ele>854.0000000000001</ele><time>2026-03-28T07:42:23.904Z</time></trkpt><trkpt lat="41.834465" lon="2.1905171"><ele>854.0</ele><time>2026-03-28T07:42:24.897Z</time></trkpt><trkpt lat="41.8343958" lon="2.1906138"><ele>854.0</ele><time>2026-03-28T07:42:25.892Z</time></trkpt><trkpt lat="41.8343585" lon="2.1907616"><ele>845.6666666666667</ele><time>2026-03-28T07:42:26.913Z</time></trkpt><trkpt lat="41.8343619" lon="2.1909671"><ele>837.3333333333333</ele><time>2026-03-28T07:42:27.902Z</time></trkpt><trkpt lat="41.8343452" lon="2.191193"><ele>829.0</ele><time>2026-03-28T07:42:28.895Z</time></trkpt><trkpt lat="41.8343248" lon="2.1914175"><ele>834.0</ele><time>2026-03-28T07:42:29.901Z</time></trkpt><trkpt lat="41.8342641" lon="2.1916362"><ele>839.0</ele><time>2026-03-28T07:42:30.92Z</time></trkpt><trkpt lat="41.8341264" lon="2.191813"><ele>844.0</ele><time>2026-03-28T07:42:31.913Z</time></trkpt><trkpt lat="41.8339437" lon="2.1919666"><ele>844.0</ele><time>2026-03-28T07:42:32.915Z</time></trkpt><trkpt lat="41.8337928" lon="2.1921267"><ele>844.0</ele><time>2026-03-28T07:42:33.914Z</time></trkpt><trkpt lat="41.8336734" lon="2.1922963"><ele>844.0</ele><time>2026-03-28T07:42:34.915Z</time></trkpt><trkpt lat="41.8335963" lon="2.1925075"><ele>838.6666666666666</ele><time>2026-03-28T07:42:35.92Z</time></trkpt><trkpt lat="41.8335824" lon="2.1927334"><ele>833.3333333333333</ele><time>2026-03-28T07:42:36.915Z</time></trkpt><trkpt lat="41.8335904" lon="2.1929894"><ele>828.0</ele><time>2026-03-28T07:42:37.902Z</time></trkpt><trkpt lat="41.8336027" lon="2.1932754"><ele>826.0</ele><time>2026-03-28T07:42:38.903Z</time></trkpt><trkpt lat="41.8336648" lon="2.1935924"><ele>824.0</ele><time>2026-03-28T07:42:39.902Z</time></trkpt><trkpt lat="41.8337127" lon="2.1938913"><ele>824.0</ele><time>2026-03-28T07:42:40.905Z</time></trkpt><trkpt lat="41.8337237" lon="2.1941527"><ele>824.0</ele><time>2026-03-28T07:42:41.911Z</time></trkpt><trkpt lat="41.8336788" lon="2.1944192"><ele>824.0</ele><time>2026-03-28T07:42:42.913Z</time></trkpt><trkpt lat="41.8335944" lon="2.1946757"><ele>841.5</ele><time>2026-03-28T07:42:43.914Z</time></trkpt><trkpt lat="41.8334679" lon="2.1948946"><ele>859.0</ele><time>2026-03-28T07:42:44.911Z</time></trkpt><trkpt lat="41.8333078" lon="2.1951413"><ele>859.0</ele><time>2026-03-28T07:42:45.906Z</time></trkpt><trkpt lat="41.8331667" lon="2.1954307"><ele>859.0</ele><time>2026-03-28T07:42:46.905Z</time></trkpt><trkpt lat="41.8330441" lon="2.1957273"><ele>853.6666666666666</ele><time>2026-03-28T07:42:47.908Z</time></trkpt><trkpt lat="41.8329783" lon="2.196021"><ele>848.3333333333333</ele><time>2026-03-28T07:42:48.907Z</time></trkpt><trkpt lat="41.8328549" lon="2.196223"><ele>843.0</ele><time>2026-03-28T07:42:49.916Z</time></trkpt><trkpt lat="41.8326897" lon="2.1964106"><ele>850.5</ele><time>2026-03-28T07:42:50.918Z</time></trkpt><trkpt lat="41.8325064" lon="2.1966357"><ele>858.0</ele><time>2026-03-28T07:42:51.912Z</time></trkpt><trkpt lat="41.8323334" lon="2.1968613"><ele>858.0</ele><time>2026-03-28T07:42:52.907Z</time></trkpt><trkpt lat="41.8321603" lon="2.1970498"><ele>858.0</ele><time>2026-03-28T07:42:53.918Z</time></trkpt><trkpt lat="41.8319642" lon="2.1971744"><ele>858.0</ele><time>2026-03-28T07:42:54.921Z</time></trkpt><trkpt lat="41.8317407" lon="2.1972405"><ele>856.0</ele><time>2026-03-28T07:42:55.911Z</time></trkpt><trkpt lat="41.8314907" lon="2.1973125"><ele>854.0</ele><time>2026-03-28T07:42:56.924Z</time></trkpt><trkpt lat="41.8312839" lon="2.1973572"><ele>854.0</ele><time>2026-03-28T07:42:57.941Z</time></trkpt><trkpt lat="41.8310901" lon="2.1973722"><ele>854.0</ele><time>2026-03-28T07:42:58.935Z</time></trkpt><trkpt lat="41.8308931" lon="2.1972925"><ele>854.0</ele><time>2026-03-28T07:42:59.927Z</time></trkpt><trkpt lat="41.8306536" lon="2.1971591"><ele>872.5</ele><time>2026-03-28T07:43:00.928Z</time></trkpt><trkpt lat="41.8303984" lon="2.196996"><ele>891.0</ele><time>2026-03-28T07:43:01.907Z</time></trkpt><trkpt lat="41.8301447" lon="2.1967992"><ele>897.5</ele><time>2026-03-28T07:43:02.918Z</time></trkpt><trkpt lat="41.8298917" lon="2.1965781"><ele>904.0</ele><time>2026-03-28T07:43:03.909Z</time></trkpt><trkpt lat="41.8296437" lon="2.1963393"><ele>904.0</ele><time>2026-03-28T07:43:04.923Z</time></trkpt><trkpt lat="41.8293871" lon="2.1961073"><ele>904.0</ele><time>2026-03-28T07:43:05.917Z</time></trkpt><trkpt lat="41.8291045" lon="2.1958965"><ele>899.5</ele><time>2026-03-28T07:43:06.926Z</time></trkpt><trkpt lat="41.8287848" lon="2.1956891"><ele>895.0</ele><time>2026-03-28T07:43:07.922Z</time></trkpt><trkpt lat="41.8284592" lon="2.1954593"><ele>895.0</ele><time>2026-03-28T07:43:08.924Z</time></trkpt><trkpt lat="41.8281639" lon="2.195243"><ele>895.0</ele><time>2026-03-28T07:43:09.927Z</time></trkpt><trkpt lat="41.8279139" lon="2.1950427"><ele>895.0</ele><time>2026-03-28T07:43:10.92Z</time></trkpt><trkpt lat="41.8276992" lon="2.1948581"><ele>895.0</ele><time>2026-03-28T07:43:11.916Z</time></trkpt><trkpt lat="41.8274991" lon="2.1946396"><ele>897.5</ele><time>2026-03-28T07:43:12.929Z</time></trkpt><trkpt lat="41.8273169" lon="2.1943825"><ele>900.0</ele><time>2026-03-28T07:43:13.929Z</time></trkpt><trkpt lat="41.8271627" lon="2.1941466"><ele>900.6666666666667</ele><time>2026-03-28T07:43:14.934Z</time></trkpt><trkpt lat="41.8270207" lon="2.1939312"><ele>901.3333333333334</ele><time>2026-03-28T07:43:15.925Z</time></trkpt><trkpt lat="41.8268904" lon="2.1937757"><ele>902.0</ele><time>2026-03-28T07:43:16.93Z</time></trkpt><trkpt lat="41.8267608" lon="2.1936845"><ele>902.0</ele><time>2026-03-28T07:43:17.938Z</time></trkpt><trkpt lat="41.8266459" lon="2.1936442"><ele>902.0</ele><time>2026-03-28T07:43:18.929Z</time></trkpt><trkpt lat="41.8265147" lon="2.193651"><ele>902.0</ele><time>2026-03-28T07:43:19.923Z</time></trkpt><trkpt lat="41.8264153" lon="2.19371"><ele>902.0</ele><time>2026-03-28T07:43:20.934Z</time></trkpt><trkpt lat="41.8263359" lon="2.1938184"><ele>902.0</ele><time>2026-03-28T07:43:21.917Z</time></trkpt><trkpt lat="41.8262923" lon="2.1939544"><ele>902.0</ele><time>2026-03-28T07:43:22.926Z</time></trkpt><trkpt lat="41.8263063" lon="2.1940882"><ele>902.0</ele><time>2026-03-28T07:43:23.931Z</time></trkpt><trkpt lat="41.8263292" lon="2.1942343"><ele>902.0</ele><time>2026-03-28T07:43:24.934Z</time></trkpt><trkpt lat="41.8263433" lon="2.1944266"><ele>900.0</ele><time>2026-03-28T07:43:25.927Z</time></trkpt><trkpt lat="41.8263262" lon="2.194619"><ele>898.0</ele><time>2026-03-28T07:43:26.929Z</time></trkpt><trkpt lat="41.8262592" lon="2.1947938"><ele>896.0</ele><time>2026-03-28T07:43:27.933Z</time></trkpt><trkpt lat="41.8262426" lon="2.1949705"><ele>894.0</ele><time>2026-03-28T07:43:28.926Z</time></trkpt><trkpt lat="41.8262801" lon="2.1951542"><ele>893.2</ele><time>2026-03-28T07:43:29.917Z</time></trkpt><trkpt lat="41.8263011" lon="2.1953177"><ele>892.4000000000001</ele><time>2026-03-28T07:43:30.936Z</time></trkpt><trkpt lat="41.8262737" lon="2.1954402"><ele>891.6</ele><time>2026-03-28T07:43:31.939Z</time></trkpt><trkpt lat="41.8261942" lon="2.1955026"><ele>890.8</ele><time>2026-03-28T07:43:32.932Z</time></trkpt><trkpt lat="41.8260987" lon="2.1954869"><ele>890.0</ele><time>2026-03-28T07:43:33.933Z</time></trkpt><trkpt lat="41.8259869" lon="2.1954276"><ele>894.3333333333334</ele><time>2026-03-28T07:43:34.937Z</time></trkpt><trkpt lat="41.825876" lon="2.1952995"><ele>898.6666666666667</ele><time>2026-03-28T07:43:35.932Z</time></trkpt><trkpt lat="41.8257524" lon="2.1951161"><ele>903.0</ele><time>2026-03-28T07:43:36.927Z</time></trkpt><trkpt lat="41.8255964" lon="2.1948842"><ele>901.5</ele><time>2026-03-28T07:43:37.921Z</time></trkpt><trkpt lat="41.8254262" lon="2.1946482"><ele>900.0</ele><time>2026-03-28T07:43:38.922Z</time></trkpt><trkpt lat="41.8252701" lon="2.194391"><ele>900.0</ele><time>2026-03-28T07:43:39.917Z</time></trkpt><trkpt lat="41.8251507" lon="2.1941448"><ele>900.0</ele><time>2026-03-28T07:43:40.929Z</time></trkpt><trkpt lat="41.8250842" lon="2.1938866"><ele>900.0</ele><time>2026-03-28T07:43:41.922Z</time></trkpt><trkpt lat="41.8250317" lon="2.1936222"><ele>904.3333333333333</ele><time>2026-03-28T07:43:42.926Z</time></trkpt><trkpt lat="41.8250146" lon="2.1933702"><ele>908.6666666666666</ele><time>2026-03-28T07:43:43.927Z</time></trkpt><trkpt lat="41.8250307" lon="2.1931212"><ele>913.0</ele><time>2026-03-28T07:43:44.934Z</time></trkpt><trkpt lat="41.8250767" lon="2.1928771"><ele>912.3333333333333</ele><time>2026-03-28T07:43:45.926Z</time></trkpt><trkpt lat="41.8251631" lon="2.1926415"><ele>911.6666666666667</ele><time>2026-03-28T07:43:46.939Z</time></trkpt><trkpt lat="41.8252904" lon="2.1924161"><ele>911.0</ele><time>2026-03-28T07:43:47.928Z</time></trkpt><trkpt lat="41.8254503" lon="2.1922113"><ele>916.5</ele><time>2026-03-28T07:43:48.918Z</time></trkpt><trkpt lat="41.8256426" lon="2.1920226"><ele>922.0</ele><time>2026-03-28T07:43:49.908Z</time></trkpt><trkpt lat="41.8258543" lon="2.1918363"><ele>922.5</ele><time>2026-03-28T07:43:50.916Z</time></trkpt><trkpt lat="41.8260614" lon="2.191631"><ele>923.0</ele><time>2026-03-28T07:43:51.91Z</time></trkpt><trkpt lat="41.8262557" lon="2.1914094"><ele>923.0</ele><time>2026-03-28T07:43:52.916Z</time></trkpt><trkpt lat="41.8264154" lon="2.1911469"><ele>923.0</ele><time>2026-03-28T07:43:53.921Z</time></trkpt><trkpt lat="41.826567" lon="2.1908363"><ele>925.0</ele><time>2026-03-28T07:43:54.924Z</time></trkpt><trkpt lat="41.8267306" lon="2.1905166"><ele>927.0</ele><time>2026-03-28T07:43:55.924Z</time></trkpt><trkpt lat="41.8268921" lon="2.1902129"><ele>927.0</ele><time>2026-03-28T07:43:56.923Z</time></trkpt><trkpt lat="41.8270254" lon="2.1899214"><ele>927.0</ele><time>2026-03-28T07:43:57.919Z</time></trkpt><trkpt lat="41.827121" lon="2.1896456"><ele>928.5</ele><time>2026-03-28T07:43:58.943Z</time></trkpt><trkpt lat="41.8271834" lon="2.1893668"><ele>930.0</ele><time>2026-03-28T07:43:59.935Z</time></trkpt><trkpt lat="41.8272285" lon="2.1890542"><ele>929.0</ele><time>2026-03-28T07:44:00.936Z</time></trkpt><trkpt lat="41.8272756" lon="2.1886977"><ele>928.0</ele><time>2026-03-28T07:44:01.941Z</time></trkpt><trkpt lat="41.827307" lon="2.1883182"><ele>927.0</ele><time>2026-03-28T07:44:02.934Z</time></trkpt><trkpt lat="41.8273455" lon="2.1879019"><ele>926.0</ele><time>2026-03-28T07:44:03.941Z</time></trkpt><trkpt lat="41.8273848" lon="2.1874608"><ele>925.5</ele><time>2026-03-28T07:44:04.941Z</time></trkpt><trkpt lat="41.8274229" lon="2.1869963"><ele>925.0</ele><time>2026-03-28T07:44:05.942Z</time></trkpt><trkpt lat="41.8274484" lon="2.1865338"><ele>926.0</ele><time>2026-03-28T07:44:06.938Z</time></trkpt><trkpt lat="41.8274869" lon="2.1861172"><ele>927.0</ele><time>2026-03-28T07:44:07.939Z</time></trkpt><trkpt lat="41.8275078" lon="2.1857164"><ele>925.5</ele><time>2026-03-28T07:44:08.932Z</time></trkpt><trkpt lat="41.8275182" lon="2.1853621"><ele>924.0</ele><time>2026-03-28T07:44:09.934Z</time></trkpt><trkpt lat="41.8275065" lon="2.1850175"><ele>921.0</ele><time>2026-03-28T07:44:10.928Z</time></trkpt><trkpt lat="41.8274623" lon="2.1846741"><ele>918.0</ele><time>2026-03-28T07:44:11.928Z</time></trkpt><trkpt lat="41.8273915" lon="2.1843027"><ele>915.0</ele><time>2026-03-28T07:44:12.923Z</time></trkpt><trkpt lat="41.8273141" lon="2.183915"><ele>912.0</ele><time>2026-03-28T07:44:13.922Z</time></trkpt><trkpt lat="41.8272852" lon="2.1834962"><ele>910.5</ele><time>2026-03-28T07:44:14.931Z</time></trkpt><trkpt lat="41.8272725" lon="2.1830392"><ele>909.0</ele><time>2026-03-28T07:44:15.934Z</time></trkpt><trkpt lat="41.8272834" lon="2.1825491"><ele>908.5</ele><time>2026-03-28T07:44:16.929Z</time></trkpt><trkpt lat="41.8273031" lon="2.1820541"><ele>908.0</ele><time>2026-03-28T07:44:17.933Z</time></trkpt><trkpt lat="41.8273086" lon="2.181561"><ele>907.5</ele><time>2026-03-28T07:44:18.936Z</time></trkpt><trkpt lat="41.8273243" lon="2.1811354"><ele>907.0</ele><time>2026-03-28T07:44:19.931Z</time></trkpt><trkpt lat="41.8273346" lon="2.1807395"><ele>907.5</ele><time>2026-03-28T07:44:20.932Z</time></trkpt><trkpt lat="41.8273423" lon="2.1803871"><ele>908.0</ele><time>2026-03-28T07:44:21.935Z</time></trkpt><trkpt lat="41.8273886" lon="2.1800839"><ele>908.3333333333334</ele><time>2026-03-28T07:44:22.933Z</time></trkpt><trkpt lat="41.8274789" lon="2.1798079"><ele>908.6666666666667</ele><time>2026-03-28T07:44:23.934Z</time></trkpt><trkpt lat="41.8276021" lon="2.1795799"><ele>909.0</ele><time>2026-03-28T07:44:24.939Z</time></trkpt><trkpt lat="41.8277644" lon="2.1793668"><ele>907.5</ele><time>2026-03-28T07:44:25.934Z</time></trkpt><trkpt lat="41.8279471" lon="2.1791403"><ele>906.0</ele><time>2026-03-28T07:44:26.935Z</time></trkpt><trkpt lat="41.8281087" lon="2.1788801"><ele>905.0</ele><time>2026-03-28T07:44:27.94Z</time></trkpt><trkpt lat="41.8282345" lon="2.1786238"><ele>904.0</ele><time>2026-03-28T07:44:28.934Z</time></trkpt><trkpt lat="41.8283424" lon="2.1783593"><ele>903.6666666666666</ele><time>2026-03-28T07:44:29.96Z</time></trkpt><trkpt lat="41.8283659" lon="2.1781078"><ele>903.3333333333333</ele><time>2026-03-28T07:44:30.947Z</time></trkpt><trkpt lat="41.8283631" lon="2.1778467"><ele>903.0</ele><time>2026-03-28T07:44:31.944Z</time></trkpt><trkpt lat="41.8283229" lon="2.1775511"><ele>903.5</ele><time>2026-03-28T07:44:32.94Z</time></trkpt><trkpt lat="41.8282451" lon="2.1772219"><ele>904.0</ele><time>2026-03-28T07:44:33.928Z</time></trkpt><trkpt lat="41.828178" lon="2.1768837"><ele>904.0</ele><time>2026-03-28T07:44:34.939Z</time></trkpt><trkpt lat="41.8281128" lon="2.1765599"><ele>904.0</ele><time>2026-03-28T07:44:35.927Z</time></trkpt><trkpt lat="41.8280669" lon="2.176266"><ele>904.0</ele><time>2026-03-28T07:44:36.932Z</time></trkpt><trkpt lat="41.8280107" lon="2.1759863"><ele>904.0</ele><time>2026-03-28T07:44:37.938Z</time></trkpt><trkpt lat="41.8279635" lon="2.1757076"><ele>904.0</ele><time>2026-03-28T07:44:38.943Z</time></trkpt><trkpt lat="41.8279019" lon="2.1754102"><ele>903.0</ele><time>2026-03-28T07:44:39.947Z</time></trkpt><trkpt lat="41.82784" lon="2.1751182"><ele>902.0</ele><time>2026-03-28T07:44:40.945Z</time></trkpt><trkpt lat="41.8277819" lon="2.1748174"><ele>900.5</ele><time>2026-03-28T07:44:41.942Z</time></trkpt><trkpt lat="41.8277174" lon="2.1745206"><ele>899.0</ele><time>2026-03-28T07:44:43.148Z</time></trkpt><trkpt lat="41.8276608" lon="2.1742174"><ele>897.5</ele><time>2026-03-28T07:44:43.943Z</time></trkpt><trkpt lat="41.8276081" lon="2.1739098"><ele>896.0</ele><time>2026-03-28T07:44:44.95Z</time></trkpt><trkpt lat="41.8275427" lon="2.173606"><ele>896.0</ele><time>2026-03-28T07:44:45.952Z</time></trkpt><trkpt lat="41.8274628" lon="2.1733131"><ele>896.0</ele><time>2026-03-28T07:44:46.959Z</time></trkpt><trkpt lat="41.8273324" lon="2.1730198"><ele>895.5</ele><time>2026-03-28T07:44:47.94Z</time></trkpt><trkpt lat="41.8271755" lon="2.1727294"><ele>895.0</ele><time>2026-03-28T07:44:48.951Z</time></trkpt><trkpt lat="41.8269784" lon="2.1724314"><ele>892.0</ele><time>2026-03-28T07:44:49.943Z</time></trkpt><trkpt lat="41.8267668" lon="2.1721027"><ele>889.0</ele><time>2026-03-28T07:44:50.949Z</time></trkpt><trkpt lat="41.8265421" lon="2.1717366"><ele>888.0</ele><time>2026-03-28T07:44:51.948Z</time></trkpt><trkpt lat="41.8263432" lon="2.1713927"><ele>887.0</ele><time>2026-03-28T07:44:52.952Z</time></trkpt><trkpt lat="41.8261714" lon="2.1710919"><ele>887.0</ele><time>2026-03-28T07:44:53.952Z</time></trkpt><trkpt lat="41.8260159" lon="2.1708396"><ele>887.0</ele><time>2026-03-28T07:44:54.948Z</time></trkpt><trkpt lat="41.8258949" lon="2.1706322"><ele>887.0</ele><time>2026-03-28T07:44:55.95Z</time></trkpt><trkpt lat="41.8258179" lon="2.170459"><ele>886.0</ele><time>2026-03-28T07:44:56.954Z</time></trkpt><trkpt lat="41.8257668" lon="2.1702838"><ele>885.0</ele><time>2026-03-28T07:44:57.949Z</time></trkpt><trkpt lat="41.8257602" lon="2.1701033"><ele>884.0</ele><time>2026-03-28T07:44:58.947Z</time></trkpt><trkpt lat="41.8258196" lon="2.1699331"><ele>883.0</ele><time>2026-03-28T07:44:59.949Z</time></trkpt><trkpt lat="41.8259345" lon="2.1697589"><ele>882.6666666666666</ele><time>2026-03-28T07:45:00.958Z</time></trkpt><trkpt lat="41.8260805" lon="2.1695564"><ele>882.3333333333333</ele><time>2026-03-28T07:45:01.945Z</time></trkpt><trkpt lat="41.8262473" lon="2.1693396"><ele>882.0</ele><time>2026-03-28T07:45:02.94Z</time></trkpt><trkpt lat="41.8263993" lon="2.1691407"><ele>881.0</ele><time>2026-03-28T07:45:03.937Z</time></trkpt><trkpt lat="41.8265208" lon="2.1689701"><ele>880.0</ele><time>2026-03-28T07:45:04.952Z</time></trkpt><trkpt lat="41.8266103" lon="2.1687918"><ele>879.0</ele><time>2026-03-28T07:45:05.948Z</time></trkpt><trkpt lat="41.8266334" lon="2.1685985"><ele>879.0</ele><time>2026-03-28T07:45:06.945Z</time></trkpt><trkpt lat="41.8266439" lon="2.1684029"><ele>879.0</ele><time>2026-03-28T07:45:07.953Z</time></trkpt><trkpt lat="41.8266028" lon="2.1682079"><ele>879.0</ele><time>2026-03-28T07:45:08.959Z</time></trkpt><trkpt lat="41.8265426" lon="2.1680257"><ele>879.0</ele><time>2026-03-28T07:45:09.954Z</time></trkpt><trkpt lat="41.8264539" lon="2.167875"><ele>879.5</ele><time>2026-03-28T07:45:10.956Z</time></trkpt><trkpt lat="41.8263557" lon="2.1677379"><ele>880.0</ele><time>2026-03-28T07:45:11.938Z</time></trkpt><trkpt lat="41.8262319" lon="2.167624"><ele>880.5</ele><time>2026-03-28T07:45:12.944Z</time></trkpt><trkpt lat="41.8260998" lon="2.1675116"><ele>881.0</ele><time>2026-03-28T07:45:13.956Z</time></trkpt><trkpt lat="41.8259758" lon="2.1673923"><ele>879.6666666666667</ele><time>2026-03-28T07:45:14.946Z</time></trkpt><trkpt lat="41.825837" lon="2.1672695"><ele>878.3333333333333</ele><time>2026-03-28T07:45:15.949Z</time></trkpt><trkpt lat="41.8257073" lon="2.167143"><ele>877.0</ele><time>2026-03-28T07:45:16.948Z</time></trkpt><trkpt lat="41.8255697" lon="2.1670148"><ele>877.0</ele><time>2026-03-28T07:45:17.958Z</time></trkpt><trkpt lat="41.82543" lon="2.1668813"><ele>877.0</ele><time>2026-03-28T07:45:18.95Z</time></trkpt><trkpt lat="41.8252875" lon="2.1667455"><ele>877.0</ele><time>2026-03-28T07:45:19.951Z</time></trkpt><trkpt lat="41.8251478" lon="2.1666148"><ele>876.6666666666666</ele><time>2026-03-28T07:45:20.958Z</time></trkpt><trkpt lat="41.8250065" lon="2.1664788"><ele>876.3333333333333</ele><time>2026-03-28T07:45:21.957Z</time></trkpt><trkpt lat="41.8248672" lon="2.1663454"><ele>876.0</ele><time>2026-03-28T07:45:22.954Z</time></trkpt><trkpt lat="41.8247238" lon="2.1662123"><ele>876.0</ele><time>2026-03-28T07:45:23.955Z</time></trkpt><trkpt lat="41.8245768" lon="2.1660743"><ele>876.0</ele><time>2026-03-28T07:45:24.957Z</time></trkpt><trkpt lat="41.8244414" lon="2.1659405"><ele>876.0</ele><time>2026-03-28T07:45:25.953Z</time></trkpt><trkpt lat="41.8243124" lon="2.1657997"><ele>873.6666666666667</ele><time>2026-03-28T07:45:26.949Z</time></trkpt><trkpt lat="41.8241922" lon="2.1656372"><ele>871.3333333333334</ele><time>2026-03-28T07:45:27.951Z</time></trkpt><trkpt lat="41.8240812" lon="2.1654501"><ele>869.0</ele><time>2026-03-28T07:45:28.954Z</time></trkpt><trkpt lat="41.8239758" lon="2.1652205"><ele>869.0</ele><time>2026-03-28T07:45:29.958Z</time></trkpt><trkpt lat="41.8238756" lon="2.1649406"><ele>869.0</ele><time>2026-03-28T07:45:30.961Z</time></trkpt><trkpt lat="41.8237776" lon="2.1646098"><ele>869.0</ele><time>2026-03-28T07:45:31.971Z</time></trkpt><trkpt lat="41.8236625" lon="2.1642351"><ele>869.0</ele><time>2026-03-28T07:45:32.958Z</time></trkpt><trkpt lat="41.823523" lon="2.1638176"><ele>864.5</ele><time>2026-03-28T07:45:33.948Z</time></trkpt><trkpt lat="41.8233869" lon="2.1633816"><ele>860.0</ele><time>2026-03-28T07:45:34.947Z</time></trkpt><trkpt lat="41.8232532" lon="2.1629806"><ele>860.0</ele><time>2026-03-28T07:45:35.948Z</time></trkpt><trkpt lat="41.8231255" lon="2.1626281"><ele>860.0</ele><time>2026-03-28T07:45:36.953Z</time></trkpt><trkpt lat="41.8229923" lon="2.1623129"><ele>860.5</ele><time>2026-03-28T07:45:37.946Z</time></trkpt><trkpt lat="41.8228515" lon="2.16205"><ele>861.0</ele><time>2026-03-28T07:45:38.941Z</time></trkpt><trkpt lat="41.822706" lon="2.16183"><ele>860.3333333333333</ele><time>2026-03-28T07:45:39.951Z</time></trkpt><trkpt lat="41.82256" lon="2.1616482"><ele>859.6666666666666</ele><time>2026-03-28T07:45:40.94Z</time></trkpt><trkpt lat="41.822381" lon="2.1615149"><ele>859.0</ele><time>2026-03-28T07:45:41.94Z</time></trkpt><trkpt lat="41.8221668" lon="2.1614119"><ele>859.0</ele><time>2026-03-28T07:45:42.938Z</time></trkpt><trkpt lat="41.8219093" lon="2.1613224"><ele>859.0</ele><time>2026-03-28T07:45:43.926Z</time></trkpt><trkpt lat="41.8216648" lon="2.1612125"><ele>857.3333333333333</ele><time>2026-03-28T07:45:44.944Z</time></trkpt><trkpt lat="41.821491" lon="2.1611147"><ele>855.6666666666667</ele><time>2026-03-28T07:45:45.933Z</time></trkpt><trkpt lat="41.8213547" lon="2.160994"><ele>854.0</ele><time>2026-03-28T07:45:46.932Z</time></trkpt><trkpt lat="41.8212607" lon="2.1608437"><ele>856.0</ele><time>2026-03-28T07:45:47.934Z</time></trkpt><trkpt lat="41.8211895" lon="2.160618"><ele>858.0</ele><time>2026-03-28T07:45:48.923Z</time></trkpt><trkpt lat="41.8211302" lon="2.1603241"><ele>860.0</ele><time>2026-03-28T07:45:49.933Z</time></trkpt><trkpt lat="41.8210458" lon="2.159988"><ele>860.0</ele><time>2026-03-28T07:45:50.924Z</time></trkpt><trkpt lat="41.8209852" lon="2.1596922"><ele>860.0</ele><time>2026-03-28T07:45:51.935Z</time></trkpt><trkpt lat="41.8209306" lon="2.1594593"><ele>860.0</ele><time>2026-03-28T07:45:52.934Z</time></trkpt><trkpt lat="41.8208819" lon="2.1592662"><ele>859.25</ele><time>2026-03-28T07:45:53.917Z</time></trkpt><trkpt lat="41.8208183" lon="2.1591"><ele>858.5</ele><time>2026-03-28T07:45:54.929Z</time></trkpt><trkpt lat="41.8207342" lon="2.1589773"><ele>857.75</ele><time>2026-03-28T07:45:55.911Z</time></trkpt><trkpt lat="41.8206047" lon="2.1588662"><ele>857.0</ele><time>2026-03-28T07:45:56.927Z</time></trkpt><trkpt lat="41.8204627" lon="2.1587836"><ele>857.0</ele><time>2026-03-28T07:45:57.918Z</time></trkpt><trkpt lat="41.8203185" lon="2.1587179"><ele>857.0</ele><time>2026-03-28T07:45:58.925Z</time></trkpt><trkpt lat="41.8201824" lon="2.1586516"><ele>857.0</ele><time>2026-03-28T07:45:59.927Z</time></trkpt><trkpt lat="41.8200564" lon="2.1585782"><ele>857.0</ele><time>2026-03-28T07:46:00.927Z</time></trkpt><trkpt lat="41.819915" lon="2.1585012"><ele>854.6666666666667</ele><time>2026-03-28T07:46:01.93Z</time></trkpt><trkpt lat="41.8197707" lon="2.1584193"><ele>852.3333333333333</ele><time>2026-03-28T07:46:02.937Z</time></trkpt><trkpt lat="41.819621" lon="2.1583298"><ele>850.0</ele><time>2026-03-28T07:46:03.932Z</time></trkpt><trkpt lat="41.8194867" lon="2.1582311"><ele>850.3333333333333</ele><time>2026-03-28T07:46:04.942Z</time></trkpt><trkpt lat="41.8193664" lon="2.1581131"><ele>850.6666666666667</ele><time>2026-03-28T07:46:05.934Z</time></trkpt><trkpt lat="41.8192697" lon="2.1579696"><ele>851.0</ele><time>2026-03-28T07:46:06.938Z</time></trkpt><trkpt lat="41.8191678" lon="2.1577816"><ele>851.0</ele><time>2026-03-28T07:46:07.935Z</time></trkpt><trkpt lat="41.8190726" lon="2.1575719"><ele>851.0</ele><time>2026-03-28T07:46:08.942Z</time></trkpt><trkpt lat="41.8189571" lon="2.1573096"><ele>851.0</ele><time>2026-03-28T07:46:09.946Z</time></trkpt><trkpt lat="41.8188277" lon="2.1570084"><ele>851.0</ele><time>2026-03-28T07:46:10.944Z</time></trkpt><trkpt lat="41.8186758" lon="2.1566487"><ele>851.0</ele><time>2026-03-28T07:46:11.943Z</time></trkpt><trkpt lat="41.8185154" lon="2.1562303"><ele>849.0</ele><time>2026-03-28T07:46:12.935Z</time></trkpt><trkpt lat="41.8183396" lon="2.1557988"><ele>847.0</ele><time>2026-03-28T07:46:13.935Z</time></trkpt><trkpt lat="41.8181537" lon="2.1553436"><ele>845.5</ele><time>2026-03-28T07:46:14.932Z</time></trkpt><trkpt lat="41.8179563" lon="2.1548741"><ele>844.0</ele><time>2026-03-28T07:46:15.931Z</time></trkpt><trkpt lat="41.8177501" lon="2.1543804"><ele>840.5</ele><time>2026-03-28T07:46:16.933Z</time></trkpt><trkpt lat="41.8175403" lon="2.1538912"><ele>837.0</ele><time>2026-03-28T07:46:17.946Z</time></trkpt><trkpt lat="41.817359" lon="2.1534532"><ele>837.0</ele><time>2026-03-28T07:46:18.948Z</time></trkpt><trkpt lat="41.8171894" lon="2.1530478"><ele>837.0</ele><time>2026-03-28T07:46:19.936Z</time></trkpt><trkpt lat="41.8170146" lon="2.1526569"><ele>836.0</ele><time>2026-03-28T07:46:20.943Z</time></trkpt><trkpt lat="41.816829" lon="2.1522612"><ele>835.0</ele><time>2026-03-28T07:46:21.942Z</time></trkpt><trkpt lat="41.8166642" lon="2.1518904"><ele>833.0</ele><time>2026-03-28T07:46:22.936Z</time></trkpt><trkpt lat="41.8164989" lon="2.1515497"><ele>831.0</ele><time>2026-03-28T07:46:23.937Z</time></trkpt><trkpt lat="41.8163619" lon="2.1512394"><ele>830.0</ele><time>2026-03-28T07:46:24.949Z</time></trkpt><trkpt lat="41.8162354" lon="2.1509598"><ele>829.0</ele><time>2026-03-28T07:46:25.95Z</time></trkpt><trkpt lat="41.816126" lon="2.1507122"><ele>828.0</ele><time>2026-03-28T07:46:26.935Z</time></trkpt><trkpt lat="41.8160443" lon="2.1505048"><ele>827.0</ele><time>2026-03-28T07:46:27.952Z</time></trkpt><trkpt lat="41.8159859" lon="2.1502891"><ele>826.0</ele><time>2026-03-28T07:46:28.95Z</time></trkpt><trkpt lat="41.815991" lon="2.1500675"><ele>824.6666666666666</ele><time>2026-03-28T07:46:29.948Z</time></trkpt><trkpt lat="41.8160473" lon="2.1498355"><ele>823.3333333333333</ele><time>2026-03-28T07:46:30.947Z</time></trkpt><trkpt lat="41.8161529" lon="2.1496282"><ele>822.0</ele><time>2026-03-28T07:46:31.944Z</time></trkpt><trkpt lat="41.8163089" lon="2.149422"><ele>822.0</ele><time>2026-03-28T07:46:32.941Z</time></trkpt><trkpt lat="41.8165064" lon="2.1492297"><ele>822.0</ele><time>2026-03-28T07:46:33.953Z</time></trkpt><trkpt lat="41.8167212" lon="2.1490346"><ele>819.6666666666667</ele><time>2026-03-28T07:46:34.935Z</time></trkpt><trkpt lat="41.8168934" lon="2.1488373"><ele>817.3333333333334</ele><time>2026-03-28T07:46:35.931Z</time></trkpt><trkpt lat="41.8170273" lon="2.1486217"><ele>815.0</ele><time>2026-03-28T07:46:36.933Z</time></trkpt><trkpt lat="41.8171378" lon="2.1484289"><ele>815.0</ele><time>2026-03-28T07:46:37.936Z</time></trkpt><trkpt lat="41.8172" lon="2.1482643"><ele>815.0</ele><time>2026-03-28T07:46:38.929Z</time></trkpt><trkpt lat="41.8172376" lon="2.148085"><ele>815.0</ele><time>2026-03-28T07:46:39.935Z</time></trkpt><trkpt lat="41.81722" lon="2.14789"><ele>815.0</ele><time>2026-03-28T07:46:40.943Z</time></trkpt><trkpt lat="41.8171519" lon="2.1476757"><ele>815.0</ele><time>2026-03-28T07:46:41.944Z</time></trkpt><trkpt lat="41.8170386" lon="2.147443"><ele>815.0</ele><time>2026-03-28T07:46:42.931Z</time></trkpt><trkpt lat="41.8169096" lon="2.1472251"><ele>815.0</ele><time>2026-03-28T07:46:43.945Z</time></trkpt><trkpt lat="41.8168413" lon="2.1470311"><ele>814.5</ele><time>2026-03-28T07:46:44.945Z</time></trkpt><trkpt lat="41.8168162" lon="2.1468436"><ele>814.0</ele><time>2026-03-28T07:46:45.943Z</time></trkpt><trkpt lat="41.816846" lon="2.1466477"><ele>813.5</ele><time>2026-03-28T07:46:46.956Z</time></trkpt><trkpt lat="41.8169086" lon="2.1464656"><ele>813.0</ele><time>2026-03-28T07:46:47.94Z</time></trkpt><trkpt lat="41.8170382" lon="2.1462818"><ele>810.6666666666667</ele><time>2026-03-28T07:46:48.939Z</time></trkpt><trkpt lat="41.8171558" lon="2.146058"><ele>808.3333333333334</ele><time>2026-03-28T07:46:49.925Z</time></trkpt><trkpt lat="41.8172244" lon="2.145817"><ele>806.0</ele><time>2026-03-28T07:46:50.944Z</time></trkpt><trkpt lat="41.8172537" lon="2.1455888"><ele>805.3333333333334</ele><time>2026-03-28T07:46:51.935Z</time></trkpt><trkpt lat="41.817227" lon="2.1453587"><ele>804.6666666666667</ele><time>2026-03-28T07:46:52.939Z</time></trkpt><trkpt lat="41.8171454" lon="2.1450828"><ele>804.0</ele><time>2026-03-28T07:46:53.939Z</time></trkpt><trkpt lat="41.8170351" lon="2.1447388"><ele>803.0</ele><time>2026-03-28T07:46:54.92Z</time></trkpt><trkpt lat="41.8169202" lon="2.1443592"><ele>802.0</ele><time>2026-03-28T07:46:55.923Z</time></trkpt><trkpt lat="41.816797" lon="2.1439596"><ele>799.0</ele><time>2026-03-28T07:46:56.909Z</time></trkpt><trkpt lat="41.816683" lon="2.1435697"><ele>796.0</ele><time>2026-03-28T07:46:57.915Z</time></trkpt><trkpt lat="41.8165952" lon="2.143235"><ele>796.0</ele><time>2026-03-28T07:46:58.918Z</time></trkpt><trkpt lat="41.8165062" lon="2.1429614"><ele>796.0</ele><time>2026-03-28T07:46:59.92Z</time></trkpt><trkpt lat="41.8163866" lon="2.142701"><ele>796.0</ele><time>2026-03-28T07:47:00.922Z</time></trkpt><trkpt lat="41.8162053" lon="2.1424318"><ele>796.0</ele><time>2026-03-28T07:47:01.919Z</time></trkpt><trkpt lat="41.8159919" lon="2.1421524"><ele>793.0</ele><time>2026-03-28T07:47:02.914Z</time></trkpt><trkpt lat="41.8157622" lon="2.1418603"><ele>790.0</ele><time>2026-03-28T07:47:03.923Z</time></trkpt><trkpt lat="41.8155371" lon="2.141577"><ele>790.0</ele><time>2026-03-28T07:47:04.94Z</time></trkpt><trkpt lat="41.8153347" lon="2.141328"><ele>790.0</ele><time>2026-03-28T07:47:05.928Z</time></trkpt><trkpt lat="41.8151804" lon="2.1411087"><ele>788.3333333333333</ele><time>2026-03-28T07:47:06.927Z</time></trkpt><trkpt lat="41.8150616" lon="2.1409412"><ele>786.6666666666667</ele><time>2026-03-28T07:47:07.924Z</time></trkpt><trkpt lat="41.8149771" lon="2.1407552"><ele>785.0</ele><time>2026-03-28T07:47:08.94Z</time></trkpt><trkpt lat="41.8149498" lon="2.140542"><ele>783.3333333333334</ele><time>2026-03-28T07:47:09.931Z</time></trkpt><trkpt lat="41.8149683" lon="2.1402673"><ele>781.6666666666667</ele><time>2026-03-28T07:47:10.944Z</time></trkpt><trkpt lat="41.8150082" lon="2.1399781"><ele>780.0</ele><time>2026-03-28T07:47:11.938Z</time></trkpt><trkpt lat="41.8150647" lon="2.1397326"><ele>778.25</ele><time>2026-03-28T07:47:12.939Z</time></trkpt><trkpt lat="41.815141" lon="2.1395483"><ele>776.5</ele><time>2026-03-28T07:47:13.941Z</time></trkpt><trkpt lat="41.8152526" lon="2.1394386"><ele>774.75</ele><time>2026-03-28T07:47:14.944Z</time></trkpt><trkpt lat="41.8153919" lon="2.139376"><ele>773.0</ele><time>2026-03-28T07:47:15.94Z</time></trkpt><trkpt lat="41.8155703" lon="2.13933"><ele>773.0</ele><time>2026-03-28T07:47:16.932Z</time></trkpt><trkpt lat="41.815752" lon="2.139254"><ele>773.0</ele><time>2026-03-28T07:47:17.94Z</time></trkpt><trkpt lat="41.8159089" lon="2.1391193"><ele>773.0</ele><time>2026-03-28T07:47:18.941Z</time></trkpt><trkpt lat="41.8160312" lon="2.1389139"><ele>773.0</ele><time>2026-03-28T07:47:19.933Z</time></trkpt><trkpt lat="41.8161155" lon="2.1386578"><ele>773.0</ele><time>2026-03-28T07:47:20.939Z</time></trkpt><trkpt lat="41.8161715" lon="2.1383796"><ele>773.0</ele><time>2026-03-28T07:47:21.938Z</time></trkpt><trkpt lat="41.8161828" lon="2.1380933"><ele>773.0</ele><time>2026-03-28T07:47:22.94Z</time></trkpt><trkpt lat="41.8161411" lon="2.137821"><ele>773.0</ele><time>2026-03-28T07:47:23.94Z</time></trkpt><trkpt lat="41.8160332" lon="2.1375622"><ele>773.0</ele><time>2026-03-28T07:47:24.94Z</time></trkpt><trkpt lat="41.8158793" lon="2.1372986"><ele>771.5</ele><time>2026-03-28T07:47:25.939Z</time></trkpt><trkpt lat="41.8157087" lon="2.1370132"><ele>770.0</ele><time>2026-03-28T07:47:26.935Z</time></trkpt><trkpt lat="41.8155768" lon="2.1366689"><ele>768.5</ele><time>2026-03-28T07:47:27.945Z</time></trkpt><trkpt lat="41.8154758" lon="2.1362934"><ele>767.0</ele><time>2026-03-28T07:47:28.93Z</time></trkpt><trkpt lat="41.8153882" lon="2.1358731"><ele>764.5</ele><time>2026-03-28T07:47:29.93Z</time></trkpt><trkpt lat="41.8153044" lon="2.1354183"><ele>762.0</ele><time>2026-03-28T07:47:30.927Z</time></trkpt><trkpt lat="41.8152063" lon="2.1349438"><ele>757.5</ele><time>2026-03-28T07:47:31.917Z</time></trkpt><trkpt lat="41.8151043" lon="2.1344533"><ele>753.0</ele><time>2026-03-28T07:47:32.919Z</time></trkpt><trkpt lat="41.8150081" lon="2.1339409"><ele>751.5</ele><time>2026-03-28T07:47:33.928Z</time></trkpt><trkpt lat="41.8149099" lon="2.1334165"><ele>750.0</ele><time>2026-03-28T07:47:34.929Z</time></trkpt><trkpt lat="41.8148001" lon="2.1328662"><ele>748.5</ele><time>2026-03-28T07:47:35.955Z</time></trkpt><trkpt lat="41.8146852" lon="2.1323157"><ele>747.0</ele><time>2026-03-28T07:47:36.937Z</time></trkpt><trkpt lat="41.8145638" lon="2.1317479"><ele>745.0</ele><time>2026-03-28T07:47:37.94Z</time></trkpt><trkpt lat="41.8144423" lon="2.1312039"><ele>743.0</ele><time>2026-03-28T07:47:38.952Z</time></trkpt><trkpt lat="41.8143504" lon="2.1307165"><ele>741.0</ele><time>2026-03-28T07:47:39.943Z</time></trkpt><trkpt lat="41.8142583" lon="2.1302584"><ele>739.0</ele><time>2026-03-28T07:47:40.935Z</time></trkpt><trkpt lat="41.814178" lon="2.129815"><ele>737.0</ele><time>2026-03-28T07:47:41.932Z</time></trkpt><trkpt lat="41.8141065" lon="2.1293534"><ele>735.0</ele><time>2026-03-28T07:47:42.93Z</time></trkpt><trkpt lat="41.814068" lon="2.128877"><ele>735.0</ele><time>2026-03-28T07:47:43.946Z</time></trkpt><trkpt lat="41.8140436" lon="2.1283719"><ele>735.0</ele><time>2026-03-28T07:47:44.946Z</time></trkpt><trkpt lat="41.8140252" lon="2.1278721"><ele>733.0</ele><time>2026-03-28T07:47:45.944Z</time></trkpt><trkpt lat="41.8139995" lon="2.1274232"><ele>731.0</ele><time>2026-03-28T07:47:46.944Z</time></trkpt><trkpt lat="41.8139781" lon="2.1270022"><ele>730.0</ele><time>2026-03-28T07:47:47.943Z</time></trkpt><trkpt lat="41.8139639" lon="2.1266206"><ele>729.0</ele><time>2026-03-28T07:47:48.935Z</time></trkpt><trkpt lat="41.8139423" lon="2.1262583"><ele>728.0</ele><time>2026-03-28T07:47:49.931Z</time></trkpt><trkpt lat="41.8139216" lon="2.1259022"><ele>727.0</ele><time>2026-03-28T07:47:50.936Z</time></trkpt><trkpt lat="41.8139032" lon="2.1255508"><ele>726.0</ele><time>2026-03-28T07:47:51.933Z</time></trkpt><trkpt lat="41.8138736" lon="2.1252186"><ele>725.0</ele><time>2026-03-28T07:47:52.937Z</time></trkpt><trkpt lat="41.8138509" lon="2.1248691"><ele>723.5</ele><time>2026-03-28T07:47:53.94Z</time></trkpt><trkpt lat="41.8138323" lon="2.1245136"><ele>722.0</ele><time>2026-03-28T07:47:54.941Z</time></trkpt><trkpt lat="41.8138092" lon="2.1241531"><ele>719.5</ele><time>2026-03-28T07:47:55.945Z</time></trkpt><trkpt lat="41.8137936" lon="2.1237891"><ele>717.0</ele><time>2026-03-28T07:47:56.947Z</time></trkpt><trkpt lat="41.8137744" lon="2.123418"><ele>716.5</ele><time>2026-03-28T07:47:57.938Z</time></trkpt><trkpt lat="41.8137651" lon="2.1230445"><ele>716.0</ele><time>2026-03-28T07:47:58.944Z</time></trkpt><trkpt lat="41.8137418" lon="2.1226693"><ele>714.0</ele><time>2026-03-28T07:47:59.947Z</time></trkpt><trkpt lat="41.8137181" lon="2.1222873"><ele>712.0</ele><time>2026-03-28T07:48:00.944Z</time></trkpt><trkpt lat="41.8136992" lon="2.1219122"><ele>711.0</ele><time>2026-03-28T07:48:01.95Z</time></trkpt><trkpt lat="41.8136726" lon="2.1215327"><ele>710.0</ele><time>2026-03-28T07:48:02.953Z</time></trkpt><trkpt lat="41.8136486" lon="2.1211512"><ele>710.0</ele><time>2026-03-28T07:48:03.948Z</time></trkpt><trkpt lat="41.8136264" lon="2.1207828"><ele>710.0</ele><time>2026-03-28T07:48:04.954Z</time></trkpt><trkpt lat="41.8136024" lon="2.1204084"><ele>710.0</ele><time>2026-03-28T07:48:05.956Z</time></trkpt><trkpt lat="41.8135855" lon="2.120033"><ele>710.0</ele><time>2026-03-28T07:48:06.951Z</time></trkpt><trkpt lat="41.8135616" lon="2.1196439"><ele>708.5</ele><time>2026-03-28T07:48:07.949Z</time></trkpt><trkpt lat="41.8135396" lon="2.1192612"><ele>707.0</ele><time>2026-03-28T07:48:08.948Z</time></trkpt><trkpt lat="41.8135223" lon="2.1188837"><ele>705.0</ele><time>2026-03-28T07:48:09.947Z</time></trkpt><trkpt lat="41.8135047" lon="2.1185031"><ele>703.0</ele><time>2026-03-28T07:48:10.949Z</time></trkpt><trkpt lat="41.8134866" lon="2.1181222"><ele>703.0</ele><time>2026-03-28T07:48:11.945Z</time></trkpt><trkpt lat="41.8134682" lon="2.1177286"><ele>703.0</ele><time>2026-03-28T07:48:12.944Z</time></trkpt><trkpt lat="41.8134471" lon="2.1173491"><ele>702.5</ele><time>2026-03-28T07:48:13.947Z</time></trkpt><trkpt lat="41.8134279" lon="2.1169721"><ele>702.0</ele><time>2026-03-28T07:48:14.936Z</time></trkpt><trkpt lat="41.8134077" lon="2.1166126"><ele>701.0</ele><time>2026-03-28T07:48:15.949Z</time></trkpt><trkpt lat="41.8133906" lon="2.1162987"><ele>700.0</ele><time>2026-03-28T07:48:16.939Z</time></trkpt><trkpt lat="41.8133737" lon="2.1160007"><ele>700.0</ele><time>2026-03-28T07:48:17.934Z</time></trkpt><trkpt lat="41.8133252" lon="2.115729"><ele>700.0</ele><time>2026-03-28T07:48:18.957Z</time></trkpt><trkpt lat="41.8132447" lon="2.1154668"><ele>700.0</ele><time>2026-03-28T07:48:19.948Z</time></trkpt><trkpt lat="41.8131175" lon="2.1151862"><ele>699.0</ele><time>2026-03-28T07:48:20.948Z</time></trkpt><trkpt lat="41.8129516" lon="2.1148856"><ele>698.0</ele><time>2026-03-28T07:48:21.944Z</time></trkpt><trkpt lat="41.8127528" lon="2.1145674"><ele>696.5</ele><time>2026-03-28T07:48:22.937Z</time></trkpt><trkpt lat="41.8125648" lon="2.1142164"><ele>695.0</ele><time>2026-03-28T07:48:23.938Z</time></trkpt><trkpt lat="41.8123544" lon="2.113818"><ele>695.0</ele><time>2026-03-28T07:48:24.933Z</time></trkpt><trkpt lat="41.8121235" lon="2.1134003"><ele>695.0</ele><time>2026-03-28T07:48:25.932Z</time></trkpt><trkpt lat="41.8118832" lon="2.1129599"><ele>692.5</ele><time>2026-03-28T07:48:26.94Z</time></trkpt><trkpt lat="41.811638" lon="2.1124998"><ele>690.0</ele><time>2026-03-28T07:48:27.933Z</time></trkpt><trkpt lat="41.8114118" lon="2.1120757"><ele>688.5</ele><time>2026-03-28T07:48:28.941Z</time></trkpt><trkpt lat="41.811207" lon="2.1116892"><ele>687.0</ele><time>2026-03-28T07:48:29.946Z</time></trkpt><trkpt lat="41.8110314" lon="2.1113624"><ele>685.0</ele><time>2026-03-28T07:48:30.948Z</time></trkpt><trkpt lat="41.81086" lon="2.1110574"><ele>683.0</ele><time>2026-03-28T07:48:31.939Z</time></trkpt><trkpt lat="41.810708" lon="2.1107893"><ele>680.5</ele><time>2026-03-28T07:48:32.932Z</time></trkpt><trkpt lat="41.8105671" lon="2.1105221"><ele>678.0</ele><time>2026-03-28T07:48:33.937Z</time></trkpt><trkpt lat="41.8104531" lon="2.1102722"><ele>678.0</ele><time>2026-03-28T07:48:34.954Z</time></trkpt><trkpt lat="41.8103603" lon="2.1100067"><ele>678.0</ele><time>2026-03-28T07:48:35.946Z</time></trkpt><trkpt lat="41.81029" lon="2.1097163"><ele>678.0</ele><time>2026-03-28T07:48:36.957Z</time></trkpt><trkpt lat="41.8102431" lon="2.1093825"><ele>676.0</ele><time>2026-03-28T07:48:37.949Z</time></trkpt><trkpt lat="41.8102184" lon="2.1090135"><ele>674.0</ele><time>2026-03-28T07:48:38.941Z</time></trkpt><trkpt lat="41.8102142" lon="2.1086468"><ele>674.0</ele><time>2026-03-28T07:48:39.934Z</time></trkpt><trkpt lat="41.8102177" lon="2.1083506"><ele>674.0</ele><time>2026-03-28T07:48:40.928Z</time></trkpt><trkpt lat="41.8101899" lon="2.1080806"><ele>674.0</ele><time>2026-03-28T07:48:41.946Z</time></trkpt><trkpt lat="41.8101488" lon="2.1078791"><ele>675.3333333333333</ele><time>2026-03-28T07:48:42.942Z</time></trkpt><trkpt lat="41.8100665" lon="2.1076944"><ele>676.6666666666666</ele><time>2026-03-28T07:48:43.944Z</time></trkpt><trkpt lat="41.8099416" lon="2.107537"><ele>678.0</ele><time>2026-03-28T07:48:44.949Z</time></trkpt><trkpt lat="41.8097884" lon="2.1074284"><ele>679.3333333333334</ele><time>2026-03-28T07:48:45.935Z</time></trkpt><trkpt lat="41.8096044" lon="2.1073722"><ele>680.6666666666667</ele><time>2026-03-28T07:48:46.924Z</time></trkpt><trkpt lat="41.8094337" lon="2.1073215"><ele>682.0</ele><time>2026-03-28T07:48:47.937Z</time></trkpt><trkpt lat="41.8092972" lon="2.1072453"><ele>682.0</ele><time>2026-03-28T07:48:48.943Z</time></trkpt><trkpt lat="41.8091721" lon="2.1071355"><ele>682.0</ele><time>2026-03-28T07:48:49.932Z</time></trkpt><trkpt lat="41.8090615" lon="2.1070074"><ele>682.0</ele><time>2026-03-28T07:48:50.939Z</time></trkpt><trkpt lat="41.8089824" lon="2.1068417"><ele>682.0</ele><time>2026-03-28T07:48:51.929Z</time></trkpt><trkpt lat="41.808917" lon="2.1066616"><ele>682.6666666666667</ele><time>2026-03-28T07:48:52.933Z</time></trkpt><trkpt lat="41.8088574" lon="2.1064609"><ele>683.3333333333334</ele><time>2026-03-28T07:48:53.934Z</time></trkpt><trkpt lat="41.8088058" lon="2.1062313"><ele>684.0</ele><time>2026-03-28T07:48:54.929Z</time></trkpt><trkpt lat="41.8087556" lon="2.1060063"><ele>684.0</ele><time>2026-03-28T07:48:55.928Z</time></trkpt><trkpt lat="41.8087117" lon="2.1057828"><ele>684.0</ele><time>2026-03-28T07:48:56.941Z</time></trkpt><trkpt lat="41.8086802" lon="2.1055707"><ele>684.0</ele><time>2026-03-28T07:48:57.933Z</time></trkpt><trkpt lat="41.8086639" lon="2.1053705"><ele>683.6666666666666</ele><time>2026-03-28T07:48:58.931Z</time></trkpt><trkpt lat="41.8086732" lon="2.1051681"><ele>683.3333333333333</ele><time>2026-03-28T07:48:59.935Z</time></trkpt><trkpt lat="41.8086931" lon="2.1049649"><ele>683.0</ele><time>2026-03-28T07:49:00.941Z</time></trkpt><trkpt lat="41.8087426" lon="2.1047525"><ele>683.0</ele><time>2026-03-28T07:49:01.938Z</time></trkpt><trkpt lat="41.8087856" lon="2.1045693"><ele>683.0</ele><time>2026-03-28T07:49:02.947Z</time></trkpt><trkpt lat="41.8088248" lon="2.1044033"><ele>683.0</ele><time>2026-03-28T07:49:03.944Z</time></trkpt><trkpt lat="41.808868" lon="2.1042598"><ele>683.0</ele><time>2026-03-28T07:49:04.954Z</time></trkpt><trkpt lat="41.8089199" lon="2.1041363"><ele>683.5</ele><time>2026-03-28T07:49:05.948Z</time></trkpt><trkpt lat="41.8089638" lon="2.1040096"><ele>684.0</ele><time>2026-03-28T07:49:06.951Z</time></trkpt><trkpt lat="41.8089629" lon="2.1038671"><ele>684.5</ele><time>2026-03-28T07:49:07.967Z</time></trkpt><trkpt lat="41.8089497" lon="2.10371"><ele>685.0</ele><time>2026-03-28T07:49:08.956Z</time></trkpt><trkpt lat="41.8089451" lon="2.103543"><ele>685.0</ele><time>2026-03-28T07:49:09.93Z</time></trkpt><trkpt lat="41.8089555" lon="2.1033691"><ele>685.0</ele><time>2026-03-28T07:49:10.937Z</time></trkpt><trkpt lat="41.8089982" lon="2.1031753"><ele>685.0</ele><time>2026-03-28T07:49:11.933Z</time></trkpt><trkpt lat="41.8090449" lon="2.1029906"><ele>685.0</ele><time>2026-03-28T07:49:12.928Z</time></trkpt><trkpt lat="41.809074" lon="2.1028241"><ele>685.0</ele><time>2026-03-28T07:49:13.929Z</time></trkpt><trkpt lat="41.8091071" lon="2.1026829"><ele>685.0</ele><time>2026-03-28T07:49:14.932Z</time></trkpt><trkpt lat="41.8091399" lon="2.1025749"><ele>685.0</ele><time>2026-03-28T07:49:15.941Z</time></trkpt><trkpt lat="41.8091909" lon="2.1024926"><ele>685.0</ele><time>2026-03-28T07:49:16.939Z</time></trkpt><trkpt lat="41.8092339" lon="2.1024265"><ele>685.0</ele><time>2026-03-28T07:49:17.941Z</time></trkpt><trkpt lat="41.8092752" lon="2.102356"><ele>685.0</ele><time>2026-03-28T07:49:18.933Z</time></trkpt><trkpt lat="41.809333" lon="2.1022446"><ele>685.0</ele><time>2026-03-28T07:49:20.941Z</time></trkpt><trkpt lat="41.8093499" lon="2.102161"><ele>685.0</ele><time>2026-03-28T07:52:10.943Z</time></trkpt><trkpt lat="41.8093489" lon="2.1020731"><ele>685.0</ele><time>2026-03-28T07:54:22.945Z</time></trkpt><trkpt lat="41.8093557" lon="2.1019491"><ele>685.0</ele><time>2026-03-28T07:54:25.929Z</time></trkpt><trkpt lat="41.8093266" lon="2.1018371"><ele>685.0</ele><time>2026-03-28T07:54:27.933Z</time></trkpt><trkpt lat="41.8093121" lon="2.1017211"><ele>685.0</ele><time>2026-03-28T07:54:29.928Z</time></trkpt><trkpt lat="41.8093223" lon="2.1015384"><ele>686.8</ele><time>2026-03-28T07:54:31.927Z</time></trkpt><trkpt lat="41.8093469" lon="2.1014211"><ele>688.6</ele><time>2026-03-28T07:54:32.931Z</time></trkpt><trkpt lat="41.8093699" lon="2.1012834"><ele>690.4000000000001</ele><time>2026-03-28T07:54:33.935Z</time></trkpt><trkpt lat="41.8093953" lon="2.101144"><ele>692.2</ele><time>2026-03-28T07:54:34.947Z</time></trkpt><trkpt lat="41.8094201" lon="2.1010007"><ele>694.0</ele><time>2026-03-28T07:54:35.935Z</time></trkpt><trkpt lat="41.8094497" lon="2.1008639"><ele>694.25</ele><time>2026-03-28T07:54:36.942Z</time></trkpt><trkpt lat="41.8094784" lon="2.1007184"><ele>694.5</ele><time>2026-03-28T07:54:37.938Z</time></trkpt><trkpt lat="41.8095127" lon="2.1005636"><ele>694.75</ele><time>2026-03-28T07:54:38.942Z</time></trkpt><trkpt lat="41.8095369" lon="2.1004195"><ele>695.0</ele><time>2026-03-28T07:54:39.933Z</time></trkpt><trkpt lat="41.8095455" lon="2.1002694"><ele>695.0</ele><time>2026-03-28T07:54:40.917Z</time></trkpt><trkpt lat="41.8095441" lon="2.1001204"><ele>695.0</ele><time>2026-03-28T07:54:41.925Z</time></trkpt><trkpt lat="41.8095252" lon="2.0999776"><ele>695.0</ele><time>2026-03-28T07:54:42.93Z</time></trkpt><trkpt lat="41.8095024" lon="2.0998415"><ele>695.0</ele><time>2026-03-28T07:54:43.928Z</time></trkpt><trkpt lat="41.8094749" lon="2.0997"><ele>695.0</ele><time>2026-03-28T07:54:44.926Z</time></trkpt><trkpt lat="41.8094401" lon="2.0995684"><ele>695.25</ele><time>2026-03-28T07:54:45.923Z</time></trkpt><trkpt lat="41.8093904" lon="2.0994213"><ele>695.5</ele><time>2026-03-28T07:54:46.935Z</time></trkpt><trkpt lat="41.8093336" lon="2.0992697"><ele>695.75</ele><time>2026-03-28T07:54:47.946Z</time></trkpt><trkpt lat="41.8092818" lon="2.0991129"><ele>696.0</ele><time>2026-03-28T07:54:48.939Z</time></trkpt><trkpt lat="41.8092316" lon="2.098962"><ele>696.0</ele><time>2026-03-28T07:54:49.936Z</time></trkpt><trkpt lat="41.8091796" lon="2.0988227"><ele>696.0</ele><time>2026-03-28T07:54:50.939Z</time></trkpt><trkpt lat="41.8091398" lon="2.0986903"><ele>696.0</ele><time>2026-03-28T07:54:51.939Z</time></trkpt><trkpt lat="41.8091032" lon="2.0985688"><ele>696.0</ele><time>2026-03-28T07:54:52.947Z</time></trkpt><trkpt lat="41.8090733" lon="2.0984417"><ele>696.0</ele><time>2026-03-28T07:54:53.951Z</time></trkpt><trkpt lat="41.8090605" lon="2.0983166"><ele>696.8</ele><time>2026-03-28T07:54:54.942Z</time></trkpt><trkpt lat="41.8090667" lon="2.0981841"><ele>697.5999999999999</ele><time>2026-03-28T07:54:55.94Z</time></trkpt><trkpt lat="41.8090766" lon="2.0980551"><ele>698.4</ele><time>2026-03-28T07:54:56.944Z</time></trkpt><trkpt lat="41.8090884" lon="2.0979254"><ele>699.2</ele><time>2026-03-28T07:54:57.949Z</time></trkpt><trkpt lat="41.8090968" lon="2.0977861"><ele>700.0</ele><time>2026-03-28T07:54:58.94Z</time></trkpt><trkpt lat="41.8091189" lon="2.0976424"><ele>700.0</ele><time>2026-03-28T07:54:59.939Z</time></trkpt><trkpt lat="41.8091229" lon="2.0974939"><ele>700.0</ele><time>2026-03-28T07:55:00.959Z</time></trkpt><trkpt lat="41.8091298" lon="2.0973454"><ele>700.0</ele><time>2026-03-28T07:55:01.944Z</time></trkpt><trkpt lat="41.8091435" lon="2.0971883"><ele>700.0</ele><time>2026-03-28T07:55:02.938Z</time></trkpt><trkpt lat="41.8091589" lon="2.0970291"><ele>700.0</ele><time>2026-03-28T07:55:03.942Z</time></trkpt><trkpt lat="41.8091688" lon="2.0968727"><ele>700.0</ele><time>2026-03-28T07:55:04.946Z</time></trkpt><trkpt lat="41.8091845" lon="2.096716"><ele>700.0</ele><time>2026-03-28T07:55:05.933Z</time></trkpt><trkpt lat="41.8092011" lon="2.0965613"><ele>700.0</ele><time>2026-03-28T07:55:06.927Z</time></trkpt><trkpt lat="41.809238" lon="2.0964028"><ele>700.0</ele><time>2026-03-28T07:55:07.94Z</time></trkpt><trkpt lat="41.8092884" lon="2.0962515"><ele>700.0</ele><time>2026-03-28T07:55:08.943Z</time></trkpt><trkpt lat="41.8093466" lon="2.0961097"><ele>700.0</ele><time>2026-03-28T07:55:09.945Z</time></trkpt><trkpt lat="41.8094112" lon="2.0959699"><ele>700.0</ele><time>2026-03-28T07:55:10.944Z</time></trkpt><trkpt lat="41.8094817" lon="2.09583"><ele>701.0</ele><time>2026-03-28T07:55:11.946Z</time></trkpt><trkpt lat="41.8095509" lon="2.0956889"><ele>702.0</ele><time>2026-03-28T07:55:12.945Z</time></trkpt><trkpt lat="41.8096169" lon="2.0955516"><ele>703.0</ele><time>2026-03-28T07:55:13.947Z</time></trkpt><trkpt lat="41.8096884" lon="2.0954112"><ele>704.0</ele><time>2026-03-28T07:55:14.951Z</time></trkpt><trkpt lat="41.80976" lon="2.095263"><ele>704.0</ele><time>2026-03-28T07:55:15.948Z</time></trkpt><trkpt lat="41.8098271" lon="2.095115"><ele>704.0</ele><time>2026-03-28T07:55:16.946Z</time></trkpt><trkpt lat="41.8098921" lon="2.0949616"><ele>704.0</ele><time>2026-03-28T07:55:17.942Z</time></trkpt><trkpt lat="41.8099612" lon="2.0948037"><ele>704.0</ele><time>2026-03-28T07:55:18.953Z</time></trkpt><trkpt lat="41.8100248" lon="2.09466"><ele>703.25</ele><time>2026-03-28T07:55:19.947Z</time></trkpt><trkpt lat="41.8100856" lon="2.0945298"><ele>702.5</ele><time>2026-03-28T07:55:20.949Z</time></trkpt><trkpt lat="41.8101491" lon="2.0944053"><ele>701.75</ele><time>2026-03-28T07:55:21.946Z</time></trkpt><trkpt lat="41.8102198" lon="2.0942711"><ele>701.0</ele><time>2026-03-28T07:55:22.96Z</time></trkpt><trkpt lat="41.8102885" lon="2.094126"><ele>702.5</ele><time>2026-03-28T07:55:23.955Z</time></trkpt><trkpt lat="41.8103571" lon="2.0939717"><ele>704.0</ele><time>2026-03-28T07:55:24.953Z</time></trkpt><trkpt lat="41.8104243" lon="2.0938259"><ele>705.5</ele><time>2026-03-28T07:55:25.956Z</time></trkpt><trkpt lat="41.8104887" lon="2.0936989"><ele>707.0</ele><time>2026-03-28T07:55:26.957Z</time></trkpt><trkpt lat="41.810543" lon="2.0935792"><ele>707.0</ele><time>2026-03-28T07:55:27.947Z</time></trkpt><trkpt lat="41.8105868" lon="2.0934958"><ele>707.0</ele><time>2026-03-28T07:55:28.943Z</time></trkpt><trkpt lat="41.8106326" lon="2.0933833"><ele>707.0</ele><time>2026-03-28T07:55:30.952Z</time></trkpt><trkpt lat="41.8106809" lon="2.0932733"><ele>707.0</ele><time>2026-03-28T07:55:51.962Z</time></trkpt><trkpt lat="41.8107156" lon="2.0931986"><ele>707.0</ele><time>2026-03-28T07:55:52.958Z</time></trkpt><trkpt lat="41.8107588" lon="2.0930956"><ele>707.0</ele><time>2026-03-28T07:55:53.957Z</time></trkpt><trkpt lat="41.8108112" lon="2.0929449"><ele>706.5</ele><time>2026-03-28T07:55:54.958Z</time></trkpt><trkpt lat="41.8108554" lon="2.0927714"><ele>706.0</ele><time>2026-03-28T07:55:55.942Z</time></trkpt><trkpt lat="41.8109001" lon="2.0926091"><ele>705.5</ele><time>2026-03-28T07:55:56.949Z</time></trkpt><trkpt lat="41.8109459" lon="2.0924284"><ele>705.0</ele><time>2026-03-28T07:55:57.949Z</time></trkpt><trkpt lat="41.8109908" lon="2.092248"><ele>707.0</ele><time>2026-03-28T07:55:58.952Z</time></trkpt><trkpt lat="41.8110307" lon="2.0920559"><ele>709.0</ele><time>2026-03-28T07:55:59.954Z</time></trkpt><trkpt lat="41.8110593" lon="2.0918551"><ele>711.0</ele><time>2026-03-28T07:56:00.961Z</time></trkpt><trkpt lat="41.8111088" lon="2.0916691"><ele>713.0</ele><time>2026-03-28T07:56:01.96Z</time></trkpt><trkpt lat="41.8111532" lon="2.0914797"><ele>714.0</ele><time>2026-03-28T07:56:02.968Z</time></trkpt><trkpt lat="41.8111922" lon="2.0912804"><ele>715.0</ele><time>2026-03-28T07:56:03.961Z</time></trkpt><trkpt lat="41.8112223" lon="2.0910793"><ele>716.0</ele><time>2026-03-28T07:56:04.961Z</time></trkpt><trkpt lat="41.8112648" lon="2.0908842"><ele>714.6666666666666</ele><time>2026-03-28T07:56:05.956Z</time></trkpt><trkpt lat="41.8113071" lon="2.0906868"><ele>713.3333333333334</ele><time>2026-03-28T07:56:06.957Z</time></trkpt><trkpt lat="41.8113513" lon="2.0904805"><ele>712.0</ele><time>2026-03-28T07:56:07.965Z</time></trkpt><trkpt lat="41.8113895" lon="2.0902697"><ele>712.0</ele><time>2026-03-28T07:56:08.962Z</time></trkpt><trkpt lat="41.8114481" lon="2.0900567"><ele>712.0</ele><time>2026-03-28T07:56:09.959Z</time></trkpt><trkpt lat="41.8114942" lon="2.0898524"><ele>712.0</ele><time>2026-03-28T07:56:10.954Z</time></trkpt><trkpt lat="41.8115348" lon="2.0896525"><ele>710.5</ele><time>2026-03-28T07:56:11.957Z</time></trkpt><trkpt lat="41.8115759" lon="2.0894641"><ele>709.0</ele><time>2026-03-28T07:56:12.96Z</time></trkpt><trkpt lat="41.8116145" lon="2.0892713"><ele>707.5</ele><time>2026-03-28T07:56:13.956Z</time></trkpt><trkpt lat="41.81166" lon="2.0890743"><ele>706.0</ele><time>2026-03-28T07:56:14.957Z</time></trkpt><trkpt lat="41.8116926" lon="2.0888715"><ele>706.0</ele><time>2026-03-28T07:56:15.961Z</time></trkpt><trkpt lat="41.8117219" lon="2.0886577"><ele>706.0</ele><time>2026-03-28T07:56:16.955Z</time></trkpt><trkpt lat="41.8117472" lon="2.0884487"><ele>706.0</ele><time>2026-03-28T07:56:17.964Z</time></trkpt><trkpt lat="41.8117627" lon="2.0882352"><ele>706.0</ele><time>2026-03-28T07:56:18.96Z</time></trkpt><trkpt lat="41.8117738" lon="2.0880208"><ele>706.0</ele><time>2026-03-28T07:56:19.96Z</time></trkpt><trkpt lat="41.8117843" lon="2.0878157"><ele>706.0</ele><time>2026-03-28T07:56:20.968Z</time></trkpt><trkpt lat="41.8117966" lon="2.087607"><ele>706.0</ele><time>2026-03-28T07:56:21.957Z</time></trkpt><trkpt lat="41.8118116" lon="2.0873845"><ele>706.0</ele><time>2026-03-28T07:56:22.959Z</time></trkpt><trkpt lat="41.8118307" lon="2.0871769"><ele>706.0</ele><time>2026-03-28T07:56:23.953Z</time></trkpt><trkpt lat="41.8118523" lon="2.0869809"><ele>707.4</ele><time>2026-03-28T07:56:24.956Z</time></trkpt><trkpt lat="41.8118703" lon="2.0868068"><ele>708.8</ele><time>2026-03-28T07:56:25.957Z</time></trkpt><trkpt lat="41.8118719" lon="2.0866935"><ele>710.1999999999999</ele><time>2026-03-28T07:56:26.951Z</time></trkpt><trkpt lat="41.8118842" lon="2.0865585"><ele>711.5999999999999</ele><time>2026-03-28T07:56:28.941Z</time></trkpt><trkpt lat="41.8118824" lon="2.0864513"><ele>713.0</ele><time>2026-03-28T07:56:30.949Z</time></trkpt><trkpt lat="41.8118919" lon="2.0863673"><ele>713.2</ele><time>2026-03-28T07:56:31.942Z</time></trkpt><trkpt lat="41.8118932" lon="2.0862599"><ele>713.4</ele><time>2026-03-28T07:56:32.951Z</time></trkpt><trkpt lat="41.8118982" lon="2.0861327"><ele>713.6</ele><time>2026-03-28T07:56:33.955Z</time></trkpt><trkpt lat="41.8119029" lon="2.0859766"><ele>713.8000000000001</ele><time>2026-03-28T07:56:34.947Z</time></trkpt><trkpt lat="41.8119192" lon="2.0857992"><ele>714.0</ele><time>2026-03-28T07:56:35.945Z</time></trkpt><trkpt lat="41.8119369" lon="2.0855946"><ele>716.0</ele><time>2026-03-28T07:56:36.947Z</time></trkpt><trkpt lat="41.8119566" lon="2.0853746"><ele>718.0</ele><time>2026-03-28T07:56:37.954Z</time></trkpt><trkpt lat="41.811981" lon="2.0851436"><ele>720.0</ele><time>2026-03-28T07:56:38.959Z</time></trkpt><trkpt lat="41.8120045" lon="2.0849003"><ele>720.0</ele><time>2026-03-28T07:56:39.955Z</time></trkpt><trkpt lat="41.8120262" lon="2.084657"><ele>720.0</ele><time>2026-03-28T07:56:40.954Z</time></trkpt><trkpt lat="41.8120568" lon="2.0844035"><ele>720.0</ele><time>2026-03-28T07:56:41.952Z</time></trkpt><trkpt lat="41.8121096" lon="2.0841533"><ele>719.0</ele><time>2026-03-28T07:56:42.964Z</time></trkpt><trkpt lat="41.8121733" lon="2.0838884"><ele>718.0</ele><time>2026-03-28T07:56:43.945Z</time></trkpt><trkpt lat="41.812262" lon="2.0836275"><ele>717.0</ele><time>2026-03-28T07:56:44.949Z</time></trkpt><trkpt lat="41.8123625" lon="2.0833507"><ele>717.5</ele><time>2026-03-28T07:56:45.944Z</time></trkpt><trkpt lat="41.8124659" lon="2.083057"><ele>718.0</ele><time>2026-03-28T07:56:46.946Z</time></trkpt><trkpt lat="41.8125724" lon="2.0827529"><ele>719.0</ele><time>2026-03-28T07:56:47.951Z</time></trkpt><trkpt lat="41.8126664" lon="2.0824614"><ele>720.0</ele><time>2026-03-28T07:56:48.938Z</time></trkpt><trkpt lat="41.8127468" lon="2.0822072"><ele>721.0</ele><time>2026-03-28T07:56:49.954Z</time></trkpt><trkpt lat="41.8128153" lon="2.0819778"><ele>721.0</ele><time>2026-03-28T07:56:50.945Z</time></trkpt><trkpt lat="41.8128678" lon="2.0817529"><ele>721.0</ele><time>2026-03-28T07:56:51.972Z</time></trkpt><trkpt lat="41.8129089" lon="2.0815379"><ele>721.0</ele><time>2026-03-28T07:56:52.945Z</time></trkpt><trkpt lat="41.81294" lon="2.081342"><ele>720.5999999999999</ele><time>2026-03-28T07:56:53.937Z</time></trkpt><trkpt lat="41.8129637" lon="2.081189"><ele>720.2</ele><time>2026-03-28T07:56:54.949Z</time></trkpt><trkpt lat="41.8129716" lon="2.0810701"><ele>719.8</ele><time>2026-03-28T07:56:55.941Z</time></trkpt><trkpt lat="41.8129824" lon="2.0809693"><ele>719.4000000000001</ele><time>2026-03-28T07:56:56.947Z</time></trkpt><trkpt lat="41.8129992" lon="2.0808446"><ele>719.0</ele><time>2026-03-28T07:56:58.943Z</time></trkpt><trkpt lat="41.8129868" lon="2.080674"><ele>719.0</ele><time>2026-03-28T07:57:00.951Z</time></trkpt><trkpt lat="41.8129971" lon="2.080545"><ele>719.0</ele><time>2026-03-28T07:57:01.936Z</time></trkpt><trkpt lat="41.8130095" lon="2.0804096"><ele>719.0</ele><time>2026-03-28T07:57:02.94Z</time></trkpt><trkpt lat="41.8130213" lon="2.0802739"><ele>719.0</ele><time>2026-03-28T07:57:03.95Z</time></trkpt><trkpt lat="41.8130318" lon="2.0801549"><ele>719.0</ele><time>2026-03-28T07:57:04.958Z</time></trkpt><trkpt lat="41.8130386" lon="2.080032"><ele>719.6</ele><time>2026-03-28T07:57:05.952Z</time></trkpt><trkpt lat="41.8130463" lon="2.0799046"><ele>720.2</ele><time>2026-03-28T07:57:06.958Z</time></trkpt><trkpt lat="41.8130539" lon="2.0797678"><ele>720.8000000000001</ele><time>2026-03-28T07:57:07.959Z</time></trkpt><trkpt lat="41.8130708" lon="2.0796097"><ele>721.4000000000001</ele><time>2026-03-28T07:57:08.958Z</time></trkpt><trkpt lat="41.8130831" lon="2.0794381"><ele>722.0</ele><time>2026-03-28T07:57:09.951Z</time></trkpt><trkpt lat="41.8130966" lon="2.0792515"><ele>723.5</ele><time>2026-03-28T07:57:10.949Z</time></trkpt><trkpt lat="41.8131153" lon="2.0790571"><ele>725.0</ele><time>2026-03-28T07:57:11.956Z</time></trkpt><trkpt lat="41.8131255" lon="2.0788579"><ele>726.5</ele><time>2026-03-28T07:57:12.96Z</time></trkpt><trkpt lat="41.8131381" lon="2.0786577"><ele>728.0</ele><time>2026-03-28T07:57:13.952Z</time></trkpt><trkpt lat="41.8131508" lon="2.0784373"><ele>728.3333333333333</ele><time>2026-03-28T07:57:14.949Z</time></trkpt><trkpt lat="41.813173" lon="2.0782178"><ele>728.6666666666666</ele><time>2026-03-28T07:57:15.957Z</time></trkpt><trkpt lat="41.8132047" lon="2.0779987"><ele>729.0</ele><time>2026-03-28T07:57:16.955Z</time></trkpt><trkpt lat="41.8132163" lon="2.0777704"><ele>729.0</ele><time>2026-03-28T07:57:17.953Z</time></trkpt><trkpt lat="41.8132252" lon="2.0775421"><ele>729.0</ele><time>2026-03-28T07:57:18.951Z</time></trkpt><trkpt lat="41.8132222" lon="2.0773175"><ele>729.0</ele><time>2026-03-28T07:57:19.945Z</time></trkpt><trkpt lat="41.8132019" lon="2.0770741"><ele>728.0</ele><time>2026-03-28T07:57:20.945Z</time></trkpt><trkpt lat="41.8131693" lon="2.0768052"><ele>727.0</ele><time>2026-03-28T07:57:21.95Z</time></trkpt><trkpt lat="41.8131179" lon="2.0764876"><ele>726.0</ele><time>2026-03-28T07:57:22.946Z</time></trkpt><trkpt lat="41.8130843" lon="2.0761549"><ele>724.5</ele><time>2026-03-28T07:57:23.951Z</time></trkpt><trkpt lat="41.8130517" lon="2.0757841"><ele>723.0</ele><time>2026-03-28T07:57:24.957Z</time></trkpt><trkpt lat="41.8130373" lon="2.0753856"><ele>721.0</ele><time>2026-03-28T07:57:25.952Z</time></trkpt><trkpt lat="41.8130009" lon="2.0749717"><ele>719.0</ele><time>2026-03-28T07:57:26.952Z</time></trkpt><trkpt lat="41.8129598" lon="2.07456"><ele>717.0</ele><time>2026-03-28T07:57:27.956Z</time></trkpt><trkpt lat="41.8129228" lon="2.0741601"><ele>715.0</ele><time>2026-03-28T07:57:28.945Z</time></trkpt><trkpt lat="41.8128966" lon="2.073781"><ele>713.5</ele><time>2026-03-28T07:57:29.951Z</time></trkpt><trkpt lat="41.8128531" lon="2.0734002"><ele>712.0</ele><time>2026-03-28T07:57:30.947Z</time></trkpt><trkpt lat="41.8128168" lon="2.0730085"><ele>712.0</ele><time>2026-03-28T07:57:31.959Z</time></trkpt><trkpt lat="41.8127814" lon="2.0726249"><ele>712.0</ele><time>2026-03-28T07:57:32.949Z</time></trkpt><trkpt lat="41.812747" lon="2.0722356"><ele>711.5</ele><time>2026-03-28T07:57:33.953Z</time></trkpt><trkpt lat="41.8127115" lon="2.071841"><ele>711.0</ele><time>2026-03-28T07:57:34.957Z</time></trkpt><trkpt lat="41.8126711" lon="2.0714327"><ele>708.5</ele><time>2026-03-28T07:57:35.945Z</time></trkpt><trkpt lat="41.8126256" lon="2.0710119"><ele>706.0</ele><time>2026-03-28T07:57:36.952Z</time></trkpt><trkpt lat="41.8125808" lon="2.0705805"><ele>704.5</ele><time>2026-03-28T07:57:37.948Z</time></trkpt><trkpt lat="41.8125392" lon="2.0701433"><ele>703.0</ele><time>2026-03-28T07:57:38.954Z</time></trkpt><trkpt lat="41.812497" lon="2.069703"><ele>702.5</ele><time>2026-03-28T07:57:39.952Z</time></trkpt><trkpt lat="41.8124599" lon="2.0692651"><ele>702.0</ele><time>2026-03-28T07:57:40.959Z</time></trkpt><trkpt lat="41.8124223" lon="2.0688279"><ele>700.5</ele><time>2026-03-28T07:57:41.955Z</time></trkpt><trkpt lat="41.8123841" lon="2.0683867"><ele>699.0</ele><time>2026-03-28T07:57:42.955Z</time></trkpt><trkpt lat="41.8123425" lon="2.0679505"><ele>697.0</ele><time>2026-03-28T07:57:43.952Z</time></trkpt><trkpt lat="41.8123027" lon="2.0675186"><ele>695.0</ele><time>2026-03-28T07:57:44.957Z</time></trkpt><trkpt lat="41.8122643" lon="2.0670826"><ele>693.5</ele><time>2026-03-28T07:57:45.954Z</time></trkpt><trkpt lat="41.8122259" lon="2.0666511"><ele>692.0</ele><time>2026-03-28T07:57:46.948Z</time></trkpt><trkpt lat="41.8121873" lon="2.0662218"><ele>689.5</ele><time>2026-03-28T07:57:47.953Z</time></trkpt><trkpt lat="41.8121559" lon="2.0657888"><ele>687.0</ele><time>2026-03-28T07:57:48.959Z</time></trkpt><trkpt lat="41.8121196" lon="2.0653653"><ele>687.0</ele><time>2026-03-28T07:57:49.955Z</time></trkpt><trkpt lat="41.8120862" lon="2.0649392"><ele>687.0</ele><time>2026-03-28T07:57:50.965Z</time></trkpt><trkpt lat="41.8120519" lon="2.0645155"><ele>687.5</ele><time>2026-03-28T07:57:51.958Z</time></trkpt><trkpt lat="41.8120068" lon="2.0640906"><ele>688.0</ele><time>2026-03-28T07:57:52.964Z</time></trkpt><trkpt lat="41.8119599" lon="2.0636647"><ele>687.5</ele><time>2026-03-28T07:57:53.957Z</time></trkpt><trkpt lat="41.8119189" lon="2.0632349"><ele>687.0</ele><time>2026-03-28T07:57:54.959Z</time></trkpt><trkpt lat="41.8118746" lon="2.0628078"><ele>686.0</ele><time>2026-03-28T07:57:55.949Z</time></trkpt><trkpt lat="41.8118374" lon="2.062373"><ele>685.0</ele><time>2026-03-28T07:57:56.956Z</time></trkpt><trkpt lat="41.8117998" lon="2.0619433"><ele>682.0</ele><time>2026-03-28T07:57:57.961Z</time></trkpt><trkpt lat="41.8117555" lon="2.0615132"><ele>679.0</ele><time>2026-03-28T07:57:58.949Z</time></trkpt><trkpt lat="41.8117167" lon="2.0610765"><ele>678.0</ele><time>2026-03-28T07:57:59.952Z</time></trkpt><trkpt lat="41.8116768" lon="2.0606257"><ele>677.0</ele><time>2026-03-28T07:58:00.961Z</time></trkpt><trkpt lat="41.8116455" lon="2.0601652"><ele>677.5</ele><time>2026-03-28T07:58:01.959Z</time></trkpt><trkpt lat="41.8116021" lon="2.0596812"><ele>678.0</ele><time>2026-03-28T07:58:02.948Z</time></trkpt><trkpt lat="41.8115512" lon="2.0591779"><ele>679.0</ele><time>2026-03-28T07:58:03.947Z</time></trkpt><trkpt lat="41.8114963" lon="2.0586438"><ele>680.0</ele><time>2026-03-28T07:58:04.953Z</time></trkpt><trkpt lat="41.8114396" lon="2.0581103"><ele>680.0</ele><time>2026-03-28T07:58:05.956Z</time></trkpt><trkpt lat="41.8114039" lon="2.0576066"><ele>680.0</ele><time>2026-03-28T07:58:06.951Z</time></trkpt><trkpt lat="41.8113644" lon="2.0571507"><ele>680.0</ele><time>2026-03-28T07:58:07.954Z</time></trkpt><trkpt lat="41.811323" lon="2.0567195"><ele>680.0</ele><time>2026-03-28T07:58:08.944Z</time></trkpt><trkpt lat="41.8112901" lon="2.0563269"><ele>680.0</ele><time>2026-03-28T07:58:09.935Z</time></trkpt><trkpt lat="41.8112483" lon="2.0559437"><ele>680.0</ele><time>2026-03-28T07:58:10.923Z</time></trkpt><trkpt lat="41.8112174" lon="2.0555753"><ele>678.0</ele><time>2026-03-28T07:58:11.925Z</time></trkpt><trkpt lat="41.8111687" lon="2.0552109"><ele>676.0</ele><time>2026-03-28T07:58:12.923Z</time></trkpt><trkpt lat="41.8111039" lon="2.0548376"><ele>668.5</ele><time>2026-03-28T07:58:13.922Z</time></trkpt><trkpt lat="41.8110422" lon="2.0544935"><ele>661.0</ele><time>2026-03-28T07:58:14.923Z</time></trkpt><trkpt lat="41.810991" lon="2.0541538"><ele>665.3333333333334</ele><time>2026-03-28T07:58:15.928Z</time></trkpt><trkpt lat="41.8109304" lon="2.0538862"><ele>669.6666666666666</ele><time>2026-03-28T07:58:16.916Z</time></trkpt><trkpt lat="41.810831" lon="2.0536199"><ele>674.0</ele><time>2026-03-28T07:58:17.935Z</time></trkpt><trkpt lat="41.8106685" lon="2.0533579"><ele>665.0</ele><time>2026-03-28T07:58:18.924Z</time></trkpt><trkpt lat="41.8104984" lon="2.0530733"><ele>656.0</ele><time>2026-03-28T07:58:19.92Z</time></trkpt><trkpt lat="41.8103082" lon="2.052768"><ele>656.0</ele><time>2026-03-28T07:58:20.927Z</time></trkpt><trkpt lat="41.8101752" lon="2.0524656"><ele>656.0</ele><time>2026-03-28T07:58:21.938Z</time></trkpt><trkpt lat="41.8100533" lon="2.0521484"><ele>659.0</ele><time>2026-03-28T07:58:22.941Z</time></trkpt><trkpt lat="41.809965" lon="2.0518291"><ele>662.0</ele><time>2026-03-28T07:58:23.953Z</time></trkpt><trkpt lat="41.8098885" lon="2.0514952"><ele>662.0</ele><time>2026-03-28T07:58:24.949Z</time></trkpt><trkpt lat="41.8098011" lon="2.0511577"><ele>662.0</ele><time>2026-03-28T07:58:25.953Z</time></trkpt><trkpt lat="41.8097147" lon="2.0508097"><ele>661.5</ele><time>2026-03-28T07:58:26.954Z</time></trkpt><trkpt lat="41.8096183" lon="2.0504722"><ele>661.0</ele><time>2026-03-28T07:58:27.955Z</time></trkpt><trkpt lat="41.8095215" lon="2.0501232"><ele>661.0</ele><time>2026-03-28T07:58:28.951Z</time></trkpt><trkpt lat="41.8094332" lon="2.0497676"><ele>661.0</ele><time>2026-03-28T07:58:29.955Z</time></trkpt><trkpt lat="41.8093374" lon="2.0494254"><ele>660.0</ele><time>2026-03-28T07:58:30.963Z</time></trkpt><trkpt lat="41.8092498" lon="2.0490884"><ele>659.0</ele><time>2026-03-28T07:58:31.971Z</time></trkpt><trkpt lat="41.8091648" lon="2.048763"><ele>659.0</ele><time>2026-03-28T07:58:32.967Z</time></trkpt><trkpt lat="41.8090767" lon="2.0484488"><ele>659.0</ele><time>2026-03-28T07:58:33.972Z</time></trkpt><trkpt lat="41.8089956" lon="2.0481405"><ele>660.0</ele><time>2026-03-28T07:58:34.964Z</time></trkpt><trkpt lat="41.8088988" lon="2.0478272"><ele>661.0</ele><time>2026-03-28T07:58:35.97Z</time></trkpt><trkpt lat="41.8088075" lon="2.0475043"><ele>662.5</ele><time>2026-03-28T07:58:36.97Z</time></trkpt><trkpt lat="41.8087052" lon="2.0471596"><ele>664.0</ele><time>2026-03-28T07:58:37.961Z</time></trkpt><trkpt lat="41.8086101" lon="2.0467977"><ele>664.5</ele><time>2026-03-28T07:58:38.964Z</time></trkpt><trkpt lat="41.8085089" lon="2.0464291"><ele>665.0</ele><time>2026-03-28T07:58:39.964Z</time></trkpt><trkpt lat="41.8084003" lon="2.04604"><ele>665.0</ele><time>2026-03-28T07:58:40.967Z</time></trkpt><trkpt lat="41.8082954" lon="2.0456311"><ele>665.0</ele><time>2026-03-28T07:58:41.966Z</time></trkpt><trkpt lat="41.8081809" lon="2.0452032"><ele>665.5</ele><time>2026-03-28T07:58:42.966Z</time></trkpt><trkpt lat="41.8080768" lon="2.0447931"><ele>666.0</ele><time>2026-03-28T07:58:43.961Z</time></trkpt><trkpt lat="41.8079898" lon="2.0444215"><ele>665.0</ele><time>2026-03-28T07:58:44.975Z</time></trkpt><trkpt lat="41.807898" lon="2.044087"><ele>664.0</ele><time>2026-03-28T07:58:45.968Z</time></trkpt><trkpt lat="41.8078048" lon="2.0437968"><ele>664.0</ele><time>2026-03-28T07:58:46.971Z</time></trkpt><trkpt lat="41.8076882" lon="2.0435503"><ele>664.0</ele><time>2026-03-28T07:58:47.951Z</time></trkpt><trkpt lat="41.8075415" lon="2.0433112"><ele>664.0</ele><time>2026-03-28T07:58:48.964Z</time></trkpt><trkpt lat="41.8073476" lon="2.0430711"><ele>668.0</ele><time>2026-03-28T07:58:49.953Z</time></trkpt><trkpt lat="41.8071313" lon="2.0428027"><ele>672.0</ele><time>2026-03-28T07:58:50.951Z</time></trkpt><trkpt lat="41.8069277" lon="2.0425246"><ele>670.5</ele><time>2026-03-28T07:58:51.947Z</time></trkpt><trkpt lat="41.8067345" lon="2.0422919"><ele>669.0</ele><time>2026-03-28T07:58:52.968Z</time></trkpt><trkpt lat="41.8065922" lon="2.0420672"><ele>669.0</ele><time>2026-03-28T07:58:53.966Z</time></trkpt><trkpt lat="41.8064596" lon="2.0418408"><ele>669.0</ele><time>2026-03-28T07:58:54.968Z</time></trkpt><trkpt lat="41.8063531" lon="2.0415916"><ele>669.0</ele><time>2026-03-28T07:58:55.964Z</time></trkpt><trkpt lat="41.8062753" lon="2.0413002"><ele>666.0</ele><time>2026-03-28T07:58:56.971Z</time></trkpt><trkpt lat="41.8062224" lon="2.040985"><ele>663.0</ele><time>2026-03-28T07:58:57.95Z</time></trkpt><trkpt lat="41.8061751" lon="2.0406377"><ele>660.0</ele><time>2026-03-28T07:58:58.951Z</time></trkpt><trkpt lat="41.8061351" lon="2.0402621"><ele>657.0</ele><time>2026-03-28T07:58:59.953Z</time></trkpt><trkpt lat="41.8060715" lon="2.0398729"><ele>655.5</ele><time>2026-03-28T07:59:00.952Z</time></trkpt><trkpt lat="41.8060128" lon="2.039493"><ele>654.0</ele><time>2026-03-28T07:59:01.967Z</time></trkpt><trkpt lat="41.8060024" lon="2.0391351"><ele>656.5</ele><time>2026-03-28T07:59:02.957Z</time></trkpt><trkpt lat="41.8059935" lon="2.0388023"><ele>659.0</ele><time>2026-03-28T07:59:03.969Z</time></trkpt><trkpt lat="41.8059511" lon="2.038521"><ele>657.3333333333333</ele><time>2026-03-28T07:59:04.963Z</time></trkpt><trkpt lat="41.8059" lon="2.0382609"><ele>655.6666666666666</ele><time>2026-03-28T07:59:05.973Z</time></trkpt><trkpt lat="41.8058184" lon="2.0380419"><ele>654.0</ele><time>2026-03-28T07:59:06.974Z</time></trkpt><trkpt lat="41.8056829" lon="2.0378144"><ele>654.0</ele><time>2026-03-28T07:59:07.977Z</time></trkpt><trkpt lat="41.8055187" lon="2.0375933"><ele>654.0</ele><time>2026-03-28T07:59:08.967Z</time></trkpt><trkpt lat="41.8053407" lon="2.0373361"><ele>656.0</ele><time>2026-03-28T07:59:09.972Z</time></trkpt><trkpt lat="41.8051986" lon="2.0370081"><ele>658.0</ele><time>2026-03-28T07:59:10.969Z</time></trkpt><trkpt lat="41.8050491" lon="2.0366643"><ele>655.5</ele><time>2026-03-28T07:59:11.96Z</time></trkpt><trkpt lat="41.8049041" lon="2.036293"><ele>653.0</ele><time>2026-03-28T07:59:12.958Z</time></trkpt><trkpt lat="41.8047568" lon="2.0359092"><ele>651.0</ele><time>2026-03-28T07:59:13.945Z</time></trkpt><trkpt lat="41.8046078" lon="2.0355267"><ele>649.0</ele><time>2026-03-28T07:59:14.946Z</time></trkpt><trkpt lat="41.8044628" lon="2.0351641"><ele>649.5</ele><time>2026-03-28T07:59:15.951Z</time></trkpt><trkpt lat="41.8043309" lon="2.034835"><ele>650.0</ele><time>2026-03-28T07:59:16.954Z</time></trkpt><trkpt lat="41.8041926" lon="2.0345477"><ele>650.0</ele><time>2026-03-28T07:59:17.945Z</time></trkpt><trkpt lat="41.8040449" lon="2.0342924"><ele>650.0</ele><time>2026-03-28T07:59:18.945Z</time></trkpt><trkpt lat="41.8038439" lon="2.0340582"><ele>647.5</ele><time>2026-03-28T07:59:19.954Z</time></trkpt><trkpt lat="41.8036243" lon="2.0338402"><ele>645.0</ele><time>2026-03-28T07:59:20.939Z</time></trkpt><trkpt lat="41.803384" lon="2.0336215"><ele>645.0</ele><time>2026-03-28T07:59:21.945Z</time></trkpt><trkpt lat="41.8031707" lon="2.0334142"><ele>645.0</ele><time>2026-03-28T07:59:22.952Z</time></trkpt><trkpt lat="41.8029905" lon="2.033206"><ele>643.5</ele><time>2026-03-28T07:59:23.947Z</time></trkpt><trkpt lat="41.8028374" lon="2.0329761"><ele>642.0</ele><time>2026-03-28T07:59:24.954Z</time></trkpt><trkpt lat="41.8027356" lon="2.0327031"><ele>641.0</ele><time>2026-03-28T07:59:25.97Z</time></trkpt><trkpt lat="41.8026551" lon="2.0323945"><ele>640.0</ele><time>2026-03-28T07:59:26.959Z</time></trkpt><trkpt lat="41.8026001" lon="2.0320361"><ele>640.0</ele><time>2026-03-28T07:59:27.952Z</time></trkpt><trkpt lat="41.80255" lon="2.0316521"><ele>640.0</ele><time>2026-03-28T07:59:28.951Z</time></trkpt><trkpt lat="41.802479" lon="2.0312485"><ele>639.5</ele><time>2026-03-28T07:59:29.943Z</time></trkpt><trkpt lat="41.802418" lon="2.0308257"><ele>639.0</ele><time>2026-03-28T07:59:30.94Z</time></trkpt><trkpt lat="41.8023427" lon="2.030392"><ele>635.5</ele><time>2026-03-28T07:59:31.938Z</time></trkpt><trkpt lat="41.8022752" lon="2.0299331"><ele>632.0</ele><time>2026-03-28T07:59:32.943Z</time></trkpt><trkpt lat="41.8021848" lon="2.0294601"><ele>630.0</ele><time>2026-03-28T07:59:33.944Z</time></trkpt><trkpt lat="41.8021243" lon="2.0289938"><ele>628.0</ele><time>2026-03-28T07:59:34.948Z</time></trkpt><trkpt lat="41.8020323" lon="2.0285772"><ele>626.0</ele><time>2026-03-28T07:59:35.956Z</time></trkpt><trkpt lat="41.8019575" lon="2.0281997"><ele>624.0</ele><time>2026-03-28T07:59:36.946Z</time></trkpt><trkpt lat="41.8019029" lon="2.0278525"><ele>626.5</ele><time>2026-03-28T07:59:37.938Z</time></trkpt><trkpt lat="41.80183" lon="2.0275186"><ele>629.0</ele><time>2026-03-28T07:59:38.949Z</time></trkpt><trkpt lat="41.8017934" lon="2.0272011"><ele>629.0</ele><time>2026-03-28T07:59:39.942Z</time></trkpt><trkpt lat="41.8017483" lon="2.0269119"><ele>629.0</ele><time>2026-03-28T07:59:40.937Z</time></trkpt><trkpt lat="41.8017298" lon="2.0266365"><ele>629.0</ele><time>2026-03-28T07:59:41.94Z</time></trkpt><trkpt lat="41.8017321" lon="2.0263807"><ele>629.6666666666666</ele><time>2026-03-28T07:59:42.948Z</time></trkpt><trkpt lat="41.8017818" lon="2.0261147"><ele>630.3333333333334</ele><time>2026-03-28T07:59:43.956Z</time></trkpt><trkpt lat="41.8018874" lon="2.0258667"><ele>631.0</ele><time>2026-03-28T07:59:44.938Z</time></trkpt><trkpt lat="41.8020263" lon="2.025591"><ele>626.6666666666667</ele><time>2026-03-28T07:59:45.939Z</time></trkpt><trkpt lat="41.8021498" lon="2.0253426"><ele>622.3333333333334</ele><time>2026-03-28T07:59:46.945Z</time></trkpt><trkpt lat="41.8022557" lon="2.025112"><ele>618.0</ele><time>2026-03-28T07:59:47.941Z</time></trkpt><trkpt lat="41.8023234" lon="2.0248832"><ele>617.6666666666666</ele><time>2026-03-28T07:59:48.952Z</time></trkpt><trkpt lat="41.802361" lon="2.0246375"><ele>617.3333333333333</ele><time>2026-03-28T07:59:49.955Z</time></trkpt><trkpt lat="41.80234" lon="2.0243584"><ele>617.0</ele><time>2026-03-28T07:59:50.958Z</time></trkpt><trkpt lat="41.8022886" lon="2.0240562"><ele>616.0</ele><time>2026-03-28T07:59:51.949Z</time></trkpt><trkpt lat="41.8022184" lon="2.0237336"><ele>615.0</ele><time>2026-03-28T07:59:52.949Z</time></trkpt><trkpt lat="41.8021551" lon="2.0233829"><ele>613.5</ele><time>2026-03-28T07:59:53.946Z</time></trkpt><trkpt lat="41.8020839" lon="2.0230083"><ele>612.0</ele><time>2026-03-28T07:59:54.948Z</time></trkpt><trkpt lat="41.8020136" lon="2.0226011"><ele>611.0</ele><time>2026-03-28T07:59:55.945Z</time></trkpt><trkpt lat="41.8019365" lon="2.0221839"><ele>610.0</ele><time>2026-03-28T07:59:56.957Z</time></trkpt><trkpt lat="41.8018493" lon="2.0217997"><ele>611.5</ele><time>2026-03-28T07:59:57.951Z</time></trkpt><trkpt lat="41.8017663" lon="2.0214298"><ele>613.0</ele><time>2026-03-28T07:59:58.956Z</time></trkpt><trkpt lat="41.8016822" lon="2.0210651"><ele>612.5</ele><time>2026-03-28T07:59:59.96Z</time></trkpt><trkpt lat="41.8015842" lon="2.020704"><ele>612.0</ele><time>2026-03-28T08:00:00.955Z</time></trkpt><trkpt lat="41.8014717" lon="2.0203366"><ele>612.0</ele><time>2026-03-28T08:00:01.959Z</time></trkpt><trkpt lat="41.8013199" lon="2.019959"><ele>612.0</ele><time>2026-03-28T08:00:02.954Z</time></trkpt><trkpt lat="41.8011632" lon="2.019572"><ele>612.0</ele><time>2026-03-28T08:00:03.946Z</time></trkpt><trkpt lat="41.8010103" lon="2.0191831"><ele>612.0</ele><time>2026-03-28T08:00:04.942Z</time></trkpt><trkpt lat="41.8008509" lon="2.0187987"><ele>609.5</ele><time>2026-03-28T08:00:05.95Z</time></trkpt><trkpt lat="41.8007277" lon="2.0184414"><ele>607.0</ele><time>2026-03-28T08:00:06.933Z</time></trkpt><trkpt lat="41.8006096" lon="2.018115"><ele>605.0</ele><time>2026-03-28T08:00:07.937Z</time></trkpt><trkpt lat="41.800511" lon="2.0178063"><ele>603.0</ele><time>2026-03-28T08:00:08.951Z</time></trkpt><trkpt lat="41.8004514" lon="2.0175102"><ele>602.0</ele><time>2026-03-28T08:00:09.967Z</time></trkpt><trkpt lat="41.8004399" lon="2.0171784"><ele>601.0</ele><time>2026-03-28T08:00:10.947Z</time></trkpt><trkpt lat="41.8004428" lon="2.0168049"><ele>598.5</ele><time>2026-03-28T08:00:11.957Z</time></trkpt><trkpt lat="41.8004866" lon="2.0164291"><ele>596.0</ele><time>2026-03-28T08:00:12.963Z</time></trkpt><trkpt lat="41.8005364" lon="2.0160542"><ele>595.0</ele><time>2026-03-28T08:00:13.957Z</time></trkpt><trkpt lat="41.8005842" lon="2.0157176"><ele>594.0</ele><time>2026-03-28T08:00:14.969Z</time></trkpt><trkpt lat="41.8006176" lon="2.0154102"><ele>594.0</ele><time>2026-03-28T08:00:15.969Z</time></trkpt><trkpt lat="41.8006487" lon="2.0151303"><ele>594.0</ele><time>2026-03-28T08:00:16.946Z</time></trkpt><trkpt lat="41.8006536" lon="2.0148716"><ele>594.0</ele><time>2026-03-28T08:00:17.955Z</time></trkpt><trkpt lat="41.8006247" lon="2.0146273"><ele>593.0</ele><time>2026-03-28T08:00:18.95Z</time></trkpt><trkpt lat="41.8005666" lon="2.0143457"><ele>592.0</ele><time>2026-03-28T08:00:19.955Z</time></trkpt><trkpt lat="41.8004807" lon="2.0140287"><ele>590.5</ele><time>2026-03-28T08:00:20.952Z</time></trkpt><trkpt lat="41.8003909" lon="2.0136824"><ele>589.0</ele><time>2026-03-28T08:00:21.951Z</time></trkpt><trkpt lat="41.800299" lon="2.0132921"><ele>590.5</ele><time>2026-03-28T08:00:22.941Z</time></trkpt><trkpt lat="41.8002088" lon="2.0128859"><ele>592.0</ele><time>2026-03-28T08:00:23.939Z</time></trkpt><trkpt lat="41.8001076" lon="2.0124455"><ele>592.0</ele><time>2026-03-28T08:00:24.952Z</time></trkpt><trkpt lat="41.7999929" lon="2.011967"><ele>592.0</ele><time>2026-03-28T08:00:25.948Z</time></trkpt><trkpt lat="41.7998865" lon="2.0114718"><ele>588.5</ele><time>2026-03-28T08:00:26.953Z</time></trkpt><trkpt lat="41.7997717" lon="2.0109686"><ele>585.0</ele><time>2026-03-28T08:00:27.96Z</time></trkpt><trkpt lat="41.7996447" lon="2.0104744"><ele>583.0</ele><time>2026-03-28T08:00:28.948Z</time></trkpt><trkpt lat="41.7995348" lon="2.0100135"><ele>581.0</ele><time>2026-03-28T08:00:29.95Z</time></trkpt><trkpt lat="41.7994293" lon="2.0095626"><ele>582.5</ele><time>2026-03-28T08:00:30.957Z</time></trkpt><trkpt lat="41.7993176" lon="2.0091064"><ele>584.0</ele><time>2026-03-28T08:00:31.958Z</time></trkpt><trkpt lat="41.7992043" lon="2.0086649"><ele>582.0</ele><time>2026-03-28T08:00:32.953Z</time></trkpt><trkpt lat="41.7991107" lon="2.0082084"><ele>580.0</ele><time>2026-03-28T08:00:33.958Z</time></trkpt><trkpt lat="41.7990078" lon="2.0077594"><ele>576.5</ele><time>2026-03-28T08:00:34.966Z</time></trkpt><trkpt lat="41.7989028" lon="2.0073228"><ele>573.0</ele><time>2026-03-28T08:00:35.96Z</time></trkpt><trkpt lat="41.7987927" lon="2.0068877"><ele>569.5</ele><time>2026-03-28T08:00:36.965Z</time></trkpt><trkpt lat="41.7986954" lon="2.0064508"><ele>566.0</ele><time>2026-03-28T08:00:37.959Z</time></trkpt><trkpt lat="41.7985895" lon="2.0059941"><ele>570.0</ele><time>2026-03-28T08:00:38.961Z</time></trkpt><trkpt lat="41.7984893" lon="2.0055368"><ele>574.0</ele><time>2026-03-28T08:00:39.967Z</time></trkpt><trkpt lat="41.798386" lon="2.0050761"><ele>571.5</ele><time>2026-03-28T08:00:40.968Z</time></trkpt><trkpt lat="41.7982658" lon="2.0046054"><ele>569.0</ele><time>2026-03-28T08:00:41.961Z</time></trkpt><trkpt lat="41.7981626" lon="2.0041386"><ele>565.5</ele><time>2026-03-28T08:00:42.961Z</time></trkpt><trkpt lat="41.7980744" lon="2.0037234"><ele>562.0</ele><time>2026-03-28T08:00:43.948Z</time></trkpt><trkpt lat="41.7979864" lon="2.0033348"><ele>555.0</ele><time>2026-03-28T08:00:44.956Z</time></trkpt><trkpt lat="41.7979007" lon="2.0029749"><ele>548.0</ele><time>2026-03-28T08:00:45.949Z</time></trkpt><trkpt lat="41.7978288" lon="2.0026305"><ele>544.0</ele><time>2026-03-28T08:00:46.947Z</time></trkpt><trkpt lat="41.7977594" lon="2.0023108"><ele>540.0</ele><time>2026-03-28T08:00:47.952Z</time></trkpt><trkpt lat="41.7976745" lon="2.0020255"><ele>544.3333333333334</ele><time>2026-03-28T08:00:48.947Z</time></trkpt><trkpt lat="41.7975613" lon="2.0017672"><ele>548.6666666666667</ele><time>2026-03-28T08:00:49.964Z</time></trkpt><trkpt lat="41.7974159" lon="2.0015377"><ele>553.0</ele><time>2026-03-28T08:00:50.958Z</time></trkpt><trkpt lat="41.7972469" lon="2.0013225"><ele>553.0</ele><time>2026-03-28T08:00:51.948Z</time></trkpt><trkpt lat="41.7970622" lon="2.0011138"><ele>553.0</ele><time>2026-03-28T08:00:52.96Z</time></trkpt><trkpt lat="41.7968961" lon="2.0008743"><ele>554.0</ele><time>2026-03-28T08:00:53.953Z</time></trkpt><trkpt lat="41.7967315" lon="2.0006273"><ele>555.0</ele><time>2026-03-28T08:00:54.96Z</time></trkpt><trkpt lat="41.7965578" lon="2.0003978"><ele>555.0</ele><time>2026-03-28T08:00:55.953Z</time></trkpt><trkpt lat="41.7963926" lon="2.0001759"><ele>555.0</ele><time>2026-03-28T08:00:56.961Z</time></trkpt><trkpt lat="41.7962219" lon="1.9999526"><ele>555.0</ele><time>2026-03-28T08:00:57.965Z</time></trkpt><trkpt lat="41.7960534" lon="1.9997265"><ele>555.0</ele><time>2026-03-28T08:00:58.979Z</time></trkpt><trkpt lat="41.7958854" lon="1.9994834"><ele>556.5</ele><time>2026-03-28T08:00:59.964Z</time></trkpt><trkpt lat="41.7957105" lon="1.9992564"><ele>558.0</ele><time>2026-03-28T08:01:00.958Z</time></trkpt><trkpt lat="41.7955408" lon="1.9990322"><ele>553.5</ele><time>2026-03-28T08:01:01.968Z</time></trkpt><trkpt lat="41.7953782" lon="1.9988026"><ele>549.0</ele><time>2026-03-28T08:01:02.966Z</time></trkpt><trkpt lat="41.7952098" lon="1.998569"><ele>550.0</ele><time>2026-03-28T08:01:03.963Z</time></trkpt><trkpt lat="41.7950458" lon="1.9983416"><ele>551.0</ele><time>2026-03-28T08:01:04.963Z</time></trkpt><trkpt lat="41.7948808" lon="1.9981123"><ele>551.0</ele><time>2026-03-28T08:01:05.96Z</time></trkpt><trkpt lat="41.7947156" lon="1.9978908"><ele>551.0</ele><time>2026-03-28T08:01:06.961Z</time></trkpt><trkpt lat="41.7945563" lon="1.9976651"><ele>551.0</ele><time>2026-03-28T08:01:07.966Z</time></trkpt><trkpt lat="41.7944029" lon="1.9974436"><ele>551.0</ele><time>2026-03-28T08:01:08.964Z</time></trkpt><trkpt lat="41.794252" lon="1.9972367"><ele>551.0</ele><time>2026-03-28T08:01:09.979Z</time></trkpt><trkpt lat="41.7940931" lon="1.9970377"><ele>551.0</ele><time>2026-03-28T08:01:10.961Z</time></trkpt><trkpt lat="41.7939303" lon="1.9968698"><ele>551.0</ele><time>2026-03-28T08:01:11.946Z</time></trkpt><trkpt lat="41.7937731" lon="1.9967142"><ele>551.0</ele><time>2026-03-28T08:01:12.96Z</time></trkpt><trkpt lat="41.7935938" lon="1.9965622"><ele>551.0</ele><time>2026-03-28T08:01:13.961Z</time></trkpt><trkpt lat="41.7934147" lon="1.9964147"><ele>551.0</ele><time>2026-03-28T08:01:14.964Z</time></trkpt><trkpt lat="41.7932541" lon="1.9962659"><ele>551.0</ele><time>2026-03-28T08:01:15.961Z</time></trkpt><trkpt lat="41.7931039" lon="1.9961109"><ele>551.0</ele><time>2026-03-28T08:01:16.963Z</time></trkpt><trkpt lat="41.7929485" lon="1.9959586"><ele>551.0</ele><time>2026-03-28T08:01:17.969Z</time></trkpt><trkpt lat="41.7927954" lon="1.995814"><ele>551.0</ele><time>2026-03-28T08:01:18.955Z</time></trkpt><trkpt lat="41.7926522" lon="1.9956688"><ele>550.6666666666666</ele><time>2026-03-28T08:01:19.962Z</time></trkpt><trkpt lat="41.7925171" lon="1.9955218"><ele>550.3333333333334</ele><time>2026-03-28T08:01:20.965Z</time></trkpt><trkpt lat="41.7923987" lon="1.9954011"><ele>550.0</ele><time>2026-03-28T08:01:21.963Z</time></trkpt><trkpt lat="41.7922857" lon="1.9952845"><ele>550.0</ele><time>2026-03-28T08:01:22.959Z</time></trkpt><trkpt lat="41.7921944" lon="1.9951817"><ele>550.0</ele><time>2026-03-28T08:01:23.958Z</time></trkpt><trkpt lat="41.7921354" lon="1.9950878"><ele>550.0</ele><time>2026-03-28T08:01:24.957Z</time></trkpt><trkpt lat="41.7920688" lon="1.9950185"><ele>550.0</ele><time>2026-03-28T08:01:25.964Z</time></trkpt><trkpt lat="41.7919998" lon="1.9949592"><ele>550.0</ele><time>2026-03-28T08:01:26.964Z</time></trkpt><trkpt lat="41.7919372" lon="1.9948871"><ele>550.1666666666667</ele><time>2026-03-28T08:01:27.957Z</time></trkpt><trkpt lat="41.7918613" lon="1.9948141"><ele>550.3333333333334</ele><time>2026-03-28T08:01:28.966Z</time></trkpt><trkpt lat="41.7917898" lon="1.9947528"><ele>550.5</ele><time>2026-03-28T08:01:29.979Z</time></trkpt><trkpt lat="41.7917227" lon="1.99471"><ele>550.6666666666666</ele><time>2026-03-28T08:01:30.96Z</time></trkpt><trkpt lat="41.7916541" lon="1.9946907"><ele>550.8333333333333</ele><time>2026-03-28T08:01:31.956Z</time></trkpt><trkpt lat="41.7915808" lon="1.9946952"><ele>551.0</ele><time>2026-03-28T08:01:32.958Z</time></trkpt><trkpt lat="41.7915065" lon="1.9947079"><ele>551.0</ele><time>2026-03-28T08:01:33.968Z</time></trkpt><trkpt lat="41.7913901" lon="1.9947126"><ele>551.0</ele><time>2026-03-28T08:01:35.965Z</time></trkpt><trkpt lat="41.7912885" lon="1.9947653"><ele>551.0</ele><time>2026-03-28T08:01:37.963Z</time></trkpt><trkpt lat="41.7912202" lon="1.9948319"><ele>551.0</ele><time>2026-03-28T08:01:39.966Z</time></trkpt><trkpt lat="41.7911479" lon="1.9948433"><ele>551.0</ele><time>2026-03-28T08:02:25.953Z</time></trkpt><trkpt lat="41.791084" lon="1.9948996"><ele>550.9999999999999</ele><time>2026-03-28T08:56:01.999Z</time></trkpt><trkpt lat="41.7910232" lon="1.9949442"><ele>551.0</ele><time>2026-03-28T09:06:41.964Z</time></trkpt><trkpt lat="41.7909585" lon="1.9949181"><ele>551.0</ele><time>2026-03-28T09:34:58.937Z</time></trkpt><trkpt lat="41.7908951" lon="1.9949244"><ele>551.0</ele><time>2026-03-28T09:35:21.93Z</time></trkpt><trkpt lat="41.7908121" lon="1.9949208"><ele>551.0</ele><time>2026-03-28T09:36:25.968Z</time></trkpt><trkpt lat="41.7907742" lon="1.9949946"><ele>550.9999999999999</ele><time>2026-03-28T09:36:37.958Z</time></trkpt><trkpt lat="41.7906855" lon="1.9950372"><ele>551.0</ele><time>2026-03-28T09:36:48.955Z</time></trkpt><trkpt lat="41.7905688" lon="1.9950787"><ele>551.2</ele><time>2026-03-28T09:36:51.948Z</time></trkpt><trkpt lat="41.7904947" lon="1.9951059"><ele>551.4000000000001</ele><time>2026-03-28T09:36:52.942Z</time></trkpt><trkpt lat="41.7904026" lon="1.9951426"><ele>551.6</ele><time>2026-03-28T09:36:53.939Z</time></trkpt><trkpt lat="41.7902993" lon="1.995172"><ele>551.8000000000001</ele><time>2026-03-28T09:36:54.944Z</time></trkpt><trkpt lat="41.7901888" lon="1.9952018"><ele>552.0</ele><time>2026-03-28T09:36:55.945Z</time></trkpt><trkpt lat="41.7900828" lon="1.995225"><ele>550.0</ele><time>2026-03-28T09:36:56.951Z</time></trkpt><trkpt lat="41.7899683" lon="1.9952494"><ele>548.0</ele><time>2026-03-28T09:36:57.948Z</time></trkpt><trkpt lat="41.789855" lon="1.9952783"><ele>546.0</ele><time>2026-03-28T09:36:58.952Z</time></trkpt><trkpt lat="41.7897424" lon="1.9953084"><ele>544.0</ele><time>2026-03-28T09:36:59.951Z</time></trkpt><trkpt lat="41.7896274" lon="1.995338"><ele>544.0</ele><time>2026-03-28T09:37:00.953Z</time></trkpt><trkpt lat="41.789515" lon="1.9953629"><ele>544.0</ele><time>2026-03-28T09:37:01.961Z</time></trkpt><trkpt lat="41.7894019" lon="1.9953766"><ele>544.0</ele><time>2026-03-28T09:37:02.949Z</time></trkpt><trkpt lat="41.7892907" lon="1.9953724"><ele>544.0</ele><time>2026-03-28T09:37:03.946Z</time></trkpt><trkpt lat="41.7891834" lon="1.995344"><ele>544.0</ele><time>2026-03-28T09:37:04.941Z</time></trkpt><trkpt lat="41.7890761" lon="1.9952906"><ele>543.25</ele><time>2026-03-28T09:37:05.943Z</time></trkpt><trkpt lat="41.788966" lon="1.9952137"><ele>542.5</ele><time>2026-03-28T09:37:06.935Z</time></trkpt><trkpt lat="41.788862" lon="1.9951169"><ele>541.75</ele><time>2026-03-28T09:37:07.935Z</time></trkpt><trkpt lat="41.7887646" lon="1.9950041"><ele>541.0</ele><time>2026-03-28T09:37:08.936Z</time></trkpt><trkpt lat="41.7886744" lon="1.9948953"><ele>541.25</ele><time>2026-03-28T09:37:09.932Z</time></trkpt><trkpt lat="41.7885779" lon="1.9947842"><ele>541.5</ele><time>2026-03-28T09:37:10.931Z</time></trkpt><trkpt lat="41.7884873" lon="1.994668"><ele>541.75</ele><time>2026-03-28T09:37:11.932Z</time></trkpt><trkpt lat="41.788394" lon="1.9945433"><ele>542.0</ele><time>2026-03-28T09:37:12.937Z</time></trkpt><trkpt lat="41.7883167" lon="1.9943996"><ele>542.0</ele><time>2026-03-28T09:37:13.935Z</time></trkpt><trkpt lat="41.788254" lon="1.9942399"><ele>542.0</ele><time>2026-03-28T09:37:14.943Z</time></trkpt><trkpt lat="41.7882086" lon="1.9940543"><ele>542.0</ele><time>2026-03-28T09:37:15.931Z</time></trkpt><trkpt lat="41.7881746" lon="1.9938483"><ele>542.0</ele><time>2026-03-28T09:37:16.937Z</time></trkpt><trkpt lat="41.7881665" lon="1.9936231"><ele>544.0</ele><time>2026-03-28T09:37:17.939Z</time></trkpt><trkpt lat="41.788197" lon="1.9934156"><ele>546.0</ele><time>2026-03-28T09:37:18.943Z</time></trkpt><trkpt lat="41.7882381" lon="1.9932036"><ele>548.0</ele><time>2026-03-28T09:37:19.945Z</time></trkpt><trkpt lat="41.7883032" lon="1.9929995"><ele>548.0</ele><time>2026-03-28T09:37:20.931Z</time></trkpt><trkpt lat="41.7883886" lon="1.9927869"><ele>548.0</ele><time>2026-03-28T09:37:21.935Z</time></trkpt><trkpt lat="41.788482" lon="1.9925741"><ele>548.0</ele><time>2026-03-28T09:37:22.94Z</time></trkpt><trkpt lat="41.7885716" lon="1.9923892"><ele>548.5</ele><time>2026-03-28T09:37:23.939Z</time></trkpt><trkpt lat="41.7886405" lon="1.9922259"><ele>549.0</ele><time>2026-03-28T09:37:24.941Z</time></trkpt><trkpt lat="41.7886782" lon="1.9920838"><ele>549.5</ele><time>2026-03-28T09:37:25.934Z</time></trkpt><trkpt lat="41.788683" lon="1.9919438"><ele>550.0</ele><time>2026-03-28T09:37:26.93Z</time></trkpt><trkpt lat="41.7886705" lon="1.991796"><ele>550.0</ele><time>2026-03-28T09:37:27.94Z</time></trkpt><trkpt lat="41.788609" lon="1.9916813"><ele>550.0</ele><time>2026-03-28T09:37:28.932Z</time></trkpt><trkpt lat="41.7885253" lon="1.9915965"><ele>550.0</ele><time>2026-03-28T09:37:29.941Z</time></trkpt><trkpt lat="41.7884289" lon="1.991549"><ele>550.0</ele><time>2026-03-28T09:37:30.935Z</time></trkpt><trkpt lat="41.78832" lon="1.9915116"><ele>550.0</ele><time>2026-03-28T09:37:31.936Z</time></trkpt><trkpt lat="41.7882143" lon="1.9914722"><ele>548.5</ele><time>2026-03-28T09:37:32.936Z</time></trkpt><trkpt lat="41.7881339" lon="1.9914191"><ele>547.0</ele><time>2026-03-28T09:37:33.93Z</time></trkpt><trkpt lat="41.7880676" lon="1.9913604"><ele>545.5</ele><time>2026-03-28T09:37:34.936Z</time></trkpt><trkpt lat="41.7880147" lon="1.9912833"><ele>544.0</ele><time>2026-03-28T09:37:35.934Z</time></trkpt><trkpt lat="41.7879578" lon="1.9912069"><ele>542.5</ele><time>2026-03-28T09:37:36.937Z</time></trkpt><trkpt lat="41.787892" lon="1.9911504"><ele>541.0</ele><time>2026-03-28T09:37:37.931Z</time></trkpt><trkpt lat="41.7878139" lon="1.99113"><ele>541.0</ele><time>2026-03-28T09:37:38.942Z</time></trkpt><trkpt lat="41.7877148" lon="1.9911684"><ele>541.0</ele><time>2026-03-28T09:37:39.939Z</time></trkpt><trkpt lat="41.7876305" lon="1.9912588"><ele>541.0</ele><time>2026-03-28T09:37:40.945Z</time></trkpt><trkpt lat="41.7875513" lon="1.9913665"><ele>541.0</ele><time>2026-03-28T09:37:41.939Z</time></trkpt><trkpt lat="41.7874518" lon="1.9914468"><ele>541.0</ele><time>2026-03-28T09:37:42.935Z</time></trkpt><trkpt lat="41.7873378" lon="1.9914599"><ele>539.5</ele><time>2026-03-28T09:37:43.936Z</time></trkpt><trkpt lat="41.787223" lon="1.9914425"><ele>538.0</ele><time>2026-03-28T09:37:44.938Z</time></trkpt><trkpt lat="41.7871022" lon="1.9913821"><ele>536.5</ele><time>2026-03-28T09:37:45.934Z</time></trkpt><trkpt lat="41.786972" lon="1.9912726"><ele>535.0</ele><time>2026-03-28T09:37:46.937Z</time></trkpt><trkpt lat="41.7868241" lon="1.9910948"><ele>534.6666666666667</ele><time>2026-03-28T09:37:47.935Z</time></trkpt><trkpt lat="41.7866684" lon="1.9909132"><ele>534.3333333333334</ele><time>2026-03-28T09:37:48.936Z</time></trkpt><trkpt lat="41.786542" lon="1.9907277"><ele>534.0</ele><time>2026-03-28T09:37:49.926Z</time></trkpt><trkpt lat="41.7864478" lon="1.9905015"><ele>534.0</ele><time>2026-03-28T09:37:50.944Z</time></trkpt><trkpt lat="41.7863519" lon="1.9902511"><ele>534.0</ele><time>2026-03-28T09:37:51.937Z</time></trkpt><trkpt lat="41.7862583" lon="1.9900174"><ele>534.0</ele><time>2026-03-28T09:37:52.935Z</time></trkpt><trkpt lat="41.7862011" lon="1.9897995"><ele>533.0</ele><time>2026-03-28T09:37:53.935Z</time></trkpt><trkpt lat="41.7861863" lon="1.9895809"><ele>532.0</ele><time>2026-03-28T09:37:54.926Z</time></trkpt><trkpt lat="41.7862024" lon="1.9893404"><ele>531.0</ele><time>2026-03-28T09:37:55.927Z</time></trkpt><trkpt lat="41.7862286" lon="1.9890916"><ele>531.0</ele><time>2026-03-28T09:37:56.938Z</time></trkpt><trkpt lat="41.7862739" lon="1.9888959"><ele>531.0</ele><time>2026-03-28T09:37:57.934Z</time></trkpt><trkpt lat="41.7864664" lon="1.9886061"><ele>531.0</ele><time>2026-03-28T09:37:59.941Z</time></trkpt><trkpt lat="41.7866195" lon="1.9884458"><ele>529.3333333333334</ele><time>2026-03-28T09:38:00.935Z</time></trkpt><trkpt lat="41.7867927" lon="1.9882727"><ele>527.6666666666667</ele><time>2026-03-28T09:38:01.94Z</time></trkpt><trkpt lat="41.786983" lon="1.9881156"><ele>526.0</ele><time>2026-03-28T09:38:02.947Z</time></trkpt><trkpt lat="41.7871378" lon="1.9879598"><ele>526.0</ele><time>2026-03-28T09:38:03.942Z</time></trkpt><trkpt lat="41.7872617" lon="1.9878305"><ele>526.0</ele><time>2026-03-28T09:38:04.945Z</time></trkpt><trkpt lat="41.7873419" lon="1.9877003"><ele>526.0</ele><time>2026-03-28T09:38:05.945Z</time></trkpt><trkpt lat="41.7873667" lon="1.987552"><ele>526.0</ele><time>2026-03-28T09:38:06.948Z</time></trkpt><trkpt lat="41.7873566" lon="1.9873783"><ele>524.75</ele><time>2026-03-28T09:38:07.947Z</time></trkpt><trkpt lat="41.7873145" lon="1.9872115"><ele>523.5</ele><time>2026-03-28T09:38:08.945Z</time></trkpt><trkpt lat="41.7872205" lon="1.9870587"><ele>522.25</ele><time>2026-03-28T09:38:09.934Z</time></trkpt><trkpt lat="41.7870892" lon="1.9869275"><ele>521.0</ele><time>2026-03-28T09:38:10.94Z</time></trkpt><trkpt lat="41.7869123" lon="1.9868455"><ele>520.6666666666666</ele><time>2026-03-28T09:38:11.934Z</time></trkpt><trkpt lat="41.7867166" lon="1.9867726"><ele>520.3333333333334</ele><time>2026-03-28T09:38:12.928Z</time></trkpt><trkpt lat="41.7864963" lon="1.986674"><ele>520.0</ele><time>2026-03-28T09:38:13.928Z</time></trkpt><trkpt lat="41.7862583" lon="1.9865678"><ele>517.0</ele><time>2026-03-28T09:38:14.928Z</time></trkpt><trkpt lat="41.786011" lon="1.9864436"><ele>514.0</ele><time>2026-03-28T09:38:15.932Z</time></trkpt><trkpt lat="41.7857799" lon="1.9863116"><ele>514.0</ele><time>2026-03-28T09:38:16.924Z</time></trkpt><trkpt lat="41.7855785" lon="1.986171"><ele>514.0</ele><time>2026-03-28T09:38:17.926Z</time></trkpt><trkpt lat="41.7854178" lon="1.9860719"><ele>514.0</ele><time>2026-03-28T09:38:18.937Z</time></trkpt><trkpt lat="41.7852915" lon="1.9860256"><ele>512.0</ele><time>2026-03-28T09:38:19.941Z</time></trkpt><trkpt lat="41.7851738" lon="1.986058"><ele>510.0</ele><time>2026-03-28T09:38:20.94Z</time></trkpt><trkpt lat="41.7850527" lon="1.9861654"><ele>508.0</ele><time>2026-03-28T09:38:21.944Z</time></trkpt><trkpt lat="41.7849272" lon="1.9862954"><ele>506.0</ele><time>2026-03-28T09:38:22.93Z</time></trkpt><trkpt lat="41.7847788" lon="1.9863536"><ele>506.0</ele><time>2026-03-28T09:38:23.931Z</time></trkpt><trkpt lat="41.7846329" lon="1.9863396"><ele>506.0</ele><time>2026-03-28T09:38:24.93Z</time></trkpt><trkpt lat="41.7844522" lon="1.9862928"><ele>506.0</ele><time>2026-03-28T09:38:25.925Z</time></trkpt><trkpt lat="41.7842907" lon="1.9862169"><ele>503.0</ele><time>2026-03-28T09:38:26.917Z</time></trkpt><trkpt lat="41.7841569" lon="1.9860972"><ele>500.0</ele><time>2026-03-28T09:38:27.933Z</time></trkpt><trkpt lat="41.7840544" lon="1.9859207"><ele>497.0</ele><time>2026-03-28T09:38:28.932Z</time></trkpt><trkpt lat="41.7839567" lon="1.9858054"><ele>497.0</ele><time>2026-03-28T09:38:29.937Z</time></trkpt><trkpt lat="41.7838343" lon="1.9857683"><ele>497.0</ele><time>2026-03-28T09:38:30.937Z</time></trkpt><trkpt lat="41.7837024" lon="1.9857902"><ele>497.0</ele><time>2026-03-28T09:38:31.94Z</time></trkpt><trkpt lat="41.7835608" lon="1.9858587"><ele>497.0</ele><time>2026-03-28T09:38:32.936Z</time></trkpt><trkpt lat="41.7833741" lon="1.9859542"><ele>494.0</ele><time>2026-03-28T09:38:33.924Z</time></trkpt><trkpt lat="41.7832049" lon="1.98598"><ele>491.0</ele><time>2026-03-28T09:38:34.938Z</time></trkpt><trkpt lat="41.7830504" lon="1.9859392"><ele>488.0</ele><time>2026-03-28T09:38:35.937Z</time></trkpt><trkpt lat="41.7828783" lon="1.9858504"><ele>493.3333333333333</ele><time>2026-03-28T09:38:36.931Z</time></trkpt><trkpt lat="41.7826948" lon="1.9857453"><ele>498.66666666666663</ele><time>2026-03-28T09:38:37.932Z</time></trkpt><trkpt lat="41.7825021" lon="1.9856251"><ele>504.0</ele><time>2026-03-28T09:38:38.932Z</time></trkpt><trkpt lat="41.7823392" lon="1.9854832"><ele>504.0</ele><time>2026-03-28T09:38:39.94Z</time></trkpt><trkpt lat="41.7822275" lon="1.9852981"><ele>504.0</ele><time>2026-03-28T09:38:40.922Z</time></trkpt><trkpt lat="41.7821154" lon="1.9850743"><ele>504.0</ele><time>2026-03-28T09:38:41.945Z</time></trkpt><trkpt lat="41.7820134" lon="1.9848248"><ele>504.66666666666663</ele><time>2026-03-28T09:38:42.933Z</time></trkpt><trkpt lat="41.7819199" lon="1.9845795"><ele>505.3333333333333</ele><time>2026-03-28T09:38:43.931Z</time></trkpt><trkpt lat="41.7818387" lon="1.9843447"><ele>506.0</ele><time>2026-03-28T09:38:44.935Z</time></trkpt><trkpt lat="41.7817587" lon="1.9841043"><ele>506.0</ele><time>2026-03-28T09:38:45.937Z</time></trkpt><trkpt lat="41.7816831" lon="1.9838889"><ele>506.0</ele><time>2026-03-28T09:38:46.938Z</time></trkpt><trkpt lat="41.7816069" lon="1.9836765"><ele>506.0</ele><time>2026-03-28T09:38:47.941Z</time></trkpt><trkpt lat="41.7815291" lon="1.9834608"><ele>505.0</ele><time>2026-03-28T09:38:48.932Z</time></trkpt><trkpt lat="41.781454" lon="1.9832468"><ele>504.0</ele><time>2026-03-28T09:38:49.933Z</time></trkpt><trkpt lat="41.7813721" lon="1.9830356"><ele>503.0</ele><time>2026-03-28T09:38:50.93Z</time></trkpt><trkpt lat="41.7812988" lon="1.9828167"><ele>503.0</ele><time>2026-03-28T09:38:51.939Z</time></trkpt><trkpt lat="41.7812225" lon="1.9826065"><ele>503.0</ele><time>2026-03-28T09:38:52.942Z</time></trkpt><trkpt lat="41.7811561" lon="1.9823953"><ele>503.0</ele><time>2026-03-28T09:38:53.931Z</time></trkpt><trkpt lat="41.7811118" lon="1.9821828"><ele>503.0</ele><time>2026-03-28T09:38:54.932Z</time></trkpt><trkpt lat="41.7810321" lon="1.9819701"><ele>503.0</ele><time>2026-03-28T09:38:55.932Z</time></trkpt><trkpt lat="41.7809434" lon="1.9817511"><ele>503.0</ele><time>2026-03-28T09:38:56.932Z</time></trkpt><trkpt lat="41.7808554" lon="1.9815303"><ele>501.66666666666663</ele><time>2026-03-28T09:38:57.929Z</time></trkpt><trkpt lat="41.7807612" lon="1.9812943"><ele>500.33333333333337</ele><time>2026-03-28T09:38:58.928Z</time></trkpt><trkpt lat="41.7806742" lon="1.9810486"><ele>499.0</ele><time>2026-03-28T09:38:59.931Z</time></trkpt><trkpt lat="41.7805985" lon="1.9808072"><ele>497.6666666666667</ele><time>2026-03-28T09:39:00.933Z</time></trkpt><trkpt lat="41.7805211" lon="1.9805741"><ele>496.33333333333337</ele><time>2026-03-28T09:39:01.939Z</time></trkpt><trkpt lat="41.7804399" lon="1.9803352"><ele>495.0</ele><time>2026-03-28T09:39:02.935Z</time></trkpt><trkpt lat="41.7803635" lon="1.9800904"><ele>495.0</ele><time>2026-03-28T09:39:03.935Z</time></trkpt><trkpt lat="41.780278" lon="1.9798486"><ele>495.0</ele><time>2026-03-28T09:39:04.936Z</time></trkpt><trkpt lat="41.7801851" lon="1.9795931"><ele>495.0</ele><time>2026-03-28T09:39:05.938Z</time></trkpt><trkpt lat="41.7800915" lon="1.9793313"><ele>493.0</ele><time>2026-03-28T09:39:06.931Z</time></trkpt><trkpt lat="41.7799943" lon="1.9790691"><ele>491.0</ele><time>2026-03-28T09:39:07.929Z</time></trkpt><trkpt lat="41.779899" lon="1.9787872"><ele>489.0</ele><time>2026-03-28T09:39:08.927Z</time></trkpt><trkpt lat="41.7797953" lon="1.9784956"><ele>488.5</ele><time>2026-03-28T09:39:09.937Z</time></trkpt><trkpt lat="41.7796872" lon="1.9782091"><ele>488.0</ele><time>2026-03-28T09:39:10.939Z</time></trkpt><trkpt lat="41.7795703" lon="1.9779134"><ele>488.0</ele><time>2026-03-28T09:39:11.936Z</time></trkpt><trkpt lat="41.7794717" lon="1.9776097"><ele>488.0</ele><time>2026-03-28T09:39:12.942Z</time></trkpt><trkpt lat="41.7793637" lon="1.9772978"><ele>486.0</ele><time>2026-03-28T09:39:13.944Z</time></trkpt><trkpt lat="41.7792498" lon="1.9769803"><ele>484.0</ele><time>2026-03-28T09:39:14.941Z</time></trkpt><trkpt lat="41.7791342" lon="1.9766611"><ele>484.0</ele><time>2026-03-28T09:39:15.938Z</time></trkpt><trkpt lat="41.7790255" lon="1.976341"><ele>484.0</ele><time>2026-03-28T09:39:16.942Z</time></trkpt><trkpt lat="41.7789211" lon="1.9760272"><ele>484.0</ele><time>2026-03-28T09:39:17.948Z</time></trkpt><trkpt lat="41.7788156" lon="1.9757143"><ele>484.0</ele><time>2026-03-28T09:39:18.947Z</time></trkpt><trkpt lat="41.7787127" lon="1.9754017"><ele>484.0</ele><time>2026-03-28T09:39:19.945Z</time></trkpt><trkpt lat="41.778596" lon="1.9750881"><ele>484.0</ele><time>2026-03-28T09:39:20.942Z</time></trkpt><trkpt lat="41.7784802" lon="1.9747711"><ele>480.5</ele><time>2026-03-28T09:39:21.949Z</time></trkpt><trkpt lat="41.7783658" lon="1.9744543"><ele>477.0</ele><time>2026-03-28T09:39:22.948Z</time></trkpt><trkpt lat="41.778256" lon="1.9741374"><ele>477.0</ele><time>2026-03-28T09:39:23.957Z</time></trkpt><trkpt lat="41.7781475" lon="1.9738166"><ele>477.0</ele><time>2026-03-28T09:39:24.954Z</time></trkpt><trkpt lat="41.7780332" lon="1.973506"><ele>475.5</ele><time>2026-03-28T09:39:25.944Z</time></trkpt><trkpt lat="41.7779192" lon="1.9731821"><ele>474.0</ele><time>2026-03-28T09:39:26.952Z</time></trkpt><trkpt lat="41.7778118" lon="1.9728569"><ele>474.0</ele><time>2026-03-28T09:39:27.95Z</time></trkpt><trkpt lat="41.7776939" lon="1.9725289"><ele>474.0</ele><time>2026-03-28T09:39:28.955Z</time></trkpt><trkpt lat="41.7775794" lon="1.9721955"><ele>471.0</ele><time>2026-03-28T09:39:29.956Z</time></trkpt><trkpt lat="41.777458" lon="1.9718555"><ele>468.0</ele><time>2026-03-28T09:39:30.958Z</time></trkpt><trkpt lat="41.7773376" lon="1.9715113"><ele>466.5</ele><time>2026-03-28T09:39:31.957Z</time></trkpt><trkpt lat="41.7772133" lon="1.9711635"><ele>465.0</ele><time>2026-03-28T09:39:32.953Z</time></trkpt><trkpt lat="41.7770873" lon="1.9708105"><ele>465.0</ele><time>2026-03-28T09:39:33.951Z</time></trkpt><trkpt lat="41.7769631" lon="1.9704594"><ele>465.0</ele><time>2026-03-28T09:39:34.956Z</time></trkpt><trkpt lat="41.7768357" lon="1.9701034"><ele>464.5</ele><time>2026-03-28T09:39:35.95Z</time></trkpt><trkpt lat="41.7767095" lon="1.9697452"><ele>464.0</ele><time>2026-03-28T09:39:36.953Z</time></trkpt><trkpt lat="41.7765819" lon="1.969381"><ele>465.5</ele><time>2026-03-28T09:39:37.95Z</time></trkpt><trkpt lat="41.7764533" lon="1.9690284"><ele>467.0</ele><time>2026-03-28T09:39:38.949Z</time></trkpt><trkpt lat="41.7763242" lon="1.9686569"><ele>468.0</ele><time>2026-03-28T09:39:39.948Z</time></trkpt><trkpt lat="41.7762032" lon="1.9682926"><ele>469.0</ele><time>2026-03-28T09:39:40.95Z</time></trkpt><trkpt lat="41.7760853" lon="1.967938"><ele>464.0</ele><time>2026-03-28T09:39:41.94Z</time></trkpt><trkpt lat="41.7759765" lon="1.9676237"><ele>459.0</ele><time>2026-03-28T09:39:42.939Z</time></trkpt><trkpt lat="41.775867" lon="1.9673009"><ele>459.0</ele><time>2026-03-28T09:39:43.941Z</time></trkpt><trkpt lat="41.7757395" lon="1.966982"><ele>459.0</ele><time>2026-03-28T09:39:44.946Z</time></trkpt><trkpt lat="41.7756052" lon="1.9666711"><ele>459.0</ele><time>2026-03-28T09:39:45.94Z</time></trkpt><trkpt lat="41.7754608" lon="1.9663795"><ele>459.0</ele><time>2026-03-28T09:39:46.943Z</time></trkpt><trkpt lat="41.7752988" lon="1.9661092"><ele>456.5</ele><time>2026-03-28T09:39:47.949Z</time></trkpt><trkpt lat="41.775127" lon="1.9658143"><ele>454.0</ele><time>2026-03-28T09:39:48.937Z</time></trkpt><trkpt lat="41.7749651" lon="1.9655215"><ele>454.0</ele><time>2026-03-28T09:39:49.936Z</time></trkpt><trkpt lat="41.7748191" lon="1.9652522"><ele>454.0</ele><time>2026-03-28T09:39:50.935Z</time></trkpt><trkpt lat="41.7747058" lon="1.9650028"><ele>456.0</ele><time>2026-03-28T09:39:51.927Z</time></trkpt><trkpt lat="41.7746228" lon="1.9647292"><ele>458.0</ele><time>2026-03-28T09:39:52.939Z</time></trkpt><trkpt lat="41.7745713" lon="1.9644168"><ele>457.5</ele><time>2026-03-28T09:39:53.939Z</time></trkpt><trkpt lat="41.7745551" lon="1.9640651"><ele>457.0</ele><time>2026-03-28T09:39:54.936Z</time></trkpt><trkpt lat="41.7745569" lon="1.9637165"><ele>457.0</ele><time>2026-03-28T09:39:55.928Z</time></trkpt><trkpt lat="41.7745422" lon="1.9634016"><ele>457.0</ele><time>2026-03-28T09:39:56.928Z</time></trkpt><trkpt lat="41.7745175" lon="1.9631189"><ele>457.0</ele><time>2026-03-28T09:39:57.917Z</time></trkpt><trkpt lat="41.7744438" lon="1.9628622"><ele>453.33333333333337</ele><time>2026-03-28T09:39:58.926Z</time></trkpt><trkpt lat="41.7743298" lon="1.962641"><ele>449.66666666666663</ele><time>2026-03-28T09:39:59.924Z</time></trkpt><trkpt lat="41.7741771" lon="1.9624856"><ele>446.0</ele><time>2026-03-28T09:40:00.916Z</time></trkpt><trkpt lat="41.7740053" lon="1.9623452"><ele>446.0</ele><time>2026-03-28T09:40:01.925Z</time></trkpt><trkpt lat="41.773809" lon="1.962218"><ele>446.0</ele><time>2026-03-28T09:40:02.923Z</time></trkpt><trkpt lat="41.7736268" lon="1.9620391"><ele>446.0</ele><time>2026-03-28T09:40:03.933Z</time></trkpt><trkpt lat="41.7734707" lon="1.9617918"><ele>446.5</ele><time>2026-03-28T09:40:04.932Z</time></trkpt><trkpt lat="41.7733164" lon="1.961493"><ele>447.0</ele><time>2026-03-28T09:40:05.919Z</time></trkpt><trkpt lat="41.7731478" lon="1.9612036"><ele>447.0</ele><time>2026-03-28T09:40:06.93Z</time></trkpt><trkpt lat="41.7729746" lon="1.9609248"><ele>447.0</ele><time>2026-03-28T09:40:07.938Z</time></trkpt><trkpt lat="41.7728031" lon="1.9606725"><ele>440.5</ele><time>2026-03-28T09:40:08.933Z</time></trkpt><trkpt lat="41.7726448" lon="1.9604396"><ele>434.0</ele><time>2026-03-28T09:40:09.937Z</time></trkpt><trkpt lat="41.7724829" lon="1.9601949"><ele>435.66666666666663</ele><time>2026-03-28T09:40:10.938Z</time></trkpt><trkpt lat="41.7723353" lon="1.9599578"><ele>437.33333333333337</ele><time>2026-03-28T09:40:11.939Z</time></trkpt><trkpt lat="41.7722093" lon="1.9597239"><ele>439.0</ele><time>2026-03-28T09:40:12.934Z</time></trkpt><trkpt lat="41.7721111" lon="1.9594827"><ele>439.0</ele><time>2026-03-28T09:40:13.93Z</time></trkpt><trkpt lat="41.7720348" lon="1.9592349"><ele>439.0</ele><time>2026-03-28T09:40:14.947Z</time></trkpt><trkpt lat="41.7720279" lon="1.9589472"><ele>439.0</ele><time>2026-03-28T09:40:15.947Z</time></trkpt><trkpt lat="41.7720634" lon="1.9586683"><ele>438.5</ele><time>2026-03-28T09:40:16.945Z</time></trkpt><trkpt lat="41.7721199" lon="1.9583501"><ele>438.0</ele><time>2026-03-28T09:40:17.939Z</time></trkpt><trkpt lat="41.7721899" lon="1.9580055"><ele>438.0</ele><time>2026-03-28T09:40:18.936Z</time></trkpt><trkpt lat="41.7722576" lon="1.9576858"><ele>438.0</ele><time>2026-03-28T09:40:19.942Z</time></trkpt><trkpt lat="41.7723105" lon="1.957366"><ele>433.0</ele><time>2026-03-28T09:40:20.935Z</time></trkpt><trkpt lat="41.7723256" lon="1.9570475"><ele>428.0</ele><time>2026-03-28T09:40:21.937Z</time></trkpt><trkpt lat="41.7722943" lon="1.956732"><ele>426.5</ele><time>2026-03-28T09:40:22.947Z</time></trkpt><trkpt lat="41.7722327" lon="1.9564217"><ele>425.0</ele><time>2026-03-28T09:40:23.931Z</time></trkpt><trkpt lat="41.7721395" lon="1.9561119"><ele>426.5</ele><time>2026-03-28T09:40:24.939Z</time></trkpt><trkpt lat="41.7720231" lon="1.9558123"><ele>428.0</ele><time>2026-03-28T09:40:25.939Z</time></trkpt><trkpt lat="41.7718803" lon="1.9555582"><ele>423.0</ele><time>2026-03-28T09:40:26.942Z</time></trkpt><trkpt lat="41.771717" lon="1.9553129"><ele>418.0</ele><time>2026-03-28T09:40:27.934Z</time></trkpt><trkpt lat="41.7715324" lon="1.9551303"><ele>422.0</ele><time>2026-03-28T09:40:28.935Z</time></trkpt><trkpt lat="41.7713187" lon="1.954954"><ele>426.0</ele><time>2026-03-28T09:40:29.938Z</time></trkpt><trkpt lat="41.7711151" lon="1.9547824"><ele>423.33333333333337</ele><time>2026-03-28T09:40:30.935Z</time></trkpt><trkpt lat="41.770961" lon="1.9545891"><ele>420.6666666666667</ele><time>2026-03-28T09:40:31.929Z</time></trkpt><trkpt lat="41.7708486" lon="1.9543341"><ele>418.0</ele><time>2026-03-28T09:40:32.942Z</time></trkpt><trkpt lat="41.7707793" lon="1.9540383"><ele>418.0</ele><time>2026-03-28T09:40:33.931Z</time></trkpt><trkpt lat="41.7706982" lon="1.9537387"><ele>418.0</ele><time>2026-03-28T09:40:34.935Z</time></trkpt><trkpt lat="41.7706487" lon="1.9534875"><ele>418.0</ele><time>2026-03-28T09:40:35.928Z</time></trkpt><trkpt lat="41.7706215" lon="1.9532854"><ele>416.5</ele><time>2026-03-28T09:40:36.923Z</time></trkpt><trkpt lat="41.7706239" lon="1.95312"><ele>415.0</ele><time>2026-03-28T09:40:37.933Z</time></trkpt><trkpt lat="41.7707053" lon="1.9529946"><ele>413.5</ele><time>2026-03-28T09:40:38.938Z</time></trkpt><trkpt lat="41.7708202" lon="1.9528883"><ele>412.0</ele><time>2026-03-28T09:40:39.925Z</time></trkpt><trkpt lat="41.7709554" lon="1.9527882"><ele>413.0</ele><time>2026-03-28T09:40:40.935Z</time></trkpt><trkpt lat="41.7711532" lon="1.9526888"><ele>414.0</ele><time>2026-03-28T09:40:41.942Z</time></trkpt><trkpt lat="41.7713582" lon="1.952551"><ele>415.0</ele><time>2026-03-28T09:40:42.934Z</time></trkpt><trkpt lat="41.7715257" lon="1.9524324"><ele>413.0</ele><time>2026-03-28T09:40:43.937Z</time></trkpt><trkpt lat="41.7716399" lon="1.9522779"><ele>411.0</ele><time>2026-03-28T09:40:44.942Z</time></trkpt><trkpt lat="41.7717228" lon="1.9520792"><ele>409.0</ele><time>2026-03-28T09:40:45.936Z</time></trkpt><trkpt lat="41.7717679" lon="1.951823"><ele>406.0</ele><time>2026-03-28T09:40:46.935Z</time></trkpt><trkpt lat="41.7717896" lon="1.9515003"><ele>403.0</ele><time>2026-03-28T09:40:47.93Z</time></trkpt><trkpt lat="41.7717849" lon="1.9511505"><ele>401.5</ele><time>2026-03-28T09:40:48.92Z</time></trkpt><trkpt lat="41.7717521" lon="1.9507919"><ele>400.0</ele><time>2026-03-28T09:40:49.921Z</time></trkpt><trkpt lat="41.7717123" lon="1.9504017"><ele>399.5</ele><time>2026-03-28T09:40:50.923Z</time></trkpt><trkpt lat="41.7716755" lon="1.9500165"><ele>399.0</ele><time>2026-03-28T09:40:51.925Z</time></trkpt><trkpt lat="41.7716309" lon="1.9496529"><ele>399.0</ele><time>2026-03-28T09:40:52.928Z</time></trkpt><trkpt lat="41.7715533" lon="1.9492966"><ele>399.0</ele><time>2026-03-28T09:40:53.923Z</time></trkpt><trkpt lat="41.7714515" lon="1.9489473"><ele>399.5</ele><time>2026-03-28T09:40:54.916Z</time></trkpt><trkpt lat="41.7713278" lon="1.9486231"><ele>400.0</ele><time>2026-03-28T09:40:55.927Z</time></trkpt><trkpt lat="41.7711914" lon="1.9483485"><ele>399.0</ele><time>2026-03-28T09:40:56.933Z</time></trkpt><trkpt lat="41.7710296" lon="1.9480996"><ele>398.0</ele><time>2026-03-28T09:40:57.927Z</time></trkpt><trkpt lat="41.770824" lon="1.947888"><ele>396.66666666666663</ele><time>2026-03-28T09:40:58.925Z</time></trkpt><trkpt lat="41.7706068" lon="1.9477445"><ele>395.33333333333337</ele><time>2026-03-28T09:40:59.935Z</time></trkpt><trkpt lat="41.7704263" lon="1.9476213"><ele>394.0</ele><time>2026-03-28T09:41:00.92Z</time></trkpt><trkpt lat="41.7702913" lon="1.9474802"><ele>394.0</ele><time>2026-03-28T09:41:01.936Z</time></trkpt><trkpt lat="41.7702005" lon="1.9472802"><ele>394.0</ele><time>2026-03-28T09:41:02.937Z</time></trkpt><trkpt lat="41.7701329" lon="1.947027"><ele>394.0</ele><time>2026-03-28T09:41:03.937Z</time></trkpt><trkpt lat="41.7700911" lon="1.9467395"><ele>390.0</ele><time>2026-03-28T09:41:04.935Z</time></trkpt><trkpt lat="41.7700627" lon="1.946432"><ele>386.0</ele><time>2026-03-28T09:41:05.926Z</time></trkpt><trkpt lat="41.7700281" lon="1.9461153"><ele>386.3333333333333</ele><time>2026-03-28T09:41:06.929Z</time></trkpt><trkpt lat="41.7699985" lon="1.9458448"><ele>386.66666666666663</ele><time>2026-03-28T09:41:07.929Z</time></trkpt><trkpt lat="41.7699797" lon="1.9456075"><ele>387.0</ele><time>2026-03-28T09:41:08.923Z</time></trkpt><trkpt lat="41.7699921" lon="1.9453722"><ele>387.0</ele><time>2026-03-28T09:41:09.927Z</time></trkpt><trkpt lat="41.7700501" lon="1.945132"><ele>387.0</ele><time>2026-03-28T09:41:10.922Z</time></trkpt><trkpt lat="41.7701632" lon="1.9448856"><ele>387.0</ele><time>2026-03-28T09:41:11.918Z</time></trkpt><trkpt lat="41.7702728" lon="1.9446624"><ele>386.0</ele><time>2026-03-28T09:41:12.921Z</time></trkpt><trkpt lat="41.7703575" lon="1.9444674"><ele>385.0</ele><time>2026-03-28T09:41:13.922Z</time></trkpt><trkpt lat="41.7704078" lon="1.9442766"><ele>384.0</ele><time>2026-03-28T09:41:14.923Z</time></trkpt><trkpt lat="41.7704323" lon="1.9440792"><ele>384.0</ele><time>2026-03-28T09:41:15.928Z</time></trkpt><trkpt lat="41.7703915" lon="1.9438691"><ele>384.0</ele><time>2026-03-28T09:41:16.927Z</time></trkpt><trkpt lat="41.7702931" lon="1.9436258"><ele>384.0</ele><time>2026-03-28T09:41:17.924Z</time></trkpt><trkpt lat="41.7701895" lon="1.9433977"><ele>381.0</ele><time>2026-03-28T09:41:18.924Z</time></trkpt><trkpt lat="41.7700749" lon="1.9431633"><ele>378.0</ele><time>2026-03-28T09:41:19.924Z</time></trkpt><trkpt lat="41.7699675" lon="1.9428982"><ele>375.0</ele><time>2026-03-28T09:41:20.928Z</time></trkpt><trkpt lat="41.7698726" lon="1.9426465"><ele>374.6666666666667</ele><time>2026-03-28T09:41:21.929Z</time></trkpt><trkpt lat="41.7697726" lon="1.9424178"><ele>374.33333333333337</ele><time>2026-03-28T09:41:22.93Z</time></trkpt><trkpt lat="41.7696521" lon="1.9421729"><ele>374.0</ele><time>2026-03-28T09:41:23.929Z</time></trkpt><trkpt lat="41.769547" lon="1.9419258"><ele>374.33333333333337</ele><time>2026-03-28T09:41:24.934Z</time></trkpt><trkpt lat="41.7694421" lon="1.9416845"><ele>374.6666666666667</ele><time>2026-03-28T09:41:25.936Z</time></trkpt><trkpt lat="41.7693566" lon="1.9414434"><ele>375.0</ele><time>2026-03-28T09:41:26.939Z</time></trkpt><trkpt lat="41.7692763" lon="1.9412275"><ele>371.6666666666667</ele><time>2026-03-28T09:41:27.943Z</time></trkpt><trkpt lat="41.769219" lon="1.9410228"><ele>368.33333333333337</ele><time>2026-03-28T09:41:28.935Z</time></trkpt><trkpt lat="41.7691739" lon="1.9408188"><ele>365.0</ele><time>2026-03-28T09:41:29.93Z</time></trkpt><trkpt lat="41.7691469" lon="1.9406073"><ele>364.0</ele><time>2026-03-28T09:41:30.936Z</time></trkpt><trkpt lat="41.769125" lon="1.9403745"><ele>363.0</ele><time>2026-03-28T09:41:31.932Z</time></trkpt><trkpt lat="41.7691059" lon="1.940132"><ele>362.0</ele><time>2026-03-28T09:41:32.937Z</time></trkpt><trkpt lat="41.7690918" lon="1.9398802"><ele>361.6666666666667</ele><time>2026-03-28T09:41:33.931Z</time></trkpt><trkpt lat="41.76907" lon="1.9396163"><ele>361.3333333333333</ele><time>2026-03-28T09:41:34.938Z</time></trkpt><trkpt lat="41.7690558" lon="1.9393246"><ele>361.0</ele><time>2026-03-28T09:41:35.929Z</time></trkpt><trkpt lat="41.7690279" lon="1.9390308"><ele>359.5</ele><time>2026-03-28T09:41:36.927Z</time></trkpt><trkpt lat="41.7689896" lon="1.9387117"><ele>358.0</ele><time>2026-03-28T09:41:37.925Z</time></trkpt><trkpt lat="41.7689697" lon="1.9383904"><ele>357.0</ele><time>2026-03-28T09:41:38.926Z</time></trkpt><trkpt lat="41.7689422" lon="1.9380616"><ele>356.0</ele><time>2026-03-28T09:41:39.922Z</time></trkpt><trkpt lat="41.7689048" lon="1.9377385"><ele>355.33333333333337</ele><time>2026-03-28T09:41:40.932Z</time></trkpt><trkpt lat="41.7688713" lon="1.9374347"><ele>354.6666666666667</ele><time>2026-03-28T09:41:41.928Z</time></trkpt><trkpt lat="41.7688471" lon="1.9371717"><ele>354.0</ele><time>2026-03-28T09:41:42.929Z</time></trkpt><trkpt lat="41.7688328" lon="1.936924"><ele>354.0</ele><time>2026-03-28T09:41:43.934Z</time></trkpt><trkpt lat="41.7688217" lon="1.9366704"><ele>354.0</ele><time>2026-03-28T09:41:44.94Z</time></trkpt><trkpt lat="41.7688058" lon="1.9364194"><ele>354.0</ele><time>2026-03-28T09:41:45.939Z</time></trkpt><trkpt lat="41.7688082" lon="1.9361636"><ele>354.0</ele><time>2026-03-28T09:41:46.936Z</time></trkpt><trkpt lat="41.7688298" lon="1.9359105"><ele>354.0</ele><time>2026-03-28T09:41:47.938Z</time></trkpt><trkpt lat="41.7688706" lon="1.9356471"><ele>354.0</ele><time>2026-03-28T09:41:48.936Z</time></trkpt><trkpt lat="41.7689235" lon="1.9353634"><ele>352.3333333333333</ele><time>2026-03-28T09:41:49.94Z</time></trkpt><trkpt lat="41.7689725" lon="1.9350875"><ele>350.66666666666663</ele><time>2026-03-28T09:41:50.943Z</time></trkpt><trkpt lat="41.769008" lon="1.9348173"><ele>349.0</ele><time>2026-03-28T09:41:51.945Z</time></trkpt><trkpt lat="41.7690436" lon="1.9345815"><ele>348.0</ele><time>2026-03-28T09:41:52.934Z</time></trkpt><trkpt lat="41.7690802" lon="1.9343436"><ele>347.0</ele><time>2026-03-28T09:41:53.939Z</time></trkpt><trkpt lat="41.7691129" lon="1.9341104"><ele>346.0</ele><time>2026-03-28T09:41:54.942Z</time></trkpt><trkpt lat="41.7691317" lon="1.9338776"><ele>345.3333333333333</ele><time>2026-03-28T09:41:55.936Z</time></trkpt><trkpt lat="41.7691751" lon="1.9336513"><ele>344.6666666666667</ele><time>2026-03-28T09:41:56.939Z</time></trkpt><trkpt lat="41.7692051" lon="1.9334472"><ele>344.0</ele><time>2026-03-28T09:41:57.936Z</time></trkpt><trkpt lat="41.7691998" lon="1.9332384"><ele>343.33333333333337</ele><time>2026-03-28T09:41:58.934Z</time></trkpt><trkpt lat="41.769164" lon="1.9330351"><ele>342.6666666666667</ele><time>2026-03-28T09:41:59.929Z</time></trkpt><trkpt lat="41.7690937" lon="1.9328275"><ele>342.0</ele><time>2026-03-28T09:42:00.935Z</time></trkpt><trkpt lat="41.7690086" lon="1.9326199"><ele>341.3333333333333</ele><time>2026-03-28T09:42:01.941Z</time></trkpt><trkpt lat="41.7689123" lon="1.9323944"><ele>340.66666666666663</ele><time>2026-03-28T09:42:02.933Z</time></trkpt><trkpt lat="41.7688193" lon="1.9321491"><ele>340.0</ele><time>2026-03-28T09:42:03.938Z</time></trkpt><trkpt lat="41.7687196" lon="1.9319036"><ele>338.3333333333333</ele><time>2026-03-28T09:42:04.945Z</time></trkpt><trkpt lat="41.768624" lon="1.9316691"><ele>336.6666666666667</ele><time>2026-03-28T09:42:05.943Z</time></trkpt><trkpt lat="41.7685336" lon="1.9314497"><ele>335.0</ele><time>2026-03-28T09:42:06.946Z</time></trkpt><trkpt lat="41.7684384" lon="1.9312525"><ele>333.0</ele><time>2026-03-28T09:42:07.945Z</time></trkpt><trkpt lat="41.7683602" lon="1.9310417"><ele>331.0</ele><time>2026-03-28T09:42:08.942Z</time></trkpt><trkpt lat="41.768279" lon="1.9308238"><ele>329.0</ele><time>2026-03-28T09:42:09.946Z</time></trkpt><trkpt lat="41.768196" lon="1.9305967"><ele>328.6666666666667</ele><time>2026-03-28T09:42:10.945Z</time></trkpt><trkpt lat="41.7681028" lon="1.9303865"><ele>328.3333333333333</ele><time>2026-03-28T09:42:11.952Z</time></trkpt><trkpt lat="41.7680054" lon="1.9301738"><ele>328.0</ele><time>2026-03-28T09:42:12.95Z</time></trkpt><trkpt lat="41.7678991" lon="1.9299678"><ele>328.0</ele><time>2026-03-28T09:42:13.948Z</time></trkpt><trkpt lat="41.7677877" lon="1.9297717"><ele>328.0</ele><time>2026-03-28T09:42:14.955Z</time></trkpt><trkpt lat="41.7676644" lon="1.9295671"><ele>328.0</ele><time>2026-03-28T09:42:15.95Z</time></trkpt><trkpt lat="41.7675536" lon="1.9293725"><ele>328.66666666666663</ele><time>2026-03-28T09:42:16.95Z</time></trkpt><trkpt lat="41.7674452" lon="1.9291765"><ele>329.3333333333333</ele><time>2026-03-28T09:42:17.957Z</time></trkpt><trkpt lat="41.767339" lon="1.9289799"><ele>330.0</ele><time>2026-03-28T09:42:18.951Z</time></trkpt><trkpt lat="41.7672332" lon="1.9288"><ele>330.0</ele><time>2026-03-28T09:42:19.951Z</time></trkpt><trkpt lat="41.7671375" lon="1.9286333"><ele>330.0</ele><time>2026-03-28T09:42:20.95Z</time></trkpt><trkpt lat="41.7670604" lon="1.9284246"><ele>330.0</ele><time>2026-03-28T09:42:21.943Z</time></trkpt><trkpt lat="41.7669884" lon="1.9282171"><ele>329.3333333333333</ele><time>2026-03-28T09:42:22.935Z</time></trkpt><trkpt lat="41.7669261" lon="1.927977"><ele>328.66666666666663</ele><time>2026-03-28T09:42:23.936Z</time></trkpt><trkpt lat="41.7668777" lon="1.9277269"><ele>328.0</ele><time>2026-03-28T09:42:24.939Z</time></trkpt><trkpt lat="41.7668302" lon="1.927439"><ele>326.0</ele><time>2026-03-28T09:42:25.937Z</time></trkpt><trkpt lat="41.7667689" lon="1.9271407"><ele>324.0</ele><time>2026-03-28T09:42:26.938Z</time></trkpt><trkpt lat="41.7667228" lon="1.9268386"><ele>320.5</ele><time>2026-03-28T09:42:27.936Z</time></trkpt><trkpt lat="41.7666603" lon="1.9265121"><ele>317.0</ele><time>2026-03-28T09:42:28.938Z</time></trkpt><trkpt lat="41.7666019" lon="1.9261758"><ele>315.0</ele><time>2026-03-28T09:42:29.951Z</time></trkpt><trkpt lat="41.7665448" lon="1.925812"><ele>313.0</ele><time>2026-03-28T09:42:30.948Z</time></trkpt><trkpt lat="41.7664895" lon="1.925471"><ele>313.0</ele><time>2026-03-28T09:42:31.951Z</time></trkpt><trkpt lat="41.7664212" lon="1.9251477"><ele>313.0</ele><time>2026-03-28T09:42:32.943Z</time></trkpt><trkpt lat="41.7663671" lon="1.9248458"><ele>312.5</ele><time>2026-03-28T09:42:33.941Z</time></trkpt><trkpt lat="41.7663126" lon="1.9245452"><ele>312.0</ele><time>2026-03-28T09:42:34.946Z</time></trkpt><trkpt lat="41.7662646" lon="1.9242316"><ele>311.5</ele><time>2026-03-28T09:42:35.94Z</time></trkpt><trkpt lat="41.7662045" lon="1.9239041"><ele>311.0</ele><time>2026-03-28T09:42:36.937Z</time></trkpt><trkpt lat="41.7661399" lon="1.9235765"><ele>310.0</ele><time>2026-03-28T09:42:37.944Z</time></trkpt><trkpt lat="41.7660762" lon="1.9232051"><ele>309.0</ele><time>2026-03-28T09:42:38.948Z</time></trkpt><trkpt lat="41.766021" lon="1.9228284"><ele>306.0</ele><time>2026-03-28T09:42:39.952Z</time></trkpt><trkpt lat="41.7659574" lon="1.9224907"><ele>303.0</ele><time>2026-03-28T09:42:40.949Z</time></trkpt><trkpt lat="41.7659115" lon="1.9222196"><ele>303.0</ele><time>2026-03-28T09:42:41.948Z</time></trkpt><trkpt lat="41.7658688" lon="1.921955"><ele>303.0</ele><time>2026-03-28T09:42:42.953Z</time></trkpt><trkpt lat="41.7658289" lon="1.9217163"><ele>303.0</ele><time>2026-03-28T09:42:43.941Z</time></trkpt><trkpt lat="41.7657895" lon="1.9215278"><ele>303.8</ele><time>2026-03-28T09:42:44.923Z</time></trkpt><trkpt lat="41.7657576" lon="1.9213519"><ele>304.6</ele><time>2026-03-28T09:42:45.93Z</time></trkpt><trkpt lat="41.7657341" lon="1.9212172"><ele>305.4</ele><time>2026-03-28T09:42:46.928Z</time></trkpt><trkpt lat="41.7657137" lon="1.9210853"><ele>306.2</ele><time>2026-03-28T09:42:47.934Z</time></trkpt><trkpt lat="41.7656944" lon="1.9209549"><ele>307.0</ele><time>2026-03-28T09:42:48.943Z</time></trkpt><trkpt lat="41.7656745" lon="1.9208506"><ele>307.16666666666663</ele><time>2026-03-28T09:42:49.941Z</time></trkpt><trkpt lat="41.7656566" lon="1.9207368"><ele>307.3333333333333</ele><time>2026-03-28T09:42:50.948Z</time></trkpt><trkpt lat="41.7656341" lon="1.9205599"><ele>307.5</ele><time>2026-03-28T09:42:52.96Z</time></trkpt><trkpt lat="41.7656208" lon="1.920466"><ele>307.6666666666667</ele><time>2026-03-28T09:42:53.957Z</time></trkpt><trkpt lat="41.7656051" lon="1.9203783"><ele>307.83333333333337</ele><time>2026-03-28T09:42:54.959Z</time></trkpt><trkpt lat="41.7655809" lon="1.9202887"><ele>308.0</ele><time>2026-03-28T09:42:55.96Z</time></trkpt><trkpt lat="41.7655611" lon="1.9201846"><ele>308.0</ele><time>2026-03-28T09:42:56.955Z</time></trkpt><trkpt lat="41.7655371" lon="1.9200725"><ele>308.0</ele><time>2026-03-28T09:42:57.955Z</time></trkpt><trkpt lat="41.765522" lon="1.9199666"><ele>308.0</ele><time>2026-03-28T09:42:58.957Z</time></trkpt><trkpt lat="41.7654982" lon="1.9198459"><ele>308.0</ele><time>2026-03-28T09:42:59.958Z</time></trkpt><trkpt lat="41.7654722" lon="1.919718"><ele>308.0</ele><time>2026-03-28T09:43:00.967Z</time></trkpt><trkpt lat="41.7654498" lon="1.9195756"><ele>308.0</ele><time>2026-03-28T09:43:01.952Z</time></trkpt><trkpt lat="41.7654228" lon="1.9194125"><ele>308.0</ele><time>2026-03-28T09:43:02.95Z</time></trkpt><trkpt lat="41.7653933" lon="1.9192354"><ele>308.0</ele><time>2026-03-28T09:43:03.947Z</time></trkpt><trkpt lat="41.7653556" lon="1.9190511"><ele>308.0</ele><time>2026-03-28T09:43:04.948Z</time></trkpt><trkpt lat="41.7653009" lon="1.9188443"><ele>308.0</ele><time>2026-03-28T09:43:05.944Z</time></trkpt><trkpt lat="41.7652532" lon="1.9185626"><ele>308.0</ele><time>2026-03-28T09:43:06.945Z</time></trkpt><trkpt lat="41.7651833" lon="1.9182262"><ele>306.0</ele><time>2026-03-28T09:43:07.94Z</time></trkpt><trkpt lat="41.7651121" lon="1.9178229"><ele>304.0</ele><time>2026-03-28T09:43:08.946Z</time></trkpt><trkpt lat="41.7650501" lon="1.9173853"><ele>302.0</ele><time>2026-03-28T09:43:09.937Z</time></trkpt><trkpt lat="41.7649806" lon="1.91695"><ele>300.0</ele><time>2026-03-28T09:43:10.935Z</time></trkpt><trkpt lat="41.7649054" lon="1.9165435"><ele>299.5</ele><time>2026-03-28T09:43:11.941Z</time></trkpt><trkpt lat="41.7648416" lon="1.9161732"><ele>299.0</ele><time>2026-03-28T09:43:12.942Z</time></trkpt><trkpt lat="41.7647968" lon="1.9158171"><ele>299.0</ele><time>2026-03-28T09:43:13.95Z</time></trkpt><trkpt lat="41.7647415" lon="1.9154772"><ele>299.0</ele><time>2026-03-28T09:43:14.947Z</time></trkpt><trkpt lat="41.7646883" lon="1.9151479"><ele>299.0</ele><time>2026-03-28T09:43:15.945Z</time></trkpt><trkpt lat="41.7646326" lon="1.9148288"><ele>299.0</ele><time>2026-03-28T09:43:16.942Z</time></trkpt><trkpt lat="41.764571" lon="1.9145045"><ele>297.0</ele><time>2026-03-28T09:43:17.95Z</time></trkpt><trkpt lat="41.7645144" lon="1.9141858"><ele>295.0</ele><time>2026-03-28T09:43:18.948Z</time></trkpt><trkpt lat="41.7644545" lon="1.9138662"><ele>295.0</ele><time>2026-03-28T09:43:19.945Z</time></trkpt><trkpt lat="41.764397" lon="1.9135501"><ele>295.0</ele><time>2026-03-28T09:43:20.951Z</time></trkpt><trkpt lat="41.7643443" lon="1.9132208"><ele>292.5</ele><time>2026-03-28T09:43:21.948Z</time></trkpt><trkpt lat="41.7642877" lon="1.9128928"><ele>290.0</ele><time>2026-03-28T09:43:22.949Z</time></trkpt><trkpt lat="41.7642277" lon="1.9125641"><ele>289.5</ele><time>2026-03-28T09:43:23.948Z</time></trkpt><trkpt lat="41.7641657" lon="1.9122532"><ele>289.0</ele><time>2026-03-28T09:43:24.949Z</time></trkpt><trkpt lat="41.7641095" lon="1.9119323"><ele>288.5</ele><time>2026-03-28T09:43:25.95Z</time></trkpt><trkpt lat="41.7640526" lon="1.9116077"><ele>288.0</ele><time>2026-03-28T09:43:26.949Z</time></trkpt><trkpt lat="41.7639942" lon="1.9112863"><ele>288.0</ele><time>2026-03-28T09:43:27.947Z</time></trkpt><trkpt lat="41.76394" lon="1.9109678"><ele>288.0</ele><time>2026-03-28T09:43:28.948Z</time></trkpt><trkpt lat="41.7638882" lon="1.910673"><ele>287.0</ele><time>2026-03-28T09:43:29.947Z</time></trkpt><trkpt lat="41.7638374" lon="1.9103986"><ele>286.0</ele><time>2026-03-28T09:43:30.94Z</time></trkpt><trkpt lat="41.763827" lon="1.9101655"><ele>285.0</ele><time>2026-03-28T09:43:31.946Z</time></trkpt><trkpt lat="41.7638572" lon="1.9099669"><ele>285.0</ele><time>2026-03-28T09:43:32.947Z</time></trkpt><trkpt lat="41.7639361" lon="1.9097996"><ele>285.0</ele><time>2026-03-28T09:43:33.955Z</time></trkpt><trkpt lat="41.76406" lon="1.9096257"><ele>285.0</ele><time>2026-03-28T09:43:34.95Z</time></trkpt><trkpt lat="41.7642251" lon="1.909486"><ele>284.25</ele><time>2026-03-28T09:43:35.941Z</time></trkpt><trkpt lat="41.7643799" lon="1.909374"><ele>283.5</ele><time>2026-03-28T09:43:36.942Z</time></trkpt><trkpt lat="41.7644869" lon="1.9092749"><ele>282.75</ele><time>2026-03-28T09:43:37.94Z</time></trkpt><trkpt lat="41.7645637" lon="1.9091675"><ele>282.0</ele><time>2026-03-28T09:43:38.923Z</time></trkpt><trkpt lat="41.7645944" lon="1.909032"><ele>282.0</ele><time>2026-03-28T09:43:39.934Z</time></trkpt><trkpt lat="41.7645405" lon="1.9088569"><ele>282.0</ele><time>2026-03-28T09:43:40.931Z</time></trkpt><trkpt lat="41.7644813" lon="1.908703"><ele>282.0</ele><time>2026-03-28T09:43:41.933Z</time></trkpt><trkpt lat="41.7643676" lon="1.9085598"><ele>282.0</ele><time>2026-03-28T09:43:42.925Z</time></trkpt><trkpt lat="41.7642287" lon="1.908401"><ele>277.6666666666667</ele><time>2026-03-28T09:43:43.923Z</time></trkpt><trkpt lat="41.7640718" lon="1.908222"><ele>273.33333333333337</ele><time>2026-03-28T09:43:44.944Z</time></trkpt><trkpt lat="41.7639316" lon="1.9080398"><ele>269.0</ele><time>2026-03-28T09:43:45.948Z</time></trkpt><trkpt lat="41.7638093" lon="1.9078886"><ele>269.0</ele><time>2026-03-28T09:43:46.949Z</time></trkpt><trkpt lat="41.7636978" lon="1.9077431"><ele>269.0</ele><time>2026-03-28T09:43:47.956Z</time></trkpt><trkpt lat="41.7635821" lon="1.9075988"><ele>269.0</ele><time>2026-03-28T09:43:48.952Z</time></trkpt><trkpt lat="41.7634685" lon="1.9074574"><ele>269.0</ele><time>2026-03-28T09:43:49.952Z</time></trkpt><trkpt lat="41.7633493" lon="1.9073075"><ele>269.0</ele><time>2026-03-28T09:43:50.959Z</time></trkpt><trkpt lat="41.763236" lon="1.9071651"><ele>269.0</ele><time>2026-03-28T09:43:51.956Z</time></trkpt><trkpt lat="41.7631369" lon="1.9070227"><ele>269.0</ele><time>2026-03-28T09:43:52.951Z</time></trkpt><trkpt lat="41.7630165" lon="1.9068631"><ele>269.0</ele><time>2026-03-28T09:43:53.958Z</time></trkpt><trkpt lat="41.7628892" lon="1.9067067"><ele>269.0</ele><time>2026-03-28T09:43:54.951Z</time></trkpt><trkpt lat="41.7627522" lon="1.906569"><ele>270.6666666666667</ele><time>2026-03-28T09:43:55.952Z</time></trkpt><trkpt lat="41.7626043" lon="1.906413"><ele>272.3333333333333</ele><time>2026-03-28T09:43:56.952Z</time></trkpt><trkpt lat="41.7624327" lon="1.9062685"><ele>274.0</ele><time>2026-03-28T09:43:57.952Z</time></trkpt><trkpt lat="41.7622624" lon="1.906152"><ele>274.0</ele><time>2026-03-28T09:43:58.948Z</time></trkpt><trkpt lat="41.7621001" lon="1.9060327"><ele>274.0</ele><time>2026-03-28T09:43:59.943Z</time></trkpt><trkpt lat="41.7619599" lon="1.9059146"><ele>274.0</ele><time>2026-03-28T09:44:00.942Z</time></trkpt><trkpt lat="41.7618228" lon="1.9057996"><ele>272.0</ele><time>2026-03-28T09:44:01.942Z</time></trkpt><trkpt lat="41.7616782" lon="1.9057157"><ele>270.0</ele><time>2026-03-28T09:44:02.943Z</time></trkpt><trkpt lat="41.7615418" lon="1.9056122"><ele>268.0</ele><time>2026-03-28T09:44:03.937Z</time></trkpt><trkpt lat="41.7614096" lon="1.9055064"><ele>268.0</ele><time>2026-03-28T09:44:04.939Z</time></trkpt><trkpt lat="41.7612707" lon="1.9054032"><ele>268.0</ele><time>2026-03-28T09:44:05.937Z</time></trkpt><trkpt lat="41.761138" lon="1.9052951"><ele>268.0</ele><time>2026-03-28T09:44:06.937Z</time></trkpt><trkpt lat="41.7610092" lon="1.9051702"><ele>264.0</ele><time>2026-03-28T09:44:07.938Z</time></trkpt><trkpt lat="41.7608875" lon="1.905047"><ele>260.0</ele><time>2026-03-28T09:44:08.939Z</time></trkpt><trkpt lat="41.7607631" lon="1.9049337"><ele>256.0</ele><time>2026-03-28T09:44:09.94Z</time></trkpt><trkpt lat="41.7606441" lon="1.9047993"><ele>256.0</ele><time>2026-03-28T09:44:10.937Z</time></trkpt><trkpt lat="41.7605266" lon="1.9046587"><ele>256.0</ele><time>2026-03-28T09:44:11.941Z</time></trkpt><trkpt lat="41.7604117" lon="1.9045114"><ele>256.0</ele><time>2026-03-28T09:44:12.939Z</time></trkpt><trkpt lat="41.7602916" lon="1.9043492"><ele>254.66666666666666</ele><time>2026-03-28T09:44:13.939Z</time></trkpt><trkpt lat="41.7601815" lon="1.9041963"><ele>253.33333333333331</ele><time>2026-03-28T09:44:14.943Z</time></trkpt><trkpt lat="41.7600742" lon="1.9040465"><ele>252.0</ele><time>2026-03-28T09:44:15.946Z</time></trkpt><trkpt lat="41.7599713" lon="1.9039121"><ele>252.0</ele><time>2026-03-28T09:44:16.939Z</time></trkpt><trkpt lat="41.7598746" lon="1.903796"><ele>252.0</ele><time>2026-03-28T09:44:17.94Z</time></trkpt><trkpt lat="41.7597973" lon="1.9036957"><ele>252.0</ele><time>2026-03-28T09:44:18.932Z</time></trkpt><trkpt lat="41.7597292" lon="1.903593"><ele>252.0</ele><time>2026-03-28T09:44:19.934Z</time></trkpt><trkpt lat="41.7596721" lon="1.9035197"><ele>252.0</ele><time>2026-03-28T09:44:20.948Z</time></trkpt><trkpt lat="41.7596192" lon="1.9034424"><ele>249.5</ele><time>2026-03-28T09:44:21.941Z</time></trkpt><trkpt lat="41.7595867" lon="1.9033693"><ele>247.0</ele><time>2026-03-28T09:44:24.951Z</time></trkpt><trkpt lat="41.7595609" lon="1.9032907"><ele>244.5</ele><time>2026-03-28T09:44:27.94Z</time></trkpt><trkpt lat="41.7595651" lon="1.9031954"><ele>242.0</ele><time>2026-03-28T09:44:29.94Z</time></trkpt><trkpt lat="41.7596086" lon="1.9030714"><ele>239.5</ele><time>2026-03-28T09:44:31.944Z</time></trkpt><trkpt lat="41.7596402" lon="1.9029587"><ele>237.0</ele><time>2026-03-28T09:44:33.951Z</time></trkpt><trkpt lat="41.759635" lon="1.9028247"><ele>237.0</ele><time>2026-03-28T09:44:35.954Z</time></trkpt><trkpt lat="41.7596311" lon="1.9026591"><ele>237.0</ele><time>2026-03-28T09:44:37.947Z</time></trkpt><trkpt lat="41.7596477" lon="1.902555"><ele>237.0</ele><time>2026-03-28T09:44:38.953Z</time></trkpt><trkpt lat="41.7596776" lon="1.9024608"><ele>237.0</ele><time>2026-03-28T09:44:39.942Z</time></trkpt><trkpt lat="41.7597248" lon="1.9023524"><ele>237.0</ele><time>2026-03-28T09:44:40.949Z</time></trkpt><trkpt lat="41.7597804" lon="1.9022394"><ele>235.0</ele><time>2026-03-28T09:44:41.946Z</time></trkpt><trkpt lat="41.7598404" lon="1.9021268"><ele>233.0</ele><time>2026-03-28T09:44:42.955Z</time></trkpt><trkpt lat="41.7599103" lon="1.9020108"><ele>231.0</ele><time>2026-03-28T09:44:43.955Z</time></trkpt><trkpt lat="41.7599889" lon="1.9018792"><ele>229.0</ele><time>2026-03-28T09:44:44.957Z</time></trkpt><trkpt lat="41.7600624" lon="1.9017433"><ele>229.0</ele><time>2026-03-28T09:44:45.958Z</time></trkpt><trkpt lat="41.7601338" lon="1.901607"><ele>229.0</ele><time>2026-03-28T09:44:46.966Z</time></trkpt><trkpt lat="41.7602115" lon="1.9014714"><ele>229.0</ele><time>2026-03-28T09:44:47.964Z</time></trkpt><trkpt lat="41.760286" lon="1.9013327"><ele>229.0</ele><time>2026-03-28T09:44:48.957Z</time></trkpt><trkpt lat="41.7603655" lon="1.9011802"><ele>229.0</ele><time>2026-03-28T09:44:49.985Z</time></trkpt><trkpt lat="41.7604471" lon="1.9010159"><ele>229.0</ele><time>2026-03-28T09:44:50.963Z</time></trkpt><trkpt lat="41.7605205" lon="1.9008498"><ele>229.0</ele><time>2026-03-28T09:44:51.964Z</time></trkpt><trkpt lat="41.7605826" lon="1.9006877"><ele>229.0</ele><time>2026-03-28T09:44:52.958Z</time></trkpt><trkpt lat="41.7606205" lon="1.9005092"><ele>231.0</ele><time>2026-03-28T09:44:53.953Z</time></trkpt><trkpt lat="41.7606345" lon="1.9003091"><ele>233.0</ele><time>2026-03-28T09:44:54.968Z</time></trkpt><trkpt lat="41.7606155" lon="1.9001036"><ele>235.0</ele><time>2026-03-28T09:44:55.955Z</time></trkpt><trkpt lat="41.7605543" lon="1.8999245"><ele>235.75</ele><time>2026-03-28T09:44:56.969Z</time></trkpt><trkpt lat="41.7604541" lon="1.8997571"><ele>236.5</ele><time>2026-03-28T09:44:57.946Z</time></trkpt><trkpt lat="41.7603548" lon="1.8996006"><ele>237.25</ele><time>2026-03-28T09:44:58.95Z</time></trkpt><trkpt lat="41.7602762" lon="1.8994634"><ele>238.0</ele><time>2026-03-28T09:44:59.946Z</time></trkpt><trkpt lat="41.7602125" lon="1.8993423"><ele>237.60000000000002</ele><time>2026-03-28T09:45:00.944Z</time></trkpt><trkpt lat="41.7601419" lon="1.8992225"><ele>237.20000000000002</ele><time>2026-03-28T09:45:01.944Z</time></trkpt><trkpt lat="41.760067" lon="1.8990995"><ele>236.8</ele><time>2026-03-28T09:45:02.948Z</time></trkpt><trkpt lat="41.7600062" lon="1.8989827"><ele>236.4</ele><time>2026-03-28T09:45:03.934Z</time></trkpt><trkpt lat="41.7599682" lon="1.898914"><ele>236.0</ele><time>2026-03-28T09:45:04.957Z</time></trkpt><trkpt lat="41.7599128" lon="1.8988024"><ele>236.00000000000003</ele><time>2026-03-28T09:45:06.937Z</time></trkpt><trkpt lat="41.7599031" lon="1.8987097"><ele>236.0</ele><time>2026-03-28T09:45:07.94Z</time></trkpt><trkpt lat="41.7599119" lon="1.898605"><ele>236.0</ele><time>2026-03-28T09:45:08.937Z</time></trkpt><trkpt lat="41.7599523" lon="1.8985253"><ele>236.0</ele><time>2026-03-28T09:45:09.946Z</time></trkpt><trkpt lat="41.7600208" lon="1.8984731"><ele>236.00000000000003</ele><time>2026-03-28T09:45:10.953Z</time></trkpt><trkpt lat="41.7601195" lon="1.8984475"><ele>236.0</ele><time>2026-03-28T09:45:11.945Z</time></trkpt><trkpt lat="41.7602458" lon="1.8984326"><ele>238.66666666666669</ele><time>2026-03-28T09:45:12.944Z</time></trkpt><trkpt lat="41.7603843" lon="1.8983969"><ele>241.33333333333331</ele><time>2026-03-28T09:45:13.937Z</time></trkpt><trkpt lat="41.7605281" lon="1.8983419"><ele>244.0</ele><time>2026-03-28T09:45:14.939Z</time></trkpt><trkpt lat="41.7606853" lon="1.8982869"><ele>244.0</ele><time>2026-03-28T09:45:15.94Z</time></trkpt><trkpt lat="41.7608681" lon="1.8982348"><ele>244.0</ele><time>2026-03-28T09:45:16.934Z</time></trkpt><trkpt lat="41.7610672" lon="1.8981933"><ele>244.0</ele><time>2026-03-28T09:45:17.949Z</time></trkpt><trkpt lat="41.7612647" lon="1.8981522"><ele>245.33333333333331</ele><time>2026-03-28T09:45:18.928Z</time></trkpt><trkpt lat="41.7614724" lon="1.8981189"><ele>246.66666666666669</ele><time>2026-03-28T09:45:19.916Z</time></trkpt><trkpt lat="41.7616483" lon="1.8981006"><ele>248.0</ele><time>2026-03-28T09:45:20.92Z</time></trkpt><trkpt lat="41.7618115" lon="1.8981152"><ele>248.66666666666669</ele><time>2026-03-28T09:45:21.933Z</time></trkpt><trkpt lat="41.7619797" lon="1.898192"><ele>249.33333333333331</ele><time>2026-03-28T09:45:22.946Z</time></trkpt><trkpt lat="41.7621792" lon="1.8982858"><ele>250.0</ele><time>2026-03-28T09:45:23.939Z</time></trkpt><trkpt lat="41.7623739" lon="1.8984023"><ele>249.5</ele><time>2026-03-28T09:45:24.951Z</time></trkpt><trkpt lat="41.7625711" lon="1.8985399"><ele>249.0</ele><time>2026-03-28T09:45:25.956Z</time></trkpt><trkpt lat="41.7627813" lon="1.8986816"><ele>250.0</ele><time>2026-03-28T09:45:26.953Z</time></trkpt><trkpt lat="41.7629935" lon="1.8988156"><ele>251.0</ele><time>2026-03-28T09:45:27.949Z</time></trkpt><trkpt lat="41.7632273" lon="1.8989738"><ele>251.0</ele><time>2026-03-28T09:45:28.965Z</time></trkpt><trkpt lat="41.763456" lon="1.8991255"><ele>251.0</ele><time>2026-03-28T09:45:29.965Z</time></trkpt><trkpt lat="41.7636854" lon="1.8992781"><ele>253.0</ele><time>2026-03-28T09:45:30.966Z</time></trkpt><trkpt lat="41.7639093" lon="1.8994323"><ele>255.0</ele><time>2026-03-28T09:45:31.963Z</time></trkpt><trkpt lat="41.764136" lon="1.8995795"><ele>254.0</ele><time>2026-03-28T09:45:32.965Z</time></trkpt><trkpt lat="41.7643648" lon="1.8997237"><ele>253.0</ele><time>2026-03-28T09:45:33.967Z</time></trkpt><trkpt lat="41.7645904" lon="1.8998762"><ele>253.0</ele><time>2026-03-28T09:45:34.967Z</time></trkpt><trkpt lat="41.7648176" lon="1.9000197"><ele>253.0</ele><time>2026-03-28T09:45:35.972Z</time></trkpt><trkpt lat="41.7650482" lon="1.9001735"><ele>252.0</ele><time>2026-03-28T09:45:36.963Z</time></trkpt><trkpt lat="41.7652787" lon="1.9003237"><ele>251.0</ele><time>2026-03-28T09:45:37.97Z</time></trkpt><trkpt lat="41.7655046" lon="1.9004697"><ele>251.0</ele><time>2026-03-28T09:45:38.977Z</time></trkpt><trkpt lat="41.7657348" lon="1.9006251"><ele>251.0</ele><time>2026-03-28T09:45:39.974Z</time></trkpt><trkpt lat="41.7659713" lon="1.9007915"><ele>252.0</ele><time>2026-03-28T09:45:40.975Z</time></trkpt><trkpt lat="41.7662098" lon="1.9009473"><ele>253.0</ele><time>2026-03-28T09:45:41.978Z</time></trkpt><trkpt lat="41.766453" lon="1.901109"><ele>253.0</ele><time>2026-03-28T09:45:42.98Z</time></trkpt><trkpt lat="41.7666706" lon="1.9012526"><ele>253.0</ele><time>2026-03-28T09:45:43.968Z</time></trkpt><trkpt lat="41.7668667" lon="1.9013883"><ele>255.0</ele><time>2026-03-28T09:45:44.967Z</time></trkpt><trkpt lat="41.7670593" lon="1.9015064"><ele>257.0</ele><time>2026-03-28T09:45:45.966Z</time></trkpt><trkpt lat="41.7672368" lon="1.9016177"><ele>259.0</ele><time>2026-03-28T09:45:46.965Z</time></trkpt><trkpt lat="41.7674045" lon="1.901729"><ele>257.66666666666663</ele><time>2026-03-28T09:45:47.976Z</time></trkpt><trkpt lat="41.7675641" lon="1.9018347"><ele>256.3333333333333</ele><time>2026-03-28T09:45:48.965Z</time></trkpt><trkpt lat="41.7677302" lon="1.9019567"><ele>255.0</ele><time>2026-03-28T09:45:49.954Z</time></trkpt><trkpt lat="41.7679005" lon="1.9020717"><ele>255.0</ele><time>2026-03-28T09:45:50.955Z</time></trkpt><trkpt lat="41.7680712" lon="1.9021827"><ele>255.0</ele><time>2026-03-28T09:45:51.952Z</time></trkpt><trkpt lat="41.7682317" lon="1.9022804"><ele>255.0</ele><time>2026-03-28T09:45:52.946Z</time></trkpt><trkpt lat="41.7683732" lon="1.9023802"><ele>255.0</ele><time>2026-03-28T09:45:53.958Z</time></trkpt><trkpt lat="41.7685086" lon="1.902464"><ele>255.0</ele><time>2026-03-28T09:45:54.956Z</time></trkpt><trkpt lat="41.7686388" lon="1.9025475"><ele>255.0</ele><time>2026-03-28T09:45:55.959Z</time></trkpt><trkpt lat="41.7687752" lon="1.9026295"><ele>255.0</ele><time>2026-03-28T09:45:56.957Z</time></trkpt><trkpt lat="41.7689221" lon="1.9027464"><ele>255.33333333333331</ele><time>2026-03-28T09:45:57.955Z</time></trkpt><trkpt lat="41.7690733" lon="1.902843"><ele>255.66666666666666</ele><time>2026-03-28T09:45:58.961Z</time></trkpt><trkpt lat="41.7692077" lon="1.9029342"><ele>256.0</ele><time>2026-03-28T09:45:59.96Z</time></trkpt><trkpt lat="41.7693355" lon="1.9030335"><ele>256.40000000000003</ele><time>2026-03-28T09:46:00.955Z</time></trkpt><trkpt lat="41.7694452" lon="1.9031053"><ele>256.8</ele><time>2026-03-28T09:46:01.959Z</time></trkpt><trkpt lat="41.7695425" lon="1.9031657"><ele>257.20000000000005</ele><time>2026-03-28T09:46:02.961Z</time></trkpt><trkpt lat="41.7696213" lon="1.9032218"><ele>257.6</ele><time>2026-03-28T09:46:03.958Z</time></trkpt><trkpt lat="41.7696905" lon="1.9032629"><ele>258.0</ele><time>2026-03-28T09:46:04.963Z</time></trkpt><trkpt lat="41.7698043" lon="1.9032817"><ele>258.0</ele><time>2026-03-28T09:46:06.974Z</time></trkpt><trkpt lat="41.7698608" lon="1.9031679"><ele>258.0</ele><time>2026-03-28T09:46:08.949Z</time></trkpt><trkpt lat="41.7698821" lon="1.9030603"><ele>258.0</ele><time>2026-03-28T09:46:09.967Z</time></trkpt><trkpt lat="41.7698947" lon="1.9028907"><ele>258.0</ele><time>2026-03-28T09:46:10.967Z</time></trkpt><trkpt lat="41.7699192" lon="1.9026605"><ele>258.5</ele><time>2026-03-28T09:46:11.969Z</time></trkpt><trkpt lat="41.769972" lon="1.9023424"><ele>259.0</ele><time>2026-03-28T09:46:12.957Z</time></trkpt><trkpt lat="41.7700462" lon="1.9020457"><ele>259.0</ele><time>2026-03-28T09:46:13.944Z</time></trkpt><trkpt lat="41.7700959" lon="1.9018106"><ele>259.0</ele><time>2026-03-28T09:46:14.953Z</time></trkpt><trkpt lat="41.7701781" lon="1.9016573"><ele>259.0</ele><time>2026-03-28T09:46:15.947Z</time></trkpt><trkpt lat="41.7703208" lon="1.901543"><ele>261.66666666666663</ele><time>2026-03-28T09:46:16.939Z</time></trkpt><trkpt lat="41.7705031" lon="1.9014485"><ele>264.3333333333333</ele><time>2026-03-28T09:46:17.941Z</time></trkpt><trkpt lat="41.7707311" lon="1.901351"><ele>267.0</ele><time>2026-03-28T09:46:18.932Z</time></trkpt><trkpt lat="41.7709861" lon="1.9012538"><ele>267.5</ele><time>2026-03-28T09:46:19.921Z</time></trkpt><trkpt lat="41.7712383" lon="1.9011345"><ele>268.0</ele><time>2026-03-28T09:46:20.921Z</time></trkpt><trkpt lat="41.7715038" lon="1.9010254"><ele>268.0</ele><time>2026-03-28T09:46:21.924Z</time></trkpt><trkpt lat="41.7717548" lon="1.9009696"><ele>268.0</ele><time>2026-03-28T09:46:22.918Z</time></trkpt><trkpt lat="41.7720159" lon="1.9009563"><ele>270.5</ele><time>2026-03-28T09:46:23.919Z</time></trkpt><trkpt lat="41.7722692" lon="1.9009423"><ele>273.0</ele><time>2026-03-28T09:46:24.919Z</time></trkpt><trkpt lat="41.772491" lon="1.900927"><ele>277.6666666666667</ele><time>2026-03-28T09:46:25.918Z</time></trkpt><trkpt lat="41.7726908" lon="1.9008906"><ele>282.33333333333337</ele><time>2026-03-28T09:46:26.921Z</time></trkpt><trkpt lat="41.7728713" lon="1.9008731"><ele>287.0</ele><time>2026-03-28T09:46:27.923Z</time></trkpt><trkpt lat="41.7730582" lon="1.9008493"><ele>287.0</ele><time>2026-03-28T09:46:28.93Z</time></trkpt><trkpt lat="41.7732446" lon="1.9008076"><ele>287.0</ele><time>2026-03-28T09:46:29.926Z</time></trkpt><trkpt lat="41.7734323" lon="1.9007331"><ele>287.0</ele><time>2026-03-28T09:46:30.924Z</time></trkpt><trkpt lat="41.7735996" lon="1.9005994"><ele>289.6666666666667</ele><time>2026-03-28T09:46:31.926Z</time></trkpt><trkpt lat="41.7737333" lon="1.9004518"><ele>292.3333333333333</ele><time>2026-03-28T09:46:32.918Z</time></trkpt><trkpt lat="41.7738725" lon="1.9002795"><ele>295.0</ele><time>2026-03-28T09:46:33.935Z</time></trkpt><trkpt lat="41.773996" lon="1.9000661"><ele>295.5</ele><time>2026-03-28T09:46:34.924Z</time></trkpt><trkpt lat="41.7740922" lon="1.8997892"><ele>296.0</ele><time>2026-03-28T09:46:35.927Z</time></trkpt><trkpt lat="41.7741923" lon="1.899507"><ele>293.5</ele><time>2026-03-28T09:46:36.936Z</time></trkpt><trkpt lat="41.7743029" lon="1.8992226"><ele>291.0</ele><time>2026-03-28T09:46:37.928Z</time></trkpt><trkpt lat="41.7744258" lon="1.8989532"><ele>291.0</ele><time>2026-03-28T09:46:38.932Z</time></trkpt><trkpt lat="41.7745295" lon="1.8986911"><ele>291.0</ele><time>2026-03-28T09:46:39.929Z</time></trkpt><trkpt lat="41.7746445" lon="1.8984217"><ele>291.0</ele><time>2026-03-28T09:46:40.929Z</time></trkpt><trkpt lat="41.7747593" lon="1.8981549"><ele>291.0</ele><time>2026-03-28T09:46:41.942Z</time></trkpt><trkpt lat="41.7748607" lon="1.8978928"><ele>291.0</ele><time>2026-03-28T09:46:42.941Z</time></trkpt><trkpt lat="41.7749265" lon="1.897653"><ele>291.0</ele><time>2026-03-28T09:46:43.932Z</time></trkpt><trkpt lat="41.7749719" lon="1.8974206"><ele>291.0</ele><time>2026-03-28T09:46:44.947Z</time></trkpt><trkpt lat="41.7749748" lon="1.8971607"><ele>291.3333333333333</ele><time>2026-03-28T09:46:45.927Z</time></trkpt><trkpt lat="41.7749635" lon="1.8968836"><ele>291.66666666666663</ele><time>2026-03-28T09:46:46.916Z</time></trkpt><trkpt lat="41.7749343" lon="1.8965891"><ele>292.0</ele><time>2026-03-28T09:46:47.939Z</time></trkpt><trkpt lat="41.7749281" lon="1.8962878"><ele>290.66666666666663</ele><time>2026-03-28T09:46:48.945Z</time></trkpt><trkpt lat="41.7749161" lon="1.8959988"><ele>289.3333333333333</ele><time>2026-03-28T09:46:49.958Z</time></trkpt><trkpt lat="41.7749091" lon="1.8957174"><ele>288.0</ele><time>2026-03-28T09:46:50.944Z</time></trkpt><trkpt lat="41.774907" lon="1.8954483"><ele>287.3333333333333</ele><time>2026-03-28T09:46:51.943Z</time></trkpt><trkpt lat="41.7749104" lon="1.8951611"><ele>286.66666666666663</ele><time>2026-03-28T09:46:52.954Z</time></trkpt><trkpt lat="41.7748974" lon="1.8948696"><ele>286.0</ele><time>2026-03-28T09:46:53.947Z</time></trkpt><trkpt lat="41.7748859" lon="1.8945909"><ele>285.66666666666663</ele><time>2026-03-28T09:46:54.952Z</time></trkpt><trkpt lat="41.7748614" lon="1.8943188"><ele>285.3333333333333</ele><time>2026-03-28T09:46:55.957Z</time></trkpt><trkpt lat="41.7748284" lon="1.8940436"><ele>285.0</ele><time>2026-03-28T09:46:56.951Z</time></trkpt><trkpt lat="41.7748052" lon="1.8937651"><ele>283.6666666666667</ele><time>2026-03-28T09:46:57.956Z</time></trkpt><trkpt lat="41.77479" lon="1.893491"><ele>282.33333333333337</ele><time>2026-03-28T09:46:58.956Z</time></trkpt><trkpt lat="41.7747662" lon="1.8932095"><ele>281.0</ele><time>2026-03-28T09:46:59.951Z</time></trkpt><trkpt lat="41.7747555" lon="1.8929303"><ele>280.33333333333337</ele><time>2026-03-28T09:47:00.955Z</time></trkpt><trkpt lat="41.7747434" lon="1.892642"><ele>279.6666666666667</ele><time>2026-03-28T09:47:01.956Z</time></trkpt><trkpt lat="41.7747337" lon="1.8923585"><ele>279.0</ele><time>2026-03-28T09:47:02.955Z</time></trkpt><trkpt lat="41.7747194" lon="1.8920808"><ele>279.0</ele><time>2026-03-28T09:47:03.957Z</time></trkpt><trkpt lat="41.7746975" lon="1.8918007"><ele>279.0</ele><time>2026-03-28T09:47:04.957Z</time></trkpt><trkpt lat="41.774683" lon="1.8915151"><ele>279.0</ele><time>2026-03-28T09:47:05.959Z</time></trkpt><trkpt lat="41.7746694" lon="1.8912316"><ele>279.3333333333333</ele><time>2026-03-28T09:47:06.959Z</time></trkpt><trkpt lat="41.7746561" lon="1.8909509"><ele>279.66666666666663</ele><time>2026-03-28T09:47:07.964Z</time></trkpt><trkpt lat="41.774642" lon="1.8906651"><ele>280.0</ele><time>2026-03-28T09:47:08.951Z</time></trkpt><trkpt lat="41.774623" lon="1.8903726"><ele>280.3333333333333</ele><time>2026-03-28T09:47:09.956Z</time></trkpt><trkpt lat="41.7746104" lon="1.890112"><ele>280.6666666666667</ele><time>2026-03-28T09:47:10.951Z</time></trkpt><trkpt lat="41.7746008" lon="1.8898608"><ele>281.0</ele><time>2026-03-28T09:47:11.955Z</time></trkpt><trkpt lat="41.7745879" lon="1.8896147"><ele>281.0</ele><time>2026-03-28T09:47:12.957Z</time></trkpt><trkpt lat="41.7745815" lon="1.8893511"><ele>281.0</ele><time>2026-03-28T09:47:13.957Z</time></trkpt><trkpt lat="41.7745614" lon="1.8890937"><ele>281.0</ele><time>2026-03-28T09:47:14.958Z</time></trkpt><trkpt lat="41.7745451" lon="1.8888262"><ele>280.33333333333337</ele><time>2026-03-28T09:47:15.955Z</time></trkpt><trkpt lat="41.7745243" lon="1.8885606"><ele>279.6666666666667</ele><time>2026-03-28T09:47:16.958Z</time></trkpt><trkpt lat="41.7745013" lon="1.8882848"><ele>279.0</ele><time>2026-03-28T09:47:17.959Z</time></trkpt><trkpt lat="41.7744915" lon="1.8880174"><ele>279.0</ele><time>2026-03-28T09:47:18.959Z</time></trkpt><trkpt lat="41.7744806" lon="1.8877557"><ele>279.0</ele><time>2026-03-28T09:47:19.962Z</time></trkpt><trkpt lat="41.7744725" lon="1.8875043"><ele>279.0</ele><time>2026-03-28T09:47:20.966Z</time></trkpt><trkpt lat="41.7744603" lon="1.8872546"><ele>279.0</ele><time>2026-03-28T09:47:21.963Z</time></trkpt><trkpt lat="41.7744455" lon="1.8870277"><ele>279.0</ele><time>2026-03-28T09:47:22.959Z</time></trkpt><trkpt lat="41.7744383" lon="1.8867976"><ele>279.0</ele><time>2026-03-28T09:47:23.957Z</time></trkpt><trkpt lat="41.7744319" lon="1.8865668"><ele>277.6666666666667</ele><time>2026-03-28T09:47:24.965Z</time></trkpt><trkpt lat="41.7744113" lon="1.8863402"><ele>276.33333333333337</ele><time>2026-03-28T09:47:25.965Z</time></trkpt><trkpt lat="41.7743978" lon="1.8861011"><ele>275.0</ele><time>2026-03-28T09:47:26.962Z</time></trkpt><trkpt lat="41.7743816" lon="1.8858715"><ele>274.6666666666667</ele><time>2026-03-28T09:47:27.963Z</time></trkpt><trkpt lat="41.7743714" lon="1.8856311"><ele>274.3333333333333</ele><time>2026-03-28T09:47:28.966Z</time></trkpt><trkpt lat="41.7743634" lon="1.8853822"><ele>274.0</ele><time>2026-03-28T09:47:29.96Z</time></trkpt><trkpt lat="41.7743664" lon="1.8851229"><ele>274.66666666666663</ele><time>2026-03-28T09:47:30.968Z</time></trkpt><trkpt lat="41.7743688" lon="1.8848531"><ele>275.3333333333333</ele><time>2026-03-28T09:47:31.968Z</time></trkpt><trkpt lat="41.7743762" lon="1.8846086"><ele>276.0</ele><time>2026-03-28T09:47:32.964Z</time></trkpt><trkpt lat="41.7743865" lon="1.8843592"><ele>275.6666666666667</ele><time>2026-03-28T09:47:33.962Z</time></trkpt><trkpt lat="41.7743877" lon="1.8841168"><ele>275.33333333333337</ele><time>2026-03-28T09:47:34.972Z</time></trkpt><trkpt lat="41.7743988" lon="1.8838616"><ele>275.0</ele><time>2026-03-28T09:47:35.966Z</time></trkpt><trkpt lat="41.7744234" lon="1.8836084"><ele>275.0</ele><time>2026-03-28T09:47:36.965Z</time></trkpt><trkpt lat="41.7744246" lon="1.8833638"><ele>275.0</ele><time>2026-03-28T09:47:37.954Z</time></trkpt><trkpt lat="41.77445" lon="1.8831177"><ele>275.0</ele><time>2026-03-28T09:47:38.976Z</time></trkpt><trkpt lat="41.7744659" lon="1.8828561"><ele>275.0</ele><time>2026-03-28T09:47:39.958Z</time></trkpt><trkpt lat="41.7744828" lon="1.8826148"><ele>275.0</ele><time>2026-03-28T09:47:40.959Z</time></trkpt><trkpt lat="41.7744889" lon="1.8823664"><ele>275.0</ele><time>2026-03-28T09:47:41.956Z</time></trkpt><trkpt lat="41.7744995" lon="1.8821379"><ele>275.6666666666667</ele><time>2026-03-28T09:47:42.959Z</time></trkpt><trkpt lat="41.7745131" lon="1.8818963"><ele>276.3333333333333</ele><time>2026-03-28T09:47:43.96Z</time></trkpt><trkpt lat="41.774527" lon="1.8816421"><ele>277.0</ele><time>2026-03-28T09:47:44.972Z</time></trkpt><trkpt lat="41.7745446" lon="1.8813947"><ele>277.0</ele><time>2026-03-28T09:47:45.963Z</time></trkpt><trkpt lat="41.7745533" lon="1.8811363"><ele>277.0</ele><time>2026-03-28T09:47:46.959Z</time></trkpt><trkpt lat="41.774563" lon="1.880872"><ele>277.0</ele><time>2026-03-28T09:47:47.97Z</time></trkpt><trkpt lat="41.7745746" lon="1.8806003"><ele>277.66666666666663</ele><time>2026-03-28T09:47:48.954Z</time></trkpt><trkpt lat="41.7745846" lon="1.8803264"><ele>278.3333333333333</ele><time>2026-03-28T09:47:49.962Z</time></trkpt><trkpt lat="41.7745966" lon="1.8800739"><ele>279.0</ele><time>2026-03-28T09:47:50.961Z</time></trkpt><trkpt lat="41.7746077" lon="1.8798204"><ele>279.3333333333333</ele><time>2026-03-28T09:47:51.968Z</time></trkpt><trkpt lat="41.7746231" lon="1.8795885"><ele>279.66666666666663</ele><time>2026-03-28T09:47:52.963Z</time></trkpt><trkpt lat="41.7746315" lon="1.879356"><ele>280.0</ele><time>2026-03-28T09:47:53.963Z</time></trkpt><trkpt lat="41.7746418" lon="1.8791455"><ele>280.75</ele><time>2026-03-28T09:47:54.97Z</time></trkpt><trkpt lat="41.7746556" lon="1.8789432"><ele>281.5</ele><time>2026-03-28T09:47:55.966Z</time></trkpt><trkpt lat="41.7746687" lon="1.8787586"><ele>282.25</ele><time>2026-03-28T09:47:56.963Z</time></trkpt><trkpt lat="41.7746776" lon="1.8785988"><ele>283.0</ele><time>2026-03-28T09:47:57.961Z</time></trkpt><trkpt lat="41.7746964" lon="1.8784381"><ele>282.8</ele><time>2026-03-28T09:47:58.96Z</time></trkpt><trkpt lat="41.774733" lon="1.8783139"><ele>282.6</ele><time>2026-03-28T09:47:59.964Z</time></trkpt><trkpt lat="41.7747893" lon="1.8782106"><ele>282.4</ele><time>2026-03-28T09:48:00.96Z</time></trkpt><trkpt lat="41.7748438" lon="1.8781138"><ele>282.2</ele><time>2026-03-28T09:48:01.96Z</time></trkpt><trkpt lat="41.774853" lon="1.8779777"><ele>282.0</ele><time>2026-03-28T09:48:02.971Z</time></trkpt><trkpt lat="41.7748486" lon="1.8778568"><ele>282.0</ele><time>2026-03-28T09:48:03.968Z</time></trkpt><trkpt lat="41.7748091" lon="1.8777367"><ele>282.0</ele><time>2026-03-28T09:48:04.958Z</time></trkpt><trkpt lat="41.7747509" lon="1.8776085"><ele>282.0</ele><time>2026-03-28T09:48:05.949Z</time></trkpt><trkpt lat="41.77472" lon="1.8774553"><ele>282.0</ele><time>2026-03-28T09:48:06.956Z</time></trkpt><trkpt lat="41.7747272" lon="1.8772695"><ele>283.0</ele><time>2026-03-28T09:48:07.931Z</time></trkpt><trkpt lat="41.774742" lon="1.8770586"><ele>284.0</ele><time>2026-03-28T09:48:08.931Z</time></trkpt><trkpt lat="41.7747688" lon="1.8768071"><ele>285.0</ele><time>2026-03-28T09:48:09.939Z</time></trkpt><trkpt lat="41.774784" lon="1.8765531"><ele>286.6666666666667</ele><time>2026-03-28T09:48:10.921Z</time></trkpt><trkpt lat="41.7748073" lon="1.8763158"><ele>288.33333333333337</ele><time>2026-03-28T09:48:11.92Z</time></trkpt><trkpt lat="41.7748256" lon="1.8760341"><ele>290.0</ele><time>2026-03-28T09:48:12.913Z</time></trkpt><trkpt lat="41.7748378" lon="1.8757195"><ele>290.0</ele><time>2026-03-28T09:48:13.914Z</time></trkpt><trkpt lat="41.774861" lon="1.8754189"><ele>290.0</ele><time>2026-03-28T09:48:14.932Z</time></trkpt><trkpt lat="41.774875" lon="1.8751448"><ele>290.0</ele><time>2026-03-28T09:48:15.925Z</time></trkpt><trkpt lat="41.774884" lon="1.8749137"><ele>290.0</ele><time>2026-03-28T09:48:16.924Z</time></trkpt><trkpt lat="41.7748865" lon="1.8746961"><ele>290.0</ele><time>2026-03-28T09:48:17.926Z</time></trkpt><trkpt lat="41.7748907" lon="1.8745309"><ele>290.0</ele><time>2026-03-28T09:48:18.939Z</time></trkpt><trkpt lat="41.7749154" lon="1.8744283"><ele>290.0</ele><time>2026-03-28T09:48:19.931Z</time></trkpt><trkpt lat="41.7749401" lon="1.8743323"><ele>290.0</ele><time>2026-03-28T09:48:21.93Z</time></trkpt><trkpt lat="41.7749835" lon="1.8742029"><ele>289.83333333333337</ele><time>2026-03-28T09:48:23.944Z</time></trkpt><trkpt lat="41.7750161" lon="1.8741089"><ele>289.6666666666667</ele><time>2026-03-28T09:48:24.946Z</time></trkpt><trkpt lat="41.7750376" lon="1.8740069"><ele>289.5</ele><time>2026-03-28T09:48:25.946Z</time></trkpt><trkpt lat="41.775041" lon="1.8738874"><ele>289.3333333333333</ele><time>2026-03-28T09:48:26.948Z</time></trkpt><trkpt lat="41.7750266" lon="1.8737686"><ele>289.16666666666663</ele><time>2026-03-28T09:48:27.956Z</time></trkpt><trkpt lat="41.7749842" lon="1.8736627"><ele>289.0</ele><time>2026-03-28T09:48:28.953Z</time></trkpt><trkpt lat="41.7749504" lon="1.8735486"><ele>288.8</ele><time>2026-03-28T09:48:29.95Z</time></trkpt><trkpt lat="41.7749281" lon="1.8734256"><ele>288.59999999999997</ele><time>2026-03-28T09:48:30.959Z</time></trkpt><trkpt lat="41.774922" lon="1.8732898"><ele>288.4</ele><time>2026-03-28T09:48:31.954Z</time></trkpt><trkpt lat="41.7749239" lon="1.8731537"><ele>288.2</ele><time>2026-03-28T09:48:32.951Z</time></trkpt><trkpt lat="41.774929" lon="1.873012"><ele>288.0</ele><time>2026-03-28T09:48:33.952Z</time></trkpt><trkpt lat="41.7749447" lon="1.8728622"><ele>288.0</ele><time>2026-03-28T09:48:34.956Z</time></trkpt><trkpt lat="41.7749521" lon="1.8727132"><ele>288.0</ele><time>2026-03-28T09:48:35.954Z</time></trkpt><trkpt lat="41.7749537" lon="1.87254"><ele>288.0</ele><time>2026-03-28T09:48:36.955Z</time></trkpt><trkpt lat="41.7749616" lon="1.8723593"><ele>288.0</ele><time>2026-03-28T09:48:37.952Z</time></trkpt><trkpt lat="41.7749705" lon="1.8721851"><ele>288.0</ele><time>2026-03-28T09:48:38.95Z</time></trkpt><trkpt lat="41.7749736" lon="1.8720109"><ele>288.0</ele><time>2026-03-28T09:48:39.942Z</time></trkpt><trkpt lat="41.7749808" lon="1.8718192"><ele>288.0</ele><time>2026-03-28T09:48:40.953Z</time></trkpt><trkpt lat="41.7749796" lon="1.8716246"><ele>288.0</ele><time>2026-03-28T09:48:41.95Z</time></trkpt><trkpt lat="41.7749826" lon="1.8714302"><ele>288.0</ele><time>2026-03-28T09:48:42.947Z</time></trkpt><trkpt lat="41.774983" lon="1.8712198"><ele>288.0</ele><time>2026-03-28T09:48:43.944Z</time></trkpt><trkpt lat="41.7749733" lon="1.8709777"><ele>288.0</ele><time>2026-03-28T09:48:44.949Z</time></trkpt><trkpt lat="41.7749833" lon="1.8707342"><ele>288.0</ele><time>2026-03-28T09:48:45.935Z</time></trkpt><trkpt lat="41.7750012" lon="1.870473"><ele>288.0</ele><time>2026-03-28T09:48:46.95Z</time></trkpt><trkpt lat="41.7750167" lon="1.870185"><ele>288.0</ele><time>2026-03-28T09:48:47.956Z</time></trkpt><trkpt lat="41.7750325" lon="1.8698746"><ele>287.0</ele><time>2026-03-28T09:48:48.952Z</time></trkpt><trkpt lat="41.7750393" lon="1.8695483"><ele>286.0</ele><time>2026-03-28T09:48:49.953Z</time></trkpt><trkpt lat="41.7750493" lon="1.8692212"><ele>286.0</ele><time>2026-03-28T09:48:50.954Z</time></trkpt><trkpt lat="41.7750567" lon="1.8689153"><ele>286.0</ele><time>2026-03-28T09:48:51.95Z</time></trkpt><trkpt lat="41.7750645" lon="1.8686311"><ele>286.0</ele><time>2026-03-28T09:48:52.952Z</time></trkpt><trkpt lat="41.7750809" lon="1.8683617"><ele>287.3333333333333</ele><time>2026-03-28T09:48:53.954Z</time></trkpt><trkpt lat="41.7750981" lon="1.8681131"><ele>288.6666666666667</ele><time>2026-03-28T09:48:54.946Z</time></trkpt><trkpt lat="41.7751" lon="1.8678873"><ele>290.0</ele><time>2026-03-28T09:48:55.94Z</time></trkpt><trkpt lat="41.7751024" lon="1.8676518"><ele>290.33333333333337</ele><time>2026-03-28T09:48:56.94Z</time></trkpt><trkpt lat="41.7751153" lon="1.8674338"><ele>290.6666666666667</ele><time>2026-03-28T09:48:57.945Z</time></trkpt><trkpt lat="41.7751239" lon="1.8672112"><ele>291.0</ele><time>2026-03-28T09:48:58.945Z</time></trkpt><trkpt lat="41.7751397" lon="1.8670005"><ele>291.0</ele><time>2026-03-28T09:48:59.944Z</time></trkpt><trkpt lat="41.7751682" lon="1.8668159"><ele>291.0</ele><time>2026-03-28T09:49:00.946Z</time></trkpt><trkpt lat="41.7752162" lon="1.8666533"><ele>291.0</ele><time>2026-03-28T09:49:01.944Z</time></trkpt><trkpt lat="41.7752724" lon="1.8665038"><ele>291.0</ele><time>2026-03-28T09:49:02.954Z</time></trkpt><trkpt lat="41.7753493" lon="1.8663748"><ele>292.0</ele><time>2026-03-28T09:49:03.953Z</time></trkpt><trkpt lat="41.7754068" lon="1.8662665"><ele>293.0</ele><time>2026-03-28T09:49:04.952Z</time></trkpt><trkpt lat="41.7754339" lon="1.8661775"><ele>294.0</ele><time>2026-03-28T09:49:05.954Z</time></trkpt><trkpt lat="41.7754066" lon="1.8660763"><ele>295.0</ele><time>2026-03-28T09:49:06.947Z</time></trkpt><trkpt lat="41.7753541" lon="1.8659656"><ele>296.0</ele><time>2026-03-28T09:49:07.939Z</time></trkpt><trkpt lat="41.7752803" lon="1.8658367"><ele>295.33333333333337</ele><time>2026-03-28T09:49:08.931Z</time></trkpt><trkpt lat="41.7752205" lon="1.8656669"><ele>294.6666666666667</ele><time>2026-03-28T09:49:09.943Z</time></trkpt><trkpt lat="41.7751909" lon="1.8654538"><ele>294.0</ele><time>2026-03-28T09:49:10.942Z</time></trkpt><trkpt lat="41.7751873" lon="1.8652098"><ele>297.0</ele><time>2026-03-28T09:49:11.953Z</time></trkpt><trkpt lat="41.7752039" lon="1.8649508"><ele>300.0</ele><time>2026-03-28T09:49:12.945Z</time></trkpt><trkpt lat="41.7752152" lon="1.8646749"><ele>303.0</ele><time>2026-03-28T09:49:13.939Z</time></trkpt><trkpt lat="41.7752216" lon="1.8643922"><ele>303.3333333333333</ele><time>2026-03-28T09:49:14.946Z</time></trkpt><trkpt lat="41.7752291" lon="1.8640976"><ele>303.66666666666663</ele><time>2026-03-28T09:49:15.942Z</time></trkpt><trkpt lat="41.7752323" lon="1.863796"><ele>304.0</ele><time>2026-03-28T09:49:16.937Z</time></trkpt><trkpt lat="41.7752407" lon="1.8634852"><ele>303.0</ele><time>2026-03-28T09:49:17.936Z</time></trkpt><trkpt lat="41.7752473" lon="1.8631772"><ele>302.0</ele><time>2026-03-28T09:49:18.95Z</time></trkpt><trkpt lat="41.7752701" lon="1.8628709"><ele>301.5</ele><time>2026-03-28T09:49:19.951Z</time></trkpt><trkpt lat="41.7752969" lon="1.8625581"><ele>301.0</ele><time>2026-03-28T09:49:20.95Z</time></trkpt><trkpt lat="41.7753137" lon="1.8622552"><ele>301.0</ele><time>2026-03-28T09:49:21.955Z</time></trkpt><trkpt lat="41.7753186" lon="1.8619671"><ele>301.0</ele><time>2026-03-28T09:49:22.954Z</time></trkpt><trkpt lat="41.7753228" lon="1.8616944"><ele>301.0</ele><time>2026-03-28T09:49:23.936Z</time></trkpt><trkpt lat="41.7753372" lon="1.8614471"><ele>303.0</ele><time>2026-03-28T09:49:24.952Z</time></trkpt><trkpt lat="41.7753688" lon="1.8612328"><ele>305.0</ele><time>2026-03-28T09:49:25.947Z</time></trkpt><trkpt lat="41.7754437" lon="1.8610434"><ele>307.0</ele><time>2026-03-28T09:49:26.959Z</time></trkpt><trkpt lat="41.7755512" lon="1.8608619"><ele>307.66666666666663</ele><time>2026-03-28T09:49:27.948Z</time></trkpt><trkpt lat="41.7756825" lon="1.8607034"><ele>308.3333333333333</ele><time>2026-03-28T09:49:28.958Z</time></trkpt><trkpt lat="41.7758391" lon="1.8605948"><ele>309.0</ele><time>2026-03-28T09:49:29.945Z</time></trkpt><trkpt lat="41.7760064" lon="1.8604861"><ele>310.25</ele><time>2026-03-28T09:49:30.95Z</time></trkpt><trkpt lat="41.776154" lon="1.8603951"><ele>311.5</ele><time>2026-03-28T09:49:31.948Z</time></trkpt><trkpt lat="41.7762852" lon="1.8603282"><ele>312.75</ele><time>2026-03-28T09:49:32.954Z</time></trkpt><trkpt lat="41.7763856" lon="1.8602598"><ele>314.0</ele><time>2026-03-28T09:49:33.952Z</time></trkpt><trkpt lat="41.776474" lon="1.8601994"><ele>314.0</ele><time>2026-03-28T09:49:34.956Z</time></trkpt><trkpt lat="41.7765613" lon="1.8601473"><ele>314.0</ele><time>2026-03-28T09:49:35.964Z</time></trkpt><trkpt lat="41.7766463" lon="1.8601064"><ele>314.0</ele><time>2026-03-28T09:49:36.956Z</time></trkpt><trkpt lat="41.7767372" lon="1.8600606"><ele>314.0</ele><time>2026-03-28T09:49:37.953Z</time></trkpt><trkpt lat="41.776833" lon="1.8600119"><ele>314.0</ele><time>2026-03-28T09:49:38.949Z</time></trkpt><trkpt lat="41.7769291" lon="1.8599433"><ele>313.5</ele><time>2026-03-28T09:49:39.957Z</time></trkpt><trkpt lat="41.7770325" lon="1.859868"><ele>313.0</ele><time>2026-03-28T09:49:40.956Z</time></trkpt><trkpt lat="41.7771463" lon="1.8597758"><ele>312.5</ele><time>2026-03-28T09:49:41.951Z</time></trkpt><trkpt lat="41.7772389" lon="1.8596574"><ele>312.0</ele><time>2026-03-28T09:49:42.962Z</time></trkpt><trkpt lat="41.7773122" lon="1.8595258"><ele>312.0</ele><time>2026-03-28T09:49:43.955Z</time></trkpt><trkpt lat="41.7773765" lon="1.8593939"><ele>312.0</ele><time>2026-03-28T09:49:44.949Z</time></trkpt><trkpt lat="41.7774262" lon="1.8592558"><ele>312.0</ele><time>2026-03-28T09:49:45.964Z</time></trkpt><trkpt lat="41.7774588" lon="1.8591166"><ele>312.0</ele><time>2026-03-28T09:49:46.964Z</time></trkpt><trkpt lat="41.7774757" lon="1.8589748"><ele>312.0</ele><time>2026-03-28T09:49:47.967Z</time></trkpt><trkpt lat="41.7774831" lon="1.858824"><ele>311.2</ele><time>2026-03-28T09:49:48.961Z</time></trkpt><trkpt lat="41.7774886" lon="1.8586812"><ele>310.4</ele><time>2026-03-28T09:49:49.964Z</time></trkpt><trkpt lat="41.7774907" lon="1.8585477"><ele>309.6</ele><time>2026-03-28T09:49:50.963Z</time></trkpt><trkpt lat="41.7775019" lon="1.858423"><ele>308.8</ele><time>2026-03-28T09:49:51.959Z</time></trkpt><trkpt lat="41.7775204" lon="1.8583042"><ele>308.0</ele><time>2026-03-28T09:49:52.962Z</time></trkpt><trkpt lat="41.7775439" lon="1.8581963"><ele>307.1666666666667</ele><time>2026-03-28T09:49:53.951Z</time></trkpt><trkpt lat="41.7775814" lon="1.8580983"><ele>306.33333333333337</ele><time>2026-03-28T09:49:54.961Z</time></trkpt><trkpt lat="41.7776413" lon="1.8580183"><ele>305.5</ele><time>2026-03-28T09:49:55.969Z</time></trkpt><trkpt lat="41.7776953" lon="1.8579241"><ele>304.6666666666667</ele><time>2026-03-28T09:49:56.955Z</time></trkpt><trkpt lat="41.7777353" lon="1.8578127"><ele>303.8333333333333</ele><time>2026-03-28T09:49:57.956Z</time></trkpt><trkpt lat="41.7777735" lon="1.8576865"><ele>303.0</ele><time>2026-03-28T09:49:58.963Z</time></trkpt><trkpt lat="41.7778234" lon="1.8575518"><ele>302.5</ele><time>2026-03-28T09:49:59.959Z</time></trkpt><trkpt lat="41.777889" lon="1.8574278"><ele>302.0</ele><time>2026-03-28T09:50:00.96Z</time></trkpt><trkpt lat="41.7779743" lon="1.8573068"><ele>301.5</ele><time>2026-03-28T09:50:01.961Z</time></trkpt><trkpt lat="41.7780637" lon="1.857187"><ele>301.0</ele><time>2026-03-28T09:50:02.964Z</time></trkpt><trkpt lat="41.7781595" lon="1.857066"><ele>301.0</ele><time>2026-03-28T09:50:03.958Z</time></trkpt><trkpt lat="41.7782568" lon="1.8569393"><ele>301.0</ele><time>2026-03-28T09:50:04.965Z</time></trkpt><trkpt lat="41.778351" lon="1.8568129"><ele>301.0</ele><time>2026-03-28T09:50:05.959Z</time></trkpt><trkpt lat="41.7784423" lon="1.8566794"><ele>301.0</ele><time>2026-03-28T09:50:06.96Z</time></trkpt><trkpt lat="41.7785289" lon="1.8565528"><ele>301.0</ele><time>2026-03-28T09:50:07.954Z</time></trkpt><trkpt lat="41.7786139" lon="1.8564309"><ele>301.0</ele><time>2026-03-28T09:50:08.951Z</time></trkpt><trkpt lat="41.778701" lon="1.8563107"><ele>301.0</ele><time>2026-03-28T09:50:09.948Z</time></trkpt><trkpt lat="41.7787759" lon="1.856179"><ele>301.0</ele><time>2026-03-28T09:50:10.951Z</time></trkpt><trkpt lat="41.7788402" lon="1.8560212"><ele>299.75</ele><time>2026-03-28T09:50:11.954Z</time></trkpt><trkpt lat="41.7788898" lon="1.8558512"><ele>298.5</ele><time>2026-03-28T09:50:12.958Z</time></trkpt><trkpt lat="41.7789303" lon="1.8556644"><ele>297.25</ele><time>2026-03-28T09:50:13.962Z</time></trkpt><trkpt lat="41.7789611" lon="1.8554708"><ele>296.0</ele><time>2026-03-28T09:50:14.969Z</time></trkpt><trkpt lat="41.7789908" lon="1.8552882"><ele>296.25</ele><time>2026-03-28T09:50:15.962Z</time></trkpt><trkpt lat="41.7790269" lon="1.8551052"><ele>296.5</ele><time>2026-03-28T09:50:16.966Z</time></trkpt><trkpt lat="41.7790615" lon="1.8549359"><ele>296.75</ele><time>2026-03-28T09:50:17.962Z</time></trkpt><trkpt lat="41.7790905" lon="1.854742"><ele>297.0</ele><time>2026-03-28T09:50:18.959Z</time></trkpt><trkpt lat="41.7791315" lon="1.854565"><ele>297.0</ele><time>2026-03-28T09:50:19.961Z</time></trkpt><trkpt lat="41.779169" lon="1.8543995"><ele>297.0</ele><time>2026-03-28T09:50:20.957Z</time></trkpt><trkpt lat="41.7792048" lon="1.8542466"><ele>297.0</ele><time>2026-03-28T09:50:21.957Z</time></trkpt><trkpt lat="41.7792473" lon="1.8540816"><ele>297.0</ele><time>2026-03-28T09:50:22.959Z</time></trkpt><trkpt lat="41.7792778" lon="1.8539254"><ele>297.25</ele><time>2026-03-28T09:50:23.956Z</time></trkpt><trkpt lat="41.7793233" lon="1.853758"><ele>297.5</ele><time>2026-03-28T09:50:24.959Z</time></trkpt><trkpt lat="41.7793639" lon="1.8535997"><ele>297.75</ele><time>2026-03-28T09:50:25.953Z</time></trkpt><trkpt lat="41.7794049" lon="1.853444"><ele>298.0</ele><time>2026-03-28T09:50:26.961Z</time></trkpt><trkpt lat="41.7794437" lon="1.8532927"><ele>298.8</ele><time>2026-03-28T09:50:27.961Z</time></trkpt><trkpt lat="41.7794826" lon="1.8531496"><ele>299.6</ele><time>2026-03-28T09:50:28.964Z</time></trkpt><trkpt lat="41.7795225" lon="1.8530042"><ele>300.4</ele><time>2026-03-28T09:50:29.966Z</time></trkpt><trkpt lat="41.7795643" lon="1.8528686"><ele>301.2</ele><time>2026-03-28T09:50:30.957Z</time></trkpt><trkpt lat="41.7796003" lon="1.8527476"><ele>302.0</ele><time>2026-03-28T09:50:31.959Z</time></trkpt><trkpt lat="41.779633" lon="1.8526363"><ele>302.5</ele><time>2026-03-28T09:50:32.963Z</time></trkpt><trkpt lat="41.7796674" lon="1.8525401"><ele>303.0</ele><time>2026-03-28T09:50:33.955Z</time></trkpt><trkpt lat="41.7796999" lon="1.8524646"><ele>303.5</ele><time>2026-03-28T09:50:34.971Z</time></trkpt><trkpt lat="41.7797477" lon="1.8523845"><ele>304.0</ele><time>2026-03-28T09:50:35.963Z</time></trkpt><trkpt lat="41.7797988" lon="1.8522939"><ele>304.5</ele><time>2026-03-28T09:50:36.968Z</time></trkpt><trkpt lat="41.7798423" lon="1.8522034"><ele>305.0</ele><time>2026-03-28T09:50:37.967Z</time></trkpt><trkpt lat="41.7798832" lon="1.8520967"><ele>305.0</ele><time>2026-03-28T09:50:38.963Z</time></trkpt><trkpt lat="41.7799378" lon="1.8519712"><ele>305.0</ele><time>2026-03-28T09:50:39.961Z</time></trkpt><trkpt lat="41.7800075" lon="1.8518451"><ele>305.0</ele><time>2026-03-28T09:50:40.957Z</time></trkpt><trkpt lat="41.7800884" lon="1.8517294"><ele>305.0</ele><time>2026-03-28T09:50:41.968Z</time></trkpt><trkpt lat="41.7801707" lon="1.8516266"><ele>304.6</ele><time>2026-03-28T09:50:42.969Z</time></trkpt><trkpt lat="41.7802458" lon="1.8515314"><ele>304.2</ele><time>2026-03-28T09:50:43.969Z</time></trkpt><trkpt lat="41.780322" lon="1.8514414"><ele>303.8</ele><time>2026-03-28T09:50:44.98Z</time></trkpt><trkpt lat="41.7803988" lon="1.851353"><ele>303.4</ele><time>2026-03-28T09:50:45.966Z</time></trkpt><trkpt lat="41.780475" lon="1.8512561"><ele>303.0</ele><time>2026-03-28T09:50:46.97Z</time></trkpt><trkpt lat="41.7805494" lon="1.8511584"><ele>303.0</ele><time>2026-03-28T09:50:47.976Z</time></trkpt><trkpt lat="41.7806287" lon="1.8510597"><ele>303.0</ele><time>2026-03-28T09:50:48.974Z</time></trkpt><trkpt lat="41.7807119" lon="1.8509565"><ele>303.0</ele><time>2026-03-28T09:50:49.974Z</time></trkpt><trkpt lat="41.7808004" lon="1.8508445"><ele>303.0</ele><time>2026-03-28T09:50:50.971Z</time></trkpt><trkpt lat="41.7808928" lon="1.8507336"><ele>303.5</ele><time>2026-03-28T09:50:51.97Z</time></trkpt><trkpt lat="41.7809837" lon="1.850625"><ele>304.0</ele><time>2026-03-28T09:50:52.98Z</time></trkpt><trkpt lat="41.7810703" lon="1.8505201"><ele>304.5</ele><time>2026-03-28T09:50:53.974Z</time></trkpt><trkpt lat="41.7811508" lon="1.8504258"><ele>305.0</ele><time>2026-03-28T09:50:54.973Z</time></trkpt><trkpt lat="41.7812264" lon="1.8503278"><ele>305.25</ele><time>2026-03-28T09:50:55.973Z</time></trkpt><trkpt lat="41.7813071" lon="1.8502119"><ele>305.5</ele><time>2026-03-28T09:50:56.971Z</time></trkpt><trkpt lat="41.7813798" lon="1.8500883"><ele>305.75</ele><time>2026-03-28T09:50:57.978Z</time></trkpt><trkpt lat="41.7814439" lon="1.8499696"><ele>306.0</ele><time>2026-03-28T09:50:58.973Z</time></trkpt><trkpt lat="41.7815076" lon="1.8498395"><ele>306.5</ele><time>2026-03-28T09:50:59.966Z</time></trkpt><trkpt lat="41.7815646" lon="1.8497106"><ele>307.0</ele><time>2026-03-28T09:51:00.97Z</time></trkpt><trkpt lat="41.781624" lon="1.8495686"><ele>307.5</ele><time>2026-03-28T09:51:01.966Z</time></trkpt><trkpt lat="41.7816777" lon="1.8494251"><ele>308.0</ele><time>2026-03-28T09:51:02.965Z</time></trkpt><trkpt lat="41.7817375" lon="1.8492738"><ele>308.0</ele><time>2026-03-28T09:51:03.964Z</time></trkpt><trkpt lat="41.7817992" lon="1.849128"><ele>308.0</ele><time>2026-03-28T09:51:04.968Z</time></trkpt><trkpt lat="41.7818608" lon="1.848984"><ele>308.0</ele><time>2026-03-28T09:51:05.962Z</time></trkpt><trkpt lat="41.7819259" lon="1.8488406"><ele>308.0</ele><time>2026-03-28T09:51:06.964Z</time></trkpt><trkpt lat="41.7819776" lon="1.8486971"><ele>308.75</ele><time>2026-03-28T09:51:07.967Z</time></trkpt><trkpt lat="41.7820313" lon="1.8485537"><ele>309.5</ele><time>2026-03-28T09:51:08.966Z</time></trkpt><trkpt lat="41.7820883" lon="1.8484099"><ele>310.25</ele><time>2026-03-28T09:51:09.968Z</time></trkpt><trkpt lat="41.7821451" lon="1.8482705"><ele>311.0</ele><time>2026-03-28T09:51:10.966Z</time></trkpt><trkpt lat="41.7822038" lon="1.8481377"><ele>311.25</ele><time>2026-03-28T09:51:11.966Z</time></trkpt><trkpt lat="41.7822699" lon="1.8480086"><ele>311.5</ele><time>2026-03-28T09:51:12.965Z</time></trkpt><trkpt lat="41.7823527" lon="1.8478811"><ele>311.75</ele><time>2026-03-28T09:51:13.965Z</time></trkpt><trkpt lat="41.7824474" lon="1.8477654"><ele>312.0</ele><time>2026-03-28T09:51:14.965Z</time></trkpt><trkpt lat="41.782548" lon="1.8476659"><ele>311.8</ele><time>2026-03-28T09:51:15.971Z</time></trkpt><trkpt lat="41.7826463" lon="1.8475693"><ele>311.6</ele><time>2026-03-28T09:51:16.965Z</time></trkpt><trkpt lat="41.7827446" lon="1.8474732"><ele>311.40000000000003</ele><time>2026-03-28T09:51:17.968Z</time></trkpt><trkpt lat="41.7828314" lon="1.8473816"><ele>311.2</ele><time>2026-03-28T09:51:18.967Z</time></trkpt><trkpt lat="41.7828955" lon="1.8472897"><ele>311.0</ele><time>2026-03-28T09:51:19.962Z</time></trkpt><trkpt lat="41.7829542" lon="1.847178"><ele>312.0</ele><time>2026-03-28T09:51:20.962Z</time></trkpt><trkpt lat="41.7830131" lon="1.847048"><ele>313.0</ele><time>2026-03-28T09:51:21.951Z</time></trkpt><trkpt lat="41.7830726" lon="1.8469032"><ele>314.0</ele><time>2026-03-28T09:51:22.956Z</time></trkpt><trkpt lat="41.7831407" lon="1.8467426"><ele>315.0</ele><time>2026-03-28T09:51:23.961Z</time></trkpt><trkpt lat="41.7832186" lon="1.8465636"><ele>315.0</ele><time>2026-03-28T09:51:24.953Z</time></trkpt><trkpt lat="41.7832942" lon="1.8463862"><ele>315.0</ele><time>2026-03-28T09:51:25.952Z</time></trkpt><trkpt lat="41.783361" lon="1.84621"><ele>315.0</ele><time>2026-03-28T09:51:26.953Z</time></trkpt><trkpt lat="41.7834095" lon="1.8460449"><ele>315.0</ele><time>2026-03-28T09:51:27.951Z</time></trkpt><trkpt lat="41.7834387" lon="1.8458895"><ele>315.25</ele><time>2026-03-28T09:51:28.96Z</time></trkpt><trkpt lat="41.7834663" lon="1.8457141"><ele>315.5</ele><time>2026-03-28T09:51:29.954Z</time></trkpt><trkpt lat="41.7834547" lon="1.8455176"><ele>315.75</ele><time>2026-03-28T09:51:30.944Z</time></trkpt><trkpt lat="41.7834216" lon="1.8453306"><ele>316.0</ele><time>2026-03-28T09:51:31.952Z</time></trkpt><trkpt lat="41.7833667" lon="1.845145"><ele>316.25</ele><time>2026-03-28T09:51:32.948Z</time></trkpt><trkpt lat="41.7832976" lon="1.8449632"><ele>316.5</ele><time>2026-03-28T09:51:33.942Z</time></trkpt><trkpt lat="41.7832311" lon="1.8447897"><ele>316.75</ele><time>2026-03-28T09:51:34.946Z</time></trkpt><trkpt lat="41.78318" lon="1.8445998"><ele>317.0</ele><time>2026-03-28T09:51:35.94Z</time></trkpt><trkpt lat="41.78314" lon="1.8443983"><ele>317.0</ele><time>2026-03-28T09:51:36.947Z</time></trkpt><trkpt lat="41.7830867" lon="1.8442053"><ele>317.0</ele><time>2026-03-28T09:51:37.958Z</time></trkpt><trkpt lat="41.7830334" lon="1.8440105"><ele>317.0</ele><time>2026-03-28T09:51:38.961Z</time></trkpt><trkpt lat="41.7829806" lon="1.8438157"><ele>317.0</ele><time>2026-03-28T09:51:39.959Z</time></trkpt><trkpt lat="41.7829199" lon="1.8436199"><ele>317.0</ele><time>2026-03-28T09:51:40.962Z</time></trkpt><trkpt lat="41.7828757" lon="1.8434228"><ele>317.0</ele><time>2026-03-28T09:51:41.957Z</time></trkpt><trkpt lat="41.7828241" lon="1.8432369"><ele>317.33333333333337</ele><time>2026-03-28T09:51:42.956Z</time></trkpt><trkpt lat="41.782775" lon="1.8430502"><ele>317.6666666666667</ele><time>2026-03-28T09:51:43.957Z</time></trkpt><trkpt lat="41.7827195" lon="1.8428581"><ele>318.0</ele><time>2026-03-28T09:51:44.959Z</time></trkpt><trkpt lat="41.7826594" lon="1.8426683"><ele>317.0</ele><time>2026-03-28T09:51:45.957Z</time></trkpt><trkpt lat="41.7826104" lon="1.8424727"><ele>316.0</ele><time>2026-03-28T09:51:46.966Z</time></trkpt><trkpt lat="41.78255" lon="1.842273"><ele>315.0</ele><time>2026-03-28T09:51:47.96Z</time></trkpt><trkpt lat="41.7824981" lon="1.8420761"><ele>315.0</ele><time>2026-03-28T09:51:48.959Z</time></trkpt><trkpt lat="41.7824422" lon="1.8418792"><ele>315.0</ele><time>2026-03-28T09:51:49.966Z</time></trkpt><trkpt lat="41.7823822" lon="1.841691"><ele>315.0</ele><time>2026-03-28T09:51:50.961Z</time></trkpt><trkpt lat="41.78233" lon="1.8415172"><ele>315.0</ele><time>2026-03-28T09:51:51.968Z</time></trkpt><trkpt lat="41.782288" lon="1.8413574"><ele>314.8333333333333</ele><time>2026-03-28T09:51:52.962Z</time></trkpt><trkpt lat="41.7822442" lon="1.841209"><ele>314.6666666666667</ele><time>2026-03-28T09:51:53.964Z</time></trkpt><trkpt lat="41.7822002" lon="1.8410832"><ele>314.5</ele><time>2026-03-28T09:51:54.965Z</time></trkpt><trkpt lat="41.7821745" lon="1.8409704"><ele>314.33333333333337</ele><time>2026-03-28T09:51:55.968Z</time></trkpt><trkpt lat="41.782156" lon="1.8408789"><ele>314.1666666666667</ele><time>2026-03-28T09:51:56.959Z</time></trkpt><trkpt lat="41.7821311" lon="1.8408011"><ele>314.0</ele><time>2026-03-28T09:51:57.957Z</time></trkpt><trkpt lat="41.7821131" lon="1.8407073"><ele>314.6666666666667</ele><time>2026-03-28T09:51:58.957Z</time></trkpt><trkpt lat="41.7820948" lon="1.8406246"><ele>315.33333333333337</ele><time>2026-03-28T09:51:59.961Z</time></trkpt><trkpt lat="41.7820593" lon="1.8404935"><ele>316.0</ele><time>2026-03-28T09:52:01.948Z</time></trkpt><trkpt lat="41.782031" lon="1.8404169"><ele>316.6666666666667</ele><time>2026-03-28T09:52:02.948Z</time></trkpt><trkpt lat="41.7820006" lon="1.8403277"><ele>317.3333333333333</ele><time>2026-03-28T09:52:03.944Z</time></trkpt><trkpt lat="41.781973" lon="1.8402351"><ele>318.0</ele><time>2026-03-28T09:52:04.951Z</time></trkpt><trkpt lat="41.781954" lon="1.8401345"><ele>318.3333333333333</ele><time>2026-03-28T09:52:05.945Z</time></trkpt><trkpt lat="41.7819304" lon="1.8400461"><ele>318.6666666666667</ele><time>2026-03-28T09:52:06.947Z</time></trkpt><trkpt lat="41.7818869" lon="1.8398985"><ele>319.0</ele><time>2026-03-28T09:52:08.949Z</time></trkpt><trkpt lat="41.7818631" lon="1.8398203"><ele>319.33333333333337</ele><time>2026-03-28T09:52:09.95Z</time></trkpt><trkpt lat="41.7818429" lon="1.8397148"><ele>319.6666666666667</ele><time>2026-03-28T09:52:11.95Z</time></trkpt><trkpt lat="41.7817994" lon="1.8396214"><ele>320.0</ele><time>2026-03-28T09:52:14.956Z</time></trkpt><trkpt lat="41.7817636" lon="1.8395469"><ele>319.33333333333337</ele><time>2026-03-28T09:53:07.953Z</time></trkpt><trkpt lat="41.7817402" lon="1.8394371"><ele>318.6666666666667</ele><time>2026-03-28T09:53:09.939Z</time></trkpt><trkpt lat="41.7817001" lon="1.8392794"><ele>318.0</ele><time>2026-03-28T09:53:11.945Z</time></trkpt><trkpt lat="41.7816764" lon="1.8391969"><ele>317.3333333333333</ele><time>2026-03-28T09:53:12.942Z</time></trkpt><trkpt lat="41.7816508" lon="1.8391138"><ele>316.66666666666663</ele><time>2026-03-28T09:53:13.942Z</time></trkpt><trkpt lat="41.7816265" lon="1.8390266"><ele>316.0</ele><time>2026-03-28T09:53:14.946Z</time></trkpt><trkpt lat="41.7816099" lon="1.8389399"><ele>316.0</ele><time>2026-03-28T09:53:15.936Z</time></trkpt><trkpt lat="41.7815787" lon="1.8388615"><ele>316.0</ele><time>2026-03-28T09:53:16.931Z</time></trkpt><trkpt lat="41.7815554" lon="1.8387662"><ele>316.0</ele><time>2026-03-28T09:53:17.924Z</time></trkpt><trkpt lat="41.7815317" lon="1.8386814"><ele>316.0</ele><time>2026-03-28T09:53:18.93Z</time></trkpt><trkpt lat="41.7815051" lon="1.8385866"><ele>316.0</ele><time>2026-03-28T09:53:19.932Z</time></trkpt><trkpt lat="41.7814703" lon="1.8384819"><ele>316.0</ele><time>2026-03-28T09:53:20.93Z</time></trkpt><trkpt lat="41.7814312" lon="1.8383751"><ele>315.8333333333333</ele><time>2026-03-28T09:53:21.931Z</time></trkpt><trkpt lat="41.7813945" lon="1.838269"><ele>315.66666666666663</ele><time>2026-03-28T09:53:22.934Z</time></trkpt><trkpt lat="41.7813665" lon="1.8381622"><ele>315.5</ele><time>2026-03-28T09:53:23.942Z</time></trkpt><trkpt lat="41.7813341" lon="1.8380635"><ele>315.3333333333333</ele><time>2026-03-28T09:53:24.941Z</time></trkpt><trkpt lat="41.7813038" lon="1.8379509"><ele>315.1666666666667</ele><time>2026-03-28T09:53:25.936Z</time></trkpt><trkpt lat="41.7812741" lon="1.837835"><ele>315.0</ele><time>2026-03-28T09:53:26.933Z</time></trkpt><trkpt lat="41.781237" lon="1.8377101"><ele>314.8</ele><time>2026-03-28T09:53:27.942Z</time></trkpt><trkpt lat="41.7811996" lon="1.837583"><ele>314.6</ele><time>2026-03-28T09:53:28.945Z</time></trkpt><trkpt lat="41.781172" lon="1.8374563"><ele>314.4</ele><time>2026-03-28T09:53:29.943Z</time></trkpt><trkpt lat="41.7811491" lon="1.8373477"><ele>314.2</ele><time>2026-03-28T09:53:30.942Z</time></trkpt><trkpt lat="41.7811211" lon="1.8372415"><ele>314.0</ele><time>2026-03-28T09:53:31.944Z</time></trkpt><trkpt lat="41.7810959" lon="1.8371274"><ele>314.0</ele><time>2026-03-28T09:53:32.946Z</time></trkpt><trkpt lat="41.7810598" lon="1.8370213"><ele>314.0</ele><time>2026-03-28T09:53:33.943Z</time></trkpt><trkpt lat="41.7810357" lon="1.8369196"><ele>314.0</ele><time>2026-03-28T09:53:34.95Z</time></trkpt><trkpt lat="41.7810033" lon="1.836828"><ele>314.0</ele><time>2026-03-28T09:53:35.942Z</time></trkpt><trkpt lat="41.7809587" lon="1.8367165"><ele>314.0</ele><time>2026-03-28T09:53:37.947Z</time></trkpt><trkpt lat="41.7809277" lon="1.8365964"><ele>314.0</ele><time>2026-03-28T09:53:59.945Z</time></trkpt><trkpt lat="41.7808907" lon="1.8364527"><ele>313.85714285714283</ele><time>2026-03-28T09:54:01.947Z</time></trkpt><trkpt lat="41.7808692" lon="1.8363653"><ele>313.7142857142857</ele><time>2026-03-28T09:54:02.943Z</time></trkpt><trkpt lat="41.780854" lon="1.836281"><ele>313.57142857142856</ele><time>2026-03-28T09:54:03.952Z</time></trkpt><trkpt lat="41.7808322" lon="1.8361969"><ele>313.42857142857144</ele><time>2026-03-28T09:54:04.953Z</time></trkpt><trkpt lat="41.7808026" lon="1.8361047"><ele>313.2857142857143</ele><time>2026-03-28T09:54:05.951Z</time></trkpt><trkpt lat="41.7807763" lon="1.8359981"><ele>313.1428571428571</ele><time>2026-03-28T09:54:06.951Z</time></trkpt><trkpt lat="41.7807546" lon="1.8358951"><ele>313.0</ele><time>2026-03-28T09:54:07.949Z</time></trkpt><trkpt lat="41.7807228" lon="1.8357785"><ele>313.0</ele><time>2026-03-28T09:54:08.95Z</time></trkpt><trkpt lat="41.7806919" lon="1.835654"><ele>313.0</ele><time>2026-03-28T09:54:09.947Z</time></trkpt><trkpt lat="41.7806521" lon="1.835527"><ele>313.0</ele><time>2026-03-28T09:54:10.938Z</time></trkpt><trkpt lat="41.7806175" lon="1.8353882"><ele>313.0</ele><time>2026-03-28T09:54:11.941Z</time></trkpt><trkpt lat="41.7805769" lon="1.8352429"><ele>313.0</ele><time>2026-03-28T09:54:12.931Z</time></trkpt><trkpt lat="41.7805324" lon="1.8350975"><ele>313.25</ele><time>2026-03-28T09:54:13.932Z</time></trkpt><trkpt lat="41.7804951" lon="1.8349507"><ele>313.5</ele><time>2026-03-28T09:54:14.937Z</time></trkpt><trkpt lat="41.7804473" lon="1.8348062"><ele>313.75</ele><time>2026-03-28T09:54:15.944Z</time></trkpt><trkpt lat="41.7804063" lon="1.8346584"><ele>314.0</ele><time>2026-03-28T09:54:16.947Z</time></trkpt><trkpt lat="41.7803655" lon="1.8345047"><ele>314.0</ele><time>2026-03-28T09:54:17.947Z</time></trkpt><trkpt lat="41.7803184" lon="1.8343521"><ele>314.0</ele><time>2026-03-28T09:54:18.944Z</time></trkpt><trkpt lat="41.7802815" lon="1.8341995"><ele>314.0</ele><time>2026-03-28T09:54:19.946Z</time></trkpt><trkpt lat="41.7802386" lon="1.8340561"><ele>314.0</ele><time>2026-03-28T09:54:20.947Z</time></trkpt><trkpt lat="41.7801999" lon="1.8339225"><ele>314.5</ele><time>2026-03-28T09:54:21.95Z</time></trkpt><trkpt lat="41.780165" lon="1.8338112"><ele>315.0</ele><time>2026-03-28T09:54:22.95Z</time></trkpt><trkpt lat="41.7801416" lon="1.8337178"><ele>315.5</ele><time>2026-03-28T09:54:23.947Z</time></trkpt><trkpt lat="41.780115" lon="1.8336069"><ele>316.0</ele><time>2026-03-28T09:54:24.946Z</time></trkpt><trkpt lat="41.7800878" lon="1.833496"><ele>316.5</ele><time>2026-03-28T09:54:25.948Z</time></trkpt><trkpt lat="41.7800628" lon="1.8334044"><ele>317.0</ele><time>2026-03-28T09:54:26.952Z</time></trkpt><trkpt lat="41.7800401" lon="1.8333217"><ele>317.2</ele><time>2026-03-28T09:54:27.944Z</time></trkpt><trkpt lat="41.7800071" lon="1.8332141"><ele>317.4</ele><time>2026-03-28T09:54:28.944Z</time></trkpt><trkpt lat="41.7799674" lon="1.8330822"><ele>317.6</ele><time>2026-03-28T09:54:29.939Z</time></trkpt><trkpt lat="41.779925" lon="1.832931"><ele>317.8</ele><time>2026-03-28T09:54:30.938Z</time></trkpt><trkpt lat="41.7798664" lon="1.8327758"><ele>318.0</ele><time>2026-03-28T09:54:31.946Z</time></trkpt><trkpt lat="41.7798111" lon="1.8326172"><ele>318.75</ele><time>2026-03-28T09:54:32.944Z</time></trkpt><trkpt lat="41.7797582" lon="1.8324521"><ele>319.5</ele><time>2026-03-28T09:54:33.951Z</time></trkpt><trkpt lat="41.7797096" lon="1.8322769"><ele>320.25</ele><time>2026-03-28T09:54:34.961Z</time></trkpt><trkpt lat="41.7796529" lon="1.8320906"><ele>321.0</ele><time>2026-03-28T09:54:35.95Z</time></trkpt><trkpt lat="41.7795983" lon="1.8318897"><ele>320.6666666666667</ele><time>2026-03-28T09:54:36.955Z</time></trkpt><trkpt lat="41.7795527" lon="1.8316786"><ele>320.33333333333337</ele><time>2026-03-28T09:54:37.955Z</time></trkpt><trkpt lat="41.7795232" lon="1.8314435"><ele>320.0</ele><time>2026-03-28T09:54:38.957Z</time></trkpt><trkpt lat="41.7795262" lon="1.8312061"><ele>319.6666666666667</ele><time>2026-03-28T09:54:39.949Z</time></trkpt><trkpt lat="41.7795421" lon="1.8309487"><ele>319.3333333333333</ele><time>2026-03-28T09:54:40.952Z</time></trkpt><trkpt lat="41.7795727" lon="1.8306732"><ele>319.0</ele><time>2026-03-28T09:54:41.96Z</time></trkpt><trkpt lat="41.7796144" lon="1.8303706"><ele>317.0</ele><time>2026-03-28T09:54:42.964Z</time></trkpt><trkpt lat="41.7796499" lon="1.830056"><ele>315.0</ele><time>2026-03-28T09:54:43.963Z</time></trkpt><trkpt lat="41.7796772" lon="1.8297166"><ele>315.0</ele><time>2026-03-28T09:54:44.968Z</time></trkpt><trkpt lat="41.77971" lon="1.8293667"><ele>315.0</ele><time>2026-03-28T09:54:45.965Z</time></trkpt><trkpt lat="41.7797172" lon="1.8289963"><ele>312.5</ele><time>2026-03-28T09:54:46.961Z</time></trkpt><trkpt lat="41.7797044" lon="1.8286066"><ele>310.0</ele><time>2026-03-28T09:54:47.971Z</time></trkpt><trkpt lat="41.7796911" lon="1.8282093"><ele>309.0</ele><time>2026-03-28T09:54:48.967Z</time></trkpt><trkpt lat="41.7796837" lon="1.8278111"><ele>308.0</ele><time>2026-03-28T09:54:49.967Z</time></trkpt><trkpt lat="41.7796759" lon="1.8274044"><ele>307.0</ele><time>2026-03-28T09:54:50.967Z</time></trkpt><trkpt lat="41.7796671" lon="1.8269865"><ele>306.0</ele><time>2026-03-28T09:54:51.973Z</time></trkpt><trkpt lat="41.7796606" lon="1.8265786"><ele>306.0</ele><time>2026-03-28T09:54:52.983Z</time></trkpt><trkpt lat="41.7796529" lon="1.826185"><ele>306.0</ele><time>2026-03-28T09:54:53.965Z</time></trkpt><trkpt lat="41.7796401" lon="1.8257979"><ele>305.5</ele><time>2026-03-28T09:54:54.969Z</time></trkpt><trkpt lat="41.7796301" lon="1.8254124"><ele>305.0</ele><time>2026-03-28T09:54:55.971Z</time></trkpt><trkpt lat="41.7796142" lon="1.8250248"><ele>303.5</ele><time>2026-03-28T09:54:56.975Z</time></trkpt><trkpt lat="41.7796103" lon="1.8246381"><ele>302.0</ele><time>2026-03-28T09:54:57.969Z</time></trkpt><trkpt lat="41.7795958" lon="1.8242476"><ele>300.0</ele><time>2026-03-28T09:54:58.969Z</time></trkpt><trkpt lat="41.7795815" lon="1.8238539"><ele>298.0</ele><time>2026-03-28T09:54:59.975Z</time></trkpt><trkpt lat="41.7795699" lon="1.8234666"><ele>295.5</ele><time>2026-03-28T09:55:00.971Z</time></trkpt><trkpt lat="41.7795568" lon="1.8230736"><ele>293.0</ele><time>2026-03-28T09:55:01.972Z</time></trkpt><trkpt lat="41.7795445" lon="1.8226847"><ele>292.5</ele><time>2026-03-28T09:55:02.971Z</time></trkpt><trkpt lat="41.7795224" lon="1.822297"><ele>292.0</ele><time>2026-03-28T09:55:03.971Z</time></trkpt><trkpt lat="41.7795029" lon="1.8219311"><ele>293.5</ele><time>2026-03-28T09:55:04.97Z</time></trkpt><trkpt lat="41.7794927" lon="1.821555"><ele>295.0</ele><time>2026-03-28T09:55:05.979Z</time></trkpt><trkpt lat="41.7794833" lon="1.8212051"><ele>297.5</ele><time>2026-03-28T09:55:06.962Z</time></trkpt><trkpt lat="41.7794797" lon="1.8208729"><ele>300.0</ele><time>2026-03-28T09:55:07.959Z</time></trkpt><trkpt lat="41.7794653" lon="1.8205183"><ele>300.0</ele><time>2026-03-28T09:55:08.961Z</time></trkpt><trkpt lat="41.7794565" lon="1.8201679"><ele>300.0</ele><time>2026-03-28T09:55:09.95Z</time></trkpt><trkpt lat="41.7794436" lon="1.8198521"><ele>300.5</ele><time>2026-03-28T09:55:10.956Z</time></trkpt><trkpt lat="41.7794271" lon="1.8195112"><ele>301.0</ele><time>2026-03-28T09:55:11.958Z</time></trkpt><trkpt lat="41.7794027" lon="1.8191535"><ele>299.5</ele><time>2026-03-28T09:55:12.965Z</time></trkpt><trkpt lat="41.779401" lon="1.8188027"><ele>298.0</ele><time>2026-03-28T09:55:13.975Z</time></trkpt><trkpt lat="41.779378" lon="1.8184359"><ele>298.0</ele><time>2026-03-28T09:55:14.98Z</time></trkpt><trkpt lat="41.7793667" lon="1.8180551"><ele>298.0</ele><time>2026-03-28T09:55:15.976Z</time></trkpt><trkpt lat="41.7793575" lon="1.8176612"><ele>299.5</ele><time>2026-03-28T09:55:16.978Z</time></trkpt><trkpt lat="41.7793587" lon="1.817267"><ele>301.0</ele><time>2026-03-28T09:55:17.982Z</time></trkpt><trkpt lat="41.7793573" lon="1.816874"><ele>297.5</ele><time>2026-03-28T09:55:18.979Z</time></trkpt><trkpt lat="41.7793431" lon="1.8165014"><ele>294.0</ele><time>2026-03-28T09:55:19.978Z</time></trkpt><trkpt lat="41.7793258" lon="1.8161337"><ele>294.0</ele><time>2026-03-28T09:55:20.978Z</time></trkpt><trkpt lat="41.7793149" lon="1.8157599"><ele>294.0</ele><time>2026-03-28T09:55:21.974Z</time></trkpt><trkpt lat="41.7793022" lon="1.815405"><ele>291.5</ele><time>2026-03-28T09:55:22.972Z</time></trkpt><trkpt lat="41.7792944" lon="1.8150628"><ele>289.0</ele><time>2026-03-28T09:55:23.98Z</time></trkpt><trkpt lat="41.7792834" lon="1.8147136"><ele>289.0</ele><time>2026-03-28T09:55:24.977Z</time></trkpt><trkpt lat="41.7792761" lon="1.8143614"><ele>289.0</ele><time>2026-03-28T09:55:25.984Z</time></trkpt><trkpt lat="41.7792655" lon="1.8140019"><ele>288.5</ele><time>2026-03-28T09:55:26.973Z</time></trkpt><trkpt lat="41.7792335" lon="1.8136522"><ele>288.0</ele><time>2026-03-28T09:55:27.975Z</time></trkpt><trkpt lat="41.7792182" lon="1.8132999"><ele>288.0</ele><time>2026-03-28T09:55:28.98Z</time></trkpt><trkpt lat="41.7792107" lon="1.8129591"><ele>288.0</ele><time>2026-03-28T09:55:29.978Z</time></trkpt><trkpt lat="41.7792179" lon="1.8126222"><ele>289.0</ele><time>2026-03-28T09:55:30.98Z</time></trkpt><trkpt lat="41.7792226" lon="1.8122885"><ele>290.0</ele><time>2026-03-28T09:55:31.98Z</time></trkpt><trkpt lat="41.7792076" lon="1.8119562"><ele>291.0</ele><time>2026-03-28T09:55:32.969Z</time></trkpt><trkpt lat="41.7791921" lon="1.8116217"><ele>292.0</ele><time>2026-03-28T09:55:33.958Z</time></trkpt><trkpt lat="41.779182" lon="1.8112961"><ele>292.5</ele><time>2026-03-28T09:55:34.967Z</time></trkpt><trkpt lat="41.7791723" lon="1.810972"><ele>293.0</ele><time>2026-03-28T09:55:35.965Z</time></trkpt><trkpt lat="41.7791536" lon="1.8106359"><ele>293.0</ele><time>2026-03-28T09:55:36.962Z</time></trkpt><trkpt lat="41.7791349" lon="1.8102951"><ele>293.0</ele><time>2026-03-28T09:55:37.963Z</time></trkpt><trkpt lat="41.7791234" lon="1.8099418"><ele>292.5</ele><time>2026-03-28T09:55:38.965Z</time></trkpt><trkpt lat="41.7791212" lon="1.8095677"><ele>292.0</ele><time>2026-03-28T09:55:39.97Z</time></trkpt><trkpt lat="41.7791163" lon="1.8091961"><ele>291.0</ele><time>2026-03-28T09:55:40.97Z</time></trkpt><trkpt lat="41.7791129" lon="1.808817"><ele>290.0</ele><time>2026-03-28T09:55:41.971Z</time></trkpt><trkpt lat="41.7791049" lon="1.8084235"><ele>288.0</ele><time>2026-03-28T09:55:42.973Z</time></trkpt><trkpt lat="41.7790928" lon="1.8080287"><ele>286.0</ele><time>2026-03-28T09:55:43.974Z</time></trkpt><trkpt lat="41.7790582" lon="1.8076434"><ele>286.0</ele><time>2026-03-28T09:55:44.975Z</time></trkpt><trkpt lat="41.779044" lon="1.8072756"><ele>286.0</ele><time>2026-03-28T09:55:45.971Z</time></trkpt><trkpt lat="41.7790334" lon="1.8069126"><ele>286.5</ele><time>2026-03-28T09:55:46.97Z</time></trkpt><trkpt lat="41.7790092" lon="1.8065475"><ele>287.0</ele><time>2026-03-28T09:55:47.972Z</time></trkpt><trkpt lat="41.7790003" lon="1.8061653"><ele>288.5</ele><time>2026-03-28T09:55:48.975Z</time></trkpt><trkpt lat="41.7789921" lon="1.8057893"><ele>290.0</ele><time>2026-03-28T09:55:49.976Z</time></trkpt><trkpt lat="41.7789742" lon="1.8054077"><ele>291.5</ele><time>2026-03-28T09:55:50.984Z</time></trkpt><trkpt lat="41.778975" lon="1.805029"><ele>293.0</ele><time>2026-03-28T09:55:51.982Z</time></trkpt><trkpt lat="41.7789783" lon="1.8046768"><ele>294.5</ele><time>2026-03-28T09:55:52.968Z</time></trkpt><trkpt lat="41.7789725" lon="1.8043296"><ele>296.0</ele><time>2026-03-28T09:55:53.968Z</time></trkpt><trkpt lat="41.7789549" lon="1.803995"><ele>296.0</ele><time>2026-03-28T09:55:54.996Z</time></trkpt><trkpt lat="41.7789362" lon="1.8036601"><ele>296.0</ele><time>2026-03-28T09:55:55.969Z</time></trkpt><trkpt lat="41.7788856" lon="1.8033621"><ele>296.0</ele><time>2026-03-28T09:55:56.96Z</time></trkpt><trkpt lat="41.7788149" lon="1.8030439"><ele>296.0</ele><time>2026-03-28T09:55:57.954Z</time></trkpt><trkpt lat="41.7787061" lon="1.8027386"><ele>296.0</ele><time>2026-03-28T09:55:58.957Z</time></trkpt><trkpt lat="41.778615" lon="1.8024166"><ele>296.0</ele><time>2026-03-28T09:55:59.96Z</time></trkpt><trkpt lat="41.7785113" lon="1.8020953"><ele>295.0</ele><time>2026-03-28T09:56:00.964Z</time></trkpt><trkpt lat="41.7784224" lon="1.8017653"><ele>294.0</ele><time>2026-03-28T09:56:01.977Z</time></trkpt><trkpt lat="41.7783491" lon="1.801455"><ele>294.0</ele><time>2026-03-28T09:56:02.971Z</time></trkpt><trkpt lat="41.7782739" lon="1.8011555"><ele>294.0</ele><time>2026-03-28T09:56:03.972Z</time></trkpt><trkpt lat="41.7781894" lon="1.8008585"><ele>295.0</ele><time>2026-03-28T09:56:04.974Z</time></trkpt><trkpt lat="41.778111" lon="1.8005536"><ele>296.0</ele><time>2026-03-28T09:56:05.968Z</time></trkpt><trkpt lat="41.7780302" lon="1.8002508"><ele>296.5</ele><time>2026-03-28T09:56:06.974Z</time></trkpt><trkpt lat="41.7779464" lon="1.7999421"><ele>297.0</ele><time>2026-03-28T09:56:07.963Z</time></trkpt><trkpt lat="41.7778636" lon="1.7996377"><ele>297.0</ele><time>2026-03-28T09:56:08.968Z</time></trkpt><trkpt lat="41.7777792" lon="1.7993485"><ele>297.0</ele><time>2026-03-28T09:56:09.97Z</time></trkpt><trkpt lat="41.7777034" lon="1.7990608"><ele>295.0</ele><time>2026-03-28T09:56:10.975Z</time></trkpt><trkpt lat="41.7776295" lon="1.7987679"><ele>293.0</ele><time>2026-03-28T09:56:11.974Z</time></trkpt><trkpt lat="41.7775521" lon="1.798465"><ele>293.0</ele><time>2026-03-28T09:56:12.972Z</time></trkpt><trkpt lat="41.7774661" lon="1.7981515"><ele>293.0</ele><time>2026-03-28T09:56:13.976Z</time></trkpt><trkpt lat="41.7773849" lon="1.7978295"><ele>294.0</ele><time>2026-03-28T09:56:14.978Z</time></trkpt><trkpt lat="41.7773099" lon="1.7975378"><ele>295.0</ele><time>2026-03-28T09:56:15.975Z</time></trkpt><trkpt lat="41.7772432" lon="1.797258"><ele>296.0</ele><time>2026-03-28T09:56:16.974Z</time></trkpt><trkpt lat="41.7771866" lon="1.796986"><ele>296.0</ele><time>2026-03-28T09:56:17.978Z</time></trkpt><trkpt lat="41.7771801" lon="1.796727"><ele>296.0</ele><time>2026-03-28T09:56:18.967Z</time></trkpt><trkpt lat="41.7771937" lon="1.796449"><ele>296.0</ele><time>2026-03-28T09:56:19.974Z</time></trkpt><trkpt lat="41.7772471" lon="1.796163"><ele>296.6666666666667</ele><time>2026-03-28T09:56:20.965Z</time></trkpt><trkpt lat="41.7773033" lon="1.7958819"><ele>297.3333333333333</ele><time>2026-03-28T09:56:21.967Z</time></trkpt><trkpt lat="41.7773457" lon="1.7956345"><ele>298.0</ele><time>2026-03-28T09:56:22.958Z</time></trkpt><trkpt lat="41.7774029" lon="1.7954084"><ele>298.0</ele><time>2026-03-28T09:56:23.95Z</time></trkpt><trkpt lat="41.7774505" lon="1.7951866"><ele>298.0</ele><time>2026-03-28T09:56:24.953Z</time></trkpt><trkpt lat="41.7774912" lon="1.7949426"><ele>298.0</ele><time>2026-03-28T09:56:25.956Z</time></trkpt><trkpt lat="41.777539" lon="1.7947065"><ele>297.3333333333333</ele><time>2026-03-28T09:56:26.946Z</time></trkpt><trkpt lat="41.7776045" lon="1.7944572"><ele>296.6666666666667</ele><time>2026-03-28T09:56:27.957Z</time></trkpt><trkpt lat="41.7776608" lon="1.7942073"><ele>296.0</ele><time>2026-03-28T09:56:28.963Z</time></trkpt><trkpt lat="41.7777173" lon="1.7939695"><ele>293.0</ele><time>2026-03-28T09:56:29.957Z</time></trkpt><trkpt lat="41.7777658" lon="1.7937398"><ele>290.0</ele><time>2026-03-28T09:56:30.961Z</time></trkpt><trkpt lat="41.7778094" lon="1.7935042"><ele>287.0</ele><time>2026-03-28T09:56:31.963Z</time></trkpt><trkpt lat="41.7778524" lon="1.7932667"><ele>286.0</ele><time>2026-03-28T09:56:32.972Z</time></trkpt><trkpt lat="41.7779018" lon="1.7930232"><ele>285.0</ele><time>2026-03-28T09:56:33.971Z</time></trkpt><trkpt lat="41.7779437" lon="1.7927831"><ele>284.0</ele><time>2026-03-28T09:56:34.974Z</time></trkpt><trkpt lat="41.7779827" lon="1.7925618"><ele>282.0</ele><time>2026-03-28T09:56:35.965Z</time></trkpt><trkpt lat="41.7780104" lon="1.7923265"><ele>280.0</ele><time>2026-03-28T09:56:36.962Z</time></trkpt><trkpt lat="41.7780136" lon="1.7920993"><ele>278.0</ele><time>2026-03-28T09:56:37.972Z</time></trkpt><trkpt lat="41.7780044" lon="1.7918776"><ele>276.0</ele><time>2026-03-28T09:56:38.963Z</time></trkpt><trkpt lat="41.7779784" lon="1.7916626"><ele>274.0</ele><time>2026-03-28T09:56:39.959Z</time></trkpt><trkpt lat="41.7779597" lon="1.791471"><ele>272.0</ele><time>2026-03-28T09:56:40.961Z</time></trkpt><trkpt lat="41.7779507" lon="1.791304"><ele>270.0</ele><time>2026-03-28T09:56:41.962Z</time></trkpt><trkpt lat="41.7779255" lon="1.7911485"><ele>270.0</ele><time>2026-03-28T09:56:42.955Z</time></trkpt><trkpt lat="41.7779251" lon="1.791019"><ele>270.0</ele><time>2026-03-28T09:56:43.953Z</time></trkpt><trkpt lat="41.777936" lon="1.7909211"><ele>270.0</ele><time>2026-03-28T09:56:44.948Z</time></trkpt><trkpt lat="41.777973" lon="1.7908401"><ele>270.0</ele><time>2026-03-28T09:56:45.95Z</time></trkpt><trkpt lat="41.7780756" lon="1.7907438"><ele>270.0</ele><time>2026-03-28T09:56:47.967Z</time></trkpt><trkpt lat="41.7781425" lon="1.7907464"><ele>270.0</ele><time>2026-03-28T09:56:48.957Z</time></trkpt><trkpt lat="41.7782099" lon="1.79079"><ele>270.0</ele><time>2026-03-28T09:56:49.963Z</time></trkpt><trkpt lat="41.7782617" lon="1.7908894"><ele>270.0</ele><time>2026-03-28T09:56:50.964Z</time></trkpt><trkpt lat="41.7783143" lon="1.791035"><ele>270.0</ele><time>2026-03-28T09:56:51.943Z</time></trkpt><trkpt lat="41.7783853" lon="1.7911989"><ele>270.0</ele><time>2026-03-28T09:56:52.944Z</time></trkpt><trkpt lat="41.7785023" lon="1.7913671"><ele>267.6666666666667</ele><time>2026-03-28T09:56:53.957Z</time></trkpt><trkpt lat="41.7786295" lon="1.7915517"><ele>265.33333333333337</ele><time>2026-03-28T09:56:54.957Z</time></trkpt><trkpt lat="41.7787707" lon="1.7917465"><ele>263.0</ele><time>2026-03-28T09:56:55.972Z</time></trkpt><trkpt lat="41.7789321" lon="1.7919209"><ele>263.0</ele><time>2026-03-28T09:56:56.961Z</time></trkpt><trkpt lat="41.7791062" lon="1.7920946"><ele>263.0</ele><time>2026-03-28T09:56:57.964Z</time></trkpt><trkpt lat="41.7792737" lon="1.7922165"><ele>263.0</ele><time>2026-03-28T09:56:58.964Z</time></trkpt><trkpt lat="41.7794392" lon="1.7923196"><ele>263.33333333333337</ele><time>2026-03-28T09:56:59.973Z</time></trkpt><trkpt lat="41.779629" lon="1.7923964"><ele>263.6666666666667</ele><time>2026-03-28T09:57:00.971Z</time></trkpt><trkpt lat="41.7798318" lon="1.7924507"><ele>264.0</ele><time>2026-03-28T09:57:01.978Z</time></trkpt><trkpt lat="41.7800315" lon="1.7925015"><ele>267.3333333333333</ele><time>2026-03-28T09:57:02.976Z</time></trkpt><trkpt lat="41.7802484" lon="1.7925153"><ele>270.66666666666663</ele><time>2026-03-28T09:57:03.969Z</time></trkpt><trkpt lat="41.7804745" lon="1.792497"><ele>274.0</ele><time>2026-03-28T09:57:04.976Z</time></trkpt><trkpt lat="41.7806992" lon="1.7924471"><ele>274.0</ele><time>2026-03-28T09:57:05.966Z</time></trkpt><trkpt lat="41.7809354" lon="1.7923655"><ele>274.0</ele><time>2026-03-28T09:57:06.964Z</time></trkpt><trkpt lat="41.7811551" lon="1.7922698"><ele>276.66666666666663</ele><time>2026-03-28T09:57:07.968Z</time></trkpt><trkpt lat="41.7813576" lon="1.7921612"><ele>279.3333333333333</ele><time>2026-03-28T09:57:08.957Z</time></trkpt><trkpt lat="41.7815464" lon="1.7920326"><ele>282.0</ele><time>2026-03-28T09:57:09.958Z</time></trkpt><trkpt lat="41.7817325" lon="1.7918937"><ele>283.3333333333333</ele><time>2026-03-28T09:57:10.951Z</time></trkpt><trkpt lat="41.7819113" lon="1.7917204"><ele>284.66666666666663</ele><time>2026-03-28T09:57:11.962Z</time></trkpt><trkpt lat="41.7820924" lon="1.791546"><ele>286.0</ele><time>2026-03-28T09:57:12.963Z</time></trkpt><trkpt lat="41.7822651" lon="1.7913645"><ele>286.0</ele><time>2026-03-28T09:57:13.968Z</time></trkpt><trkpt lat="41.78243" lon="1.7911818"><ele>286.0</ele><time>2026-03-28T09:57:14.974Z</time></trkpt><trkpt lat="41.7825886" lon="1.7910169"><ele>286.0</ele><time>2026-03-28T09:57:15.968Z</time></trkpt><trkpt lat="41.7827303" lon="1.7908718"><ele>286.0</ele><time>2026-03-28T09:57:16.974Z</time></trkpt><trkpt lat="41.7828753" lon="1.790727"><ele>286.0</ele><time>2026-03-28T09:57:17.971Z</time></trkpt><trkpt lat="41.7830122" lon="1.790609"><ele>286.0</ele><time>2026-03-28T09:57:18.972Z</time></trkpt><trkpt lat="41.7831515" lon="1.7905014"><ele>286.0</ele><time>2026-03-28T09:57:19.97Z</time></trkpt><trkpt lat="41.7832871" lon="1.7904101"><ele>286.0</ele><time>2026-03-28T09:57:20.977Z</time></trkpt><trkpt lat="41.7834245" lon="1.7903248"><ele>286.0</ele><time>2026-03-28T09:57:21.978Z</time></trkpt><trkpt lat="41.7835576" lon="1.7902671"><ele>286.0</ele><time>2026-03-28T09:57:22.969Z</time></trkpt><trkpt lat="41.7836587" lon="1.7902499"><ele>287.3333333333333</ele><time>2026-03-28T09:57:23.965Z</time></trkpt><trkpt lat="41.7837548" lon="1.7902453"><ele>288.66666666666663</ele><time>2026-03-28T09:57:24.969Z</time></trkpt><trkpt lat="41.7838372" lon="1.7902814"><ele>290.0</ele><time>2026-03-28T09:57:25.962Z</time></trkpt><trkpt lat="41.7839104" lon="1.7903353"><ele>291.3333333333333</ele><time>2026-03-28T09:57:26.978Z</time></trkpt><trkpt lat="41.783975" lon="1.7903815"><ele>292.6666666666667</ele><time>2026-03-28T09:57:27.964Z</time></trkpt><trkpt lat="41.7840434" lon="1.7904005"><ele>294.0</ele><time>2026-03-28T09:57:28.962Z</time></trkpt><trkpt lat="41.7841132" lon="1.7903806"><ele>294.0</ele><time>2026-03-28T09:57:29.964Z</time></trkpt><trkpt lat="41.7841669" lon="1.790315"><ele>294.0</ele><time>2026-03-28T09:57:30.957Z</time></trkpt><trkpt lat="41.7841957" lon="1.7902144"><ele>294.0</ele><time>2026-03-28T09:57:31.961Z</time></trkpt><trkpt lat="41.7841871" lon="1.7901157"><ele>294.0</ele><time>2026-03-28T09:57:32.948Z</time></trkpt><trkpt lat="41.7841418" lon="1.7900316"><ele>294.0</ele><time>2026-03-28T09:57:33.954Z</time></trkpt><trkpt lat="41.7840654" lon="1.7899698"><ele>294.0</ele><time>2026-03-28T09:57:34.957Z</time></trkpt><trkpt lat="41.783976" lon="1.7899303"><ele>294.0</ele><time>2026-03-28T09:57:35.946Z</time></trkpt><trkpt lat="41.7838871" lon="1.7898638"><ele>294.0</ele><time>2026-03-28T09:57:36.967Z</time></trkpt><trkpt lat="41.7838055" lon="1.7897596"><ele>294.0</ele><time>2026-03-28T09:57:37.953Z</time></trkpt><trkpt lat="41.7837395" lon="1.7896503"><ele>294.0</ele><time>2026-03-28T09:57:38.95Z</time></trkpt><trkpt lat="41.7836742" lon="1.7895415"><ele>294.0</ele><time>2026-03-28T09:57:39.947Z</time></trkpt><trkpt lat="41.7836341" lon="1.7894319"><ele>294.0</ele><time>2026-03-28T09:57:40.94Z</time></trkpt><trkpt lat="41.783613" lon="1.7893235"><ele>294.0</ele><time>2026-03-28T09:57:41.96Z</time></trkpt><trkpt lat="41.7835987" lon="1.7892011"><ele>294.0</ele><time>2026-03-28T09:57:42.955Z</time></trkpt><trkpt lat="41.7835744" lon="1.7890813"><ele>294.0</ele><time>2026-03-28T09:57:43.964Z</time></trkpt><trkpt lat="41.783535" lon="1.788954"><ele>294.0</ele><time>2026-03-28T09:57:44.966Z</time></trkpt><trkpt lat="41.7835206" lon="1.7888187"><ele>294.0</ele><time>2026-03-28T09:57:45.968Z</time></trkpt><trkpt lat="41.7835263" lon="1.7886676"><ele>294.0</ele><time>2026-03-28T09:57:46.961Z</time></trkpt><trkpt lat="41.7835418" lon="1.7885149"><ele>294.0</ele><time>2026-03-28T09:57:47.964Z</time></trkpt><trkpt lat="41.7835503" lon="1.7883577"><ele>294.0</ele><time>2026-03-28T09:57:48.957Z</time></trkpt><trkpt lat="41.7835317" lon="1.7882049"><ele>290.75</ele><time>2026-03-28T09:57:49.956Z</time></trkpt><trkpt lat="41.7834966" lon="1.7880564"><ele>287.5</ele><time>2026-03-28T09:57:50.962Z</time></trkpt><trkpt lat="41.7834552" lon="1.7878977"><ele>284.25</ele><time>2026-03-28T09:57:51.963Z</time></trkpt><trkpt lat="41.78341" lon="1.7877498"><ele>281.0</ele><time>2026-03-28T09:57:52.96Z</time></trkpt><trkpt lat="41.7833664" lon="1.7876034"><ele>280.2</ele><time>2026-03-28T09:57:53.96Z</time></trkpt><trkpt lat="41.7833235" lon="1.7874627"><ele>279.40000000000003</ele><time>2026-03-28T09:57:54.953Z</time></trkpt><trkpt lat="41.7832879" lon="1.7873301"><ele>278.6</ele><time>2026-03-28T09:57:55.96Z</time></trkpt><trkpt lat="41.7832495" lon="1.7872103"><ele>277.8</ele><time>2026-03-28T09:57:56.961Z</time></trkpt><trkpt lat="41.7832107" lon="1.7871036"><ele>277.0</ele><time>2026-03-28T09:57:57.963Z</time></trkpt><trkpt lat="41.7831904" lon="1.7870033"><ele>277.0</ele><time>2026-03-28T09:57:58.955Z</time></trkpt><trkpt lat="41.7831741" lon="1.7868483"><ele>277.0</ele><time>2026-03-28T09:58:00.955Z</time></trkpt><trkpt lat="41.783075" lon="1.7867599"><ele>277.0</ele><time>2026-03-28T09:58:02.956Z</time></trkpt><trkpt lat="41.7830123" lon="1.7866999"><ele>277.0</ele><time>2026-03-28T09:58:03.952Z</time></trkpt><trkpt lat="41.7829549" lon="1.7866199"><ele>277.0</ele><time>2026-03-28T09:58:04.961Z</time></trkpt><trkpt lat="41.7829012" lon="1.7865238"><ele>277.0</ele><time>2026-03-28T09:58:05.962Z</time></trkpt><trkpt lat="41.7828496" lon="1.786425"><ele>277.0</ele><time>2026-03-28T09:58:06.96Z</time></trkpt><trkpt lat="41.7827992" lon="1.7863261"><ele>277.0</ele><time>2026-03-28T09:58:07.959Z</time></trkpt><trkpt lat="41.7827474" lon="1.7862326"><ele>277.0</ele><time>2026-03-28T09:58:08.959Z</time></trkpt><trkpt lat="41.7826975" lon="1.7861317"><ele>277.0</ele><time>2026-03-28T09:58:09.959Z</time></trkpt><trkpt lat="41.7826567" lon="1.7860389"><ele>277.0</ele><time>2026-03-28T09:58:10.962Z</time></trkpt><trkpt lat="41.7826167" lon="1.7859583"><ele>275.8333333333333</ele><time>2026-03-28T09:58:11.955Z</time></trkpt><trkpt lat="41.782577" lon="1.785891"><ele>274.66666666666663</ele><time>2026-03-28T09:58:12.945Z</time></trkpt><trkpt lat="41.782531" lon="1.7858064"><ele>273.5</ele><time>2026-03-28T09:58:13.949Z</time></trkpt><trkpt lat="41.7824716" lon="1.7857093"><ele>272.3333333333333</ele><time>2026-03-28T09:58:14.955Z</time></trkpt><trkpt lat="41.7824178" lon="1.7856139"><ele>271.1666666666667</ele><time>2026-03-28T09:58:15.956Z</time></trkpt><trkpt lat="41.7823589" lon="1.7855196"><ele>270.0</ele><time>2026-03-28T09:58:16.954Z</time></trkpt><trkpt lat="41.7823061" lon="1.7854306"><ele>270.0</ele><time>2026-03-28T09:58:17.949Z</time></trkpt><trkpt lat="41.7822575" lon="1.7853375"><ele>270.0</ele><time>2026-03-28T09:58:18.951Z</time></trkpt><trkpt lat="41.7822083" lon="1.785246"><ele>270.0</ele><time>2026-03-28T09:58:19.95Z</time></trkpt><trkpt lat="41.7821558" lon="1.7851572"><ele>270.0</ele><time>2026-03-28T09:58:20.953Z</time></trkpt><trkpt lat="41.782101" lon="1.7850728"><ele>270.0</ele><time>2026-03-28T09:58:21.952Z</time></trkpt><trkpt lat="41.7820554" lon="1.7849971"><ele>270.0</ele><time>2026-03-28T09:58:22.953Z</time></trkpt><trkpt lat="41.7819871" lon="1.7848736"><ele>269.2</ele><time>2026-03-28T09:58:24.966Z</time></trkpt><trkpt lat="41.7819233" lon="1.7847641"><ele>268.4</ele><time>2026-03-28T09:58:26.959Z</time></trkpt><trkpt lat="41.7818535" lon="1.7846312"><ele>267.6</ele><time>2026-03-28T09:58:28.973Z</time></trkpt><trkpt lat="41.7817794" lon="1.7845062"><ele>266.8</ele><time>2026-03-28T09:58:30.959Z</time></trkpt><trkpt lat="41.7817229" lon="1.7844015"><ele>266.0</ele><time>2026-03-28T09:58:32.955Z</time></trkpt><trkpt lat="41.781667" lon="1.7842853"><ele>265.1666666666667</ele><time>2026-03-28T09:58:34.969Z</time></trkpt><trkpt lat="41.7816164" lon="1.7842013"><ele>264.33333333333337</ele><time>2026-03-28T09:58:36.958Z</time></trkpt><trkpt lat="41.7815885" lon="1.7841145"><ele>263.5</ele><time>2026-03-28T09:58:38.958Z</time></trkpt><trkpt lat="41.781617" lon="1.783992"><ele>262.6666666666667</ele><time>2026-03-28T09:58:45.953Z</time></trkpt><trkpt lat="41.7816813" lon="1.7839314"><ele>261.8333333333333</ele><time>2026-03-28T09:58:46.96Z</time></trkpt><trkpt lat="41.7817576" lon="1.783846"><ele>261.0</ele><time>2026-03-28T09:58:47.949Z</time></trkpt><trkpt lat="41.7818414" lon="1.7837688"><ele>261.2</ele><time>2026-03-28T09:58:48.946Z</time></trkpt><trkpt lat="41.7819286" lon="1.7836903"><ele>261.40000000000003</ele><time>2026-03-28T09:58:49.951Z</time></trkpt><trkpt lat="41.7820148" lon="1.7836051"><ele>261.6</ele><time>2026-03-28T09:58:50.962Z</time></trkpt><trkpt lat="41.7820968" lon="1.7835345"><ele>261.8</ele><time>2026-03-28T09:58:51.959Z</time></trkpt><trkpt lat="41.7821813" lon="1.7834678"><ele>262.0</ele><time>2026-03-28T09:58:52.955Z</time></trkpt><trkpt lat="41.7822622" lon="1.783399"><ele>262.0</ele><time>2026-03-28T09:58:53.956Z</time></trkpt><trkpt lat="41.782329" lon="1.7833594"><ele>262.0</ele><time>2026-03-28T09:58:54.953Z</time></trkpt><trkpt lat="41.7824038" lon="1.7833226"><ele>262.0</ele><time>2026-03-28T09:58:56.955Z</time></trkpt><trkpt lat="41.7824947" lon="1.783282"><ele>262.0</ele><time>2026-03-28T09:58:58.954Z</time></trkpt><trkpt lat="41.7825645" lon="1.7832555"><ele>262.0</ele><time>2026-03-28T09:58:59.958Z</time></trkpt><trkpt lat="41.7826434" lon="1.7832305"><ele>262.0</ele><time>2026-03-28T09:59:00.951Z</time></trkpt><trkpt lat="41.782729" lon="1.7832007"><ele>262.3333333333333</ele><time>2026-03-28T09:59:01.955Z</time></trkpt><trkpt lat="41.7828156" lon="1.7831632"><ele>262.66666666666663</ele><time>2026-03-28T09:59:02.946Z</time></trkpt><trkpt lat="41.782899" lon="1.7831303"><ele>263.0</ele><time>2026-03-28T09:59:03.945Z</time></trkpt><trkpt lat="41.7829817" lon="1.7830912"><ele>263.3333333333333</ele><time>2026-03-28T09:59:04.951Z</time></trkpt><trkpt lat="41.7830644" lon="1.7830574"><ele>263.6666666666667</ele><time>2026-03-28T09:59:05.95Z</time></trkpt><trkpt lat="41.7831419" lon="1.7830346"><ele>264.0</ele><time>2026-03-28T09:59:06.957Z</time></trkpt><trkpt lat="41.7832206" lon="1.7830283"><ele>264.0</ele><time>2026-03-28T09:59:07.955Z</time></trkpt><trkpt lat="41.7833005" lon="1.7830061"><ele>264.0</ele><time>2026-03-28T09:59:08.956Z</time></trkpt><trkpt lat="41.7833799" lon="1.7829704"><ele>264.0</ele><time>2026-03-28T09:59:09.962Z</time></trkpt><trkpt lat="41.783456" lon="1.7829468"><ele>264.0</ele><time>2026-03-28T09:59:10.956Z</time></trkpt><trkpt lat="41.7835464" lon="1.7829229"><ele>264.0</ele><time>2026-03-28T09:59:11.955Z</time></trkpt><trkpt lat="41.7836429" lon="1.7828946"><ele>264.0</ele><time>2026-03-28T09:59:12.963Z</time></trkpt><trkpt lat="41.78374" lon="1.7828623"><ele>263.2</ele><time>2026-03-28T09:59:13.955Z</time></trkpt><trkpt lat="41.7838324" lon="1.782831"><ele>262.4</ele><time>2026-03-28T09:59:14.957Z</time></trkpt><trkpt lat="41.783924" lon="1.7828052"><ele>261.6</ele><time>2026-03-28T09:59:15.958Z</time></trkpt><trkpt lat="41.7840136" lon="1.7827982"><ele>260.8</ele><time>2026-03-28T09:59:16.948Z</time></trkpt><trkpt lat="41.7841145" lon="1.7827994"><ele>260.0</ele><time>2026-03-28T09:59:17.964Z</time></trkpt><trkpt lat="41.784211" lon="1.7828092"><ele>260.0</ele><time>2026-03-28T09:59:18.966Z</time></trkpt><trkpt lat="41.7843079" lon="1.7828263"><ele>260.0</ele><time>2026-03-28T09:59:19.954Z</time></trkpt><trkpt lat="41.7843966" lon="1.7828145"><ele>260.0</ele><time>2026-03-28T09:59:20.953Z</time></trkpt><trkpt lat="41.7844819" lon="1.7827539"><ele>260.0</ele><time>2026-03-28T09:59:21.958Z</time></trkpt><trkpt lat="41.7845577" lon="1.7826662"><ele>260.0</ele><time>2026-03-28T09:59:22.952Z</time></trkpt><trkpt lat="41.7846302" lon="1.7825765"><ele>258.6</ele><time>2026-03-28T09:59:23.957Z</time></trkpt><trkpt lat="41.7847147" lon="1.7824765"><ele>257.2</ele><time>2026-03-28T09:59:24.959Z</time></trkpt><trkpt lat="41.7848014" lon="1.7823871"><ele>255.8</ele><time>2026-03-28T09:59:25.969Z</time></trkpt><trkpt lat="41.7848832" lon="1.7823203"><ele>254.4</ele><time>2026-03-28T09:59:26.965Z</time></trkpt><trkpt lat="41.7849528" lon="1.7822526"><ele>253.0</ele><time>2026-03-28T09:59:27.953Z</time></trkpt><trkpt lat="41.7850121" lon="1.7822107"><ele>253.0</ele><time>2026-03-28T09:59:28.953Z</time></trkpt><trkpt lat="41.7850781" lon="1.7821243"><ele>253.0</ele><time>2026-03-28T09:59:30.959Z</time></trkpt><trkpt lat="41.7850773" lon="1.7819676"><ele>253.0</ele><time>2026-03-28T09:59:32.944Z</time></trkpt><trkpt lat="41.7850761" lon="1.7818461"><ele>253.0</ele><time>2026-03-28T09:59:33.948Z</time></trkpt><trkpt lat="41.7850722" lon="1.7816936"><ele>253.0</ele><time>2026-03-28T09:59:34.958Z</time></trkpt><trkpt lat="41.7850657" lon="1.781518"><ele>250.25</ele><time>2026-03-28T09:59:35.97Z</time></trkpt><trkpt lat="41.7850689" lon="1.7813255"><ele>247.5</ele><time>2026-03-28T09:59:36.973Z</time></trkpt><trkpt lat="41.78507" lon="1.7811319"><ele>244.75</ele><time>2026-03-28T09:59:37.975Z</time></trkpt><trkpt lat="41.7850705" lon="1.7809484"><ele>242.0</ele><time>2026-03-28T09:59:38.972Z</time></trkpt><trkpt lat="41.785072" lon="1.7807843"><ele>242.0</ele><time>2026-03-28T09:59:39.971Z</time></trkpt><trkpt lat="41.7850695" lon="1.7806249"><ele>242.0</ele><time>2026-03-28T09:59:40.971Z</time></trkpt><trkpt lat="41.7850792" lon="1.7804849"><ele>242.0</ele><time>2026-03-28T09:59:41.969Z</time></trkpt><trkpt lat="41.7851179" lon="1.7803345"><ele>242.0</ele><time>2026-03-28T09:59:42.967Z</time></trkpt><trkpt lat="41.7851867" lon="1.7801908"><ele>243.5</ele><time>2026-03-28T09:59:43.959Z</time></trkpt><trkpt lat="41.7852739" lon="1.7800656"><ele>245.0</ele><time>2026-03-28T09:59:44.959Z</time></trkpt><trkpt lat="41.7853697" lon="1.7799598"><ele>246.5</ele><time>2026-03-28T09:59:45.95Z</time></trkpt><trkpt lat="41.7854869" lon="1.7798546"><ele>248.0</ele><time>2026-03-28T09:59:46.958Z</time></trkpt><trkpt lat="41.7856082" lon="1.7797432"><ele>248.0</ele><time>2026-03-28T09:59:47.96Z</time></trkpt><trkpt lat="41.7857374" lon="1.7796174"><ele>248.0</ele><time>2026-03-28T09:59:48.959Z</time></trkpt><trkpt lat="41.7858801" lon="1.779471"><ele>248.0</ele><time>2026-03-28T09:59:49.962Z</time></trkpt><trkpt lat="41.786032" lon="1.779331"><ele>249.0</ele><time>2026-03-28T09:59:50.97Z</time></trkpt><trkpt lat="41.7861907" lon="1.7791798"><ele>250.0</ele><time>2026-03-28T09:59:51.972Z</time></trkpt><trkpt lat="41.7863603" lon="1.7790327"><ele>251.0</ele><time>2026-03-28T09:59:52.972Z</time></trkpt><trkpt lat="41.7865388" lon="1.7788685"><ele>251.0</ele><time>2026-03-28T09:59:53.967Z</time></trkpt><trkpt lat="41.7867225" lon="1.778682"><ele>251.0</ele><time>2026-03-28T09:59:54.965Z</time></trkpt><trkpt lat="41.7869156" lon="1.7785072"><ele>252.33333333333334</ele><time>2026-03-28T09:59:55.959Z</time></trkpt><trkpt lat="41.7870896" lon="1.7783533"><ele>253.66666666666669</ele><time>2026-03-28T09:59:56.957Z</time></trkpt><trkpt lat="41.7872297" lon="1.7782231"><ele>255.0</ele><time>2026-03-28T09:59:57.954Z</time></trkpt><trkpt lat="41.7873535" lon="1.7780988"><ele>255.0</ele><time>2026-03-28T09:59:58.949Z</time></trkpt><trkpt lat="41.7874604" lon="1.7779873"><ele>255.0</ele><time>2026-03-28T09:59:59.946Z</time></trkpt><trkpt lat="41.7875708" lon="1.7778722"><ele>255.0</ele><time>2026-03-28T10:00:00.954Z</time></trkpt><trkpt lat="41.7876711" lon="1.7777411"><ele>255.0</ele><time>2026-03-28T10:00:01.972Z</time></trkpt><trkpt lat="41.7877503" lon="1.7775662"><ele>256.0</ele><time>2026-03-28T10:00:02.951Z</time></trkpt><trkpt lat="41.7878354" lon="1.777377"><ele>257.0</ele><time>2026-03-28T10:00:03.951Z</time></trkpt><trkpt lat="41.7879237" lon="1.7771956"><ele>258.0</ele><time>2026-03-28T10:00:04.957Z</time></trkpt><trkpt lat="41.7880495" lon="1.7770349"><ele>258.0</ele><time>2026-03-28T10:00:05.956Z</time></trkpt><trkpt lat="41.7882104" lon="1.7768806"><ele>258.0</ele><time>2026-03-28T10:00:06.951Z</time></trkpt><trkpt lat="41.7883913" lon="1.7767107"><ele>258.0</ele><time>2026-03-28T10:00:07.949Z</time></trkpt><trkpt lat="41.7885814" lon="1.7765255"><ele>257.0</ele><time>2026-03-28T10:00:08.957Z</time></trkpt><trkpt lat="41.7887782" lon="1.7763373"><ele>256.0</ele><time>2026-03-28T10:00:09.951Z</time></trkpt><trkpt lat="41.7889447" lon="1.7761763"><ele>255.0</ele><time>2026-03-28T10:00:10.949Z</time></trkpt><trkpt lat="41.7890894" lon="1.7760369"><ele>256.3333333333333</ele><time>2026-03-28T10:00:11.951Z</time></trkpt><trkpt lat="41.7891994" lon="1.7758766"><ele>257.66666666666663</ele><time>2026-03-28T10:00:12.948Z</time></trkpt><trkpt lat="41.7892692" lon="1.7756664"><ele>259.0</ele><time>2026-03-28T10:00:13.946Z</time></trkpt><trkpt lat="41.7893265" lon="1.7754256"><ele>260.66666666666663</ele><time>2026-03-28T10:00:14.954Z</time></trkpt><trkpt lat="41.7893835" lon="1.775187"><ele>262.3333333333333</ele><time>2026-03-28T10:00:15.942Z</time></trkpt><trkpt lat="41.7894399" lon="1.7749855"><ele>264.0</ele><time>2026-03-28T10:00:16.941Z</time></trkpt><trkpt lat="41.7894971" lon="1.7748227"><ele>264.0</ele><time>2026-03-28T10:00:17.955Z</time></trkpt><trkpt lat="41.7895821" lon="1.7747164"><ele>264.0</ele><time>2026-03-28T10:00:18.953Z</time></trkpt><trkpt lat="41.78971" lon="1.7746552"><ele>264.0</ele><time>2026-03-28T10:00:19.95Z</time></trkpt><trkpt lat="41.7898771" lon="1.7746364"><ele>264.0</ele><time>2026-03-28T10:00:20.943Z</time></trkpt><trkpt lat="41.7900736" lon="1.774629"><ele>263.5</ele><time>2026-03-28T10:00:21.941Z</time></trkpt><trkpt lat="41.7903074" lon="1.7745823"><ele>263.0</ele><time>2026-03-28T10:00:22.939Z</time></trkpt><trkpt lat="41.7905613" lon="1.7745037"><ele>263.0</ele><time>2026-03-28T10:00:23.937Z</time></trkpt><trkpt lat="41.7908349" lon="1.7744078"><ele>263.0</ele><time>2026-03-28T10:00:24.932Z</time></trkpt><trkpt lat="41.7911373" lon="1.7742877"><ele>273.5</ele><time>2026-03-28T10:00:25.934Z</time></trkpt><trkpt lat="41.7914198" lon="1.7741738"><ele>284.0</ele><time>2026-03-28T10:00:26.93Z</time></trkpt><trkpt lat="41.7916792" lon="1.7740979"><ele>282.0</ele><time>2026-03-28T10:00:27.938Z</time></trkpt><trkpt lat="41.7919418" lon="1.7740521"><ele>280.0</ele><time>2026-03-28T10:00:28.946Z</time></trkpt><trkpt lat="41.7921755" lon="1.7740366"><ele>280.0</ele><time>2026-03-28T10:00:29.944Z</time></trkpt><trkpt lat="41.7924023" lon="1.7740115"><ele>280.0</ele><time>2026-03-28T10:00:30.945Z</time></trkpt><trkpt lat="41.7926257" lon="1.7739431"><ele>279.0</ele><time>2026-03-28T10:00:31.952Z</time></trkpt><trkpt lat="41.7928376" lon="1.7738593"><ele>278.0</ele><time>2026-03-28T10:00:32.945Z</time></trkpt><trkpt lat="41.7929982" lon="1.7737802"><ele>277.0</ele><time>2026-03-28T10:00:33.948Z</time></trkpt><trkpt lat="41.79311" lon="1.7736974"><ele>277.0</ele><time>2026-03-28T10:00:34.943Z</time></trkpt><trkpt lat="41.7931839" lon="1.7736024"><ele>277.0</ele><time>2026-03-28T10:00:35.955Z</time></trkpt><trkpt lat="41.7932166" lon="1.7734736"><ele>277.0</ele><time>2026-03-28T10:00:36.951Z</time></trkpt><trkpt lat="41.7932238" lon="1.773311"><ele>277.0</ele><time>2026-03-28T10:00:37.941Z</time></trkpt><trkpt lat="41.7931768" lon="1.7730983"><ele>281.66666666666663</ele><time>2026-03-28T10:00:38.938Z</time></trkpt><trkpt lat="41.7931366" lon="1.7728471"><ele>286.3333333333333</ele><time>2026-03-28T10:00:39.956Z</time></trkpt><trkpt lat="41.7930936" lon="1.7726202"><ele>291.0</ele><time>2026-03-28T10:00:40.939Z</time></trkpt><trkpt lat="41.7930223" lon="1.7724492"><ele>292.25</ele><time>2026-03-28T10:00:41.968Z</time></trkpt><trkpt lat="41.7929272" lon="1.7723505"><ele>293.5</ele><time>2026-03-28T10:00:42.968Z</time></trkpt><trkpt lat="41.7927874" lon="1.7723236"><ele>294.75</ele><time>2026-03-28T10:00:43.951Z</time></trkpt><trkpt lat="41.7926271" lon="1.7722901"><ele>296.0</ele><time>2026-03-28T10:00:44.965Z</time></trkpt><trkpt lat="41.792435" lon="1.7722717"><ele>298.25</ele><time>2026-03-28T10:00:45.959Z</time></trkpt><trkpt lat="41.7923018" lon="1.7722197"><ele>300.5</ele><time>2026-03-28T10:00:46.951Z</time></trkpt><trkpt lat="41.7922085" lon="1.7721233"><ele>302.75</ele><time>2026-03-28T10:00:47.951Z</time></trkpt><trkpt lat="41.7921296" lon="1.7719546"><ele>305.0</ele><time>2026-03-28T10:00:48.95Z</time></trkpt><trkpt lat="41.7920564" lon="1.7717285"><ele>305.0</ele><time>2026-03-28T10:00:49.936Z</time></trkpt><trkpt lat="41.7919792" lon="1.7714753"><ele>305.0</ele><time>2026-03-28T10:00:50.936Z</time></trkpt><trkpt lat="41.7918887" lon="1.7711868"><ele>305.0</ele><time>2026-03-28T10:00:51.94Z</time></trkpt><trkpt lat="41.791797" lon="1.7708874"><ele>309.33333333333337</ele><time>2026-03-28T10:00:52.938Z</time></trkpt><trkpt lat="41.7917474" lon="1.7706347"><ele>313.6666666666667</ele><time>2026-03-28T10:00:53.934Z</time></trkpt><trkpt lat="41.7917418" lon="1.7704087"><ele>318.0</ele><time>2026-03-28T10:00:54.944Z</time></trkpt><trkpt lat="41.7917801" lon="1.7702035"><ele>318.5</ele><time>2026-03-28T10:00:55.927Z</time></trkpt><trkpt lat="41.7918379" lon="1.7700291"><ele>319.0</ele><time>2026-03-28T10:00:56.928Z</time></trkpt><trkpt lat="41.7918897" lon="1.7698884"><ele>319.5</ele><time>2026-03-28T10:00:57.929Z</time></trkpt><trkpt lat="41.7918609" lon="1.7697708"><ele>320.0</ele><time>2026-03-28T10:00:58.941Z</time></trkpt><trkpt lat="41.7917881" lon="1.7696554"><ele>320.0</ele><time>2026-03-28T10:00:59.946Z</time></trkpt><trkpt lat="41.7916802" lon="1.7695432"><ele>320.0</ele><time>2026-03-28T10:01:00.943Z</time></trkpt><trkpt lat="41.7915735" lon="1.7694606"><ele>320.0</ele><time>2026-03-28T10:01:01.95Z</time></trkpt><trkpt lat="41.7914557" lon="1.7693623"><ele>320.0</ele><time>2026-03-28T10:01:02.952Z</time></trkpt><trkpt lat="41.7913699" lon="1.7692451"><ele>320.25</ele><time>2026-03-28T10:01:03.948Z</time></trkpt><trkpt lat="41.7913255" lon="1.7691164"><ele>320.5</ele><time>2026-03-28T10:01:04.947Z</time></trkpt><trkpt lat="41.7913106" lon="1.7689589"><ele>320.75</ele><time>2026-03-28T10:01:05.945Z</time></trkpt><trkpt lat="41.7913041" lon="1.7687758"><ele>321.0</ele><time>2026-03-28T10:01:06.951Z</time></trkpt><trkpt lat="41.7912584" lon="1.7686444"><ele>321.0</ele><time>2026-03-28T10:01:07.948Z</time></trkpt><trkpt lat="41.791186" lon="1.7685414"><ele>321.0</ele><time>2026-03-28T10:01:08.961Z</time></trkpt><trkpt lat="41.7910538" lon="1.7684825"><ele>321.0</ele><time>2026-03-28T10:01:09.949Z</time></trkpt><trkpt lat="41.7909174" lon="1.7683693"><ele>321.0</ele><time>2026-03-28T10:01:10.956Z</time></trkpt><trkpt lat="41.790791" lon="1.7681675"><ele>324.0</ele><time>2026-03-28T10:01:11.943Z</time></trkpt><trkpt lat="41.7906538" lon="1.7679641"><ele>327.0</ele><time>2026-03-28T10:01:12.947Z</time></trkpt><trkpt lat="41.7904719" lon="1.7678246"><ele>330.0</ele><time>2026-03-28T10:01:13.936Z</time></trkpt><trkpt lat="41.7902738" lon="1.7676889"><ele>333.0</ele><time>2026-03-28T10:01:14.94Z</time></trkpt><trkpt lat="41.7901066" lon="1.7675534"><ele>336.0</ele><time>2026-03-28T10:01:15.936Z</time></trkpt><trkpt lat="41.7899778" lon="1.767429"><ele>339.0</ele><time>2026-03-28T10:01:16.95Z</time></trkpt><trkpt lat="41.7898777" lon="1.7672594"><ele>339.0</ele><time>2026-03-28T10:01:17.953Z</time></trkpt><trkpt lat="41.7898091" lon="1.76704"><ele>339.0</ele><time>2026-03-28T10:01:18.944Z</time></trkpt><trkpt lat="41.7897375" lon="1.7667752"><ele>339.0</ele><time>2026-03-28T10:01:19.952Z</time></trkpt><trkpt lat="41.7896549" lon="1.7664986"><ele>339.6666666666667</ele><time>2026-03-28T10:01:20.955Z</time></trkpt><trkpt lat="41.7895886" lon="1.766248"><ele>340.33333333333337</ele><time>2026-03-28T10:01:21.951Z</time></trkpt><trkpt lat="41.7895519" lon="1.7660449"><ele>341.0</ele><time>2026-03-28T10:01:22.95Z</time></trkpt><trkpt lat="41.7895531" lon="1.7658487"><ele>343.33333333333337</ele><time>2026-03-28T10:01:23.952Z</time></trkpt><trkpt lat="41.7895975" lon="1.7656405"><ele>345.6666666666667</ele><time>2026-03-28T10:01:24.955Z</time></trkpt><trkpt lat="41.7896775" lon="1.7654478"><ele>348.0</ele><time>2026-03-28T10:01:25.943Z</time></trkpt><trkpt lat="41.789784" lon="1.7652429"><ele>348.0</ele><time>2026-03-28T10:01:26.943Z</time></trkpt><trkpt lat="41.7899044" lon="1.7651033"><ele>348.0</ele><time>2026-03-28T10:01:27.951Z</time></trkpt><trkpt lat="41.7899945" lon="1.76504"><ele>348.0</ele><time>2026-03-28T10:01:28.946Z</time></trkpt><trkpt lat="41.7900754" lon="1.7650402"><ele>348.0</ele><time>2026-03-28T10:01:29.948Z</time></trkpt><trkpt lat="41.7901378" lon="1.7650997"><ele>348.0</ele><time>2026-03-28T10:01:30.949Z</time></trkpt><trkpt lat="41.7901687" lon="1.765218"><ele>349.3333333333333</ele><time>2026-03-28T10:01:31.947Z</time></trkpt><trkpt lat="41.7902007" lon="1.7653844"><ele>350.66666666666663</ele><time>2026-03-28T10:01:32.947Z</time></trkpt><trkpt lat="41.7902394" lon="1.7656122"><ele>352.0</ele><time>2026-03-28T10:01:33.945Z</time></trkpt><trkpt lat="41.7902807" lon="1.7658151"><ele>352.0</ele><time>2026-03-28T10:01:34.966Z</time></trkpt><trkpt lat="41.7903235" lon="1.7659454"><ele>352.0</ele><time>2026-03-28T10:01:35.943Z</time></trkpt><trkpt lat="41.790389" lon="1.7660601"><ele>352.0</ele><time>2026-03-28T10:01:36.964Z</time></trkpt><trkpt lat="41.790493" lon="1.7660712"><ele>352.0</ele><time>2026-03-28T10:01:37.968Z</time></trkpt><trkpt lat="41.7905967" lon="1.7660473"><ele>352.0</ele><time>2026-03-28T10:01:38.971Z</time></trkpt><trkpt lat="41.7906874" lon="1.7659708"><ele>352.0</ele><time>2026-03-28T10:01:39.952Z</time></trkpt><trkpt lat="41.7907888" lon="1.7658404"><ele>352.0</ele><time>2026-03-28T10:01:40.952Z</time></trkpt><trkpt lat="41.7908651" lon="1.7656772"><ele>352.0</ele><time>2026-03-28T10:01:41.951Z</time></trkpt><trkpt lat="41.7909138" lon="1.7654711"><ele>352.0</ele><time>2026-03-28T10:01:42.946Z</time></trkpt><trkpt lat="41.7909601" lon="1.7652189"><ele>355.66666666666663</ele><time>2026-03-28T10:01:43.949Z</time></trkpt><trkpt lat="41.7909899" lon="1.7649476"><ele>359.3333333333333</ele><time>2026-03-28T10:01:44.94Z</time></trkpt><trkpt lat="41.7909728" lon="1.7647059"><ele>363.0</ele><time>2026-03-28T10:01:45.944Z</time></trkpt><trkpt lat="41.7909606" lon="1.7645249"><ele>363.0</ele><time>2026-03-28T10:01:46.944Z</time></trkpt><trkpt lat="41.7909861" lon="1.764369"><ele>363.0</ele><time>2026-03-28T10:01:47.957Z</time></trkpt><trkpt lat="41.7910606" lon="1.7642658"><ele>363.0</ele><time>2026-03-28T10:01:48.949Z</time></trkpt><trkpt lat="41.7911554" lon="1.7642079"><ele>363.0</ele><time>2026-03-28T10:01:49.946Z</time></trkpt><trkpt lat="41.79128" lon="1.7641737"><ele>370.66666666666663</ele><time>2026-03-28T10:01:50.935Z</time></trkpt><trkpt lat="41.7913946" lon="1.764078"><ele>378.3333333333333</ele><time>2026-03-28T10:01:51.948Z</time></trkpt><trkpt lat="41.7914929" lon="1.7639221"><ele>386.0</ele><time>2026-03-28T10:01:52.947Z</time></trkpt><trkpt lat="41.7915693" lon="1.7637163"><ele>382.0</ele><time>2026-03-28T10:01:53.938Z</time></trkpt><trkpt lat="41.7916661" lon="1.7635005"><ele>378.0</ele><time>2026-03-28T10:01:54.934Z</time></trkpt><trkpt lat="41.7917634" lon="1.7633204"><ele>374.0</ele><time>2026-03-28T10:01:55.944Z</time></trkpt><trkpt lat="41.7919013" lon="1.7631863"><ele>382.75</ele><time>2026-03-28T10:01:56.937Z</time></trkpt><trkpt lat="41.7920818" lon="1.763091"><ele>391.5</ele><time>2026-03-28T10:01:57.943Z</time></trkpt><trkpt lat="41.792213" lon="1.7630325"><ele>400.25</ele><time>2026-03-28T10:01:58.951Z</time></trkpt><trkpt lat="41.7923081" lon="1.762952"><ele>409.0</ele><time>2026-03-28T10:01:59.934Z</time></trkpt><trkpt lat="41.7923607" lon="1.7628554"><ele>409.0</ele><time>2026-03-28T10:02:00.941Z</time></trkpt><trkpt lat="41.7923664" lon="1.7627255"><ele>409.0</ele><time>2026-03-28T10:02:01.947Z</time></trkpt><trkpt lat="41.7923308" lon="1.7625755"><ele>409.0</ele><time>2026-03-28T10:02:02.941Z</time></trkpt><trkpt lat="41.7922632" lon="1.7623909"><ele>409.0</ele><time>2026-03-28T10:02:03.931Z</time></trkpt><trkpt lat="41.7921793" lon="1.7621864"><ele>407.5</ele><time>2026-03-28T10:02:04.934Z</time></trkpt><trkpt lat="41.7921031" lon="1.7619785"><ele>406.0</ele><time>2026-03-28T10:02:05.938Z</time></trkpt><trkpt lat="41.7920554" lon="1.7618028"><ele>404.5</ele><time>2026-03-28T10:02:06.943Z</time></trkpt><trkpt lat="41.7920408" lon="1.7616222"><ele>403.0</ele><time>2026-03-28T10:02:07.947Z</time></trkpt><trkpt lat="41.7920573" lon="1.7614393"><ele>403.0</ele><time>2026-03-28T10:02:08.947Z</time></trkpt><trkpt lat="41.7921048" lon="1.7612825"><ele>403.0</ele><time>2026-03-28T10:02:09.947Z</time></trkpt><trkpt lat="41.7921903" lon="1.7611225"><ele>403.0</ele><time>2026-03-28T10:02:10.948Z</time></trkpt><trkpt lat="41.792308" lon="1.7609996"><ele>403.0</ele><time>2026-03-28T10:02:11.955Z</time></trkpt><trkpt lat="41.7924416" lon="1.7609042"><ele>400.5</ele><time>2026-03-28T10:02:12.944Z</time></trkpt><trkpt lat="41.7925552" lon="1.7608716"><ele>398.0</ele><time>2026-03-28T10:02:13.942Z</time></trkpt><trkpt lat="41.792674" lon="1.7608888"><ele>395.5</ele><time>2026-03-28T10:02:14.936Z</time></trkpt><trkpt lat="41.7928109" lon="1.7609624"><ele>393.0</ele><time>2026-03-28T10:02:15.935Z</time></trkpt><trkpt lat="41.7929629" lon="1.7610416"><ele>398.0</ele><time>2026-03-28T10:02:16.933Z</time></trkpt><trkpt lat="41.7931325" lon="1.7611061"><ele>403.0</ele><time>2026-03-28T10:02:17.928Z</time></trkpt><trkpt lat="41.7932714" lon="1.7611256"><ele>408.0</ele><time>2026-03-28T10:02:18.932Z</time></trkpt><trkpt lat="41.7933873" lon="1.7611346"><ele>413.0</ele><time>2026-03-28T10:02:19.929Z</time></trkpt><trkpt lat="41.7934721" lon="1.7611053"><ele>414.4</ele><time>2026-03-28T10:02:20.928Z</time></trkpt><trkpt lat="41.7935281" lon="1.7610184"><ele>415.79999999999995</ele><time>2026-03-28T10:02:21.93Z</time></trkpt><trkpt lat="41.7935499" lon="1.7609019"><ele>417.2</ele><time>2026-03-28T10:02:22.934Z</time></trkpt><trkpt lat="41.7935215" lon="1.7607495"><ele>418.6</ele><time>2026-03-28T10:02:23.944Z</time></trkpt><trkpt lat="41.793475" lon="1.7605658"><ele>420.0</ele><time>2026-03-28T10:02:24.932Z</time></trkpt><trkpt lat="41.7934539" lon="1.7603674"><ele>416.0</ele><time>2026-03-28T10:02:25.934Z</time></trkpt><trkpt lat="41.7934625" lon="1.7601851"><ele>412.0</ele><time>2026-03-28T10:02:26.946Z</time></trkpt><trkpt lat="41.7935159" lon="1.7600374"><ele>408.0</ele><time>2026-03-28T10:02:27.932Z</time></trkpt><trkpt lat="41.793595" lon="1.759896"><ele>404.0</ele><time>2026-03-28T10:02:28.934Z</time></trkpt><trkpt lat="41.793701" lon="1.7598032"><ele>404.0</ele><time>2026-03-28T10:02:29.94Z</time></trkpt><trkpt lat="41.7938293" lon="1.759768"><ele>404.0</ele><time>2026-03-28T10:02:30.942Z</time></trkpt><trkpt lat="41.7940104" lon="1.7597916"><ele>404.0</ele><time>2026-03-28T10:02:31.94Z</time></trkpt><trkpt lat="41.7941971" lon="1.7597838"><ele>410.25</ele><time>2026-03-28T10:02:32.926Z</time></trkpt><trkpt lat="41.7943541" lon="1.7597543"><ele>416.5</ele><time>2026-03-28T10:02:33.934Z</time></trkpt><trkpt lat="41.794466" lon="1.7597115"><ele>422.75</ele><time>2026-03-28T10:02:34.939Z</time></trkpt><trkpt lat="41.7945571" lon="1.7595981"><ele>429.0</ele><time>2026-03-28T10:02:35.94Z</time></trkpt><trkpt lat="41.794649" lon="1.7594048"><ele>423.66666666666663</ele><time>2026-03-28T10:02:36.942Z</time></trkpt><trkpt lat="41.7947551" lon="1.7591693"><ele>418.3333333333333</ele><time>2026-03-28T10:02:37.938Z</time></trkpt><trkpt lat="41.7948648" lon="1.758972"><ele>413.0</ele><time>2026-03-28T10:02:38.945Z</time></trkpt><trkpt lat="41.7950028" lon="1.7588444"><ele>413.0</ele><time>2026-03-28T10:02:39.942Z</time></trkpt><trkpt lat="41.7951585" lon="1.7587641"><ele>413.0</ele><time>2026-03-28T10:02:40.937Z</time></trkpt><trkpt lat="41.7953393" lon="1.7587158"><ele>413.0</ele><time>2026-03-28T10:02:41.929Z</time></trkpt><trkpt lat="41.795542" lon="1.7587107"><ele>419.0</ele><time>2026-03-28T10:02:42.931Z</time></trkpt><trkpt lat="41.7957662" lon="1.7587347"><ele>425.0</ele><time>2026-03-28T10:02:43.929Z</time></trkpt><trkpt lat="41.795943" lon="1.7587392"><ele>431.0</ele><time>2026-03-28T10:02:44.929Z</time></trkpt><trkpt lat="41.796075" lon="1.7587137"><ele>431.25</ele><time>2026-03-28T10:02:45.93Z</time></trkpt><trkpt lat="41.7961808" lon="1.7586111"><ele>431.5</ele><time>2026-03-28T10:02:46.929Z</time></trkpt><trkpt lat="41.7962616" lon="1.7584672"><ele>431.75</ele><time>2026-03-28T10:02:47.931Z</time></trkpt><trkpt lat="41.7963232" lon="1.7582687"><ele>432.0</ele><time>2026-03-28T10:02:48.931Z</time></trkpt><trkpt lat="41.7963819" lon="1.7581139"><ele>432.0</ele><time>2026-03-28T10:02:49.954Z</time></trkpt><trkpt lat="41.7965118" lon="1.7580051"><ele>432.0</ele><time>2026-03-28T10:02:50.948Z</time></trkpt><trkpt lat="41.7966787" lon="1.7578834"><ele>432.0</ele><time>2026-03-28T10:02:51.936Z</time></trkpt><trkpt lat="41.7968672" lon="1.7577339"><ele>432.0</ele><time>2026-03-28T10:02:52.944Z</time></trkpt><trkpt lat="41.7970522" lon="1.7575521"><ele>432.0</ele><time>2026-03-28T10:02:53.936Z</time></trkpt><trkpt lat="41.7972058" lon="1.7573884"><ele>432.0</ele><time>2026-03-28T10:02:54.943Z</time></trkpt><trkpt lat="41.7973686" lon="1.7572975"><ele>432.0</ele><time>2026-03-28T10:02:55.944Z</time></trkpt><trkpt lat="41.7975568" lon="1.757233"><ele>432.0</ele><time>2026-03-28T10:02:56.935Z</time></trkpt><trkpt lat="41.7977464" lon="1.7571158"><ele>432.0</ele><time>2026-03-28T10:02:57.945Z</time></trkpt><trkpt lat="41.7979227" lon="1.7569337"><ele>432.0</ele><time>2026-03-28T10:02:58.936Z</time></trkpt><trkpt lat="41.7980872" lon="1.7567791"><ele>432.0</ele><time>2026-03-28T10:02:59.938Z</time></trkpt><trkpt lat="41.7982563" lon="1.7566562"><ele>432.0</ele><time>2026-03-28T10:03:00.948Z</time></trkpt><trkpt lat="41.7984627" lon="1.7565841"><ele>436.0</ele><time>2026-03-28T10:03:01.94Z</time></trkpt><trkpt lat="41.7986811" lon="1.7565729"><ele>440.0</ele><time>2026-03-28T10:03:02.941Z</time></trkpt><trkpt lat="41.7988886" lon="1.7565892"><ele>444.0</ele><time>2026-03-28T10:03:03.925Z</time></trkpt><trkpt lat="41.799058" lon="1.7565782"><ele>444.0</ele><time>2026-03-28T10:03:04.934Z</time></trkpt><trkpt lat="41.799187" lon="1.7565167"><ele>444.0</ele><time>2026-03-28T10:03:05.928Z</time></trkpt><trkpt lat="41.7992689" lon="1.7564438"><ele>444.0</ele><time>2026-03-28T10:03:06.917Z</time></trkpt><trkpt lat="41.7993162" lon="1.7563363"><ele>444.0</ele><time>2026-03-28T10:03:07.931Z</time></trkpt><trkpt lat="41.7993293" lon="1.7562245"><ele>444.0</ele><time>2026-03-28T10:03:08.934Z</time></trkpt><trkpt lat="41.7992817" lon="1.7561061"><ele>443.75</ele><time>2026-03-28T10:03:09.939Z</time></trkpt><trkpt lat="41.7991804" lon="1.7559921"><ele>443.5</ele><time>2026-03-28T10:03:10.936Z</time></trkpt><trkpt lat="41.7990734" lon="1.7558606"><ele>443.25</ele><time>2026-03-28T10:03:11.944Z</time></trkpt><trkpt lat="41.7990134" lon="1.7557342"><ele>443.0</ele><time>2026-03-28T10:03:12.95Z</time></trkpt><trkpt lat="41.7989987" lon="1.755608"><ele>443.0</ele><time>2026-03-28T10:03:13.95Z</time></trkpt><trkpt lat="41.7990342" lon="1.7554806"><ele>443.0</ele><time>2026-03-28T10:03:14.959Z</time></trkpt><trkpt lat="41.7991217" lon="1.7553312"><ele>443.0</ele><time>2026-03-28T10:03:15.945Z</time></trkpt><trkpt lat="41.7992307" lon="1.7551529"><ele>443.0</ele><time>2026-03-28T10:03:16.956Z</time></trkpt><trkpt lat="41.7993736" lon="1.7549664"><ele>448.0</ele><time>2026-03-28T10:03:17.948Z</time></trkpt><trkpt lat="41.7995365" lon="1.7548073"><ele>453.0</ele><time>2026-03-28T10:03:18.952Z</time></trkpt><trkpt lat="41.799743" lon="1.7546854"><ele>458.0</ele><time>2026-03-28T10:03:19.951Z</time></trkpt><trkpt lat="41.7999" lon="1.7545789"><ele>458.0</ele><time>2026-03-28T10:03:20.944Z</time></trkpt><trkpt lat="41.8000265" lon="1.7544286"><ele>458.0</ele><time>2026-03-28T10:03:21.939Z</time></trkpt><trkpt lat="41.8001288" lon="1.7542314"><ele>458.0</ele><time>2026-03-28T10:03:22.946Z</time></trkpt><trkpt lat="41.8002312" lon="1.7539931"><ele>458.66666666666663</ele><time>2026-03-28T10:03:23.936Z</time></trkpt><trkpt lat="41.8003345" lon="1.7537753"><ele>459.33333333333337</ele><time>2026-03-28T10:03:24.942Z</time></trkpt><trkpt lat="41.8004485" lon="1.7536304"><ele>460.0</ele><time>2026-03-28T10:03:25.944Z</time></trkpt><trkpt lat="41.8006266" lon="1.7535104"><ele>460.0</ele><time>2026-03-28T10:03:26.945Z</time></trkpt><trkpt lat="41.8008556" lon="1.7533513"><ele>460.0</ele><time>2026-03-28T10:03:27.933Z</time></trkpt><trkpt lat="41.801079" lon="1.753177"><ele>465.0</ele><time>2026-03-28T10:03:28.932Z</time></trkpt><trkpt lat="41.8012796" lon="1.7529807"><ele>470.0</ele><time>2026-03-28T10:03:29.943Z</time></trkpt><trkpt lat="41.8014236" lon="1.7527568"><ele>468.5</ele><time>2026-03-28T10:03:30.937Z</time></trkpt><trkpt lat="41.8015796" lon="1.7524866"><ele>467.0</ele><time>2026-03-28T10:03:31.945Z</time></trkpt><trkpt lat="41.8017007" lon="1.7522296"><ele>467.0</ele><time>2026-03-28T10:03:32.943Z</time></trkpt><trkpt lat="41.801793" lon="1.7519845"><ele>467.0</ele><time>2026-03-28T10:03:33.94Z</time></trkpt><trkpt lat="41.801861" lon="1.7517247"><ele>467.0</ele><time>2026-03-28T10:03:34.939Z</time></trkpt><trkpt lat="41.8018894" lon="1.7513813"><ele>465.3333333333333</ele><time>2026-03-28T10:03:35.936Z</time></trkpt><trkpt lat="41.8019226" lon="1.7510741"><ele>463.66666666666663</ele><time>2026-03-28T10:03:36.933Z</time></trkpt><trkpt lat="41.8019666" lon="1.7508359"><ele>462.0</ele><time>2026-03-28T10:03:37.946Z</time></trkpt><trkpt lat="41.8019899" lon="1.7506489"><ele>461.25</ele><time>2026-03-28T10:03:38.956Z</time></trkpt><trkpt lat="41.801969" lon="1.7504821"><ele>460.5</ele><time>2026-03-28T10:03:39.96Z</time></trkpt><trkpt lat="41.8019088" lon="1.7503505"><ele>459.75</ele><time>2026-03-28T10:03:40.959Z</time></trkpt><trkpt lat="41.8018094" lon="1.7502777"><ele>459.0</ele><time>2026-03-28T10:03:41.955Z</time></trkpt><trkpt lat="41.8016927" lon="1.7502619"><ele>463.33333333333337</ele><time>2026-03-28T10:03:42.949Z</time></trkpt><trkpt lat="41.8015934" lon="1.7503615"><ele>467.6666666666667</ele><time>2026-03-28T10:03:43.947Z</time></trkpt><trkpt lat="41.8014894" lon="1.7505018"><ele>472.0</ele><time>2026-03-28T10:03:44.953Z</time></trkpt><trkpt lat="41.8013753" lon="1.7507002"><ele>472.0</ele><time>2026-03-28T10:03:45.944Z</time></trkpt><trkpt lat="41.8012491" lon="1.7509453"><ele>472.0</ele><time>2026-03-28T10:03:46.941Z</time></trkpt><trkpt lat="41.8011143" lon="1.7511166"><ele>472.0</ele><time>2026-03-28T10:03:47.95Z</time></trkpt><trkpt lat="41.8009932" lon="1.7512331"><ele>472.00000000000006</ele><time>2026-03-28T10:03:48.943Z</time></trkpt><trkpt lat="41.8009209" lon="1.7512807"><ele>472.0</ele><time>2026-03-28T10:03:49.944Z</time></trkpt><trkpt lat="41.8008625" lon="1.7512463"><ele>472.0</ele><time>2026-03-28T10:03:50.945Z</time></trkpt><trkpt lat="41.8008368" lon="1.7511508"><ele>472.0</ele><time>2026-03-28T10:03:51.959Z</time></trkpt><trkpt lat="41.800851" lon="1.7510505"><ele>472.00000000000006</ele><time>2026-03-28T10:03:52.94Z</time></trkpt><trkpt lat="41.8009472" lon="1.7509069"><ele>472.0</ele><time>2026-03-28T10:03:53.928Z</time></trkpt><trkpt lat="41.8010651" lon="1.7507211"><ele>472.0</ele><time>2026-03-28T10:03:54.938Z</time></trkpt><trkpt lat="41.8011721" lon="1.7505058"><ele>472.0</ele><time>2026-03-28T10:03:55.944Z</time></trkpt><trkpt lat="41.8012254" lon="1.7502759"><ele>472.0</ele><time>2026-03-28T10:03:56.965Z</time></trkpt><trkpt lat="41.8012621" lon="1.7500148"><ele>477.0</ele><time>2026-03-28T10:03:57.96Z</time></trkpt><trkpt lat="41.8012729" lon="1.7496898"><ele>482.0</ele><time>2026-03-28T10:03:58.949Z</time></trkpt><trkpt lat="41.8012844" lon="1.7493206"><ele>485.0</ele><time>2026-03-28T10:03:59.96Z</time></trkpt><trkpt lat="41.8013176" lon="1.7489605"><ele>488.0</ele><time>2026-03-28T10:04:00.965Z</time></trkpt><trkpt lat="41.8013754" lon="1.7486668"><ele>490.25</ele><time>2026-03-28T10:04:01.96Z</time></trkpt><trkpt lat="41.8014183" lon="1.7484355"><ele>492.5</ele><time>2026-03-28T10:04:02.952Z</time></trkpt><trkpt lat="41.8014428" lon="1.7482435"><ele>494.75</ele><time>2026-03-28T10:04:03.955Z</time></trkpt><trkpt lat="41.8014893" lon="1.7480965"><ele>497.0</ele><time>2026-03-28T10:04:04.962Z</time></trkpt><trkpt lat="41.8015935" lon="1.7480017"><ele>497.0</ele><time>2026-03-28T10:04:05.946Z</time></trkpt><trkpt lat="41.801732" lon="1.7479481"><ele>497.0</ele><time>2026-03-28T10:04:06.953Z</time></trkpt><trkpt lat="41.8019009" lon="1.7479182"><ele>497.0</ele><time>2026-03-28T10:04:07.941Z</time></trkpt><trkpt lat="41.8020174" lon="1.7478725"><ele>497.0</ele><time>2026-03-28T10:04:08.944Z</time></trkpt><trkpt lat="41.8020841" lon="1.7477697"><ele>492.25</ele><time>2026-03-28T10:04:09.964Z</time></trkpt><trkpt lat="41.8021219" lon="1.7476199"><ele>487.5</ele><time>2026-03-28T10:04:10.956Z</time></trkpt><trkpt lat="41.8021644" lon="1.747487"><ele>482.75</ele><time>2026-03-28T10:04:11.95Z</time></trkpt><trkpt lat="41.8021004" lon="1.7473618"><ele>478.0</ele><time>2026-03-28T10:04:12.945Z</time></trkpt><trkpt lat="41.8019659" lon="1.7472727"><ele>487.0</ele><time>2026-03-28T10:04:13.946Z</time></trkpt><trkpt lat="41.8017822" lon="1.74721"><ele>496.0</ele><time>2026-03-28T10:04:14.951Z</time></trkpt><trkpt lat="41.8015764" lon="1.7471036"><ele>505.0</ele><time>2026-03-28T10:04:15.951Z</time></trkpt><trkpt lat="41.8013821" lon="1.7469463"><ele>499.0</ele><time>2026-03-28T10:04:16.961Z</time></trkpt><trkpt lat="41.8012099" lon="1.7467645"><ele>493.0</ele><time>2026-03-28T10:04:17.956Z</time></trkpt><trkpt lat="41.8010801" lon="1.7466076"><ele>487.0</ele><time>2026-03-28T10:04:18.96Z</time></trkpt><trkpt lat="41.8010011" lon="1.7464431"><ele>484.6666666666667</ele><time>2026-03-28T10:04:19.955Z</time></trkpt><trkpt lat="41.8009689" lon="1.746266"><ele>482.33333333333337</ele><time>2026-03-28T10:04:20.953Z</time></trkpt><trkpt lat="41.8009943" lon="1.7460527"><ele>480.0</ele><time>2026-03-28T10:04:21.953Z</time></trkpt><trkpt lat="41.8010578" lon="1.7457914"><ele>480.0</ele><time>2026-03-28T10:04:22.955Z</time></trkpt><trkpt lat="41.8011141" lon="1.7454833"><ele>480.0</ele><time>2026-03-28T10:04:23.938Z</time></trkpt><trkpt lat="41.8011944" lon="1.7451789"><ele>485.66666666666663</ele><time>2026-03-28T10:04:24.95Z</time></trkpt><trkpt lat="41.8012976" lon="1.744927"><ele>491.3333333333333</ele><time>2026-03-28T10:04:25.947Z</time></trkpt><trkpt lat="41.8013926" lon="1.7447428"><ele>497.0</ele><time>2026-03-28T10:04:26.954Z</time></trkpt><trkpt lat="41.8014492" lon="1.7445623"><ele>499.3333333333333</ele><time>2026-03-28T10:04:27.957Z</time></trkpt><trkpt lat="41.8014734" lon="1.7443539"><ele>501.66666666666663</ele><time>2026-03-28T10:04:28.977Z</time></trkpt><trkpt lat="41.8014606" lon="1.7441026"><ele>504.0</ele><time>2026-03-28T10:04:29.968Z</time></trkpt><trkpt lat="41.8014447" lon="1.7437785"><ele>505.5</ele><time>2026-03-28T10:04:30.965Z</time></trkpt><trkpt lat="41.8014334" lon="1.7433909"><ele>507.0</ele><time>2026-03-28T10:04:31.959Z</time></trkpt><trkpt lat="41.8014264" lon="1.7429644"><ele>505.5</ele><time>2026-03-28T10:04:32.938Z</time></trkpt><trkpt lat="41.8014319" lon="1.7425612"><ele>504.0</ele><time>2026-03-28T10:04:33.94Z</time></trkpt><trkpt lat="41.8014366" lon="1.7422135"><ele>504.0</ele><time>2026-03-28T10:04:34.953Z</time></trkpt><trkpt lat="41.8014399" lon="1.741911"><ele>504.0</ele><time>2026-03-28T10:04:35.955Z</time></trkpt><trkpt lat="41.8014213" lon="1.7416596"><ele>504.0</ele><time>2026-03-28T10:04:36.961Z</time></trkpt><trkpt lat="41.8013644" lon="1.7414062"><ele>502.0</ele><time>2026-03-28T10:04:37.959Z</time></trkpt><trkpt lat="41.8012789" lon="1.7411222"><ele>500.0</ele><time>2026-03-28T10:04:38.961Z</time></trkpt><trkpt lat="41.8011615" lon="1.740836"><ele>498.0</ele><time>2026-03-28T10:04:39.959Z</time></trkpt><trkpt lat="41.8010466" lon="1.7405976"><ele>496.0</ele><time>2026-03-28T10:04:40.981Z</time></trkpt><trkpt lat="41.8009134" lon="1.7404365"><ele>494.0</ele><time>2026-03-28T10:04:41.956Z</time></trkpt><trkpt lat="41.8008046" lon="1.7402725"><ele>502.66666666666663</ele><time>2026-03-28T10:04:42.951Z</time></trkpt><trkpt lat="41.8007299" lon="1.740101"><ele>511.33333333333337</ele><time>2026-03-28T10:04:43.957Z</time></trkpt><trkpt lat="41.800695" lon="1.7398791"><ele>520.0</ele><time>2026-03-28T10:04:44.95Z</time></trkpt><trkpt lat="41.8006741" lon="1.7396006"><ele>520.0</ele><time>2026-03-28T10:04:45.944Z</time></trkpt><trkpt lat="41.800667" lon="1.7393546"><ele>520.0</ele><time>2026-03-28T10:04:46.931Z</time></trkpt><trkpt lat="41.8006677" lon="1.7391403"><ele>520.0</ele><time>2026-03-28T10:04:47.931Z</time></trkpt><trkpt lat="41.8006728" lon="1.7389441"><ele>520.0</ele><time>2026-03-28T10:04:48.937Z</time></trkpt><trkpt lat="41.8006936" lon="1.7387522"><ele>520.0</ele><time>2026-03-28T10:04:49.944Z</time></trkpt><trkpt lat="41.8007112" lon="1.7385806"><ele>520.0</ele><time>2026-03-28T10:04:50.943Z</time></trkpt><trkpt lat="41.8007415" lon="1.738425"><ele>520.0</ele><time>2026-03-28T10:04:51.954Z</time></trkpt><trkpt lat="41.8007789" lon="1.7383027"><ele>520.6</ele><time>2026-03-28T10:04:52.947Z</time></trkpt><trkpt lat="41.8008229" lon="1.7381835"><ele>521.2</ele><time>2026-03-28T10:04:53.958Z</time></trkpt><trkpt lat="41.8008766" lon="1.7380541"><ele>521.8</ele><time>2026-03-28T10:04:54.96Z</time></trkpt><trkpt lat="41.800902" lon="1.7379291"><ele>522.4</ele><time>2026-03-28T10:04:55.949Z</time></trkpt><trkpt lat="41.8009448" lon="1.7377697"><ele>523.0</ele><time>2026-03-28T10:04:56.96Z</time></trkpt><trkpt lat="41.8009965" lon="1.7375835"><ele>521.0</ele><time>2026-03-28T10:04:57.956Z</time></trkpt><trkpt lat="41.8010499" lon="1.7373722"><ele>519.0</ele><time>2026-03-28T10:04:58.96Z</time></trkpt><trkpt lat="41.801102" lon="1.7371226"><ele>517.0</ele><time>2026-03-28T10:04:59.955Z</time></trkpt><trkpt lat="41.8011445" lon="1.7368491"><ele>517.0</ele><time>2026-03-28T10:05:00.951Z</time></trkpt><trkpt lat="41.8012136" lon="1.7365568"><ele>517.0</ele><time>2026-03-28T10:05:01.95Z</time></trkpt><trkpt lat="41.8012991" lon="1.7362988"><ele>517.0</ele><time>2026-03-28T10:05:02.966Z</time></trkpt><trkpt lat="41.8013722" lon="1.7361025"><ele>520.6666666666667</ele><time>2026-03-28T10:05:03.955Z</time></trkpt><trkpt lat="41.8014202" lon="1.7359102"><ele>524.3333333333334</ele><time>2026-03-28T10:05:04.964Z</time></trkpt><trkpt lat="41.8014259" lon="1.7357195"><ele>528.0</ele><time>2026-03-28T10:05:05.963Z</time></trkpt><trkpt lat="41.8013954" lon="1.7354866"><ele>528.0</ele><time>2026-03-28T10:05:06.952Z</time></trkpt><trkpt lat="41.8013611" lon="1.7352192"><ele>528.0</ele><time>2026-03-28T10:05:07.957Z</time></trkpt><trkpt lat="41.8013564" lon="1.734958"><ele>528.0</ele><time>2026-03-28T10:05:08.953Z</time></trkpt><trkpt lat="41.8013416" lon="1.7347252"><ele>528.0</ele><time>2026-03-28T10:05:09.968Z</time></trkpt><trkpt lat="41.8012888" lon="1.7344649"><ele>528.0</ele><time>2026-03-28T10:05:10.945Z</time></trkpt><trkpt lat="41.8012012" lon="1.7341662"><ele>528.0</ele><time>2026-03-28T10:05:11.954Z</time></trkpt><trkpt lat="41.8011445" lon="1.7338909"><ele>527.3333333333334</ele><time>2026-03-28T10:05:12.956Z</time></trkpt><trkpt lat="41.8011396" lon="1.733644"><ele>526.6666666666667</ele><time>2026-03-28T10:05:13.95Z</time></trkpt><trkpt lat="41.8011211" lon="1.7333918"><ele>526.0</ele><time>2026-03-28T10:05:14.941Z</time></trkpt><trkpt lat="41.8010617" lon="1.733138"><ele>533.0</ele><time>2026-03-28T10:05:15.96Z</time></trkpt><trkpt lat="41.8009553" lon="1.7328997"><ele>540.0</ele><time>2026-03-28T10:05:16.95Z</time></trkpt><trkpt lat="41.8008417" lon="1.7326509"><ele>547.0</ele><time>2026-03-28T10:05:17.945Z</time></trkpt><trkpt lat="41.8007697" lon="1.7323776"><ele>547.0</ele><time>2026-03-28T10:05:18.961Z</time></trkpt><trkpt lat="41.8007379" lon="1.7320879"><ele>547.0</ele><time>2026-03-28T10:05:19.95Z</time></trkpt><trkpt lat="41.8007526" lon="1.7317979"><ele>547.0</ele><time>2026-03-28T10:05:20.95Z</time></trkpt><trkpt lat="41.8008014" lon="1.7315008"><ele>547.3333333333334</ele><time>2026-03-28T10:05:21.947Z</time></trkpt><trkpt lat="41.8008502" lon="1.7311956"><ele>547.6666666666666</ele><time>2026-03-28T10:05:22.961Z</time></trkpt><trkpt lat="41.8008597" lon="1.7309121"><ele>548.0</ele><time>2026-03-28T10:05:23.972Z</time></trkpt><trkpt lat="41.8008155" lon="1.7306333"><ele>549.0</ele><time>2026-03-28T10:05:24.957Z</time></trkpt><trkpt lat="41.8007729" lon="1.7303503"><ele>550.0</ele><time>2026-03-28T10:05:25.957Z</time></trkpt><trkpt lat="41.8007969" lon="1.73008"><ele>551.0</ele><time>2026-03-28T10:05:26.964Z</time></trkpt><trkpt lat="41.8008627" lon="1.729815"><ele>551.6666666666666</ele><time>2026-03-28T10:05:27.953Z</time></trkpt><trkpt lat="41.8009156" lon="1.7295779"><ele>552.3333333333334</ele><time>2026-03-28T10:05:28.952Z</time></trkpt><trkpt lat="41.8009368" lon="1.7293146"><ele>553.0</ele><time>2026-03-28T10:05:29.96Z</time></trkpt><trkpt lat="41.8009399" lon="1.7290331"><ele>553.3333333333334</ele><time>2026-03-28T10:05:30.954Z</time></trkpt><trkpt lat="41.8009578" lon="1.7287541"><ele>553.6666666666666</ele><time>2026-03-28T10:05:31.947Z</time></trkpt><trkpt lat="41.8009861" lon="1.7285281"><ele>554.0</ele><time>2026-03-28T10:05:32.943Z</time></trkpt><trkpt lat="41.8009882" lon="1.7283172"><ele>554.0</ele><time>2026-03-28T10:05:33.961Z</time></trkpt><trkpt lat="41.8009469" lon="1.7280968"><ele>554.0</ele><time>2026-03-28T10:05:34.951Z</time></trkpt><trkpt lat="41.800912" lon="1.7278956"><ele>554.0</ele><time>2026-03-28T10:05:35.954Z</time></trkpt><trkpt lat="41.8009055" lon="1.7277143"><ele>553.3333333333333</ele><time>2026-03-28T10:05:36.968Z</time></trkpt><trkpt lat="41.8009628" lon="1.7275127"><ele>552.6666666666666</ele><time>2026-03-28T10:05:37.96Z</time></trkpt><trkpt lat="41.801057" lon="1.7272797"><ele>552.0</ele><time>2026-03-28T10:05:38.954Z</time></trkpt><trkpt lat="41.8011511" lon="1.727016"><ele>546.6666666666666</ele><time>2026-03-28T10:05:39.965Z</time></trkpt><trkpt lat="41.8012144" lon="1.7267397"><ele>541.3333333333333</ele><time>2026-03-28T10:05:40.96Z</time></trkpt><trkpt lat="41.8012227" lon="1.7264401"><ele>536.0</ele><time>2026-03-28T10:05:41.961Z</time></trkpt><trkpt lat="41.8011859" lon="1.7261101"><ele>543.0</ele><time>2026-03-28T10:05:42.969Z</time></trkpt><trkpt lat="41.8011329" lon="1.7257583"><ele>550.0</ele><time>2026-03-28T10:05:43.934Z</time></trkpt><trkpt lat="41.8010925" lon="1.7253937"><ele>553.5</ele><time>2026-03-28T10:05:44.951Z</time></trkpt><trkpt lat="41.8010659" lon="1.7250608"><ele>557.0</ele><time>2026-03-28T10:05:45.948Z</time></trkpt><trkpt lat="41.8010451" lon="1.7247673"><ele>557.0</ele><time>2026-03-28T10:05:46.934Z</time></trkpt><trkpt lat="41.8010463" lon="1.7244923"><ele>557.0</ele><time>2026-03-28T10:05:47.946Z</time></trkpt><trkpt lat="41.8010955" lon="1.7241992"><ele>557.0</ele><time>2026-03-28T10:05:48.939Z</time></trkpt><trkpt lat="41.8011727" lon="1.7238939"><ele>559.6666666666666</ele><time>2026-03-28T10:05:49.939Z</time></trkpt><trkpt lat="41.8012677" lon="1.7236238"><ele>562.3333333333334</ele><time>2026-03-28T10:05:50.946Z</time></trkpt><trkpt lat="41.8013711" lon="1.7234229"><ele>565.0</ele><time>2026-03-28T10:05:51.935Z</time></trkpt><trkpt lat="41.8014506" lon="1.7232334"><ele>565.3333333333334</ele><time>2026-03-28T10:05:52.948Z</time></trkpt><trkpt lat="41.8014497" lon="1.7230345"><ele>565.6666666666666</ele><time>2026-03-28T10:05:53.943Z</time></trkpt><trkpt lat="41.801409" lon="1.7227928"><ele>566.0</ele><time>2026-03-28T10:05:54.95Z</time></trkpt><trkpt lat="41.8013344" lon="1.7225161"><ele>566.0</ele><time>2026-03-28T10:05:55.932Z</time></trkpt><trkpt lat="41.8012573" lon="1.7221972"><ele>566.0</ele><time>2026-03-28T10:05:56.939Z</time></trkpt><trkpt lat="41.8011939" lon="1.7218774"><ele>566.25</ele><time>2026-03-28T10:05:57.953Z</time></trkpt><trkpt lat="41.8011522" lon="1.7216288"><ele>566.5</ele><time>2026-03-28T10:05:58.957Z</time></trkpt><trkpt lat="41.8011287" lon="1.7214602"><ele>566.75</ele><time>2026-03-28T10:05:59.942Z</time></trkpt><trkpt lat="41.80114" lon="1.7213274"><ele>567.0</ele><time>2026-03-28T10:06:00.958Z</time></trkpt><trkpt lat="41.801219" lon="1.7212244"><ele>567.0</ele><time>2026-03-28T10:06:01.958Z</time></trkpt><trkpt lat="41.8013457" lon="1.7211302"><ele>567.0</ele><time>2026-03-28T10:06:02.956Z</time></trkpt><trkpt lat="41.8015028" lon="1.7210801"><ele>567.0</ele><time>2026-03-28T10:06:03.957Z</time></trkpt><trkpt lat="41.8016904" lon="1.721082"><ele>566.25</ele><time>2026-03-28T10:06:04.951Z</time></trkpt><trkpt lat="41.8018531" lon="1.7210787"><ele>565.5</ele><time>2026-03-28T10:06:05.946Z</time></trkpt><trkpt lat="41.8019694" lon="1.7210262"><ele>564.75</ele><time>2026-03-28T10:06:06.957Z</time></trkpt><trkpt lat="41.802059" lon="1.720907"><ele>564.0</ele><time>2026-03-28T10:06:07.958Z</time></trkpt><trkpt lat="41.8021267" lon="1.7207357"><ele>564.0</ele><time>2026-03-28T10:06:08.949Z</time></trkpt><trkpt lat="41.8021871" lon="1.7206202"><ele>564.0</ele><time>2026-03-28T10:06:09.959Z</time></trkpt><trkpt lat="41.8022814" lon="1.720591"><ele>564.0</ele><time>2026-03-28T10:06:10.966Z</time></trkpt><trkpt lat="41.8023994" lon="1.7206126"><ele>564.0</ele><time>2026-03-28T10:06:11.965Z</time></trkpt><trkpt lat="41.8025363" lon="1.7206896"><ele>566.5</ele><time>2026-03-28T10:06:12.96Z</time></trkpt><trkpt lat="41.8026832" lon="1.7207355"><ele>569.0</ele><time>2026-03-28T10:06:13.947Z</time></trkpt><trkpt lat="41.8028215" lon="1.7207198"><ele>571.5</ele><time>2026-03-28T10:06:14.954Z</time></trkpt><trkpt lat="41.8029274" lon="1.7206101"><ele>574.0</ele><time>2026-03-28T10:06:15.942Z</time></trkpt><trkpt lat="41.8030031" lon="1.7204467"><ele>574.0</ele><time>2026-03-28T10:06:16.938Z</time></trkpt><trkpt lat="41.8030973" lon="1.720269"><ele>574.0</ele><time>2026-03-28T10:06:17.941Z</time></trkpt><trkpt lat="41.8032084" lon="1.7201327"><ele>574.0</ele><time>2026-03-28T10:06:18.939Z</time></trkpt><trkpt lat="41.803334" lon="1.7200179"><ele>574.25</ele><time>2026-03-28T10:06:19.95Z</time></trkpt><trkpt lat="41.8034474" lon="1.7198773"><ele>574.5</ele><time>2026-03-28T10:06:20.941Z</time></trkpt><trkpt lat="41.803498" lon="1.7196886"><ele>574.75</ele><time>2026-03-28T10:06:21.955Z</time></trkpt><trkpt lat="41.8035323" lon="1.7195296"><ele>575.0</ele><time>2026-03-28T10:06:22.945Z</time></trkpt><trkpt lat="41.8035916" lon="1.7194559"><ele>575.0</ele><time>2026-03-28T10:06:23.954Z</time></trkpt><trkpt lat="41.8036844" lon="1.719449"><ele>575.0</ele><time>2026-03-28T10:06:24.952Z</time></trkpt><trkpt lat="41.8038114" lon="1.7195005"><ele>575.0</ele><time>2026-03-28T10:06:25.945Z</time></trkpt><trkpt lat="41.8039179" lon="1.7195528"><ele>575.0</ele><time>2026-03-28T10:06:26.937Z</time></trkpt><trkpt lat="41.8040113" lon="1.7195257"><ele>575.0</ele><time>2026-03-28T10:06:27.928Z</time></trkpt><trkpt lat="41.8040786" lon="1.7194395"><ele>574.75</ele><time>2026-03-28T10:06:28.935Z</time></trkpt><trkpt lat="41.804116" lon="1.7193051"><ele>574.5</ele><time>2026-03-28T10:06:29.927Z</time></trkpt><trkpt lat="41.8040902" lon="1.719141"><ele>574.25</ele><time>2026-03-28T10:06:30.937Z</time></trkpt><trkpt lat="41.8040132" lon="1.7189467"><ele>574.0</ele><time>2026-03-28T10:06:31.943Z</time></trkpt><trkpt lat="41.8038432" lon="1.7186728"><ele>576.3333333333334</ele><time>2026-03-28T10:06:32.929Z</time></trkpt><trkpt lat="41.8036657" lon="1.7184312"><ele>578.6666666666666</ele><time>2026-03-28T10:06:33.934Z</time></trkpt><trkpt lat="41.8035525" lon="1.7182712"><ele>581.0</ele><time>2026-03-28T10:06:34.932Z</time></trkpt><trkpt lat="41.8035136" lon="1.718124"><ele>581.0</ele><time>2026-03-28T10:06:35.947Z</time></trkpt><trkpt lat="41.8035468" lon="1.7179244"><ele>581.0</ele><time>2026-03-28T10:06:36.953Z</time></trkpt><trkpt lat="41.803627" lon="1.7177044"><ele>581.0</ele><time>2026-03-28T10:06:37.937Z</time></trkpt><trkpt lat="41.8037287" lon="1.7175121"><ele>580.6666666666666</ele><time>2026-03-28T10:06:38.942Z</time></trkpt><trkpt lat="41.8038423" lon="1.7173917"><ele>580.3333333333334</ele><time>2026-03-28T10:06:39.943Z</time></trkpt><trkpt lat="41.8040108" lon="1.7172669"><ele>580.0</ele><time>2026-03-28T10:06:40.933Z</time></trkpt><trkpt lat="41.8041796" lon="1.7170645"><ele>585.5</ele><time>2026-03-28T10:06:41.932Z</time></trkpt><trkpt lat="41.8043185" lon="1.7168054"><ele>591.0</ele><time>2026-03-28T10:06:42.926Z</time></trkpt><trkpt lat="41.8044197" lon="1.7165229"><ele>591.0</ele><time>2026-03-28T10:06:43.939Z</time></trkpt><trkpt lat="41.8045093" lon="1.7163119"><ele>591.0</ele><time>2026-03-28T10:06:44.93Z</time></trkpt><trkpt lat="41.804613" lon="1.716174"><ele>591.0</ele><time>2026-03-28T10:06:45.935Z</time></trkpt><trkpt lat="41.804767" lon="1.7160942"><ele>586.0</ele><time>2026-03-28T10:06:46.932Z</time></trkpt><trkpt lat="41.8049639" lon="1.7160351"><ele>581.0</ele><time>2026-03-28T10:06:47.949Z</time></trkpt><trkpt lat="41.8052004" lon="1.7159949"><ele>576.0</ele><time>2026-03-28T10:06:48.93Z</time></trkpt><trkpt lat="41.8054621" lon="1.7159409"><ele>576.0</ele><time>2026-03-28T10:06:49.933Z</time></trkpt><trkpt lat="41.8057116" lon="1.7158828"><ele>576.0</ele><time>2026-03-28T10:06:50.924Z</time></trkpt><trkpt lat="41.8059417" lon="1.7158463"><ele>577.3333333333334</ele><time>2026-03-28T10:06:51.927Z</time></trkpt><trkpt lat="41.806145" lon="1.7158608"><ele>578.6666666666667</ele><time>2026-03-28T10:06:52.93Z</time></trkpt><trkpt lat="41.8063237" lon="1.7158939"><ele>580.0</ele><time>2026-03-28T10:06:53.928Z</time></trkpt><trkpt lat="41.8064739" lon="1.7159166"><ele>580.0</ele><time>2026-03-28T10:06:54.931Z</time></trkpt><trkpt lat="41.8065987" lon="1.7158689"><ele>580.0</ele><time>2026-03-28T10:06:55.931Z</time></trkpt><trkpt lat="41.8067266" lon="1.715729"><ele>580.0</ele><time>2026-03-28T10:06:56.934Z</time></trkpt><trkpt lat="41.8068785" lon="1.7154942"><ele>582.5</ele><time>2026-03-28T10:06:57.925Z</time></trkpt><trkpt lat="41.8070329" lon="1.7151858"><ele>585.0</ele><time>2026-03-28T10:06:58.924Z</time></trkpt><trkpt lat="41.8071716" lon="1.7149373"><ele>585.0</ele><time>2026-03-28T10:06:59.928Z</time></trkpt><trkpt lat="41.8073106" lon="1.7147728"><ele>585.0</ele><time>2026-03-28T10:07:00.916Z</time></trkpt><trkpt lat="41.807451" lon="1.7146455"><ele>585.0</ele><time>2026-03-28T10:07:01.921Z</time></trkpt><trkpt lat="41.8075928" lon="1.7145635"><ele>588.6666666666666</ele><time>2026-03-28T10:07:02.935Z</time></trkpt><trkpt lat="41.8077614" lon="1.7145445"><ele>592.3333333333333</ele><time>2026-03-28T10:07:03.928Z</time></trkpt><trkpt lat="41.8079749" lon="1.7145451"><ele>596.0</ele><time>2026-03-28T10:07:04.927Z</time></trkpt><trkpt lat="41.8081957" lon="1.7145809"><ele>596.0</ele><time>2026-03-28T10:07:05.917Z</time></trkpt><trkpt lat="41.8083878" lon="1.7146426"><ele>596.0</ele><time>2026-03-28T10:07:06.932Z</time></trkpt><trkpt lat="41.8085392" lon="1.71471"><ele>596.0</ele><time>2026-03-28T10:07:07.937Z</time></trkpt><trkpt lat="41.8086654" lon="1.7147459"><ele>596.0</ele><time>2026-03-28T10:07:08.934Z</time></trkpt><trkpt lat="41.8087719" lon="1.7147196"><ele>596.0</ele><time>2026-03-28T10:07:09.936Z</time></trkpt><trkpt lat="41.8088477" lon="1.714608"><ele>596.0</ele><time>2026-03-28T10:07:10.94Z</time></trkpt><trkpt lat="41.8088973" lon="1.7144077"><ele>596.0</ele><time>2026-03-28T10:07:11.927Z</time></trkpt><trkpt lat="41.8089163" lon="1.7142014"><ele>596.25</ele><time>2026-03-28T10:07:12.93Z</time></trkpt><trkpt lat="41.8089443" lon="1.7139737"><ele>596.5</ele><time>2026-03-28T10:07:13.931Z</time></trkpt><trkpt lat="41.8089972" lon="1.713786"><ele>596.75</ele><time>2026-03-28T10:07:14.937Z</time></trkpt><trkpt lat="41.8091003" lon="1.713705"><ele>597.0</ele><time>2026-03-28T10:07:15.937Z</time></trkpt><trkpt lat="41.8092283" lon="1.7136235"><ele>600.0</ele><time>2026-03-28T10:07:16.933Z</time></trkpt><trkpt lat="41.8093579" lon="1.7134995"><ele>603.0</ele><time>2026-03-28T10:07:17.931Z</time></trkpt><trkpt lat="41.8094608" lon="1.7133848"><ele>606.0</ele><time>2026-03-28T10:07:18.934Z</time></trkpt><trkpt lat="41.8095192" lon="1.7132367"><ele>609.0</ele><time>2026-03-28T10:07:19.933Z</time></trkpt><trkpt lat="41.8095254" lon="1.7130524"><ele>609.0</ele><time>2026-03-28T10:07:20.936Z</time></trkpt><trkpt lat="41.8095196" lon="1.7128671"><ele>609.0</ele><time>2026-03-28T10:07:21.938Z</time></trkpt><trkpt lat="41.8095618" lon="1.712758"><ele>609.0</ele><time>2026-03-28T10:07:22.936Z</time></trkpt><trkpt lat="41.8096797" lon="1.712668"><ele>609.0</ele><time>2026-03-28T10:07:23.942Z</time></trkpt><trkpt lat="41.8098548" lon="1.7126267"><ele>608.6666666666666</ele><time>2026-03-28T10:07:24.939Z</time></trkpt><trkpt lat="41.810062" lon="1.7125758"><ele>608.3333333333333</ele><time>2026-03-28T10:07:25.932Z</time></trkpt><trkpt lat="41.810235" lon="1.7124578"><ele>608.0</ele><time>2026-03-28T10:07:26.937Z</time></trkpt><trkpt lat="41.8103697" lon="1.7122527"><ele>608.0</ele><time>2026-03-28T10:07:27.939Z</time></trkpt><trkpt lat="41.8105023" lon="1.7120313"><ele>608.0</ele><time>2026-03-28T10:07:28.929Z</time></trkpt><trkpt lat="41.8106439" lon="1.7118749"><ele>608.0</ele><time>2026-03-28T10:07:29.939Z</time></trkpt><trkpt lat="41.8108351" lon="1.7117822"><ele>612.5</ele><time>2026-03-28T10:07:30.947Z</time></trkpt><trkpt lat="41.811074" lon="1.7116847"><ele>617.0</ele><time>2026-03-28T10:07:31.943Z</time></trkpt><trkpt lat="41.8112913" lon="1.7115858"><ele>617.0</ele><time>2026-03-28T10:07:32.944Z</time></trkpt><trkpt lat="41.811432" lon="1.7115071"><ele>617.0</ele><time>2026-03-28T10:07:33.941Z</time></trkpt><trkpt lat="41.8115307" lon="1.7114084"><ele>617.0</ele><time>2026-03-28T10:07:34.937Z</time></trkpt><trkpt lat="41.8115843" lon="1.711261"><ele>617.0</ele><time>2026-03-28T10:07:35.94Z</time></trkpt><trkpt lat="41.8115996" lon="1.7110692"><ele>615.5</ele><time>2026-03-28T10:07:36.936Z</time></trkpt><trkpt lat="41.8115577" lon="1.7109017"><ele>614.0</ele><time>2026-03-28T10:07:37.935Z</time></trkpt><trkpt lat="41.8114574" lon="1.7107967"><ele>612.5</ele><time>2026-03-28T10:07:38.927Z</time></trkpt><trkpt lat="41.8113169" lon="1.7107483"><ele>611.0</ele><time>2026-03-28T10:07:39.945Z</time></trkpt><trkpt lat="41.811139" lon="1.7107627"><ele>612.5</ele><time>2026-03-28T10:07:40.942Z</time></trkpt><trkpt lat="41.8109044" lon="1.7108222"><ele>614.0</ele><time>2026-03-28T10:07:41.936Z</time></trkpt><trkpt lat="41.8106542" lon="1.7108666"><ele>614.0</ele><time>2026-03-28T10:07:42.937Z</time></trkpt><trkpt lat="41.8104268" lon="1.7109046"><ele>614.0</ele><time>2026-03-28T10:07:43.947Z</time></trkpt><trkpt lat="41.8102146" lon="1.7110098"><ele>610.5</ele><time>2026-03-28T10:07:44.948Z</time></trkpt><trkpt lat="41.8099925" lon="1.7111731"><ele>607.0</ele><time>2026-03-28T10:07:45.946Z</time></trkpt><trkpt lat="41.8097976" lon="1.7113045"><ele>607.0</ele><time>2026-03-28T10:07:46.935Z</time></trkpt><trkpt lat="41.8096555" lon="1.7113872"><ele>607.0</ele><time>2026-03-28T10:07:47.943Z</time></trkpt><trkpt lat="41.8095526" lon="1.7114153"><ele>607.0</ele><time>2026-03-28T10:07:48.943Z</time></trkpt><trkpt lat="41.8094727" lon="1.711364"><ele>607.0</ele><time>2026-03-28T10:07:49.94Z</time></trkpt><trkpt lat="41.8094102" lon="1.711244"><ele>607.0</ele><time>2026-03-28T10:07:50.951Z</time></trkpt><trkpt lat="41.8093665" lon="1.7111266"><ele>607.0</ele><time>2026-03-28T10:07:51.93Z</time></trkpt><trkpt lat="41.8094074" lon="1.7109369"><ele>607.0</ele><time>2026-03-28T10:07:52.931Z</time></trkpt><trkpt lat="41.8095143" lon="1.7106791"><ele>616.0</ele><time>2026-03-28T10:07:53.933Z</time></trkpt><trkpt lat="41.8096576" lon="1.7103626"><ele>625.0</ele><time>2026-03-28T10:07:54.934Z</time></trkpt><trkpt lat="41.8098127" lon="1.7100121"><ele>626.5</ele><time>2026-03-28T10:07:55.946Z</time></trkpt><trkpt lat="41.8099471" lon="1.7096467"><ele>628.0</ele><time>2026-03-28T10:07:56.943Z</time></trkpt><trkpt lat="41.810046" lon="1.7092647"><ele>629.0</ele><time>2026-03-28T10:07:57.954Z</time></trkpt><trkpt lat="41.8100875" lon="1.708885"><ele>630.0</ele><time>2026-03-28T10:07:58.96Z</time></trkpt><trkpt lat="41.8100921" lon="1.7084885"><ele>631.5</ele><time>2026-03-28T10:07:59.934Z</time></trkpt><trkpt lat="41.8100741" lon="1.7080574"><ele>633.0</ele><time>2026-03-28T10:08:00.938Z</time></trkpt><trkpt lat="41.810065" lon="1.707631"><ele>635.0</ele><time>2026-03-28T10:08:01.947Z</time></trkpt><trkpt lat="41.8100668" lon="1.7072677"><ele>637.0</ele><time>2026-03-28T10:08:02.943Z</time></trkpt><trkpt lat="41.8100734" lon="1.7069544"><ele>638.3333333333334</ele><time>2026-03-28T10:08:03.933Z</time></trkpt><trkpt lat="41.8100666" lon="1.7066648"><ele>639.6666666666666</ele><time>2026-03-28T10:08:04.944Z</time></trkpt><trkpt lat="41.8100082" lon="1.7063935"><ele>641.0</ele><time>2026-03-28T10:08:05.942Z</time></trkpt><trkpt lat="41.8098931" lon="1.7061001"><ele>644.0</ele><time>2026-03-28T10:08:06.939Z</time></trkpt><trkpt lat="41.8097726" lon="1.7057905"><ele>647.0</ele><time>2026-03-28T10:08:07.937Z</time></trkpt><trkpt lat="41.8096805" lon="1.7054737"><ele>649.0</ele><time>2026-03-28T10:08:08.947Z</time></trkpt><trkpt lat="41.8096259" lon="1.7051713"><ele>651.0</ele><time>2026-03-28T10:08:09.952Z</time></trkpt><trkpt lat="41.8095955" lon="1.7048828"><ele>653.0</ele><time>2026-03-28T10:08:10.939Z</time></trkpt><trkpt lat="41.8095844" lon="1.7046271"><ele>653.0</ele><time>2026-03-28T10:08:11.952Z</time></trkpt><trkpt lat="41.8096027" lon="1.7044163"><ele>653.0</ele><time>2026-03-28T10:08:12.958Z</time></trkpt><trkpt lat="41.8096619" lon="1.7042356"><ele>653.0</ele><time>2026-03-28T10:08:13.953Z</time></trkpt><trkpt lat="41.809761" lon="1.7040747"><ele>653.0</ele><time>2026-03-28T10:08:14.949Z</time></trkpt><trkpt lat="41.8099148" lon="1.7038982"><ele>653.0</ele><time>2026-03-28T10:08:15.947Z</time></trkpt><trkpt lat="41.8100818" lon="1.7036674"><ele>653.0</ele><time>2026-03-28T10:08:16.943Z</time></trkpt><trkpt lat="41.8102689" lon="1.7034154"><ele>657.0</ele><time>2026-03-28T10:08:17.94Z</time></trkpt><trkpt lat="41.8104746" lon="1.7031323"><ele>661.0</ele><time>2026-03-28T10:08:18.943Z</time></trkpt><trkpt lat="41.810693" lon="1.7028386"><ele>660.0</ele><time>2026-03-28T10:08:19.942Z</time></trkpt><trkpt lat="41.8108858" lon="1.7025743"><ele>659.0</ele><time>2026-03-28T10:08:20.93Z</time></trkpt><trkpt lat="41.8110654" lon="1.7023441"><ele>659.0</ele><time>2026-03-28T10:08:21.936Z</time></trkpt><trkpt lat="41.8112203" lon="1.7021713"><ele>659.0</ele><time>2026-03-28T10:08:22.933Z</time></trkpt><trkpt lat="41.8113649" lon="1.7020476"><ele>659.0</ele><time>2026-03-28T10:08:23.933Z</time></trkpt><trkpt lat="41.8115073" lon="1.7019773"><ele>659.0</ele><time>2026-03-28T10:08:24.928Z</time></trkpt><trkpt lat="41.8116499" lon="1.7019632"><ele>659.0</ele><time>2026-03-28T10:08:25.926Z</time></trkpt><trkpt lat="41.8117929" lon="1.7020284"><ele>659.0</ele><time>2026-03-28T10:08:26.93Z</time></trkpt><trkpt lat="41.8119316" lon="1.7021412"><ele>659.6666666666666</ele><time>2026-03-28T10:08:27.932Z</time></trkpt><trkpt lat="41.8120675" lon="1.7023087"><ele>660.3333333333334</ele><time>2026-03-28T10:08:28.942Z</time></trkpt><trkpt lat="41.8121919" lon="1.7025367"><ele>661.0</ele><time>2026-03-28T10:08:29.934Z</time></trkpt><trkpt lat="41.8123023" lon="1.7027736"><ele>661.0</ele><time>2026-03-28T10:08:30.933Z</time></trkpt><trkpt lat="41.812373" lon="1.7029487"><ele>661.0</ele><time>2026-03-28T10:08:31.95Z</time></trkpt><trkpt lat="41.8124375" lon="1.7030542"><ele>661.0</ele><time>2026-03-28T10:08:32.945Z</time></trkpt><trkpt lat="41.8125315" lon="1.7030908"><ele>661.0</ele><time>2026-03-28T10:08:33.946Z</time></trkpt><trkpt lat="41.8126292" lon="1.7030469"><ele>660.25</ele><time>2026-03-28T10:08:34.939Z</time></trkpt><trkpt lat="41.8127209" lon="1.7029645"><ele>659.5</ele><time>2026-03-28T10:08:35.929Z</time></trkpt><trkpt lat="41.8127798" lon="1.7027917"><ele>658.75</ele><time>2026-03-28T10:08:36.922Z</time></trkpt><trkpt lat="41.8128393" lon="1.7025679"><ele>658.0</ele><time>2026-03-28T10:08:37.919Z</time></trkpt><trkpt lat="41.8129051" lon="1.702369"><ele>658.0</ele><time>2026-03-28T10:08:38.924Z</time></trkpt><trkpt lat="41.813013" lon="1.7022425"><ele>658.0</ele><time>2026-03-28T10:08:39.933Z</time></trkpt><trkpt lat="41.8131551" lon="1.7021665"><ele>658.0</ele><time>2026-03-28T10:08:40.943Z</time></trkpt><trkpt lat="41.813342" lon="1.7020963"><ele>658.6666666666667</ele><time>2026-03-28T10:08:41.947Z</time></trkpt><trkpt lat="41.8135324" lon="1.7019621"><ele>659.3333333333334</ele><time>2026-03-28T10:08:42.953Z</time></trkpt><trkpt lat="41.8136858" lon="1.7017983"><ele>660.0</ele><time>2026-03-28T10:08:43.961Z</time></trkpt><trkpt lat="41.8138086" lon="1.7016969"><ele>660.0</ele><time>2026-03-28T10:08:44.96Z</time></trkpt><trkpt lat="41.8139371" lon="1.7016787"><ele>660.0</ele><time>2026-03-28T10:08:45.96Z</time></trkpt><trkpt lat="41.8141032" lon="1.7017184"><ele>660.0</ele><time>2026-03-28T10:08:46.954Z</time></trkpt><trkpt lat="41.8143257" lon="1.7017859"><ele>661.5</ele><time>2026-03-28T10:08:47.959Z</time></trkpt><trkpt lat="41.8145863" lon="1.7018516"><ele>663.0</ele><time>2026-03-28T10:08:48.942Z</time></trkpt><trkpt lat="41.8148472" lon="1.7019317"><ele>670.5</ele><time>2026-03-28T10:08:49.942Z</time></trkpt><trkpt lat="41.8150553" lon="1.7020385"><ele>678.0</ele><time>2026-03-28T10:08:50.945Z</time></trkpt><trkpt lat="41.8152607" lon="1.7021682"><ele>678.0</ele><time>2026-03-28T10:08:51.943Z</time></trkpt><trkpt lat="41.8154647" lon="1.7023173"><ele>678.0</ele><time>2026-03-28T10:08:52.942Z</time></trkpt><trkpt lat="41.8156619" lon="1.7024336"><ele>678.0</ele><time>2026-03-28T10:08:53.941Z</time></trkpt><trkpt lat="41.815881" lon="1.7024879"><ele>680.3333333333334</ele><time>2026-03-28T10:08:54.942Z</time></trkpt><trkpt lat="41.8160695" lon="1.7024971"><ele>682.6666666666667</ele><time>2026-03-28T10:08:55.949Z</time></trkpt><trkpt lat="41.8162303" lon="1.7024611"><ele>685.0</ele><time>2026-03-28T10:08:56.939Z</time></trkpt><trkpt lat="41.8163643" lon="1.7023634"><ele>685.0</ele><time>2026-03-28T10:08:57.948Z</time></trkpt><trkpt lat="41.8164583" lon="1.7022332"><ele>685.0</ele><time>2026-03-28T10:08:58.948Z</time></trkpt><trkpt lat="41.8164988" lon="1.7020686"><ele>685.0</ele><time>2026-03-28T10:08:59.948Z</time></trkpt><trkpt lat="41.8164919" lon="1.7018828"><ele>685.0</ele><time>2026-03-28T10:09:00.957Z</time></trkpt><trkpt lat="41.8164304" lon="1.7016566"><ele>686.0</ele><time>2026-03-28T10:09:01.951Z</time></trkpt><trkpt lat="41.8163681" lon="1.701444"><ele>687.0</ele><time>2026-03-28T10:09:02.948Z</time></trkpt><trkpt lat="41.8163653" lon="1.7012837"><ele>688.0</ele><time>2026-03-28T10:09:03.963Z</time></trkpt><trkpt lat="41.8164302" lon="1.701156"><ele>689.0</ele><time>2026-03-28T10:09:04.95Z</time></trkpt><trkpt lat="41.8165416" lon="1.701041"><ele>689.5</ele><time>2026-03-28T10:09:05.939Z</time></trkpt><trkpt lat="41.8166504" lon="1.7009046"><ele>690.0</ele><time>2026-03-28T10:09:06.946Z</time></trkpt><trkpt lat="41.8167099" lon="1.7007224"><ele>690.5</ele><time>2026-03-28T10:09:07.946Z</time></trkpt><trkpt lat="41.8167124" lon="1.7005509"><ele>691.0</ele><time>2026-03-28T10:09:08.948Z</time></trkpt><trkpt lat="41.8166587" lon="1.7004257"><ele>691.0</ele><time>2026-03-28T10:09:09.948Z</time></trkpt><trkpt lat="41.8165424" lon="1.7003214"><ele>691.0</ele><time>2026-03-28T10:09:10.943Z</time></trkpt><trkpt lat="41.8163857" lon="1.7002415"><ele>691.0</ele><time>2026-03-28T10:09:11.941Z</time></trkpt><trkpt lat="41.8162484" lon="1.7001591"><ele>694.6666666666667</ele><time>2026-03-28T10:09:12.949Z</time></trkpt><trkpt lat="41.8161637" lon="1.7000394"><ele>698.3333333333334</ele><time>2026-03-28T10:09:13.952Z</time></trkpt><trkpt lat="41.8161118" lon="1.6998427"><ele>702.0</ele><time>2026-03-28T10:09:14.955Z</time></trkpt><trkpt lat="41.8160787" lon="1.6995918"><ele>705.0</ele><time>2026-03-28T10:09:15.946Z</time></trkpt><trkpt lat="41.8160862" lon="1.6993545"><ele>708.0</ele><time>2026-03-28T10:09:16.956Z</time></trkpt><trkpt lat="41.8161464" lon="1.6991331"><ele>711.0</ele><time>2026-03-28T10:09:17.95Z</time></trkpt><trkpt lat="41.8162125" lon="1.6988688"><ele>714.0</ele><time>2026-03-28T10:09:18.959Z</time></trkpt><trkpt lat="41.816215" lon="1.6985741"><ele>717.0</ele><time>2026-03-28T10:09:19.937Z</time></trkpt><trkpt lat="41.816217" lon="1.6982342"><ele>717.0</ele><time>2026-03-28T10:09:20.941Z</time></trkpt><trkpt lat="41.8162341" lon="1.6979107"><ele>717.0</ele><time>2026-03-28T10:09:21.949Z</time></trkpt><trkpt lat="41.8162545" lon="1.6976484"><ele>717.0</ele><time>2026-03-28T10:09:22.957Z</time></trkpt><trkpt lat="41.8162321" lon="1.6974364"><ele>719.3333333333334</ele><time>2026-03-28T10:09:23.959Z</time></trkpt><trkpt lat="41.8161556" lon="1.6972676"><ele>721.6666666666667</ele><time>2026-03-28T10:09:24.946Z</time></trkpt><trkpt lat="41.8160295" lon="1.697137"><ele>724.0</ele><time>2026-03-28T10:09:25.951Z</time></trkpt><trkpt lat="41.8158718" lon="1.6970438"><ele>722.3333333333334</ele><time>2026-03-28T10:09:26.943Z</time></trkpt><trkpt lat="41.8157383" lon="1.696945"><ele>720.6666666666666</ele><time>2026-03-28T10:09:27.941Z</time></trkpt><trkpt lat="41.8156647" lon="1.6967544"><ele>719.0</ele><time>2026-03-28T10:09:28.949Z</time></trkpt><trkpt lat="41.8155761" lon="1.6964946"><ele>719.0</ele><time>2026-03-28T10:09:29.929Z</time></trkpt><trkpt lat="41.8154831" lon="1.6961828"><ele>719.0</ele><time>2026-03-28T10:09:30.935Z</time></trkpt><trkpt lat="41.8153612" lon="1.6958324"><ele>723.5</ele><time>2026-03-28T10:09:31.953Z</time></trkpt><trkpt lat="41.8152309" lon="1.695465"><ele>728.0</ele><time>2026-03-28T10:09:32.942Z</time></trkpt><trkpt lat="41.8151251" lon="1.6950995"><ele>728.0</ele><time>2026-03-28T10:09:33.939Z</time></trkpt><trkpt lat="41.8150046" lon="1.6947012"><ele>728.0</ele><time>2026-03-28T10:09:34.945Z</time></trkpt><trkpt lat="41.8149184" lon="1.6942587"><ele>731.0</ele><time>2026-03-28T10:09:35.932Z</time></trkpt><trkpt lat="41.8148305" lon="1.6938019"><ele>734.0</ele><time>2026-03-28T10:09:36.937Z</time></trkpt><trkpt lat="41.8147413" lon="1.6933597"><ele>738.5</ele><time>2026-03-28T10:09:37.939Z</time></trkpt><trkpt lat="41.8146566" lon="1.6929544"><ele>743.0</ele><time>2026-03-28T10:09:38.939Z</time></trkpt><trkpt lat="41.8145895" lon="1.6925608"><ele>746.5</ele><time>2026-03-28T10:09:39.942Z</time></trkpt><trkpt lat="41.8145451" lon="1.6921622"><ele>750.0</ele><time>2026-03-28T10:09:40.934Z</time></trkpt><trkpt lat="41.8145185" lon="1.691788"><ele>753.5</ele><time>2026-03-28T10:09:41.943Z</time></trkpt><trkpt lat="41.8145062" lon="1.6914391"><ele>757.0</ele><time>2026-03-28T10:09:42.943Z</time></trkpt><trkpt lat="41.8145199" lon="1.6911081"><ele>758.3333333333334</ele><time>2026-03-28T10:09:43.942Z</time></trkpt><trkpt lat="41.8145577" lon="1.6908027"><ele>759.6666666666666</ele><time>2026-03-28T10:09:44.936Z</time></trkpt><trkpt lat="41.8145806" lon="1.6905169"><ele>761.0</ele><time>2026-03-28T10:09:45.935Z</time></trkpt><trkpt lat="41.814566" lon="1.6901848"><ele>761.0</ele><time>2026-03-28T10:09:46.945Z</time></trkpt><trkpt lat="41.8145266" lon="1.689791"><ele>761.0</ele><time>2026-03-28T10:09:47.948Z</time></trkpt><trkpt lat="41.8144845" lon="1.6893634"><ele>761.5</ele><time>2026-03-28T10:09:48.938Z</time></trkpt><trkpt lat="41.8144485" lon="1.6889641"><ele>762.0</ele><time>2026-03-28T10:09:49.955Z</time></trkpt><trkpt lat="41.8143912" lon="1.6886301"><ele>759.5</ele><time>2026-03-28T10:09:50.948Z</time></trkpt><trkpt lat="41.8142912" lon="1.6883114"><ele>757.0</ele><time>2026-03-28T10:09:51.943Z</time></trkpt><trkpt lat="41.8141679" lon="1.6879634"><ele>761.0</ele><time>2026-03-28T10:09:52.956Z</time></trkpt><trkpt lat="41.8140666" lon="1.6875725"><ele>765.0</ele><time>2026-03-28T10:09:53.954Z</time></trkpt><trkpt lat="41.8139826" lon="1.6871386"><ele>767.5</ele><time>2026-03-28T10:09:54.95Z</time></trkpt><trkpt lat="41.8138957" lon="1.6866774"><ele>770.0</ele><time>2026-03-28T10:09:55.945Z</time></trkpt><trkpt lat="41.8138069" lon="1.6862101"><ele>770.0</ele><time>2026-03-28T10:09:56.947Z</time></trkpt><trkpt lat="41.8137246" lon="1.6857936"><ele>770.0</ele><time>2026-03-28T10:09:57.944Z</time></trkpt><trkpt lat="41.8136246" lon="1.6854223"><ele>771.0</ele><time>2026-03-28T10:09:58.94Z</time></trkpt><trkpt lat="41.8134916" lon="1.6850271"><ele>772.0</ele><time>2026-03-28T10:09:59.935Z</time></trkpt><trkpt lat="41.8133351" lon="1.6846102"><ele>774.5</ele><time>2026-03-28T10:10:00.949Z</time></trkpt><trkpt lat="41.8131675" lon="1.6841821"><ele>777.0</ele><time>2026-03-28T10:10:01.95Z</time></trkpt><trkpt lat="41.8129944" lon="1.6837354"><ele>777.0</ele><time>2026-03-28T10:10:02.945Z</time></trkpt><trkpt lat="41.8128088" lon="1.683269"><ele>777.0</ele><time>2026-03-28T10:10:03.948Z</time></trkpt><trkpt lat="41.8126175" lon="1.6828284"><ele>780.5</ele><time>2026-03-28T10:10:04.949Z</time></trkpt><trkpt lat="41.8124536" lon="1.6824381"><ele>784.0</ele><time>2026-03-28T10:10:05.953Z</time></trkpt><trkpt lat="41.8123102" lon="1.6821003"><ele>789.0</ele><time>2026-03-28T10:10:06.957Z</time></trkpt><trkpt lat="41.8121942" lon="1.6818088"><ele>794.0</ele><time>2026-03-28T10:10:07.951Z</time></trkpt><trkpt lat="41.8120893" lon="1.6815163"><ele>794.0</ele><time>2026-03-28T10:10:08.951Z</time></trkpt><trkpt lat="41.8120134" lon="1.6811866"><ele>794.0</ele><time>2026-03-28T10:10:09.939Z</time></trkpt><trkpt lat="41.8119416" lon="1.6808571"><ele>798.5</ele><time>2026-03-28T10:10:10.956Z</time></trkpt><trkpt lat="41.811829" lon="1.680552"><ele>803.0</ele><time>2026-03-28T10:10:11.955Z</time></trkpt><trkpt lat="41.8116683" lon="1.6802488"><ele>803.0</ele><time>2026-03-28T10:10:12.942Z</time></trkpt><trkpt lat="41.8115134" lon="1.6799697"><ele>803.0</ele><time>2026-03-28T10:10:13.952Z</time></trkpt><trkpt lat="41.8113982" lon="1.6797306"><ele>803.0</ele><time>2026-03-28T10:10:14.953Z</time></trkpt><trkpt lat="41.8113104" lon="1.679453"><ele>803.0</ele><time>2026-03-28T10:10:15.957Z</time></trkpt><trkpt lat="41.8112408" lon="1.6791138"><ele>808.5</ele><time>2026-03-28T10:10:16.944Z</time></trkpt><trkpt lat="41.8111671" lon="1.678748"><ele>814.0</ele><time>2026-03-28T10:10:17.952Z</time></trkpt><trkpt lat="41.8110899" lon="1.6784376"><ele>815.6666666666666</ele><time>2026-03-28T10:10:18.952Z</time></trkpt><trkpt lat="41.8109971" lon="1.6781678"><ele>817.3333333333333</ele><time>2026-03-28T10:10:19.94Z</time></trkpt><trkpt lat="41.8108614" lon="1.6779286"><ele>819.0</ele><time>2026-03-28T10:10:20.961Z</time></trkpt><trkpt lat="41.8106803" lon="1.6777121"><ele>819.0</ele><time>2026-03-28T10:10:21.939Z</time></trkpt><trkpt lat="41.8104571" lon="1.677498"><ele>819.0</ele><time>2026-03-28T10:10:22.942Z</time></trkpt><trkpt lat="41.8102201" lon="1.6772937"><ele>810.0</ele><time>2026-03-28T10:10:23.947Z</time></trkpt><trkpt lat="41.8100164" lon="1.6771322"><ele>801.0</ele><time>2026-03-28T10:10:24.945Z</time></trkpt><trkpt lat="41.809833" lon="1.6769802"><ele>807.3333333333333</ele><time>2026-03-28T10:10:25.947Z</time></trkpt><trkpt lat="41.8096788" lon="1.6767638"><ele>813.6666666666666</ele><time>2026-03-28T10:10:26.945Z</time></trkpt><trkpt lat="41.8095457" lon="1.676564"><ele>820.0</ele><time>2026-03-28T10:10:27.951Z</time></trkpt><trkpt lat="41.8094361" lon="1.6764064"><ele>820.0</ele><time>2026-03-28T10:10:28.935Z</time></trkpt><trkpt lat="41.8093559" lon="1.6762594"><ele>820.0</ele><time>2026-03-28T10:10:29.949Z</time></trkpt><trkpt lat="41.8092944" lon="1.6761019"><ele>820.0</ele><time>2026-03-28T10:10:30.944Z</time></trkpt><trkpt lat="41.8092173" lon="1.6759116"><ele>820.0</ele><time>2026-03-28T10:10:31.941Z</time></trkpt><trkpt lat="41.8091324" lon="1.6756951"><ele>819.0</ele><time>2026-03-28T10:10:32.934Z</time></trkpt><trkpt lat="41.8090884" lon="1.6754714"><ele>818.0</ele><time>2026-03-28T10:10:33.932Z</time></trkpt><trkpt lat="41.80905" lon="1.6752851"><ele>817.0</ele><time>2026-03-28T10:10:34.933Z</time></trkpt><trkpt lat="41.8090034" lon="1.6751087"><ele>817.0</ele><time>2026-03-28T10:10:35.931Z</time></trkpt><trkpt lat="41.8089633" lon="1.6749462"><ele>817.0</ele><time>2026-03-28T10:10:36.942Z</time></trkpt><trkpt lat="41.8088982" lon="1.6747892"><ele>817.0</ele><time>2026-03-28T10:10:37.929Z</time></trkpt><trkpt lat="41.8088464" lon="1.6745927"><ele>817.0</ele><time>2026-03-28T10:10:38.932Z</time></trkpt><trkpt lat="41.8088064" lon="1.674395"><ele>819.75</ele><time>2026-03-28T10:10:39.937Z</time></trkpt><trkpt lat="41.8087666" lon="1.6741923"><ele>822.5</ele><time>2026-03-28T10:10:40.935Z</time></trkpt><trkpt lat="41.8087194" lon="1.6740053"><ele>825.25</ele><time>2026-03-28T10:10:41.945Z</time></trkpt><trkpt lat="41.8086735" lon="1.6738208"><ele>828.0</ele><time>2026-03-28T10:10:42.94Z</time></trkpt><trkpt lat="41.8086091" lon="1.673632"><ele>830.75</ele><time>2026-03-28T10:10:43.942Z</time></trkpt><trkpt lat="41.8085475" lon="1.6734491"><ele>833.5</ele><time>2026-03-28T10:10:44.943Z</time></trkpt><trkpt lat="41.8084906" lon="1.6732798"><ele>836.25</ele><time>2026-03-28T10:10:45.939Z</time></trkpt><trkpt lat="41.8084298" lon="1.6730953"><ele>839.0</ele><time>2026-03-28T10:10:46.947Z</time></trkpt><trkpt lat="41.8083829" lon="1.6729398"><ele>835.75</ele><time>2026-03-28T10:10:47.955Z</time></trkpt><trkpt lat="41.8083462" lon="1.6727815"><ele>832.5</ele><time>2026-03-28T10:10:48.953Z</time></trkpt><trkpt lat="41.8083089" lon="1.6726242"><ele>829.25</ele><time>2026-03-28T10:10:49.946Z</time></trkpt><trkpt lat="41.8082781" lon="1.6724701"><ele>826.0</ele><time>2026-03-28T10:10:50.956Z</time></trkpt><trkpt lat="41.8082674" lon="1.6723281"><ele>826.0</ele><time>2026-03-28T10:10:51.947Z</time></trkpt><trkpt lat="41.8082683" lon="1.6721687"><ele>826.0</ele><time>2026-03-28T10:10:52.952Z</time></trkpt><trkpt lat="41.8082735" lon="1.6720052"><ele>826.0</ele><time>2026-03-28T10:10:53.952Z</time></trkpt><trkpt lat="41.8082784" lon="1.6718293"><ele>826.0</ele><time>2026-03-28T10:10:54.947Z</time></trkpt><trkpt lat="41.8082728" lon="1.6716428"><ele>827.25</ele><time>2026-03-28T10:10:55.951Z</time></trkpt><trkpt lat="41.808269" lon="1.6714552"><ele>828.5</ele><time>2026-03-28T10:10:56.947Z</time></trkpt><trkpt lat="41.8082722" lon="1.6712543"><ele>829.75</ele><time>2026-03-28T10:10:57.957Z</time></trkpt><trkpt lat="41.8082851" lon="1.6710669"><ele>831.0</ele><time>2026-03-28T10:10:58.957Z</time></trkpt><trkpt lat="41.8083004" lon="1.670866"><ele>831.75</ele><time>2026-03-28T10:10:59.952Z</time></trkpt><trkpt lat="41.8083107" lon="1.6706574"><ele>832.5</ele><time>2026-03-28T10:11:00.948Z</time></trkpt><trkpt lat="41.8083106" lon="1.6704614"><ele>833.25</ele><time>2026-03-28T10:11:01.94Z</time></trkpt><trkpt lat="41.8083054" lon="1.6702892"><ele>834.0</ele><time>2026-03-28T10:11:02.943Z</time></trkpt><trkpt lat="41.8082743" lon="1.6700875"><ele>836.0</ele><time>2026-03-28T10:11:03.942Z</time></trkpt><trkpt lat="41.8082365" lon="1.6699045"><ele>838.0</ele><time>2026-03-28T10:11:04.926Z</time></trkpt><trkpt lat="41.8082063" lon="1.6696869"><ele>840.0</ele><time>2026-03-28T10:11:05.926Z</time></trkpt><trkpt lat="41.8081605" lon="1.6694668"><ele>841.0</ele><time>2026-03-28T10:11:06.931Z</time></trkpt><trkpt lat="41.8081177" lon="1.6692553"><ele>842.0</ele><time>2026-03-28T10:11:07.934Z</time></trkpt><trkpt lat="41.8080657" lon="1.6690496"><ele>843.0</ele><time>2026-03-28T10:11:08.941Z</time></trkpt><trkpt lat="41.8079986" lon="1.6688448"><ele>843.0</ele><time>2026-03-28T10:11:09.953Z</time></trkpt><trkpt lat="41.8079282" lon="1.6686356"><ele>843.0</ele><time>2026-03-28T10:11:10.949Z</time></trkpt><trkpt lat="41.8078354" lon="1.6684146"><ele>843.0</ele><time>2026-03-28T10:11:11.952Z</time></trkpt><trkpt lat="41.8077982" lon="1.6682195"><ele>842.0</ele><time>2026-03-28T10:11:12.954Z</time></trkpt><trkpt lat="41.8077614" lon="1.6680111"><ele>841.0</ele><time>2026-03-28T10:11:13.956Z</time></trkpt><trkpt lat="41.8077378" lon="1.667811"><ele>840.0</ele><time>2026-03-28T10:11:14.96Z</time></trkpt><trkpt lat="41.8077253" lon="1.6676356"><ele>839.0</ele><time>2026-03-28T10:11:15.956Z</time></trkpt><trkpt lat="41.8076957" lon="1.6674887"><ele>836.75</ele><time>2026-03-28T10:11:16.959Z</time></trkpt><trkpt lat="41.8076684" lon="1.6673291"><ele>834.5</ele><time>2026-03-28T10:11:17.966Z</time></trkpt><trkpt lat="41.8076491" lon="1.6671638"><ele>832.25</ele><time>2026-03-28T10:11:18.968Z</time></trkpt><trkpt lat="41.807628" lon="1.6669937"><ele>830.0</ele><time>2026-03-28T10:11:19.969Z</time></trkpt><trkpt lat="41.8075775" lon="1.6668441"><ele>834.75</ele><time>2026-03-28T10:11:20.972Z</time></trkpt><trkpt lat="41.8075053" lon="1.6667171"><ele>839.5</ele><time>2026-03-28T10:11:21.985Z</time></trkpt><trkpt lat="41.8074237" lon="1.6665938"><ele>844.25</ele><time>2026-03-28T10:11:22.975Z</time></trkpt><trkpt lat="41.8073246" lon="1.666462"><ele>849.0</ele><time>2026-03-28T10:11:23.976Z</time></trkpt><trkpt lat="41.8072234" lon="1.6663109"><ele>849.0</ele><time>2026-03-28T10:11:24.968Z</time></trkpt><trkpt lat="41.8071243" lon="1.6661474"><ele>849.0</ele><time>2026-03-28T10:11:25.978Z</time></trkpt><trkpt lat="41.8070258" lon="1.6659878"><ele>849.0</ele><time>2026-03-28T10:11:26.976Z</time></trkpt><trkpt lat="41.8069267" lon="1.6658209"><ele>851.0</ele><time>2026-03-28T10:11:27.97Z</time></trkpt><trkpt lat="41.8068259" lon="1.66565"><ele>853.0</ele><time>2026-03-28T10:11:28.965Z</time></trkpt><trkpt lat="41.8067228" lon="1.6654869"><ele>855.0</ele><time>2026-03-28T10:11:29.968Z</time></trkpt><trkpt lat="41.8066242" lon="1.6653097"><ele>855.75</ele><time>2026-03-28T10:11:30.968Z</time></trkpt><trkpt lat="41.8065437" lon="1.6651493"><ele>856.5</ele><time>2026-03-28T10:11:31.972Z</time></trkpt><trkpt lat="41.8064654" lon="1.6649899"><ele>857.25</ele><time>2026-03-28T10:11:32.971Z</time></trkpt><trkpt lat="41.8064055" lon="1.6648497"><ele>858.0</ele><time>2026-03-28T10:11:33.971Z</time></trkpt><trkpt lat="41.8063574" lon="1.6647163"><ele>858.0</ele><time>2026-03-28T10:11:34.977Z</time></trkpt><trkpt lat="41.8063373" lon="1.6645725"><ele>858.0</ele><time>2026-03-28T10:11:35.977Z</time></trkpt><trkpt lat="41.8063341" lon="1.6644121"><ele>858.0</ele><time>2026-03-28T10:11:36.968Z</time></trkpt><trkpt lat="41.8063384" lon="1.6642389"><ele>858.0</ele><time>2026-03-28T10:11:37.978Z</time></trkpt><trkpt lat="41.8063497" lon="1.6640396"><ele>857.0</ele><time>2026-03-28T10:11:38.968Z</time></trkpt><trkpt lat="41.8063537" lon="1.6638317"><ele>856.0</ele><time>2026-03-28T10:11:39.975Z</time></trkpt><trkpt lat="41.806355" lon="1.6636092"><ele>855.0</ele><time>2026-03-28T10:11:40.978Z</time></trkpt><trkpt lat="41.8063585" lon="1.6633883"><ele>854.5</ele><time>2026-03-28T10:11:41.971Z</time></trkpt><trkpt lat="41.8063654" lon="1.6631971"><ele>854.0</ele><time>2026-03-28T10:11:42.974Z</time></trkpt><trkpt lat="41.8063755" lon="1.6630261"><ele>853.5</ele><time>2026-03-28T10:11:43.973Z</time></trkpt><trkpt lat="41.8063906" lon="1.6628344"><ele>853.0</ele><time>2026-03-28T10:11:44.973Z</time></trkpt><trkpt lat="41.806416" lon="1.6626341"><ele>855.0</ele><time>2026-03-28T10:11:45.967Z</time></trkpt><trkpt lat="41.8064613" lon="1.6624312"><ele>857.0</ele><time>2026-03-28T10:11:46.977Z</time></trkpt><trkpt lat="41.806511" lon="1.6622182"><ele>859.0</ele><time>2026-03-28T10:11:47.974Z</time></trkpt><trkpt lat="41.8065498" lon="1.6619907"><ele>860.6666666666666</ele><time>2026-03-28T10:11:48.971Z</time></trkpt><trkpt lat="41.8065878" lon="1.6617692"><ele>862.3333333333333</ele><time>2026-03-28T10:11:49.968Z</time></trkpt><trkpt lat="41.8066066" lon="1.6615776"><ele>864.0</ele><time>2026-03-28T10:11:50.968Z</time></trkpt><trkpt lat="41.8065982" lon="1.6613811"><ele>864.0</ele><time>2026-03-28T10:11:51.959Z</time></trkpt><trkpt lat="41.8065709" lon="1.6611707"><ele>864.0</ele><time>2026-03-28T10:11:52.985Z</time></trkpt><trkpt lat="41.8065102" lon="1.6609595"><ele>864.0</ele><time>2026-03-28T10:11:53.964Z</time></trkpt><trkpt lat="41.8064444" lon="1.6607358"><ele>866.0</ele><time>2026-03-28T10:11:54.959Z</time></trkpt><trkpt lat="41.806375" lon="1.6605107"><ele>868.0</ele><time>2026-03-28T10:11:55.971Z</time></trkpt><trkpt lat="41.8063257" lon="1.660322"><ele>870.0</ele><time>2026-03-28T10:11:56.959Z</time></trkpt><trkpt lat="41.8062684" lon="1.6601677"><ele>870.0</ele><time>2026-03-28T10:11:57.961Z</time></trkpt><trkpt lat="41.8061838" lon="1.6600056"><ele>870.0</ele><time>2026-03-28T10:11:58.966Z</time></trkpt><trkpt lat="41.8060972" lon="1.6598223"><ele>870.0</ele><time>2026-03-28T10:11:59.974Z</time></trkpt><trkpt lat="41.8059953" lon="1.6596171"><ele>875.0</ele><time>2026-03-28T10:12:00.964Z</time></trkpt><trkpt lat="41.8058797" lon="1.6594151"><ele>880.0</ele><time>2026-03-28T10:12:01.972Z</time></trkpt><trkpt lat="41.8057763" lon="1.6592244"><ele>885.0</ele><time>2026-03-28T10:12:02.959Z</time></trkpt><trkpt lat="41.8056727" lon="1.6590668"><ele>885.0</ele><time>2026-03-28T10:12:03.964Z</time></trkpt><trkpt lat="41.8055724" lon="1.6589115"><ele>885.0</ele><time>2026-03-28T10:12:04.965Z</time></trkpt><trkpt lat="41.805474" lon="1.6587581"><ele>885.0</ele><time>2026-03-28T10:12:05.983Z</time></trkpt><trkpt lat="41.8053977" lon="1.6586241"><ele>885.0</ele><time>2026-03-28T10:12:06.966Z</time></trkpt><trkpt lat="41.8053165" lon="1.6585131"><ele>885.0</ele><time>2026-03-28T10:12:07.965Z</time></trkpt><trkpt lat="41.8052396" lon="1.6584229"><ele>885.0</ele><time>2026-03-28T10:12:08.968Z</time></trkpt><trkpt lat="41.8051452" lon="1.6583042"><ele>885.0</ele><time>2026-03-28T10:12:09.966Z</time></trkpt><trkpt lat="41.805033" lon="1.6581719"><ele>885.0</ele><time>2026-03-28T10:12:10.963Z</time></trkpt><trkpt lat="41.8049173" lon="1.6580209"><ele>885.0</ele><time>2026-03-28T10:12:11.963Z</time></trkpt><trkpt lat="41.8048127" lon="1.6578563"><ele>885.0</ele><time>2026-03-28T10:12:12.962Z</time></trkpt><trkpt lat="41.8047036" lon="1.6576906"><ele>885.0</ele><time>2026-03-28T10:12:13.96Z</time></trkpt><trkpt lat="41.8045923" lon="1.6575412"><ele>884.0</ele><time>2026-03-28T10:12:14.969Z</time></trkpt><trkpt lat="41.8044861" lon="1.6574164"><ele>883.0</ele><time>2026-03-28T10:12:15.966Z</time></trkpt><trkpt lat="41.8043624" lon="1.6572989"><ele>882.0</ele><time>2026-03-28T10:12:16.971Z</time></trkpt><trkpt lat="41.804236" lon="1.6571697"><ele>882.0</ele><time>2026-03-28T10:12:17.972Z</time></trkpt><trkpt lat="41.8041101" lon="1.6570323"><ele>882.0</ele><time>2026-03-28T10:12:18.968Z</time></trkpt><trkpt lat="41.8039843" lon="1.65689"><ele>882.0</ele><time>2026-03-28T10:12:19.961Z</time></trkpt><trkpt lat="41.803867" lon="1.6567624"><ele>880.6666666666667</ele><time>2026-03-28T10:12:20.959Z</time></trkpt><trkpt lat="41.8037366" lon="1.6566337"><ele>879.3333333333334</ele><time>2026-03-28T10:12:21.959Z</time></trkpt><trkpt lat="41.8036188" lon="1.6565038"><ele>878.0</ele><time>2026-03-28T10:12:22.958Z</time></trkpt><trkpt lat="41.8034973" lon="1.6563496"><ele>881.0</ele><time>2026-03-28T10:12:23.963Z</time></trkpt><trkpt lat="41.8034024" lon="1.6562124"><ele>884.0</ele><time>2026-03-28T10:12:24.956Z</time></trkpt><trkpt lat="41.8033001" lon="1.6560522"><ele>887.0</ele><time>2026-03-28T10:12:25.959Z</time></trkpt><trkpt lat="41.803215" lon="1.6558672"><ele>887.0</ele><time>2026-03-28T10:12:26.959Z</time></trkpt><trkpt lat="41.8031389" lon="1.6556769"><ele>887.0</ele><time>2026-03-28T10:12:27.945Z</time></trkpt><trkpt lat="41.8030713" lon="1.6554953"><ele>887.0</ele><time>2026-03-28T10:12:28.949Z</time></trkpt><trkpt lat="41.8030186" lon="1.6553184"><ele>882.6666666666667</ele><time>2026-03-28T10:12:29.949Z</time></trkpt><trkpt lat="41.8029632" lon="1.6551444"><ele>878.3333333333333</ele><time>2026-03-28T10:12:30.956Z</time></trkpt><trkpt lat="41.8028678" lon="1.6549664"><ele>874.0</ele><time>2026-03-28T10:12:31.944Z</time></trkpt><trkpt lat="41.802754" lon="1.6547994"><ele>874.0</ele><time>2026-03-28T10:12:32.95Z</time></trkpt><trkpt lat="41.8026734" lon="1.6546034"><ele>874.0</ele><time>2026-03-28T10:12:33.951Z</time></trkpt><trkpt lat="41.8026093" lon="1.6543855"><ele>874.0</ele><time>2026-03-28T10:12:34.963Z</time></trkpt><trkpt lat="41.8025605" lon="1.6541597"><ele>879.0</ele><time>2026-03-28T10:12:35.96Z</time></trkpt><trkpt lat="41.8025067" lon="1.6539385"><ele>884.0</ele><time>2026-03-28T10:12:36.96Z</time></trkpt><trkpt lat="41.8024357" lon="1.6537162"><ele>889.0</ele><time>2026-03-28T10:12:37.959Z</time></trkpt><trkpt lat="41.8023767" lon="1.6535121"><ele>889.0</ele><time>2026-03-28T10:12:38.965Z</time></trkpt><trkpt lat="41.8023317" lon="1.6533105"><ele>889.0</ele><time>2026-03-28T10:12:39.96Z</time></trkpt><trkpt lat="41.8023013" lon="1.6531353"><ele>889.0</ele><time>2026-03-28T10:12:40.959Z</time></trkpt><trkpt lat="41.8022767" lon="1.6529696"><ele>889.0</ele><time>2026-03-28T10:12:41.966Z</time></trkpt><trkpt lat="41.8022572" lon="1.6528095"><ele>888.25</ele><time>2026-03-28T10:12:42.957Z</time></trkpt><trkpt lat="41.8022467" lon="1.6526571"><ele>887.5</ele><time>2026-03-28T10:12:43.963Z</time></trkpt><trkpt lat="41.8022519" lon="1.652495"><ele>886.75</ele><time>2026-03-28T10:12:44.957Z</time></trkpt><trkpt lat="41.8022613" lon="1.6523101"><ele>886.0</ele><time>2026-03-28T10:12:45.955Z</time></trkpt><trkpt lat="41.8022767" lon="1.652117"><ele>886.0</ele><time>2026-03-28T10:12:46.959Z</time></trkpt><trkpt lat="41.8022814" lon="1.6519062"><ele>886.0</ele><time>2026-03-28T10:12:47.967Z</time></trkpt><trkpt lat="41.8022709" lon="1.651689"><ele>886.0</ele><time>2026-03-28T10:12:48.961Z</time></trkpt><trkpt lat="41.8022573" lon="1.6514873"><ele>886.0</ele><time>2026-03-28T10:12:49.961Z</time></trkpt><trkpt lat="41.8022703" lon="1.6512906"><ele>886.0</ele><time>2026-03-28T10:12:50.959Z</time></trkpt><trkpt lat="41.8022895" lon="1.6510846"><ele>886.0</ele><time>2026-03-28T10:12:51.96Z</time></trkpt><trkpt lat="41.8023141" lon="1.6508795"><ele>886.6666666666666</ele><time>2026-03-28T10:12:52.958Z</time></trkpt><trkpt lat="41.8023404" lon="1.6506809"><ele>887.3333333333333</ele><time>2026-03-28T10:12:53.951Z</time></trkpt><trkpt lat="41.8023696" lon="1.6504784"><ele>888.0</ele><time>2026-03-28T10:12:54.964Z</time></trkpt><trkpt lat="41.8023811" lon="1.6502816"><ele>888.25</ele><time>2026-03-28T10:12:55.957Z</time></trkpt><trkpt lat="41.8023895" lon="1.6500945"><ele>888.5</ele><time>2026-03-28T10:12:56.956Z</time></trkpt><trkpt lat="41.8023814" lon="1.6499162"><ele>888.75</ele><time>2026-03-28T10:12:57.954Z</time></trkpt><trkpt lat="41.8023492" lon="1.649737"><ele>889.0</ele><time>2026-03-28T10:12:58.959Z</time></trkpt><trkpt lat="41.8022999" lon="1.6495499"><ele>889.5</ele><time>2026-03-28T10:12:59.959Z</time></trkpt><trkpt lat="41.80224" lon="1.6493584"><ele>890.0</ele><time>2026-03-28T10:13:00.953Z</time></trkpt><trkpt lat="41.802162" lon="1.6491892"><ele>890.5</ele><time>2026-03-28T10:13:01.958Z</time></trkpt><trkpt lat="41.8020691" lon="1.6490453"><ele>891.0</ele><time>2026-03-28T10:13:02.95Z</time></trkpt><trkpt lat="41.801959" lon="1.648932"><ele>891.0</ele><time>2026-03-28T10:13:03.964Z</time></trkpt><trkpt lat="41.8018414" lon="1.6488675"><ele>891.0</ele><time>2026-03-28T10:13:04.956Z</time></trkpt><trkpt lat="41.8017291" lon="1.6488073"><ele>891.0</ele><time>2026-03-28T10:13:05.962Z</time></trkpt><trkpt lat="41.8016213" lon="1.6487194"><ele>891.0</ele><time>2026-03-28T10:13:06.961Z</time></trkpt><trkpt lat="41.8015175" lon="1.6486036"><ele>888.25</ele><time>2026-03-28T10:13:07.962Z</time></trkpt><trkpt lat="41.8014175" lon="1.6484792"><ele>885.5</ele><time>2026-03-28T10:13:08.959Z</time></trkpt><trkpt lat="41.8013233" lon="1.6483467"><ele>882.75</ele><time>2026-03-28T10:13:09.959Z</time></trkpt><trkpt lat="41.8012348" lon="1.6482167"><ele>880.0</ele><time>2026-03-28T10:13:10.956Z</time></trkpt><trkpt lat="41.801152" lon="1.6480942"><ele>880.0</ele><time>2026-03-28T10:13:11.956Z</time></trkpt><trkpt lat="41.8010695" lon="1.6479878"><ele>880.0</ele><time>2026-03-28T10:13:12.948Z</time></trkpt><trkpt lat="41.8009776" lon="1.647897"><ele>880.0</ele><time>2026-03-28T10:13:13.944Z</time></trkpt><trkpt lat="41.800864" lon="1.6478194"><ele>880.0</ele><time>2026-03-28T10:13:14.943Z</time></trkpt><trkpt lat="41.8007355" lon="1.6477449"><ele>877.0</ele><time>2026-03-28T10:13:15.946Z</time></trkpt><trkpt lat="41.8006094" lon="1.6476712"><ele>874.0</ele><time>2026-03-28T10:13:16.945Z</time></trkpt><trkpt lat="41.8005061" lon="1.6475805"><ele>871.0</ele><time>2026-03-28T10:13:17.944Z</time></trkpt><trkpt lat="41.8004198" lon="1.6474659"><ele>868.0</ele><time>2026-03-28T10:13:18.945Z</time></trkpt><trkpt lat="41.8003456" lon="1.6473302"><ele>868.0</ele><time>2026-03-28T10:13:19.947Z</time></trkpt><trkpt lat="41.8002918" lon="1.6471477"><ele>868.0</ele><time>2026-03-28T10:13:20.949Z</time></trkpt><trkpt lat="41.8002348" lon="1.6469492"><ele>868.0</ele><time>2026-03-28T10:13:21.947Z</time></trkpt><trkpt lat="41.8001507" lon="1.6467282"><ele>867.3333333333333</ele><time>2026-03-28T10:13:22.947Z</time></trkpt><trkpt lat="41.8000636" lon="1.646516"><ele>866.6666666666667</ele><time>2026-03-28T10:13:23.949Z</time></trkpt><trkpt lat="41.8000006" lon="1.6463223"><ele>866.0</ele><time>2026-03-28T10:13:24.951Z</time></trkpt><trkpt lat="41.7999497" lon="1.6461122"><ele>866.0</ele><time>2026-03-28T10:13:25.963Z</time></trkpt><trkpt lat="41.7999113" lon="1.6459059"><ele>866.0</ele><time>2026-03-28T10:13:26.958Z</time></trkpt><trkpt lat="41.7998793" lon="1.645699"><ele>866.0</ele><time>2026-03-28T10:13:27.955Z</time></trkpt><trkpt lat="41.7998378" lon="1.6454748"><ele>860.6666666666667</ele><time>2026-03-28T10:13:28.957Z</time></trkpt><trkpt lat="41.7997875" lon="1.6452464"><ele>855.3333333333333</ele><time>2026-03-28T10:13:29.955Z</time></trkpt><trkpt lat="41.7997481" lon="1.645013"><ele>850.0</ele><time>2026-03-28T10:13:30.952Z</time></trkpt><trkpt lat="41.7997118" lon="1.6447759"><ele>850.0</ele><time>2026-03-28T10:13:31.959Z</time></trkpt><trkpt lat="41.7996828" lon="1.644548"><ele>850.0</ele><time>2026-03-28T10:13:32.96Z</time></trkpt><trkpt lat="41.7996416" lon="1.6443347"><ele>850.0</ele><time>2026-03-28T10:13:33.957Z</time></trkpt><trkpt lat="41.799601" lon="1.6441356"><ele>849.3333333333333</ele><time>2026-03-28T10:13:34.949Z</time></trkpt><trkpt lat="41.799581" lon="1.6439298"><ele>848.6666666666667</ele><time>2026-03-28T10:13:35.944Z</time></trkpt><trkpt lat="41.7995793" lon="1.643699"><ele>848.0</ele><time>2026-03-28T10:13:36.945Z</time></trkpt><trkpt lat="41.7996029" lon="1.6434513"><ele>848.0</ele><time>2026-03-28T10:13:37.951Z</time></trkpt><trkpt lat="41.7996143" lon="1.6431987"><ele>848.0</ele><time>2026-03-28T10:13:38.95Z</time></trkpt><trkpt lat="41.7996189" lon="1.6429435"><ele>848.0</ele><time>2026-03-28T10:13:39.945Z</time></trkpt><trkpt lat="41.7996198" lon="1.6427187"><ele>851.0</ele><time>2026-03-28T10:13:40.946Z</time></trkpt><trkpt lat="41.7996311" lon="1.6425251"><ele>854.0</ele><time>2026-03-28T10:13:41.947Z</time></trkpt><trkpt lat="41.7996846" lon="1.6423317"><ele>857.0</ele><time>2026-03-28T10:13:42.956Z</time></trkpt><trkpt lat="41.7997532" lon="1.6421313"><ele>868.0</ele><time>2026-03-28T10:13:43.95Z</time></trkpt><trkpt lat="41.7989342" lon="1.6375966"><ele>868.0</ele><time>2026-03-28T10:14:08.971Z</time></trkpt><trkpt lat="41.7992846" lon="1.6330708"><ele>880.0</ele><time>2026-03-28T10:14:35.962Z</time></trkpt><trkpt lat="41.7985619" lon="1.6295693"><ele>879.0</ele><time>2026-03-28T10:14:58.96Z</time></trkpt><trkpt lat="41.7971423" lon="1.6275155"><ele>894.0</ele><time>2026-03-28T10:15:23.948Z</time></trkpt><trkpt lat="41.7961027" lon="1.6241115"><ele>890.0</ele><time>2026-03-28T10:15:49.947Z</time></trkpt><trkpt lat="41.7965741" lon="1.6214301"><ele>882.0</ele><time>2026-03-28T10:16:04.971Z</time></trkpt><trkpt lat="41.7967185" lon="1.6195981"><ele>854.0</ele><time>2026-03-28T10:16:19.967Z</time></trkpt><trkpt lat="41.7978632" lon="1.6173059"><ele>813.0</ele><time>2026-03-28T10:16:35.961Z</time></trkpt><trkpt lat="41.7986835" lon="1.6137177"><ele>800.0</ele><time>2026-03-28T10:17:02.959Z</time></trkpt><trkpt lat="41.7992738" lon="1.6091052"><ele>769.0</ele><time>2026-03-28T10:17:47.956Z</time></trkpt><trkpt lat="41.7994687" lon="1.6045909"><ele>762.0</ele><time>2026-03-28T10:18:29.964Z</time></trkpt><trkpt lat="41.8014605" lon="1.6035082"><ele>732.0</ele><time>2026-03-28T10:18:47.981Z</time></trkpt><trkpt lat="41.8015499" lon="1.5997101"><ele>704.0</ele><time>2026-03-28T10:19:12.959Z</time></trkpt><trkpt lat="41.8038156" lon="1.5963617"><ele>698.0</ele><time>2026-03-28T10:19:35.974Z</time></trkpt><trkpt lat="41.8079177" lon="1.5956287"><ele>713.0</ele><time>2026-03-28T10:20:22.958Z</time></trkpt><trkpt lat="41.8114024" lon="1.5946669"><ele>750.0</ele><time>2026-03-28T10:20:59.941Z</time></trkpt><trkpt lat="41.8136328" lon="1.5992406"><ele>759.0</ele><time>2026-03-28T10:21:27.947Z</time></trkpt><trkpt lat="41.8157525" lon="1.6039152"><ele>753.0</ele><time>2026-03-28T10:21:49.967Z</time></trkpt><trkpt lat="41.816359" lon="1.6074982"><ele>738.0</ele><time>2026-03-28T10:22:03.956Z</time></trkpt><trkpt lat="41.818485" lon="1.6121998"><ele>726.0</ele><time>2026-03-28T10:22:25.959Z</time></trkpt><trkpt lat="41.8205853" lon="1.6130575"><ele>705.0</ele><time>2026-03-28T10:22:39.94Z</time></trkpt><trkpt lat="41.824069" lon="1.6137394"><ele>670.0</ele><time>2026-03-28T10:22:57.986Z</time></trkpt><trkpt lat="41.8270639" lon="1.6159379"><ele>638.0</ele><time>2026-03-28T10:23:25.978Z</time></trkpt><trkpt lat="41.8297758" lon="1.615531"><ele>607.0</ele><time>2026-03-28T10:23:49.958Z</time></trkpt><trkpt lat="41.832082" lon="1.6174785"><ele>592.0</ele><time>2026-03-28T10:24:07.973Z</time></trkpt><trkpt lat="41.8346708" lon="1.6185825"><ele>580.0</ele><time>2026-03-28T10:24:22.976Z</time></trkpt><trkpt lat="41.8375511" lon="1.6225975"><ele>551.0</ele><time>2026-03-28T10:24:46.952Z</time></trkpt><trkpt lat="41.8393589" lon="1.6275723"><ele>503.0</ele><time>2026-03-28T10:25:15.968Z</time></trkpt><trkpt lat="41.8417934" lon="1.6295855"><ele>502.0</ele><time>2026-03-28T10:25:33.948Z</time></trkpt><trkpt lat="41.8417967" lon="1.6249884"><ele>514.0</ele><time>2026-03-28T10:26:22.933Z</time></trkpt><trkpt lat="41.8414924" lon="1.6184041"><ele>512.0</ele><time>2026-03-28T10:26:44.959Z</time></trkpt><trkpt lat="41.8398254" lon="1.6144356"><ele>542.0</ele><time>2026-03-28T10:26:59.951Z</time></trkpt><trkpt lat="41.8379085" lon="1.6083807"><ele>533.0</ele><time>2026-03-28T10:27:17.95Z</time></trkpt><trkpt lat="41.834757" lon="1.6036486"><ele>544.0</ele><time>2026-03-28T10:27:41.936Z</time></trkpt><trkpt lat="41.8331975" lon="1.5995072"><ele>556.0</ele><time>2026-03-28T10:27:56.937Z</time></trkpt><trkpt lat="41.8296074" lon="1.5950834"><ele>567.0</ele><time>2026-03-28T10:28:15.947Z</time></trkpt><trkpt lat="41.827089" lon="1.589541"><ele>570.0</ele><time>2026-03-28T10:28:41.936Z</time></trkpt><trkpt lat="41.82405" lon="1.5857418"><ele>616.0</ele><time>2026-03-28T10:28:55.932Z</time></trkpt><trkpt lat="41.8211242" lon="1.5792492"><ele>621.0</ele><time>2026-03-28T10:29:19.945Z</time></trkpt><trkpt lat="41.8187472" lon="1.5716038"><ele>636.0</ele><time>2026-03-28T10:29:43.944Z</time></trkpt><trkpt lat="41.819975" lon="1.5644711"><ele>679.0</ele><time>2026-03-28T10:30:04.939Z</time></trkpt><trkpt lat="41.8171121" lon="1.559013"><ele>693.0</ele><time>2026-03-28T10:30:28.956Z</time></trkpt><trkpt lat="41.8136691" lon="1.552228"><ele>724.0</ele><time>2026-03-28T10:30:50.948Z</time></trkpt><trkpt lat="41.8163151" lon="1.5469177"><ele>739.0</ele><time>2026-03-28T10:31:28.951Z</time></trkpt><trkpt lat="41.8194194" lon="1.5451223"><ele>748.0</ele><time>2026-03-28T10:31:52.964Z</time></trkpt><trkpt lat="41.8216501" lon="1.5429309"><ele>763.0</ele><time>2026-03-28T10:32:03.962Z</time></trkpt><trkpt lat="41.8259398" lon="1.5402559"><ele>809.0</ele><time>2026-03-28T10:32:22.954Z</time></trkpt><trkpt lat="41.830852" lon="1.5369033"><ele>849.0</ele><time>2026-03-28T10:32:49.949Z</time></trkpt><trkpt lat="41.8336523" lon="1.5396641"><ele>891.0</ele><time>2026-03-28T10:33:16.947Z</time></trkpt><trkpt lat="41.8363744" lon="1.5388765"><ele>893.0</ele><time>2026-03-28T10:33:31.939Z</time></trkpt><trkpt lat="41.8396659" lon="1.5421619"><ele>894.0</ele><time>2026-03-28T10:58:19.977Z</time></trkpt><trkpt lat="41.8416115" lon="1.5430656"><ele>869.0</ele><time>2026-03-28T10:58:37.972Z</time></trkpt><trkpt lat="41.8437645" lon="1.5452834"><ele>845.0</ele><time>2026-03-28T10:58:56.971Z</time></trkpt><trkpt lat="41.8460471" lon="1.5472468"><ele>833.0</ele><time>2026-03-28T10:59:08.964Z</time></trkpt><trkpt lat="41.8500094" lon="1.5492484"><ele>829.0</ele><time>2026-03-28T10:59:28.969Z</time></trkpt><trkpt lat="41.8542333" lon="1.5489764"><ele>810.0</ele><time>2026-03-28T10:59:49.964Z</time></trkpt><trkpt lat="41.8574203" lon="1.5509322"><ele>802.0</ele><time>2026-03-28T11:00:05.961Z</time></trkpt><trkpt lat="41.8601276" lon="1.553796"><ele>802.0</ele><time>2026-03-28T11:00:34.967Z</time></trkpt><trkpt lat="41.8637212" lon="1.556327"><ele>794.0</ele><time>2026-03-28T11:00:52.956Z</time></trkpt><trkpt lat="41.8677003" lon="1.5549363"><ele>774.0</ele><time>2026-03-28T11:01:11.956Z</time></trkpt><trkpt lat="41.8718165" lon="1.55546"><ele>757.0</ele><time>2026-03-28T11:01:29.961Z</time></trkpt><trkpt lat="41.8749946" lon="1.5576125"><ele>747.0</ele><time>2026-03-28T11:01:46.945Z</time></trkpt><trkpt lat="41.8783802" lon="1.5622236"><ele>736.0</ele><time>2026-03-28T11:02:12.941Z</time></trkpt><trkpt lat="41.8824539" lon="1.5615078"><ele>725.0</ele><time>2026-03-28T11:02:31.95Z</time></trkpt><trkpt lat="41.8858348" lon="1.5623325"><ele>729.0</ele><time>2026-03-28T11:02:48.95Z</time></trkpt><trkpt lat="41.8898248" lon="1.5634871"><ele>740.0</ele><time>2026-03-28T11:03:09.94Z</time></trkpt><trkpt lat="41.8924621" lon="1.5622517"><ele>785.0</ele><time>2026-03-28T11:03:46.963Z</time></trkpt><trkpt lat="41.896429" lon="1.5610501"><ele>807.0</ele><time>2026-03-28T11:04:03.952Z</time></trkpt><trkpt lat="41.8947939" lon="1.5557838"><ele>805.0</ele><time>2026-03-28T11:04:23.958Z</time></trkpt><trkpt lat="41.8946626" lon="1.5494397"><ele>795.0</ele><time>2026-03-28T11:04:40.949Z</time></trkpt><trkpt lat="41.8962122" lon="1.5433085"><ele>785.0</ele><time>2026-03-28T11:04:58.928Z</time></trkpt><trkpt lat="41.8983765" lon="1.5385142"><ele>811.0</ele><time>2026-03-28T11:05:13.958Z</time></trkpt><trkpt lat="41.9034471" lon="1.5357752"><ele>824.0</ele><time>2026-03-28T11:05:37.931Z</time></trkpt><trkpt lat="41.9071592" lon="1.5334654"><ele>837.0</ele><time>2026-03-28T11:05:55.933Z</time></trkpt><trkpt lat="41.9085492" lon="1.5273135"><ele>842.0</ele><time>2026-03-28T11:06:11.93Z</time></trkpt><trkpt lat="41.9101608" lon="1.5200589"><ele>850.0</ele><time>2026-03-28T11:06:31.938Z</time></trkpt><trkpt lat="41.912682" lon="1.514701"><ele>860.0</ele><time>2026-03-28T11:06:48.93Z</time></trkpt><trkpt lat="41.9139008" lon="1.5073389"><ele>858.0</ele><time>2026-03-28T11:07:10.943Z</time></trkpt><trkpt lat="41.9172629" lon="1.5027323"><ele>851.0</ele><time>2026-03-28T11:07:27.941Z</time></trkpt><trkpt lat="41.921507" lon="1.4980566"><ele>844.0</ele><time>2026-03-28T11:07:51.94Z</time></trkpt><trkpt lat="41.925458" lon="1.495919"><ele>835.0</ele><time>2026-03-28T11:08:11.932Z</time></trkpt><trkpt lat="41.9295088" lon="1.4952867"><ele>824.0</ele><time>2026-03-28T11:08:32.953Z</time></trkpt><trkpt lat="41.9337049" lon="1.4965847"><ele>824.0</ele><time>2026-03-28T11:08:48.953Z</time></trkpt><trkpt lat="41.9391425" lon="1.4967558"><ele>820.0</ele><time>2026-03-28T11:09:07.945Z</time></trkpt><trkpt lat="41.9436399" lon="1.4925966"><ele>814.0</ele><time>2026-03-28T11:09:27.951Z</time></trkpt><trkpt lat="41.9484113" lon="1.4930676"><ele>803.0</ele><time>2026-03-28T11:10:27.947Z</time></trkpt><trkpt lat="41.9523524" lon="1.4949772"><ele>767.0</ele><time>2026-03-28T11:10:44.939Z</time></trkpt><trkpt lat="41.9573045" lon="1.4950039"><ele>733.0</ele><time>2026-03-28T11:11:02.945Z</time></trkpt><trkpt lat="41.961149" lon="1.5002262"><ele>716.0</ele><time>2026-03-28T11:11:19.945Z</time></trkpt><trkpt lat="41.9650513" lon="1.5055787"><ele>721.0</ele><time>2026-03-28T11:11:37.934Z</time></trkpt><trkpt lat="41.9675698" lon="1.5111453"><ele>696.0</ele><time>2026-03-28T11:11:59.948Z</time></trkpt><trkpt lat="41.9711625" lon="1.5140268"><ele>679.0</ele><time>2026-03-28T11:12:19.952Z</time></trkpt><trkpt lat="41.975104" lon="1.5158969"><ele>694.0</ele><time>2026-03-28T11:12:39.951Z</time></trkpt><trkpt lat="41.9785984" lon="1.5159253"><ele>674.0</ele><time>2026-03-28T11:12:53.936Z</time></trkpt><trkpt lat="41.9824911" lon="1.5142679"><ele>677.0</ele><time>2026-03-28T11:13:13.945Z</time></trkpt><trkpt lat="41.9854659" lon="1.5119469"><ele>696.0</ele><time>2026-03-28T11:13:30.937Z</time></trkpt><trkpt lat="41.989518" lon="1.5118063"><ele>688.0</ele><time>2026-03-28T11:16:37.919Z</time></trkpt><trkpt lat="41.9908846" lon="1.5115857"><ele>685.0</ele><time>2026-03-28T11:17:00.92Z</time></trkpt><trkpt lat="41.9924961" lon="1.5133448"><ele>682.0</ele><time>2026-03-28T11:17:40.921Z</time></trkpt><trkpt lat="41.9933042" lon="1.5148707"><ele>685.0</ele><time>2026-03-28T11:18:16.923Z</time></trkpt><trkpt lat="41.9936432" lon="1.5176269"><ele>669.0</ele><time>2026-03-28T11:18:45.919Z</time></trkpt><trkpt lat="41.9946609" lon="1.5199824"><ele>663.0</ele><time>2026-03-28T11:19:23.912Z</time></trkpt><trkpt lat="41.9959957" lon="1.5194431"><ele>667.0</ele><time>2026-03-28T11:19:43.915Z</time></trkpt><trkpt lat="41.99649" lon="1.5167222"><ele>674.0</ele><time>2026-03-28T11:20:02.911Z</time></trkpt><trkpt lat="41.9973458" lon="1.5131182"><ele>679.0</ele><time>2026-03-28T11:20:19.93Z</time></trkpt><trkpt lat="41.9998456" lon="1.5098146"><ele>701.0</ele><time>2026-03-28T11:20:36.915Z</time></trkpt><trkpt lat="42.0002715" lon="1.504106"><ele>700.0</ele><time>2026-03-28T11:20:52.927Z</time></trkpt><trkpt lat="42.0039749" lon="1.4998023"><ele>717.0</ele><time>2026-03-28T11:21:16.92Z</time></trkpt><trkpt lat="42.007731" lon="1.4943464"><ele>729.0</ele><time>2026-03-28T11:21:38.907Z</time></trkpt><trkpt lat="42.0110189" lon="1.4897471"><ele>750.0</ele><time>2026-03-28T11:22:06.919Z</time></trkpt><trkpt lat="42.0127043" lon="1.4882109"><ele>757.0</ele><time>2026-03-28T11:22:34.912Z</time></trkpt><trkpt lat="42.0146896" lon="1.4872006"><ele>775.0</ele><time>2026-03-28T11:22:55.913Z</time></trkpt><trkpt lat="42.0173847" lon="1.4867273"><ele>795.0</ele><time>2026-03-28T11:23:08.909Z</time></trkpt><trkpt lat="42.0206322" lon="1.4849156"><ele>818.0</ele><time>2026-03-28T11:23:25.927Z</time></trkpt><trkpt lat="42.023218" lon="1.4880986"><ele>822.0</ele><time>2026-03-28T11:23:41.915Z</time></trkpt><trkpt lat="42.0279123" lon="1.4866605"><ele>818.0</ele><time>2026-03-28T11:24:01.932Z</time></trkpt><trkpt lat="42.0321953" lon="1.4833344"><ele>819.0</ele><time>2026-03-28T11:24:19.912Z</time></trkpt><trkpt lat="42.0362283" lon="1.4816522"><ele>828.0</ele><time>2026-03-28T11:24:36.915Z</time></trkpt><trkpt lat="42.0396075" lon="1.4811738"><ele>844.0</ele><time>2026-03-28T11:24:54.925Z</time></trkpt><trkpt lat="42.0450201" lon="1.4814921"><ele>835.0</ele><time>2026-03-28T11:25:20.907Z</time></trkpt><trkpt lat="42.0480676" lon="1.4773916"><ele>801.0</ele><time>2026-03-28T11:25:38.916Z</time></trkpt><trkpt lat="42.0523197" lon="1.4746037"><ele>761.0</ele><time>2026-03-28T11:26:07.907Z</time></trkpt><trkpt lat="42.0528273" lon="1.4700121"><ele>743.0</ele><time>2026-03-28T11:26:30.914Z</time></trkpt><trkpt lat="42.0550566" lon="1.4665105"><ele>701.0</ele><time>2026-03-28T11:26:48.919Z</time></trkpt><trkpt lat="42.0591533" lon="1.4653868"><ele>666.0</ele><time>2026-03-28T11:27:12.921Z</time></trkpt><trkpt lat="42.0618313" lon="1.4624875"><ele>657.0</ele><time>2026-03-28T11:27:48.924Z</time></trkpt><trkpt lat="42.0622985" lon="1.457874"><ele>654.0</ele><time>2026-03-28T11:28:03.908Z</time></trkpt><trkpt lat="42.0621602" lon="1.4523588"><ele>694.0</ele><time>2026-03-28T11:28:53.927Z</time></trkpt><trkpt lat="42.0652186" lon="1.4497583"><ele>731.0</ele><time>2026-03-28T11:29:18.915Z</time></trkpt><trkpt lat="42.0699947" lon="1.4483071"><ele>716.0</ele><time>2026-03-28T11:29:41.925Z</time></trkpt><trkpt lat="42.0718103" lon="1.4444553"><ele>681.0</ele><time>2026-03-28T11:29:59.919Z</time></trkpt><trkpt lat="42.0729808" lon="1.4381778"><ele>646.0</ele><time>2026-03-28T11:30:29.916Z</time></trkpt><trkpt lat="42.0705054" lon="1.4367205"><ele>643.0</ele><time>2026-03-28T11:30:52.91Z</time></trkpt><trkpt lat="42.0732191" lon="1.4357523"><ele>670.0</ele><time>2026-03-28T11:31:18.91Z</time></trkpt><trkpt lat="42.0748761" lon="1.4326377"><ele>709.0</ele><time>2026-03-28T11:32:28.911Z</time></trkpt><trkpt lat="42.0777362" lon="1.4300704"><ele>731.0</ele><time>2026-03-28T11:32:58.916Z</time></trkpt><trkpt lat="42.0803457" lon="1.426913"><ele>751.0</ele><time>2026-03-28T11:33:14.913Z</time></trkpt><trkpt lat="42.0830702" lon="1.4226156"><ele>794.0</ele><time>2026-03-28T11:33:33.925Z</time></trkpt><trkpt lat="42.0850035" lon="1.4165987"><ele>860.0</ele><time>2026-03-28T11:33:51.919Z</time></trkpt><trkpt lat="42.086182" lon="1.4103198"><ele>885.0</ele><time>2026-03-28T11:34:31.917Z</time></trkpt><trkpt lat="42.0845646" lon="1.4063391"><ele>926.0</ele><time>2026-03-28T11:34:58.907Z</time></trkpt><trkpt lat="42.0867513" lon="1.4027162"><ele>885.0</ele><time>2026-03-28T11:35:27.917Z</time></trkpt><trkpt lat="42.0845646" lon="1.4063391"><ele>926.0</ele><time>2026-03-28T11:34:58.907Z</time></trkpt><trkpt lat="42.0867513" lon="1.4027162"><ele>956.0</ele><time>2026-03-28T11:35:27.917Z</time></trkpt><trkpt lat="42.0900789" lon="1.4017162"><ele>992.0</ele><time>2026-03-28T11:35:47.907Z</time></trkpt><trkpt lat="42.0943054" lon="1.4007182"><ele>1026.0</ele><time>2026-03-28T11:36:07.912Z</time></trkpt><trkpt lat="42.0995128" lon="1.3987314"><ele>1076.0</ele><time>2026-03-28T11:36:29.931Z</time></trkpt><trkpt lat="42.1032191" lon="1.3964767"><ele>1137.0</ele><time>2026-03-28T11:36:56.918Z</time></trkpt><trkpt lat="42.1058073" lon="1.3920057"><ele>1176.0</ele><time>2026-03-28T11:37:09.922Z</time></trkpt><trkpt lat="42.1091505" lon="1.3851264"><ele>1183.0</ele><time>2026-03-28T11:37:39.923Z</time></trkpt><trkpt lat="42.1138466" lon="1.383174"><ele>1203.0</ele><time>2026-03-28T11:38:04.925Z</time></trkpt><trkpt lat="42.1179538" lon="1.3796849"><ele>1217.0</ele><time>2026-03-28T11:38:25.928Z</time></trkpt><trkpt lat="42.1227188" lon="1.3810081"><ele>1242.0</ele><time>2026-03-28T11:39:06.929Z</time></trkpt><trkpt lat="42.1258277" lon="1.3830075"><ele>1223.0</ele><time>2026-03-28T11:39:32.939Z</time></trkpt><trkpt lat="42.1258494" lon="1.3858871"><ele>1197.0</ele><time>2026-03-28T11:39:43.918Z</time></trkpt><trkpt lat="42.129316" lon="1.38139"><ele>1212.0</ele><time>2026-03-28T11:40:32.911Z</time></trkpt><trkpt lat="42.1317312" lon="1.3830698"><ele>1126.0</ele><time>2026-03-28T11:40:50.914Z</time></trkpt><trkpt lat="42.1342235" lon="1.3876064"><ele>1079.0</ele><time>2026-03-28T11:41:44.911Z</time></trkpt><trkpt lat="42.1376666" lon="1.3871937"><ele>1087.0</ele><time>2026-03-28T11:42:07.908Z</time></trkpt><trkpt lat="42.14092" lon="1.3855514"><ele>1090.0</ele><time>2026-03-28T11:42:25.933Z</time></trkpt><trkpt lat="42.1402717" lon="1.3900923"><ele>1091.0</ele><time>2026-03-28T11:42:54.913Z</time></trkpt><trkpt lat="42.1374316" lon="1.3905882"><ele>1023.0</ele><time>2026-03-28T11:43:26.906Z</time></trkpt><trkpt lat="42.1340378" lon="1.3937675"><ele>1050.0</ele><time>2026-03-28T11:43:51.912Z</time></trkpt><trkpt lat="42.1344835" lon="1.398312"><ele>1081.0</ele><time>2026-03-28T11:44:12.914Z</time></trkpt><trkpt lat="42.1373952" lon="1.4006326"><ele>1090.0</ele><time>2026-03-28T11:44:34.923Z</time></trkpt><trkpt lat="42.1400401" lon="1.4049663"><ele>1106.0</ele><time>2026-03-28T11:45:09.914Z</time></trkpt><trkpt lat="42.140064" lon="1.4087819"><ele>1105.0</ele><time>2026-03-28T11:45:19.915Z</time></trkpt><trkpt lat="42.1378705" lon="1.414482"><ele>1130.0</ele><time>2026-03-28T11:45:59.914Z</time></trkpt><trkpt lat="42.138011" lon="1.4183106"><ele>1155.0</ele><time>2026-03-28T11:46:16.909Z</time></trkpt><trkpt lat="42.1364335" lon="1.4233703"><ele>1178.0</ele><time>2026-03-28T11:46:53.918Z</time></trkpt><trkpt lat="42.1377359" lon="1.4277636"><ele>1203.0</ele><time>2026-03-28T11:47:15.907Z</time></trkpt><trkpt lat="42.1384659" lon="1.4333734"><ele>1220.0</ele><time>2026-03-28T11:47:44.915Z</time></trkpt><trkpt lat="42.1375863" lon="1.439672"><ele>1249.0</ele><time>2026-03-28T11:48:10.924Z</time></trkpt><trkpt lat="42.1385081" lon="1.4441323"><ele>1238.0</ele><time>2026-03-28T11:48:30.921Z</time></trkpt><trkpt lat="42.1380653" lon="1.4488694"><ele>1272.0</ele><time>2026-03-28T11:48:46.913Z</time></trkpt><trkpt lat="42.1363682" lon="1.4548612"><ele>1264.0</ele><time>2026-03-28T11:49:17.933Z</time></trkpt><trkpt lat="42.1386952" lon="1.4593642"><ele>1234.0</ele><time>2026-03-28T11:49:42.913Z</time></trkpt><trkpt lat="42.1386456" lon="1.4650842"><ele>1231.0</ele><time>2026-03-28T11:50:04.925Z</time></trkpt><trkpt lat="42.1400896" lon="1.4701716"><ele>1221.0</ele><time>2026-03-28T11:50:28.921Z</time></trkpt><trkpt lat="42.1405957" lon="1.474767"><ele>1265.0</ele><time>2026-03-28T11:50:47.924Z</time></trkpt><trkpt lat="42.1372569" lon="1.4733452"><ele>1272.0</ele><time>2026-03-28T11:51:29.918Z</time></trkpt><trkpt lat="42.1345523" lon="1.4704267"><ele>1227.0</ele><time>2026-03-28T11:51:49.911Z</time></trkpt><trkpt lat="42.1321769" lon="1.4671256"><ele>1195.0</ele><time>2026-03-28T11:52:17.923Z</time></trkpt><trkpt lat="42.1289314" lon="1.4684586"><ele>1199.0</ele><time>2026-03-28T11:52:42.922Z</time></trkpt><trkpt lat="42.124958" lon="1.4706732"><ele>1190.0</ele><time>2026-03-28T11:52:59.93Z</time></trkpt><trkpt lat="42.1226441" lon="1.4773159"><ele>1213.0</ele><time>2026-03-28T11:53:28.925Z</time></trkpt><trkpt lat="42.1194755" lon="1.4820846"><ele>1232.0</ele><time>2026-03-28T11:54:10.917Z</time></trkpt><trkpt lat="42.1177751" lon="1.4849064"><ele>1260.0</ele><time>2026-03-28T11:54:25.929Z</time></trkpt><trkpt lat="42.1177933" lon="1.4903988"><ele>1320.0</ele><time>2026-03-28T11:54:52.948Z</time></trkpt><trkpt lat="42.12164" lon="1.4926606"><ele>1330.0</ele><time>2026-03-28T11:55:16.924Z</time></trkpt><trkpt lat="42.1217374" lon="1.4983711"><ele>1341.0</ele><time>2026-03-28T11:55:49.938Z</time></trkpt><trkpt lat="42.1258155" lon="1.4984051"><ele>1321.0</ele><time>2026-03-28T11:56:13.916Z</time></trkpt><trkpt lat="42.1266208" lon="1.5028817"><ele>1281.0</ele><time>2026-03-28T11:56:32.925Z</time></trkpt><trkpt lat="42.1273681" lon="1.5073374"><ele>1299.0</ele><time>2026-03-28T11:56:51.937Z</time></trkpt><trkpt lat="42.128525" lon="1.5126201"><ele>1300.0</ele><time>2026-03-28T11:57:09.934Z</time></trkpt><trkpt lat="42.1301865" lon="1.5166906"><ele>1309.0</ele><time>2026-03-28T11:57:35.947Z</time></trkpt><trkpt lat="42.1336951" lon="1.5168919"><ele>1338.0</ele><time>2026-03-28T11:57:50.928Z</time></trkpt><trkpt lat="42.1345611" lon="1.5214198"><ele>1384.0</ele><time>2026-03-28T11:58:28.937Z</time></trkpt><trkpt lat="42.1375824" lon="1.5235757"><ele>1353.0</ele><time>2026-03-28T11:58:47.925Z</time></trkpt><trkpt lat="42.1356974" lon="1.525198"><ele>1420.0</ele><time>2026-03-28T11:59:02.931Z</time></trkpt><trkpt lat="42.1372723" lon="1.5312639"><ele>1444.0</ele><time>2026-03-28T11:59:35.934Z</time></trkpt><trkpt lat="42.1367273" lon="1.5350068"><ele>1460.0</ele><time>2026-03-28T11:59:56.916Z</time></trkpt><trkpt lat="42.138111" lon="1.5401234"><ele>1463.0</ele><time>2026-03-28T12:01:25.929Z</time></trkpt><trkpt lat="42.1375524" lon="1.5406958"><ele>1439.0</ele><time>2026-03-28T12:11:06.944Z</time></trkpt><trkpt lat="42.1362147" lon="1.5438503"><ele>1437.0</ele><time>2026-03-28T12:11:24.939Z</time></trkpt><trkpt lat="42.1342589" lon="1.5463798"><ele>1391.0</ele><time>2026-03-28T12:11:39.929Z</time></trkpt><trkpt lat="42.131783" lon="1.5481202"><ele>1306.0</ele><time>2026-03-28T12:11:59.928Z</time></trkpt><trkpt lat="42.1283267" lon="1.5437573"><ele>1257.0</ele><time>2026-03-28T12:12:48.922Z</time></trkpt><trkpt lat="42.1228953" lon="1.5441747"><ele>1240.0</ele><time>2026-03-28T12:13:08.932Z</time></trkpt><trkpt lat="42.1167536" lon="1.543004"><ele>1233.0</ele><time>2026-03-28T12:13:26.933Z</time></trkpt><trkpt lat="42.1126727" lon="1.5466323"><ele>1203.0</ele><time>2026-03-28T12:13:56.93Z</time></trkpt><trkpt lat="42.109389" lon="1.5455278"><ele>1246.0</ele><time>2026-03-28T12:14:18.923Z</time></trkpt><trkpt lat="42.1078336" lon="1.5437814"><ele>1274.0</ele><time>2026-03-28T12:14:29.936Z</time></trkpt><trkpt lat="42.1045409" lon="1.5427191"><ele>1305.0</ele><time>2026-03-28T12:14:44.931Z</time></trkpt><trkpt lat="42.1004762" lon="1.5417488"><ele>1312.0</ele><time>2026-03-28T12:15:20.928Z</time></trkpt><trkpt lat="42.0987828" lon="1.5387734"><ele>1318.0</ele><time>2026-03-28T12:15:39.928Z</time></trkpt><trkpt lat="42.0974665" lon="1.5335276"><ele>1305.0</ele><time>2026-03-28T12:15:59.939Z</time></trkpt><trkpt lat="42.0941269" lon="1.5318052"><ele>1233.0</ele><time>2026-03-28T12:16:15.932Z</time></trkpt><trkpt lat="42.0906277" lon="1.5260876"><ele>1137.0</ele><time>2026-03-28T12:16:55.924Z</time></trkpt><trkpt lat="42.090006" lon="1.5196343"><ele>1090.0</ele><time>2026-03-28T12:17:48.922Z</time></trkpt><trkpt lat="42.0880934" lon="1.5148222"><ele>1067.0</ele><time>2026-03-28T12:18:12.936Z</time></trkpt><trkpt lat="42.0834938" lon="1.5124129"><ele>1050.0</ele><time>2026-03-28T12:18:32.937Z</time></trkpt><trkpt lat="42.0787257" lon="1.5119305"><ele>1040.0</ele><time>2026-03-28T12:18:50.933Z</time></trkpt><trkpt lat="42.0738392" lon="1.5114228"><ele>1029.0</ele><time>2026-03-28T12:19:08.941Z</time></trkpt><trkpt lat="42.0691076" lon="1.5109446"><ele>1017.0</ele><time>2026-03-28T12:19:25.945Z</time></trkpt><trkpt lat="42.0642029" lon="1.5110568"><ele>982.0</ele><time>2026-03-28T12:19:43.938Z</time></trkpt><trkpt lat="42.0595674" lon="1.5126936"><ele>945.0</ele><time>2026-03-28T12:20:02.925Z</time></trkpt><trkpt lat="42.0559486" lon="1.5126126"><ele>867.0</ele><time>2026-03-28T12:20:20.905Z</time></trkpt><trkpt lat="42.0503343" lon="1.5121023"><ele>826.0</ele><time>2026-03-28T12:20:41.935Z</time></trkpt><trkpt lat="42.0452649" lon="1.5091346"><ele>816.0</ele><time>2026-03-28T12:21:00.941Z</time></trkpt><trkpt lat="42.0405343" lon="1.5106521"><ele>813.0</ele><time>2026-03-28T12:21:17.948Z</time></trkpt><trkpt lat="42.0386224" lon="1.5156743"><ele>790.0</ele><time>2026-03-28T12:21:44.928Z</time></trkpt><trkpt lat="42.0352802" lon="1.517088"><ele>788.0</ele><time>2026-03-28T12:22:02.927Z</time></trkpt><trkpt lat="42.0305322" lon="1.5171775"><ele>792.0</ele><time>2026-03-28T12:22:25.924Z</time></trkpt><trkpt lat="42.0265172" lon="1.5180216"><ele>789.0</ele><time>2026-03-28T12:22:43.921Z</time></trkpt><trkpt lat="42.0232483" lon="1.5133138"><ele>777.0</ele><time>2026-03-28T12:23:10.927Z</time></trkpt><trkpt lat="42.0194981" lon="1.5154646"><ele>750.0</ele><time>2026-03-28T12:23:28.925Z</time></trkpt><trkpt lat="42.0153776" lon="1.5120666"><ele>704.0</ele><time>2026-03-28T12:23:52.915Z</time></trkpt><trkpt lat="42.0129041" lon="1.5152529"><ele>700.0</ele><time>2026-03-28T12:24:30.929Z</time></trkpt><trkpt lat="42.0097097" lon="1.5172782"><ele>681.0</ele><time>2026-03-28T12:24:47.925Z</time></trkpt><trkpt lat="42.005648" lon="1.5168327"><ele>672.0</ele><time>2026-03-28T12:25:02.936Z</time></trkpt><trkpt lat="42.0010095" lon="1.5181285"><ele>677.0</ele><time>2026-03-28T12:25:25.93Z</time></trkpt><trkpt lat="41.998858" lon="1.5204182"><ele>669.0</ele><time>2026-03-28T12:25:57.927Z</time></trkpt><trkpt lat="41.9967988" lon="1.5208243"><ele>670.0</ele><time>2026-03-28T12:26:29.935Z</time></trkpt><trkpt lat="41.9955542" lon="1.5216026"><ele>667.0</ele><time>2026-03-28T12:26:50.918Z</time></trkpt><trkpt lat="41.9944695" lon="1.5227099"><ele>665.0</ele><time>2026-03-28T12:27:10.926Z</time></trkpt><trkpt lat="41.9938295" lon="1.5243085"><ele>680.0</ele><time>2026-03-28T12:27:28.934Z</time></trkpt><trkpt lat="41.9942822" lon="1.5279481"><ele>681.0</ele><time>2026-03-28T12:28:13.934Z</time></trkpt><trkpt lat="41.9944736" lon="1.5307015"><ele>685.0</ele><time>2026-03-28T12:28:31.931Z</time></trkpt><trkpt lat="41.9930152" lon="1.5350277"><ele>651.0</ele><time>2026-03-28T12:28:51.936Z</time></trkpt><trkpt lat="41.9954724" lon="1.538308"><ele>617.0</ele><time>2026-03-28T12:29:38.938Z</time></trkpt><trkpt lat="41.9988202" lon="1.5416366"><ele>604.0</ele><time>2026-03-28T12:29:54.936Z</time></trkpt><trkpt lat="42.0017693" lon="1.5469493"><ele>593.0</ele><time>2026-03-28T12:30:14.926Z</time></trkpt><trkpt lat="42.0021528" lon="1.5525614"><ele>584.0</ele><time>2026-03-28T12:30:38.937Z</time></trkpt><trkpt lat="42.0020818" lon="1.5580826"><ele>571.0</ele><time>2026-03-28T12:30:54.924Z</time></trkpt><trkpt lat="42.0011931" lon="1.5653441"><ele>544.0</ele><time>2026-03-28T12:31:14.93Z</time></trkpt><trkpt lat="42.0018833" lon="1.5716223"><ele>536.0</ele><time>2026-03-28T12:31:40.933Z</time></trkpt><trkpt lat="42.0003721" lon="1.5757973"><ele>543.0</ele><time>2026-03-28T12:32:55.947Z</time></trkpt><trkpt lat="41.9998936" lon="1.5814468"><ele>559.0</ele><time>2026-03-28T12:33:11.931Z</time></trkpt><trkpt lat="41.9962932" lon="1.5880942"><ele>592.0</ele><time>2026-03-28T12:33:31.927Z</time></trkpt><trkpt lat="41.9968129" lon="1.5965854"><ele>637.0</ele><time>2026-03-28T12:34:04.932Z</time></trkpt><trkpt lat="42.0008303" lon="1.6042842"><ele>601.0</ele><time>2026-03-28T12:34:27.919Z</time></trkpt><trkpt lat="41.9997546" lon="1.6114265"><ele>637.0</ele><time>2026-03-28T12:34:46.93Z</time></trkpt><trkpt lat="42.0008303" lon="1.6042842"><ele>601.0</ele><time>2026-03-28T12:34:27.919Z</time></trkpt><trkpt lat="41.9997546" lon="1.6114265"><ele>601.0</ele><time>2026-03-28T12:34:46.93Z</time></trkpt><trkpt lat="41.9941402" lon="1.6181739"><ele>628.0</ele><time>2026-03-28T12:35:06.926Z</time></trkpt><trkpt lat="41.9922471" lon="1.6253856"><ele>611.0</ele><time>2026-03-28T12:35:26.921Z</time></trkpt><trkpt lat="41.9916375" lon="1.6335347"><ele>590.0</ele><time>2026-03-28T12:35:45.935Z</time></trkpt><trkpt lat="41.9910363" lon="1.6417757"><ele>573.0</ele><time>2026-03-28T12:36:14.925Z</time></trkpt><trkpt lat="41.9950903" lon="1.6427935"><ele>569.0</ele><time>2026-03-28T12:36:54.937Z</time></trkpt><trkpt lat="41.9974472" lon="1.6446509"><ele>551.0</ele><time>2026-03-28T12:37:12.937Z</time></trkpt><trkpt lat="41.9965679" lon="1.6481433"><ele>535.0</ele><time>2026-03-28T12:37:29.929Z</time></trkpt><trkpt lat="41.9937727" lon="1.6534816"><ele>562.0</ele><time>2026-03-28T12:37:54.925Z</time></trkpt><trkpt lat="41.9981917" lon="1.6559099"><ele>596.0</ele><time>2026-03-28T12:38:15.939Z</time></trkpt><trkpt lat="42.0026222" lon="1.658546"><ele>601.0</ele><time>2026-03-28T12:38:39.952Z</time></trkpt><trkpt lat="42.0070441" lon="1.6611448"><ele>649.0</ele><time>2026-03-28T12:39:05.94Z</time></trkpt><trkpt lat="42.0115269" lon="1.6632435"><ele>651.0</ele><time>2026-03-28T12:39:30.932Z</time></trkpt><trkpt lat="42.0149258" lon="1.6662382"><ele>670.0</ele><time>2026-03-28T12:49:38.936Z</time></trkpt><trkpt lat="42.0163022" lon="1.6705886"><ele>692.0</ele><time>2026-03-28T12:50:02.929Z</time></trkpt><trkpt lat="42.0186234" lon="1.6740067"><ele>722.0</ele><time>2026-03-28T12:50:19.932Z</time></trkpt><trkpt lat="42.0221134" lon="1.6742875"><ele>712.0</ele><time>2026-03-28T12:50:42.92Z</time></trkpt><trkpt lat="42.0249259" lon="1.6749724"><ele>725.0</ele><time>2026-03-28T12:50:58.932Z</time></trkpt><trkpt lat="42.0283536" lon="1.6761919"><ele>738.0</ele><time>2026-03-28T12:51:17.929Z</time></trkpt><trkpt lat="42.0325237" lon="1.6772447"><ele>759.0</ele><time>2026-03-28T12:51:41.932Z</time></trkpt><trkpt lat="42.0335318" lon="1.6826134"><ele>785.0</ele><time>2026-03-28T12:52:08.929Z</time></trkpt><trkpt lat="42.0314956" lon="1.6883927"><ele>805.0</ele><time>2026-03-28T12:52:33.925Z</time></trkpt><trkpt lat="42.0291959" lon="1.6943333"><ele>816.0</ele><time>2026-03-28T12:52:58.939Z</time></trkpt><trkpt lat="42.0277213" lon="1.7015613"><ele>790.0</ele><time>2026-03-28T12:53:16.935Z</time></trkpt><trkpt lat="42.0284177" lon="1.708921"><ele>768.0</ele><time>2026-03-28T12:53:40.94Z</time></trkpt><trkpt lat="42.0282594" lon="1.7146066"><ele>733.0</ele><time>2026-03-28T12:53:53.934Z</time></trkpt><trkpt lat="42.0251566" lon="1.7216453"><ele>728.0</ele><time>2026-03-28T12:54:23.932Z</time></trkpt><trkpt lat="42.021173" lon="1.7230936"><ele>711.0</ele><time>2026-03-28T12:55:03.941Z</time></trkpt><trkpt lat="42.0171809" lon="1.7212868"><ele>704.0</ele><time>2026-03-28T12:55:27.948Z</time></trkpt><trkpt lat="42.0129678" lon="1.7181383"><ele>698.0</ele><time>2026-03-28T12:55:48.959Z</time></trkpt><trkpt lat="42.0090052" lon="1.7161817"><ele>696.0</ele><time>2026-03-28T12:56:09.956Z</time></trkpt><trkpt lat="42.0056086" lon="1.7150129"><ele>726.0</ele><time>2026-03-28T12:56:36.957Z</time></trkpt><trkpt lat="42.0027199" lon="1.7123873"><ele>724.0</ele><time>2026-03-28T12:57:02.982Z</time></trkpt><trkpt lat="41.9993989" lon="1.7135346"><ele>669.0</ele><time>2026-03-28T12:57:25.976Z</time></trkpt><trkpt lat="41.9953742" lon="1.7144317"><ele>673.0</ele><time>2026-03-28T12:57:44.963Z</time></trkpt><trkpt lat="41.9932479" lon="1.7118556"><ele>665.0</ele><time>2026-03-28T12:58:05.959Z</time></trkpt><trkpt lat="41.9891748" lon="1.7125003"><ele>640.0</ele><time>2026-03-28T12:58:24.967Z</time></trkpt><trkpt lat="41.9838057" lon="1.7138329"><ele>635.0</ele><time>2026-03-28T12:58:45.975Z</time></trkpt><trkpt lat="41.9814156" lon="1.7104367"><ele>616.0</ele><time>2026-03-28T12:59:01.969Z</time></trkpt><trkpt lat="41.9774847" lon="1.7087699"><ele>596.0</ele><time>2026-03-28T12:59:19.961Z</time></trkpt><trkpt lat="41.9730696" lon="1.7061509"><ele>589.0</ele><time>2026-03-28T12:59:41.959Z</time></trkpt><trkpt lat="41.969304" lon="1.7037318"><ele>575.0</ele><time>2026-03-28T13:00:04.967Z</time></trkpt><trkpt lat="41.9652911" lon="1.7024986"><ele>586.0</ele><time>2026-03-28T13:00:20.993Z</time></trkpt><trkpt lat="41.96055" lon="1.7010618"><ele>585.0</ele><time>2026-03-28T13:00:38.987Z</time></trkpt><trkpt lat="41.956673" lon="1.7027264"><ele>599.0</ele><time>2026-03-28T13:00:56.981Z</time></trkpt><trkpt lat="41.9525484" lon="1.7019189"><ele>596.0</ele><time>2026-03-28T13:01:14.978Z</time></trkpt><trkpt lat="41.9482095" lon="1.6993186"><ele>568.0</ele><time>2026-03-28T13:01:32.979Z</time></trkpt><trkpt lat="41.942349" lon="1.6968869"><ele>542.0</ele><time>2026-03-28T13:02:02.978Z</time></trkpt><trkpt lat="41.9391477" lon="1.6951223"><ele>508.0</ele><time>2026-03-28T13:02:20.972Z</time></trkpt><trkpt lat="41.9356626" lon="1.695094"><ele>481.0</ele><time>2026-03-28T13:02:41.962Z</time></trkpt><trkpt lat="41.9319946" lon="1.6925815"><ele>460.0</ele><time>2026-03-28T13:03:00.973Z</time></trkpt><trkpt lat="41.9293355" lon="1.6860757"><ele>447.0</ele><time>2026-03-28T13:10:33.956Z</time></trkpt><trkpt lat="41.926898" lon="1.6827267"><ele>439.0</ele><time>2026-03-28T13:10:55.956Z</time></trkpt><trkpt lat="41.9234564" lon="1.6821513"><ele>415.0</ele><time>2026-03-28T13:11:14.959Z</time></trkpt><trkpt lat="41.9201202" lon="1.6829623"><ele>422.0</ele><time>2026-03-28T13:11:38.959Z</time></trkpt><trkpt lat="41.9183812" lon="1.6800949"><ele>413.0</ele><time>2026-03-28T13:12:12.951Z</time></trkpt><trkpt lat="41.9189067" lon="1.6829102"><ele>414.0</ele><time>2026-03-28T13:12:29.95Z</time></trkpt><trkpt lat="41.9179548" lon="1.6894069"><ele>402.0</ele><time>2026-03-28T13:12:48.94Z</time></trkpt><trkpt lat="41.9188588" lon="1.6958651"><ele>398.0</ele><time>2026-03-28T13:13:08.954Z</time></trkpt><trkpt lat="41.9156363" lon="1.7006356"><ele>422.0</ele><time>2026-03-28T13:13:25.953Z</time></trkpt><trkpt lat="41.9113908" lon="1.7038798"><ele>414.0</ele><time>2026-03-28T13:13:42.954Z</time></trkpt><trkpt lat="41.9067378" lon="1.7052413"><ele>395.0</ele><time>2026-03-28T13:13:59.953Z</time></trkpt><trkpt lat="41.9016621" lon="1.7081883"><ele>380.0</ele><time>2026-03-28T13:14:21.958Z</time></trkpt><trkpt lat="41.8997664" lon="1.7150926"><ele>369.0</ele><time>2026-03-28T13:14:39.95Z</time></trkpt><trkpt lat="41.894841" lon="1.718668"><ele>377.0</ele><time>2026-03-28T13:14:59.966Z</time></trkpt><trkpt lat="41.8905724" lon="1.715923"><ele>372.0</ele><time>2026-03-28T13:15:17.95Z</time></trkpt><trkpt lat="41.8865743" lon="1.7197159"><ele>345.0</ele><time>2026-03-28T13:15:35.935Z</time></trkpt><trkpt lat="41.8820052" lon="1.718071"><ele>340.0</ele><time>2026-03-28T13:15:54.959Z</time></trkpt><trkpt lat="41.8788018" lon="1.7130343"><ele>343.0</ele><time>2026-03-28T13:16:13.958Z</time></trkpt><trkpt lat="41.8742902" lon="1.710927"><ele>342.0</ele><time>2026-03-28T13:16:36.941Z</time></trkpt><trkpt lat="41.8722781" lon="1.7159381"><ele>355.0</ele><time>2026-03-28T13:16:56.95Z</time></trkpt><trkpt lat="41.8688136" lon="1.7202703"><ele>362.0</ele><time>2026-03-28T13:17:13.953Z</time></trkpt><trkpt lat="41.8647897" lon="1.7211007"><ele>337.0</ele><time>2026-03-28T13:17:33.936Z</time></trkpt><trkpt lat="41.861595" lon="1.7192694"><ele>358.0</ele><time>2026-03-28T13:17:52.952Z</time></trkpt><trkpt lat="41.8574393" lon="1.7209889"><ele>344.0</ele><time>2026-03-28T13:18:08.962Z</time></trkpt><trkpt lat="41.8512284" lon="1.7225333"><ele>339.0</ele><time>2026-03-28T13:18:28.962Z</time></trkpt><trkpt lat="41.846331" lon="1.7224724"><ele>354.0</ele><time>2026-03-28T13:18:49.959Z</time></trkpt><trkpt lat="41.8423438" lon="1.72611"><ele>390.0</ele><time>2026-03-28T13:19:12.942Z</time></trkpt><trkpt lat="41.8394813" lon="1.7313615"><ele>363.0</ele><time>2026-03-28T13:19:31.955Z</time></trkpt><trkpt lat="41.8396834" lon="1.7370128"><ele>325.0</ele><time>2026-03-28T13:19:48.955Z</time></trkpt><trkpt lat="41.8362579" lon="1.7414928"><ele>370.0</ele><time>2026-03-28T13:20:09.972Z</time></trkpt><trkpt lat="41.8322401" lon="1.7452856"><ele>317.0</ele><time>2026-03-28T13:20:31.917Z</time></trkpt><trkpt lat="41.8281117" lon="1.7466176"><ele>298.0</ele><time>2026-03-28T13:20:50.968Z</time></trkpt><trkpt lat="41.8243654" lon="1.7489767"><ele>278.0</ele><time>2026-03-28T13:21:08.964Z</time></trkpt><trkpt lat="41.8212018" lon="1.7527502"><ele>292.0</ele><time>2026-03-28T13:21:26.972Z</time></trkpt><trkpt lat="41.8179351" lon="1.7563822"><ele>291.0</ele><time>2026-03-28T13:21:46.95Z</time></trkpt><trkpt lat="41.8142232" lon="1.7586321"><ele>268.0</ele><time>2026-03-28T13:22:04.974Z</time></trkpt><trkpt lat="41.8103348" lon="1.7610189"><ele>271.0</ele><time>2026-03-28T13:22:21.974Z</time></trkpt><trkpt lat="41.8057468" lon="1.7625587"><ele>280.0</ele><time>2026-03-28T13:22:41.962Z</time></trkpt><trkpt lat="41.8031318" lon="1.7655971"><ele>281.0</ele><time>2026-03-28T13:22:58.968Z</time></trkpt><trkpt lat="41.8000151" lon="1.7692748"><ele>270.0</ele><time>2026-03-28T13:23:17.973Z</time></trkpt><trkpt lat="41.7982439" lon="1.7741967"><ele>265.0</ele><time>2026-03-28T13:23:42.975Z</time></trkpt><trkpt lat="41.7963405" lon="1.7768009"><ele>268.0</ele><time>2026-03-28T13:23:57.972Z</time></trkpt><trkpt lat="41.7929866" lon="1.7780963"><ele>277.0</ele><time>2026-03-28T13:24:16.947Z</time></trkpt><trkpt lat="41.7906844" lon="1.7815814"><ele>286.0</ele><time>2026-03-28T13:24:36.971Z</time></trkpt><trkpt lat="41.788173" lon="1.7850023"><ele>286.0</ele><time>2026-03-28T13:24:51.959Z</time></trkpt><trkpt lat="41.7833059" lon="1.7901222"><ele>264.0</ele><time>2026-03-28T13:25:13.971Z</time></trkpt><trkpt lat="41.77944" lon="1.7922296"><ele>296.0</ele><time>2026-03-28T13:25:32.966Z</time></trkpt><trkpt lat="41.7771618" lon="1.7968419"><ele>294.0</ele><time>2026-03-28T13:26:10.969Z</time></trkpt><trkpt lat="41.7782865" lon="1.8012255"><ele>286.0</ele><time>2026-03-28T13:26:23.98Z</time></trkpt><trkpt lat="41.7790625" lon="1.807818"><ele>289.0</ele><time>2026-03-28T13:26:40.977Z</time></trkpt><trkpt lat="41.7792912" lon="1.8151144"><ele>292.0</ele><time>2026-03-28T13:26:55.979Z</time></trkpt><trkpt lat="41.7795202" lon="1.8223262"><ele>315.0</ele><time>2026-03-28T13:27:13.985Z</time></trkpt><trkpt lat="41.7796807" lon="1.8296934"><ele>314.0</ele><time>2026-03-28T13:27:31.964Z</time></trkpt><trkpt lat="41.7805153" lon="1.8350497"><ele>314.0</ele><time>2026-03-28T16:12:18.97Z</time></trkpt><trkpt lat="41.7812341" lon="1.8376337"><ele>318.0</ele><time>2026-03-28T16:12:40.958Z</time></trkpt><trkpt lat="41.7819559" lon="1.8401888"><ele>315.0</ele><time>2026-03-28T16:13:04.962Z</time></trkpt><trkpt lat="41.7824241" lon="1.841897"><ele>317.0</ele><time>2026-03-28T16:13:19.967Z</time></trkpt><trkpt lat="41.7831608" lon="1.8445432"><ele>312.0</ele><time>2026-03-28T16:13:36.968Z</time></trkpt><trkpt lat="41.7821951" lon="1.8480955"><ele>303.0</ele><time>2026-03-28T16:13:58.965Z</time></trkpt><trkpt lat="41.7805302" lon="1.8511578"><ele>296.0</ele><time>2026-03-28T16:14:14.966Z</time></trkpt><trkpt lat="41.7789248" lon="1.8554005"><ele>312.0</ele><time>2026-03-28T16:14:41.96Z</time></trkpt><trkpt lat="41.7773009" lon="1.8594261"><ele>301.0</ele><time>2026-03-28T16:15:07.945Z</time></trkpt><trkpt lat="41.7752956" lon="1.8619661"><ele>292.0</ele><time>2026-03-28T16:15:26.964Z</time></trkpt><trkpt lat="41.7751689" lon="1.8666292"><ele>288.0</ele><time>2026-03-28T16:15:53.952Z</time></trkpt><trkpt lat="41.774992" lon="1.870433"><ele>285.0</ele><time>2026-03-28T16:16:08.952Z</time></trkpt><trkpt lat="41.7746774" lon="1.8769202"><ele>277.0</ele><time>2026-03-28T16:16:33.931Z</time></trkpt><trkpt lat="41.7745145" lon="1.8815359"><ele>279.0</ele><time>2026-03-28T16:16:53.952Z</time></trkpt><trkpt lat="41.7744755" lon="1.8879865"><ele>285.0</ele><time>2026-03-28T16:17:12.956Z</time></trkpt><trkpt lat="41.7747986" lon="1.894383"><ele>295.0</ele><time>2026-03-28T16:17:30.958Z</time></trkpt><trkpt lat="41.7736279" lon="1.9005647"><ele>267.0</ele><time>2026-03-28T16:17:52.938Z</time></trkpt><trkpt lat="41.7702107" lon="1.901603"><ele>259.0</ele><time>2026-03-28T16:18:08.922Z</time></trkpt><trkpt lat="41.7673647" lon="1.9017012"><ele>251.0</ele><time>2026-03-28T16:18:31.967Z</time></trkpt><trkpt lat="41.7629723" lon="1.8987865"><ele>237.0</ele><time>2026-03-28T16:18:48.968Z</time></trkpt><trkpt lat="41.7593715" lon="1.9028779"><ele>256.0</ele><time>2026-03-28T16:19:37.947Z</time></trkpt><trkpt lat="41.7608713" lon="1.9050769"><ele>289.0</ele><time>2026-03-28T16:19:48.925Z</time></trkpt><trkpt lat="41.7641373" lon="1.9122058"><ele>309.0</ele><time>2026-03-28T16:20:21.944Z</time></trkpt><trkpt lat="41.7652037" lon="1.9183613"><ele>313.0</ele><time>2026-03-28T16:20:37.947Z</time></trkpt><trkpt lat="41.7664486" lon="1.9254098"><ele>329.0</ele><time>2026-03-28T16:20:56.958Z</time></trkpt><trkpt lat="41.7684144" lon="1.9312017"><ele>358.0</ele><time>2026-03-28T16:21:14.949Z</time></trkpt><trkpt lat="41.7689557" lon="1.9387002"><ele>386.0</ele><time>2026-03-28T16:21:37.949Z</time></trkpt><trkpt lat="41.7699633" lon="1.9459024"><ele>400.0</ele><time>2026-03-28T16:22:03.954Z</time></trkpt><trkpt lat="41.7716514" lon="1.9500543"><ele>418.0</ele><time>2026-03-28T16:22:22.954Z</time></trkpt><trkpt lat="41.7708659" lon="1.9545389"><ele>438.0</ele><time>2026-03-28T16:22:51.962Z</time></trkpt><trkpt lat="41.7722311" lon="1.957698"><ele>446.0</ele><time>2026-03-28T16:23:11.953Z</time></trkpt><trkpt lat="41.7735242" lon="1.9619112"><ele>459.0</ele><time>2026-03-28T16:23:32.966Z</time></trkpt><trkpt lat="41.7751888" lon="1.9660075"><ele>460.0</ele><time>2026-03-28T16:23:54.969Z</time></trkpt><trkpt lat="41.7768507" lon="1.9701836"><ele>482.0</ele><time>2026-03-28T16:24:10.959Z</time></trkpt><trkpt lat="41.7792297" lon="1.976987"><ele>500.0</ele><time>2026-03-28T16:24:32.965Z</time></trkpt><trkpt lat="41.7809635" lon="1.9818815"><ele>514.0</ele><time>2026-03-28T16:24:51.955Z</time></trkpt><trkpt lat="41.7827177" lon="1.9857927"><ele>521.0</ele><time>2026-03-28T16:25:08.952Z</time></trkpt><trkpt lat="41.78686" lon="1.9868491"><ele>550.0</ele><time>2026-03-28T16:25:34.956Z</time></trkpt><trkpt lat="41.7886375" lon="1.9917885"><ele>542.0</ele><time>2026-03-28T16:26:17.94Z</time></trkpt><trkpt lat="41.7883478" lon="1.9945398"><ele>551.0</ele><time>2026-03-28T16:26:36.946Z</time></trkpt><trkpt lat="41.7911184" lon="1.9949673"><ele>551.0</ele><time>2026-03-28T16:27:04.958Z</time></trkpt><trkpt lat="41.7930614" lon="1.9961599"><ele>555.0</ele><time>2026-03-28T16:27:22.963Z</time></trkpt><trkpt lat="41.795151" lon="1.9985493"><ele>558.0</ele><time>2026-03-28T16:27:40.966Z</time></trkpt><trkpt lat="41.7975737" lon="2.0019494"><ele>574.0</ele><time>2026-03-28T16:28:02.96Z</time></trkpt><trkpt lat="41.7984289" lon="2.0054065"><ele>592.0</ele><time>2026-03-28T16:28:13.958Z</time></trkpt><trkpt lat="41.8000857" lon="2.0124256"><ele>612.0</ele><time>2026-03-28T16:28:31.976Z</time></trkpt><trkpt lat="41.801201" lon="2.0198107"><ele>631.0</ele><time>2026-03-28T16:28:53.954Z</time></trkpt><trkpt lat="41.8017168" lon="2.0261878"><ele>639.0</ele><time>2026-03-28T16:29:14.95Z</time></trkpt><trkpt lat="41.8024099" lon="2.031002"><ele>648.0</ele><time>2026-03-28T16:29:27.958Z</time></trkpt><trkpt lat="41.8053013" lon="2.0374075"><ele>672.0</ele><time>2026-03-28T16:29:48.954Z</time></trkpt><trkpt lat="41.8074265" lon="2.0432958"><ele>659.0</ele><time>2026-03-28T16:30:09.949Z</time></trkpt><trkpt lat="41.8090247" lon="2.0484017"><ele>661.0</ele><time>2026-03-28T16:30:24.964Z</time></trkpt><trkpt lat="41.8110212" lon="2.0544933"><ele>679.0</ele><time>2026-03-28T16:30:42.945Z</time></trkpt><trkpt lat="41.8116812" lon="2.060909"><ele>699.0</ele><time>2026-03-28T16:30:57.97Z</time></trkpt><trkpt lat="41.8123756" lon="2.068486"><ele>723.0</ele><time>2026-03-28T16:31:14.955Z</time></trkpt><trkpt lat="41.8131159" lon="2.0765931"><ele>721.0</ele><time>2026-03-28T16:31:34.956Z</time></trkpt><trkpt lat="41.8127676" lon="2.0820128"><ele>706.0</ele><time>2026-03-28T16:31:53.963Z</time></trkpt><trkpt lat="41.8117975" lon="2.0873437"><ele>716.0</ele><time>2026-03-28T16:32:16.945Z</time></trkpt><trkpt lat="41.8112164" lon="2.0909391"><ele>701.0</ele><time>2026-03-28T16:32:37.949Z</time></trkpt><trkpt lat="41.8101547" lon="2.0943384"><ele>700.0</ele><time>2026-03-28T16:33:19.961Z</time></trkpt><trkpt lat="41.8090701" lon="2.0976697"><ele>697.0</ele><time>2026-03-28T16:33:54.954Z</time></trkpt><trkpt lat="41.809361" lon="2.0995323"><ele>685.0</ele><time>2026-03-28T16:35:00.945Z</time></trkpt><trkpt lat="41.8091439" lon="2.1022932"><ele>686.0</ele><time>2026-03-28T16:35:22.965Z</time></trkpt><trkpt lat="41.8086645" lon="2.1050381"><ele>678.0</ele><time>2026-03-28T16:35:50.956Z</time></trkpt><trkpt lat="41.8096388" lon="2.1074413"><ele>683.0</ele><time>2026-03-28T16:36:10.96Z</time></trkpt><trkpt lat="41.8106652" lon="2.1107935"><ele>700.0</ele><time>2026-03-28T16:36:27.947Z</time></trkpt><trkpt lat="41.8133166" lon="2.1160313"><ele>712.0</ele><time>2026-03-28T16:36:44.963Z</time></trkpt><trkpt lat="41.8136388" lon="2.1218372"><ele>735.0</ele><time>2026-03-28T16:36:59.971Z</time></trkpt><trkpt lat="41.8140531" lon="2.1291963"><ele>767.0</ele><time>2026-03-28T16:37:16.965Z</time></trkpt><trkpt lat="41.8154041" lon="2.1362584"><ele>796.0</ele><time>2026-03-28T16:37:33.965Z</time></trkpt><trkpt lat="41.8163409" lon="2.142724"><ele>815.0</ele><time>2026-03-28T16:38:02.964Z</time></trkpt><trkpt lat="41.8171769" lon="2.1481728"><ele>831.0</ele><time>2026-03-28T16:38:23.955Z</time></trkpt><trkpt lat="41.816668" lon="2.1520128"><ele>850.0</ele><time>2026-03-28T16:38:39.948Z</time></trkpt><trkpt lat="41.8194128" lon="2.1582392"><ele>855.0</ele><time>2026-03-28T16:38:56.961Z</time></trkpt><trkpt lat="41.8225805" lon="2.1617454"><ele>876.0</ele><time>2026-03-28T16:39:16.954Z</time></trkpt><trkpt lat="41.824796" lon="2.1663374"><ele>885.0</ele><time>2026-03-28T16:39:35.953Z</time></trkpt><trkpt lat="41.8258808" lon="2.1707163"><ele>902.0</ele><time>2026-03-28T16:40:00.951Z</time></trkpt><trkpt lat="41.8278959" lon="2.1756218"><ele>908.0</ele><time>2026-03-28T16:40:16.95Z</time></trkpt><trkpt lat="41.8272813" lon="2.1821729"><ele>928.0</ele><time>2026-03-28T16:40:37.944Z</time></trkpt><trkpt lat="41.827232" lon="2.1887627"><ele>913.0</ele><time>2026-03-28T16:40:57.962Z</time></trkpt><trkpt lat="41.8250036" lon="2.1934116"><ele>883.0</ele><time>2026-03-28T16:41:14.937Z</time></trkpt><trkpt lat="41.8289463" lon="2.1957999"><ele>844.0</ele><time>2026-03-28T16:41:54.933Z</time></trkpt><trkpt lat="41.8337259" lon="2.1923283"><ele>842.0</ele><time>2026-03-28T16:42:31.965Z</time></trkpt><trkpt lat="41.8370776" lon="2.1929624"><ele>743.0</ele><time>2026-03-28T16:43:03.94Z</time></trkpt><trkpt lat="41.8412762" lon="2.1976309"><ele>731.0</ele><time>2026-03-28T16:44:12.943Z</time></trkpt><trkpt lat="41.8468958" lon="2.2012433"><ele>717.0</ele><time>2026-03-28T16:44:40.958Z</time></trkpt><trkpt lat="41.8517014" lon="2.2021943"><ele>687.0</ele><time>2026-03-28T16:45:03.945Z</time></trkpt><trkpt lat="41.8545791" lon="2.1997541"><ele>663.0</ele><time>2026-03-28T16:45:21.943Z</time></trkpt><trkpt lat="41.8580259" lon="2.2010504"><ele>642.0</ele><time>2026-03-28T16:45:47.944Z</time></trkpt><trkpt lat="41.8620874" lon="2.2062139"><ele>640.0</ele><time>2026-03-28T16:46:07.956Z</time></trkpt><trkpt lat="41.8643884" lon="2.2117786"><ele>628.0</ele><time>2026-03-28T16:46:23.961Z</time></trkpt><trkpt lat="41.8685948" lon="2.216338"><ele>600.0</ele><time>2026-03-28T16:46:38.949Z</time></trkpt><trkpt lat="41.8741494" lon="2.2197214"><ele>568.0</ele><time>2026-03-28T16:47:01.947Z</time></trkpt><trkpt lat="41.8760227" lon="2.2265725"><ele>560.0</ele><time>2026-03-28T16:47:26.936Z</time></trkpt><trkpt lat="41.8791515" lon="2.2301693"><ele>543.0</ele><time>2026-03-28T16:47:40.931Z</time></trkpt><trkpt lat="41.8807766" lon="2.2361996"><ele>534.0</ele><time>2026-03-28T16:47:57.946Z</time></trkpt><trkpt lat="41.8831117" lon="2.2417196"><ele>519.0</ele><time>2026-03-28T16:48:56.947Z</time></trkpt><trkpt lat="41.8870848" lon="2.2434058"><ele>514.0</ele><time>2026-03-28T16:49:12.945Z</time></trkpt><trkpt lat="41.8918781" lon="2.2447563"><ele>506.0</ele><time>2026-03-28T16:49:29.953Z</time></trkpt><trkpt lat="41.8974125" lon="2.2462559"><ele>498.0</ele><time>2026-03-28T16:49:48.957Z</time></trkpt><trkpt lat="41.9027624" lon="2.2477341"><ele>495.0</ele><time>2026-03-28T16:50:07.952Z</time></trkpt><trkpt lat="41.9074054" lon="2.2491647"><ele>491.0</ele><time>2026-03-28T16:50:25.951Z</time></trkpt><trkpt lat="41.9113888" lon="2.2501546"><ele>489.0</ele><time>2026-03-28T16:50:56.94Z</time></trkpt><trkpt lat="41.9148594" lon="2.2509741"><ele>490.0</ele><time>2026-03-28T16:51:16.941Z</time></trkpt><trkpt lat="41.9181969" lon="2.2520403"><ele>488.0</ele><time>2026-03-28T16:51:41.939Z</time></trkpt><trkpt lat="41.9185309" lon="2.254716"><ele>489.0</ele><time>2026-03-28T16:51:59.951Z</time></trkpt><trkpt lat="41.9177833" lon="2.2572667"><ele>486.0</ele><time>2026-03-28T16:52:28.945Z</time></trkpt><trkpt lat="41.9159335" lon="2.2584772"><ele>499.0</ele><time>2026-03-28T16:53:06.937Z</time></trkpt><trkpt lat="41.9142147" lon="2.2570065"><ele>499.0</ele><time>2026-03-28T16:53:41.935Z</time></trkpt></trkseg></trk></gpx>